<?xml version="1.0" encoding="UTF-8" standalone="no" ?>
<gpx xmlns="http://www.topografix.com/GPX/1/1" xmlns:xsi="http://www.w3.org/2001/XMLSchema-instance" xsi:schemaLocation="http://www.topografix.com/GPX/1/1 http://www.topografix.com/GPX/1/1/gpx.xsd" version="1.1" creator="VisuGPX - https://www.visugpx.com">
  <metadata>
    <name>VTT - Tour du Couard</name>
    <desc><![CDATA[VTT - Les Dourbes / Pas de la Faye / Pas d\'Archail / Le Vabre / Terres noires / Relevé terrain:   1 350m / 30 km

Le CR 1001 sentiers:
[url]http://www.1001sentiers.fr/forum/viewtopic.php?f=35&t=1669[/url]]]></desc>
  </metadata>
  <trk>
    <name><![CDATA[2010-10-23T07:44:15Z]]></name>
    <trkseg>
      <trkpt lat="44.06589" lon="6.30984">
        <ele>1040.2839355</ele>
        <time>2010-10-23T07:44:16Z</time>
      </trkpt>
      <trkpt lat="44.06592" lon="6.30984">
        <ele>1039.3225098</ele>
        <time>2010-10-23T07:44:23Z</time>
      </trkpt>
      <trkpt lat="44.06608" lon="6.30997">
        <ele>1032.5932617</ele>
        <time>2010-10-23T07:44:30Z</time>
      </trkpt>
      <trkpt lat="44.06615" lon="6.31003">
        <ele>1031.6318359</ele>
        <time>2010-10-23T07:44:35Z</time>
      </trkpt>
      <trkpt lat="44.06621" lon="6.31008">
        <ele>1029.7092285</ele>
        <time>2010-10-23T07:44:40Z</time>
      </trkpt>
      <trkpt lat="44.06639" lon="6.31025">
        <ele>1028.267334</ele>
        <time>2010-10-23T07:44:45Z</time>
      </trkpt>
      <trkpt lat="44.06656" lon="6.31043">
        <ele>1025.3833008</ele>
        <time>2010-10-23T07:44:51Z</time>
      </trkpt>
      <trkpt lat="44.06674" lon="6.31061">
        <ele>1024.4221191</ele>
        <time>2010-10-23T07:44:58Z</time>
      </trkpt>
      <trkpt lat="44.0669" lon="6.31073">
        <ele>1026.8254395</ele>
        <time>2010-10-23T07:45:05Z</time>
      </trkpt>
      <trkpt lat="44.06701" lon="6.31093">
        <ele>1028.7480469</ele>
        <time>2010-10-23T07:45:12Z</time>
      </trkpt>
      <trkpt lat="44.06719" lon="6.31119">
        <ele>1026.3447266</ele>
        <time>2010-10-23T07:45:18Z</time>
      </trkpt>
      <trkpt lat="44.06723" lon="6.31124">
        <ele>1025.8640137</ele>
        <time>2010-10-23T07:45:19Z</time>
      </trkpt>
      <trkpt lat="44.06732" lon="6.31144">
        <ele>1025.3833008</ele>
        <time>2010-10-23T07:45:23Z</time>
      </trkpt>
      <trkpt lat="44.06735" lon="6.31156">
        <ele>1025.3833008</ele>
        <time>2010-10-23T07:45:25Z</time>
      </trkpt>
      <trkpt lat="44.06749" lon="6.31178">
        <ele>1024.4221191</ele>
        <time>2010-10-23T07:45:30Z</time>
      </trkpt>
      <trkpt lat="44.06757" lon="6.31182">
        <ele>1023.4609375</ele>
        <time>2010-10-23T07:45:32Z</time>
      </trkpt>
      <trkpt lat="44.0677" lon="6.31183">
        <ele>1022.4995117</ele>
        <time>2010-10-23T07:45:35Z</time>
      </trkpt>
      <trkpt lat="44.06798" lon="6.31177">
        <ele>1020.5769043</ele>
        <time>2010-10-23T07:45:43Z</time>
      </trkpt>
      <trkpt lat="44.06811" lon="6.31167">
        <ele>1020.5769043</ele>
        <time>2010-10-23T07:45:48Z</time>
      </trkpt>
      <trkpt lat="44.06813" lon="6.31147">
        <ele>1025.3833008</ele>
        <time>2010-10-23T07:45:53Z</time>
      </trkpt>
      <trkpt lat="44.06811" lon="6.31127">
        <ele>1032.5932617</ele>
        <time>2010-10-23T07:45:59Z</time>
      </trkpt>
      <trkpt lat="44.06813" lon="6.31111">
        <ele>1034.5158691</ele>
        <time>2010-10-23T07:46:04Z</time>
      </trkpt>
      <trkpt lat="44.06819" lon="6.31103">
        <ele>1035.9577637</ele>
        <time>2010-10-23T07:46:08Z</time>
      </trkpt>
      <trkpt lat="44.06831" lon="6.3111">
        <ele>1037.3999023</ele>
        <time>2010-10-23T07:46:14Z</time>
      </trkpt>
      <trkpt lat="44.06841" lon="6.31126">
        <ele>1038.3613281</ele>
        <time>2010-10-23T07:46:20Z</time>
      </trkpt>
      <trkpt lat="44.06847" lon="6.3114">
        <ele>1040.7644043</ele>
        <time>2010-10-23T07:46:26Z</time>
      </trkpt>
      <trkpt lat="44.06852" lon="6.3116">
        <ele>1038.3613281</ele>
        <time>2010-10-23T07:46:33Z</time>
      </trkpt>
      <trkpt lat="44.06858" lon="6.31176">
        <ele>1044.6096191</ele>
        <time>2010-10-23T07:46:39Z</time>
      </trkpt>
      <trkpt lat="44.06874" lon="6.31188">
        <ele>1047.0129395</ele>
        <time>2010-10-23T07:46:47Z</time>
      </trkpt>
      <trkpt lat="44.06886" lon="6.31195">
        <ele>1049.4162598</ele>
        <time>2010-10-23T07:46:54Z</time>
      </trkpt>
      <trkpt lat="44.06899" lon="6.312">
        <ele>1049.4162598</ele>
        <time>2010-10-23T07:47:00Z</time>
      </trkpt>
      <trkpt lat="44.06913" lon="6.31204">
        <ele>1049.8969727</ele>
        <time>2010-10-23T07:47:07Z</time>
      </trkpt>
      <trkpt lat="44.06927" lon="6.31206">
        <ele>1049.8969727</ele>
        <time>2010-10-23T07:47:14Z</time>
      </trkpt>
      <trkpt lat="44.06948" lon="6.31209">
        <ele>1048.454834</ele>
        <time>2010-10-23T07:47:23Z</time>
      </trkpt>
      <trkpt lat="44.06961" lon="6.31207">
        <ele>1052.300293</ele>
        <time>2010-10-23T07:47:30Z</time>
      </trkpt>
      <trkpt lat="44.06972" lon="6.3121">
        <ele>1056.6262207</ele>
        <time>2010-10-23T07:47:36Z</time>
      </trkpt>
      <trkpt lat="44.0698" lon="6.31218">
        <ele>1058.5488281</ele>
        <time>2010-10-23T07:47:42Z</time>
      </trkpt>
      <trkpt lat="44.0698" lon="6.31231">
        <ele>1060.9521484</ele>
        <time>2010-10-23T07:47:47Z</time>
      </trkpt>
      <trkpt lat="44.06976" lon="6.3125">
        <ele>1055.1843262</ele>
        <time>2010-10-23T07:47:54Z</time>
      </trkpt>
      <trkpt lat="44.06971" lon="6.31272">
        <ele>1051.3388672</ele>
        <time>2010-10-23T07:48:02Z</time>
      </trkpt>
      <trkpt lat="44.06971" lon="6.31289">
        <ele>1055.6650391</ele>
        <time>2010-10-23T07:48:09Z</time>
      </trkpt>
      <trkpt lat="44.06981" lon="6.31302">
        <ele>1058.5488281</ele>
        <time>2010-10-23T07:48:16Z</time>
      </trkpt>
      <trkpt lat="44.06991" lon="6.31313">
        <ele>1061.4328613</ele>
        <time>2010-10-23T07:48:23Z</time>
      </trkpt>
      <trkpt lat="44.07001" lon="6.31329">
        <ele>1063.8359375</ele>
        <time>2010-10-23T07:48:31Z</time>
      </trkpt>
      <trkpt lat="44.07011" lon="6.31344">
        <ele>1066.7199707</ele>
        <time>2010-10-23T07:48:39Z</time>
      </trkpt>
      <trkpt lat="44.07019" lon="6.31355">
        <ele>1068.6428223</ele>
        <time>2010-10-23T07:48:45Z</time>
      </trkpt>
      <trkpt lat="44.07029" lon="6.31372">
        <ele>1070.5654297</ele>
        <time>2010-10-23T07:48:53Z</time>
      </trkpt>
      <trkpt lat="44.07036" lon="6.31388">
        <ele>1072.0073242</ele>
        <time>2010-10-23T07:49:00Z</time>
      </trkpt>
      <trkpt lat="44.0704" lon="6.31405">
        <ele>1072.0073242</ele>
        <time>2010-10-23T07:49:07Z</time>
      </trkpt>
      <trkpt lat="44.07041" lon="6.31423">
        <ele>1073.4494629</ele>
        <time>2010-10-23T07:49:14Z</time>
      </trkpt>
      <trkpt lat="44.07048" lon="6.31442">
        <ele>1074.8913574</ele>
        <time>2010-10-23T07:49:22Z</time>
      </trkpt>
      <trkpt lat="44.0706" lon="6.31453">
        <ele>1072.96875</ele>
        <time>2010-10-23T07:49:29Z</time>
      </trkpt>
      <trkpt lat="44.0707" lon="6.31465">
        <ele>1073.9299316</ele>
        <time>2010-10-23T07:49:37Z</time>
      </trkpt>
      <trkpt lat="44.0708" lon="6.31472">
        <ele>1072.96875</ele>
        <time>2010-10-23T07:49:43Z</time>
      </trkpt>
      <trkpt lat="44.07092" lon="6.31476">
        <ele>1072.4880371</ele>
        <time>2010-10-23T07:49:50Z</time>
      </trkpt>
      <trkpt lat="44.07108" lon="6.31475">
        <ele>1072.96875</ele>
        <time>2010-10-23T07:49:58Z</time>
      </trkpt>
      <trkpt lat="44.07126" lon="6.31477">
        <ele>1075.8525391</ele>
        <time>2010-10-23T07:50:07Z</time>
      </trkpt>
      <trkpt lat="44.07141" lon="6.31477">
        <ele>1078.2558594</ele>
        <time>2010-10-23T07:50:15Z</time>
      </trkpt>
      <trkpt lat="44.07154" lon="6.31467">
        <ele>1079.6977539</ele>
        <time>2010-10-23T07:50:22Z</time>
      </trkpt>
      <trkpt lat="44.07165" lon="6.31467">
        <ele>1081.1398926</ele>
        <time>2010-10-23T07:50:28Z</time>
      </trkpt>
      <trkpt lat="44.07167" lon="6.31477">
        <ele>1083.0622559</ele>
        <time>2010-10-23T07:50:33Z</time>
      </trkpt>
      <trkpt lat="44.0716" lon="6.31486">
        <ele>1084.0239258</ele>
        <time>2010-10-23T07:50:38Z</time>
      </trkpt>
      <trkpt lat="44.07146" lon="6.31496">
        <ele>1082.1010742</ele>
        <time>2010-10-23T07:50:47Z</time>
      </trkpt>
      <trkpt lat="44.07135" lon="6.31506">
        <ele>1078.2558594</ele>
        <time>2010-10-23T07:50:54Z</time>
      </trkpt>
      <trkpt lat="44.07123" lon="6.31515">
        <ele>1077.7751465</ele>
        <time>2010-10-23T07:51:01Z</time>
      </trkpt>
      <trkpt lat="44.07105" lon="6.31525">
        <ele>1083.5429688</ele>
        <time>2010-10-23T07:51:10Z</time>
      </trkpt>
      <trkpt lat="44.07094" lon="6.31532">
        <ele>1083.5429688</ele>
        <time>2010-10-23T07:51:16Z</time>
      </trkpt>
      <trkpt lat="44.07084" lon="6.31535">
        <ele>1084.0239258</ele>
        <time>2010-10-23T07:51:22Z</time>
      </trkpt>
      <trkpt lat="44.07069" lon="6.31535">
        <ele>1084.9853516</ele>
        <time>2010-10-23T07:51:30Z</time>
      </trkpt>
      <trkpt lat="44.07057" lon="6.31535">
        <ele>1084.9853516</ele>
        <time>2010-10-23T07:51:36Z</time>
      </trkpt>
      <trkpt lat="44.07041" lon="6.31535">
        <ele>1084.5046387</ele>
        <time>2010-10-23T07:51:44Z</time>
      </trkpt>
      <trkpt lat="44.07026" lon="6.31535">
        <ele>1082.1010742</ele>
        <time>2010-10-23T07:51:53Z</time>
      </trkpt>
      <trkpt lat="44.07016" lon="6.31539">
        <ele>1078.2558594</ele>
        <time>2010-10-23T07:51:59Z</time>
      </trkpt>
      <trkpt lat="44.07002" lon="6.31545">
        <ele>1083.0622559</ele>
        <time>2010-10-23T07:52:06Z</time>
      </trkpt>
      <trkpt lat="44.06989" lon="6.31555">
        <ele>1084.0239258</ele>
        <time>2010-10-23T07:52:15Z</time>
      </trkpt>
      <trkpt lat="44.06975" lon="6.31566">
        <ele>1084.0239258</ele>
        <time>2010-10-23T07:52:23Z</time>
      </trkpt>
      <trkpt lat="44.06952" lon="6.3157">
        <ele>1098.9240723</ele>
        <time>2010-10-23T07:52:32Z</time>
      </trkpt>
      <trkpt lat="44.06932" lon="6.31571">
        <ele>1105.6535645</ele>
        <time>2010-10-23T07:52:41Z</time>
      </trkpt>
      <trkpt lat="44.06919" lon="6.31569">
        <ele>1108.0568848</ele>
        <time>2010-10-23T07:52:47Z</time>
      </trkpt>
      <trkpt lat="44.06911" lon="6.31564">
        <ele>1108.0568848</ele>
        <time>2010-10-23T07:52:53Z</time>
      </trkpt>
      <trkpt lat="44.06899" lon="6.31557">
        <ele>1105.6535645</ele>
        <time>2010-10-23T07:53:01Z</time>
      </trkpt>
      <trkpt lat="44.06884" lon="6.31552">
        <ele>1109.979248</ele>
        <time>2010-10-23T07:53:07Z</time>
      </trkpt>
      <trkpt lat="44.06876" lon="6.3155">
        <ele>1110.4599609</ele>
        <time>2010-10-23T07:53:11Z</time>
      </trkpt>
      <trkpt lat="44.06871" lon="6.31553">
        <ele>1110.4599609</ele>
        <time>2010-10-23T07:53:16Z</time>
      </trkpt>
      <trkpt lat="44.06863" lon="6.31547">
        <ele>1109.4987793</ele>
        <time>2010-10-23T07:53:21Z</time>
      </trkpt>
      <trkpt lat="44.0686" lon="6.31553">
        <ele>1109.979248</ele>
        <time>2010-10-23T07:53:25Z</time>
      </trkpt>
      <trkpt lat="44.06861" lon="6.31559">
        <ele>1108.5373535</ele>
        <time>2010-10-23T07:53:31Z</time>
      </trkpt>
      <trkpt lat="44.06862" lon="6.31561">
        <ele>1109.4987793</ele>
        <time>2010-10-23T07:53:35Z</time>
      </trkpt>
      <trkpt lat="44.06861" lon="6.31565">
        <ele>1109.979248</ele>
        <time>2010-10-23T07:53:40Z</time>
      </trkpt>
      <trkpt lat="44.06862" lon="6.31568">
        <ele>1108.0568848</ele>
        <time>2010-10-23T07:53:45Z</time>
      </trkpt>
      <trkpt lat="44.06859" lon="6.31566">
        <ele>1114.3051758</ele>
        <time>2010-10-23T07:55:18Z</time>
      </trkpt>
      <trkpt lat="44.06859" lon="6.31566">
        <ele>1115.2666016</ele>
        <time>2010-10-23T07:55:25Z</time>
      </trkpt>
      <trkpt lat="44.06859" lon="6.31566">
        <ele>1115.7473145</ele>
        <time>2010-10-23T07:55:39Z</time>
      </trkpt>
      <trkpt lat="44.06858" lon="6.31567">
        <ele>1116.7087402</ele>
        <time>2010-10-23T07:55:48Z</time>
      </trkpt>
      <trkpt lat="44.0686" lon="6.31569">
        <ele>1113.3439941</ele>
        <time>2010-10-23T07:56:06Z</time>
      </trkpt>
      <trkpt lat="44.06862" lon="6.3157">
        <ele>1109.0180664</ele>
        <time>2010-10-23T07:56:23Z</time>
      </trkpt>
      <trkpt lat="44.06863" lon="6.31569">
        <ele>1109.979248</ele>
        <time>2010-10-23T07:56:52Z</time>
      </trkpt>
      <trkpt lat="44.06863" lon="6.31569">
        <ele>1108.5373535</ele>
        <time>2010-10-23T07:57:02Z</time>
      </trkpt>
      <trkpt lat="44.06864" lon="6.31569">
        <ele>1109.4987793</ele>
        <time>2010-10-23T07:57:08Z</time>
      </trkpt>
      <trkpt lat="44.06862" lon="6.31579">
        <ele>1109.0180664</ele>
        <time>2010-10-23T07:57:14Z</time>
      </trkpt>
      <trkpt lat="44.06862" lon="6.31581">
        <ele>1109.0180664</ele>
        <time>2010-10-23T07:57:15Z</time>
      </trkpt>
      <trkpt lat="44.0686" lon="6.31596">
        <ele>1111.4213867</ele>
        <time>2010-10-23T07:57:22Z</time>
      </trkpt>
      <trkpt lat="44.06856" lon="6.31606">
        <ele>1111.9020996</ele>
        <time>2010-10-23T07:57:28Z</time>
      </trkpt>
      <trkpt lat="44.06848" lon="6.31618">
        <ele>1109.979248</ele>
        <time>2010-10-23T07:57:36Z</time>
      </trkpt>
      <trkpt lat="44.06837" lon="6.31623">
        <ele>1111.9020996</ele>
        <time>2010-10-23T07:57:44Z</time>
      </trkpt>
      <trkpt lat="44.06825" lon="6.31624">
        <ele>1114.3051758</ele>
        <time>2010-10-23T07:57:51Z</time>
      </trkpt>
      <trkpt lat="44.06814" lon="6.31623">
        <ele>1118.6313477</ele>
        <time>2010-10-23T07:57:57Z</time>
      </trkpt>
      <trkpt lat="44.06804" lon="6.31627">
        <ele>1120.0732422</ele>
        <time>2010-10-23T07:58:04Z</time>
      </trkpt>
      <trkpt lat="44.06794" lon="6.31636">
        <ele>1119.5927734</ele>
        <time>2010-10-23T07:58:11Z</time>
      </trkpt>
      <trkpt lat="44.06786" lon="6.31649">
        <ele>1118.1506348</ele>
        <time>2010-10-23T07:58:19Z</time>
      </trkpt>
      <trkpt lat="44.06776" lon="6.31664">
        <ele>1116.7087402</ele>
        <time>2010-10-23T07:58:28Z</time>
      </trkpt>
      <trkpt lat="44.06769" lon="6.31676">
        <ele>1111.4213867</ele>
        <time>2010-10-23T07:58:35Z</time>
      </trkpt>
      <trkpt lat="44.06758" lon="6.31694">
        <ele>1114.3051758</ele>
        <time>2010-10-23T07:58:46Z</time>
      </trkpt>
      <trkpt lat="44.06751" lon="6.31706">
        <ele>1111.9020996</ele>
        <time>2010-10-23T07:58:53Z</time>
      </trkpt>
      <trkpt lat="44.0674" lon="6.31723">
        <ele>1114.3051758</ele>
        <time>2010-10-23T07:59:04Z</time>
      </trkpt>
      <trkpt lat="44.06731" lon="6.31735">
        <ele>1124.8798828</ele>
        <time>2010-10-23T07:59:12Z</time>
      </trkpt>
      <trkpt lat="44.06726" lon="6.31751">
        <ele>1128.2443848</ele>
        <time>2010-10-23T07:59:20Z</time>
      </trkpt>
      <trkpt lat="44.06723" lon="6.31764">
        <ele>1128.7250977</ele>
        <time>2010-10-23T07:59:27Z</time>
      </trkpt>
      <trkpt lat="44.0672" lon="6.31781">
        <ele>1132.0898438</ele>
        <time>2010-10-23T07:59:35Z</time>
      </trkpt>
      <trkpt lat="44.06719" lon="6.31791">
        <ele>1132.0898438</ele>
        <time>2010-10-23T07:59:40Z</time>
      </trkpt>
      <trkpt lat="44.06713" lon="6.31806">
        <ele>1133.5317383</ele>
        <time>2010-10-23T07:59:48Z</time>
      </trkpt>
      <trkpt lat="44.06705" lon="6.31818">
        <ele>1133.0510254</ele>
        <time>2010-10-23T07:59:56Z</time>
      </trkpt>
      <trkpt lat="44.06698" lon="6.31831">
        <ele>1137.3769531</ele>
        <time>2010-10-23T08:00:04Z</time>
      </trkpt>
      <trkpt lat="44.06701" lon="6.31845">
        <ele>1138.3383789</ele>
        <time>2010-10-23T08:00:10Z</time>
      </trkpt>
      <trkpt lat="44.0671" lon="6.31854">
        <ele>1138.3383789</ele>
        <time>2010-10-23T08:00:18Z</time>
      </trkpt>
      <trkpt lat="44.06725" lon="6.31851">
        <ele>1138.8190918</ele>
        <time>2010-10-23T08:00:26Z</time>
      </trkpt>
      <trkpt lat="44.06738" lon="6.31844">
        <ele>1141.222168</ele>
        <time>2010-10-23T08:00:34Z</time>
      </trkpt>
      <trkpt lat="44.06748" lon="6.31834">
        <ele>1144.1062012</ele>
        <time>2010-10-23T08:00:42Z</time>
      </trkpt>
      <trkpt lat="44.06759" lon="6.31819">
        <ele>1146.9899902</ele>
        <time>2010-10-23T08:00:52Z</time>
      </trkpt>
      <trkpt lat="44.06769" lon="6.31808">
        <ele>1147.4707031</ele>
        <time>2010-10-23T08:01:00Z</time>
      </trkpt>
      <trkpt lat="44.06784" lon="6.31801">
        <ele>1149.8742676</ele>
        <time>2010-10-23T08:01:10Z</time>
      </trkpt>
      <trkpt lat="44.06796" lon="6.31804">
        <ele>1152.7580566</ele>
        <time>2010-10-23T08:01:19Z</time>
      </trkpt>
      <trkpt lat="44.06804" lon="6.31807">
        <ele>1154.6806641</ele>
        <time>2010-10-23T08:01:26Z</time>
      </trkpt>
      <trkpt lat="44.06813" lon="6.3181">
        <ele>1156.6032715</ele>
        <time>2010-10-23T08:01:32Z</time>
      </trkpt>
      <trkpt lat="44.06829" lon="6.31821">
        <ele>1159.0065918</ele>
        <time>2010-10-23T08:01:42Z</time>
      </trkpt>
      <trkpt lat="44.06842" lon="6.31828">
        <ele>1160.4484863</ele>
        <time>2010-10-23T08:01:51Z</time>
      </trkpt>
      <trkpt lat="44.06851" lon="6.31831">
        <ele>1163.3325195</ele>
        <time>2010-10-23T08:01:59Z</time>
      </trkpt>
      <trkpt lat="44.06867" lon="6.3183">
        <ele>1165.2553711</ele>
        <time>2010-10-23T08:02:08Z</time>
      </trkpt>
      <trkpt lat="44.06884" lon="6.31824">
        <ele>1166.6972656</ele>
        <time>2010-10-23T08:02:19Z</time>
      </trkpt>
      <trkpt lat="44.06896" lon="6.3182">
        <ele>1165.2553711</ele>
        <time>2010-10-23T08:02:26Z</time>
      </trkpt>
      <trkpt lat="44.0691" lon="6.31816">
        <ele>1168.1391602</ele>
        <time>2010-10-23T08:02:36Z</time>
      </trkpt>
      <trkpt lat="44.06921" lon="6.3182">
        <ele>1169.5812988</ele>
        <time>2010-10-23T08:02:44Z</time>
      </trkpt>
      <trkpt lat="44.06929" lon="6.31825">
        <ele>1169.5812988</ele>
        <time>2010-10-23T08:02:49Z</time>
      </trkpt>
      <trkpt lat="44.06935" lon="6.3183">
        <ele>1169.1005859</ele>
        <time>2010-10-23T08:02:54Z</time>
      </trkpt>
      <trkpt lat="44.06941" lon="6.31836">
        <ele>1169.5812988</ele>
        <time>2010-10-23T08:02:58Z</time>
      </trkpt>
      <trkpt lat="44.06948" lon="6.31845">
        <ele>1170.5424805</ele>
        <time>2010-10-23T08:03:05Z</time>
      </trkpt>
      <trkpt lat="44.06952" lon="6.31851">
        <ele>1171.0231934</ele>
        <time>2010-10-23T08:03:09Z</time>
      </trkpt>
      <trkpt lat="44.06959" lon="6.31865">
        <ele>1172.9458008</ele>
        <time>2010-10-23T08:03:19Z</time>
      </trkpt>
      <trkpt lat="44.06964" lon="6.31881">
        <ele>1175.8295898</ele>
        <time>2010-10-23T08:03:28Z</time>
      </trkpt>
      <trkpt lat="44.06966" lon="6.31885">
        <ele>1176.3103027</ele>
        <time>2010-10-23T08:03:30Z</time>
      </trkpt>
      <trkpt lat="44.0697" lon="6.31901">
        <ele>1178.713623</ele>
        <time>2010-10-23T08:03:39Z</time>
      </trkpt>
      <trkpt lat="44.06973" lon="6.31916">
        <ele>1179.6748047</ele>
        <time>2010-10-23T08:03:47Z</time>
      </trkpt>
      <trkpt lat="44.06974" lon="6.31929">
        <ele>1182.0783691</ele>
        <time>2010-10-23T08:03:54Z</time>
      </trkpt>
      <trkpt lat="44.06983" lon="6.31942">
        <ele>1184.4816895</ele>
        <time>2010-10-23T08:04:02Z</time>
      </trkpt>
      <trkpt lat="44.0699" lon="6.31953">
        <ele>1186.4042969</ele>
        <time>2010-10-23T08:04:10Z</time>
      </trkpt>
      <trkpt lat="44.06995" lon="6.31966">
        <ele>1186.8847656</ele>
        <time>2010-10-23T08:04:17Z</time>
      </trkpt>
      <trkpt lat="44.06996" lon="6.31977">
        <ele>1190.7299805</ele>
        <time>2010-10-23T08:04:24Z</time>
      </trkpt>
      <trkpt lat="44.07001" lon="6.31992">
        <ele>1192.652832</ele>
        <time>2010-10-23T08:04:32Z</time>
      </trkpt>
      <trkpt lat="44.07008" lon="6.32002">
        <ele>1193.6140137</ele>
        <time>2010-10-23T08:04:39Z</time>
      </trkpt>
      <trkpt lat="44.07017" lon="6.32011">
        <ele>1192.1721191</ele>
        <time>2010-10-23T08:04:46Z</time>
      </trkpt>
      <trkpt lat="44.07026" lon="6.3202">
        <ele>1192.652832</ele>
        <time>2010-10-23T08:04:53Z</time>
      </trkpt>
      <trkpt lat="44.07033" lon="6.32033">
        <ele>1192.652832</ele>
        <time>2010-10-23T08:05:01Z</time>
      </trkpt>
      <trkpt lat="44.07038" lon="6.32051">
        <ele>1194.5751953</ele>
        <time>2010-10-23T08:05:10Z</time>
      </trkpt>
      <trkpt lat="44.07042" lon="6.32067">
        <ele>1196.498291</ele>
        <time>2010-10-23T08:05:18Z</time>
      </trkpt>
      <trkpt lat="44.07046" lon="6.32079">
        <ele>1197.9401855</ele>
        <time>2010-10-23T08:05:24Z</time>
      </trkpt>
      <trkpt lat="44.0705" lon="6.32093">
        <ele>1199.862793</ele>
        <time>2010-10-23T08:05:31Z</time>
      </trkpt>
      <trkpt lat="44.07055" lon="6.3211">
        <ele>1201.7854004</ele>
        <time>2010-10-23T08:05:40Z</time>
      </trkpt>
      <trkpt lat="44.07057" lon="6.32122">
        <ele>1203.7080078</ele>
        <time>2010-10-23T08:05:47Z</time>
      </trkpt>
      <trkpt lat="44.07061" lon="6.32139">
        <ele>1204.1887207</ele>
        <time>2010-10-23T08:05:56Z</time>
      </trkpt>
      <trkpt lat="44.07062" lon="6.32153">
        <ele>1203.7080078</ele>
        <time>2010-10-23T08:06:02Z</time>
      </trkpt>
      <trkpt lat="44.07063" lon="6.32159">
        <ele>1203.2272949</ele>
        <time>2010-10-23T08:06:05Z</time>
      </trkpt>
      <trkpt lat="44.07063" lon="6.32165">
        <ele>1203.2272949</ele>
        <time>2010-10-23T08:06:09Z</time>
      </trkpt>
      <trkpt lat="44.07064" lon="6.32181">
        <ele>1206.111084</ele>
        <time>2010-10-23T08:06:17Z</time>
      </trkpt>
      <trkpt lat="44.07071" lon="6.32194">
        <ele>1208.9951172</ele>
        <time>2010-10-23T08:06:25Z</time>
      </trkpt>
      <trkpt lat="44.07078" lon="6.32201">
        <ele>1209.4758301</ele>
        <time>2010-10-23T08:06:30Z</time>
      </trkpt>
      <trkpt lat="44.07087" lon="6.32209">
        <ele>1209.9562988</ele>
        <time>2010-10-23T08:06:37Z</time>
      </trkpt>
      <trkpt lat="44.07091" lon="6.32215">
        <ele>1209.9562988</ele>
        <time>2010-10-23T08:06:41Z</time>
      </trkpt>
      <trkpt lat="44.07092" lon="6.32221">
        <ele>1209.9562988</ele>
        <time>2010-10-23T08:06:44Z</time>
      </trkpt>
      <trkpt lat="44.07086" lon="6.32228">
        <ele>1210.4370117</ele>
        <time>2010-10-23T08:06:50Z</time>
      </trkpt>
      <trkpt lat="44.07084" lon="6.32227">
        <ele>1210.4370117</ele>
        <time>2010-10-23T08:06:51Z</time>
      </trkpt>
      <trkpt lat="44.07075" lon="6.32222">
        <ele>1211.3984375</ele>
        <time>2010-10-23T08:06:59Z</time>
      </trkpt>
      <trkpt lat="44.07068" lon="6.3222">
        <ele>1211.8791504</ele>
        <time>2010-10-23T08:07:06Z</time>
      </trkpt>
      <trkpt lat="44.07055" lon="6.32223">
        <ele>1212.3598633</ele>
        <time>2010-10-23T08:07:14Z</time>
      </trkpt>
      <trkpt lat="44.07045" lon="6.32227">
        <ele>1212.3598633</ele>
        <time>2010-10-23T08:07:21Z</time>
      </trkpt>
      <trkpt lat="44.07038" lon="6.3223">
        <ele>1214.2824707</ele>
        <time>2010-10-23T08:07:28Z</time>
      </trkpt>
      <trkpt lat="44.07027" lon="6.32233">
        <ele>1214.2824707</ele>
        <time>2010-10-23T08:07:35Z</time>
      </trkpt>
      <trkpt lat="44.07014" lon="6.32237">
        <ele>1214.7631836</ele>
        <time>2010-10-23T08:07:44Z</time>
      </trkpt>
      <trkpt lat="44.07006" lon="6.32239">
        <ele>1216.2050781</ele>
        <time>2010-10-23T08:07:50Z</time>
      </trkpt>
      <trkpt lat="44.06996" lon="6.32244">
        <ele>1215.7246094</ele>
        <time>2010-10-23T08:07:57Z</time>
      </trkpt>
      <trkpt lat="44.06982" lon="6.32252">
        <ele>1217.6469727</ele>
        <time>2010-10-23T08:08:06Z</time>
      </trkpt>
      <trkpt lat="44.06972" lon="6.32261">
        <ele>1217.1665039</ele>
        <time>2010-10-23T08:08:14Z</time>
      </trkpt>
      <trkpt lat="44.06963" lon="6.32265">
        <ele>1215.7246094</ele>
        <time>2010-10-23T08:08:21Z</time>
      </trkpt>
      <trkpt lat="44.06952" lon="6.32261">
        <ele>1217.1665039</ele>
        <time>2010-10-23T08:08:30Z</time>
      </trkpt>
      <trkpt lat="44.06941" lon="6.32254">
        <ele>1220.5310059</ele>
        <time>2010-10-23T08:08:37Z</time>
      </trkpt>
      <trkpt lat="44.06941" lon="6.32253">
        <ele>1221.0117188</ele>
        <time>2010-10-23T08:08:39Z</time>
      </trkpt>
      <trkpt lat="44.06929" lon="6.32248">
        <ele>1221.9729004</ele>
        <time>2010-10-23T08:08:47Z</time>
      </trkpt>
      <trkpt lat="44.06919" lon="6.32242">
        <ele>1224.3762207</ele>
        <time>2010-10-23T08:08:54Z</time>
      </trkpt>
      <trkpt lat="44.06909" lon="6.32237">
        <ele>1226.2988281</ele>
        <time>2010-10-23T08:09:00Z</time>
      </trkpt>
      <trkpt lat="44.06901" lon="6.32232">
        <ele>1226.2988281</ele>
        <time>2010-10-23T08:09:07Z</time>
      </trkpt>
      <trkpt lat="44.06893" lon="6.32226">
        <ele>1226.2988281</ele>
        <time>2010-10-23T08:09:14Z</time>
      </trkpt>
      <trkpt lat="44.06885" lon="6.32219">
        <ele>1229.1828613</ele>
        <time>2010-10-23T08:09:21Z</time>
      </trkpt>
      <trkpt lat="44.06877" lon="6.32206">
        <ele>1233.989502</ele>
        <time>2010-10-23T08:09:29Z</time>
      </trkpt>
      <trkpt lat="44.06869" lon="6.32203">
        <ele>1230.625</ele>
        <time>2010-10-23T08:09:36Z</time>
      </trkpt>
      <trkpt lat="44.0686" lon="6.32209">
        <ele>1229.6635742</ele>
        <time>2010-10-23T08:09:43Z</time>
      </trkpt>
      <trkpt lat="44.06857" lon="6.32214">
        <ele>1230.1442871</ele>
        <time>2010-10-23T08:09:47Z</time>
      </trkpt>
      <trkpt lat="44.0685" lon="6.32225">
        <ele>1227.2602539</ele>
        <time>2010-10-23T08:09:55Z</time>
      </trkpt>
      <trkpt lat="44.06844" lon="6.32236">
        <ele>1228.2216797</ele>
        <time>2010-10-23T08:10:02Z</time>
      </trkpt>
      <trkpt lat="44.06834" lon="6.32247">
        <ele>1230.625</ele>
        <time>2010-10-23T08:10:11Z</time>
      </trkpt>
      <trkpt lat="44.06826" lon="6.32255">
        <ele>1232.5476074</ele>
        <time>2010-10-23T08:10:18Z</time>
      </trkpt>
      <trkpt lat="44.06822" lon="6.32263">
        <ele>1236.3928223</ele>
        <time>2010-10-23T08:10:24Z</time>
      </trkpt>
      <trkpt lat="44.06816" lon="6.32276">
        <ele>1241.6799316</ele>
        <time>2010-10-23T08:10:32Z</time>
      </trkpt>
      <trkpt lat="44.06813" lon="6.32292">
        <ele>1244.5639648</ele>
        <time>2010-10-23T08:10:39Z</time>
      </trkpt>
      <trkpt lat="44.06813" lon="6.32296">
        <ele>1242.1606445</ele>
        <time>2010-10-23T08:10:43Z</time>
      </trkpt>
      <trkpt lat="44.06813" lon="6.32301">
        <ele>1224.3762207</ele>
        <time>2010-10-23T08:11:23Z</time>
      </trkpt>
      <trkpt lat="44.06811" lon="6.323">
        <ele>1230.1442871</ele>
        <time>2010-10-23T08:11:25Z</time>
      </trkpt>
      <trkpt lat="44.06808" lon="6.32311">
        <ele>1236.873291</ele>
        <time>2010-10-23T08:11:31Z</time>
      </trkpt>
      <trkpt lat="44.06808" lon="6.32314">
        <ele>1239.2766113</ele>
        <time>2010-10-23T08:11:32Z</time>
      </trkpt>
      <trkpt lat="44.06807" lon="6.32336">
        <ele>1243.1218262</ele>
        <time>2010-10-23T08:11:39Z</time>
      </trkpt>
      <trkpt lat="44.06807" lon="6.32361">
        <ele>1248.4091797</ele>
        <time>2010-10-23T08:11:48Z</time>
      </trkpt>
      <trkpt lat="44.06806" lon="6.32371">
        <ele>1248.8898926</ele>
        <time>2010-10-23T08:11:52Z</time>
      </trkpt>
      <trkpt lat="44.06808" lon="6.32381">
        <ele>1250.8125</ele>
        <time>2010-10-23T08:11:58Z</time>
      </trkpt>
      <trkpt lat="44.06807" lon="6.32377">
        <ele>1256.0996094</ele>
        <time>2010-10-23T08:12:17Z</time>
      </trkpt>
      <trkpt lat="44.06807" lon="6.32379">
        <ele>1249.3706055</ele>
        <time>2010-10-23T08:12:36Z</time>
      </trkpt>
      <trkpt lat="44.06808" lon="6.3238">
        <ele>1243.6025391</ele>
        <time>2010-10-23T08:12:55Z</time>
      </trkpt>
      <trkpt lat="44.06808" lon="6.32389">
        <ele>1243.6025391</ele>
        <time>2010-10-23T08:12:59Z</time>
      </trkpt>
      <trkpt lat="44.06808" lon="6.32401">
        <ele>1246.0061035</ele>
        <time>2010-10-23T08:13:05Z</time>
      </trkpt>
      <trkpt lat="44.06807" lon="6.3241">
        <ele>1249.3706055</ele>
        <time>2010-10-23T08:13:10Z</time>
      </trkpt>
      <trkpt lat="44.06803" lon="6.32423">
        <ele>1247.447998</ele>
        <time>2010-10-23T08:13:17Z</time>
      </trkpt>
      <trkpt lat="44.068" lon="6.32434">
        <ele>1247.447998</ele>
        <time>2010-10-23T08:13:24Z</time>
      </trkpt>
      <trkpt lat="44.06795" lon="6.32445">
        <ele>1251.7739258</ele>
        <time>2010-10-23T08:13:30Z</time>
      </trkpt>
      <trkpt lat="44.06801" lon="6.32462">
        <ele>1253.2158203</ele>
        <time>2010-10-23T08:13:38Z</time>
      </trkpt>
      <trkpt lat="44.06802" lon="6.32463">
        <ele>1253.2158203</ele>
        <time>2010-10-23T08:13:39Z</time>
      </trkpt>
      <trkpt lat="44.06814" lon="6.32468">
        <ele>1255.6191406</ele>
        <time>2010-10-23T08:13:48Z</time>
      </trkpt>
      <trkpt lat="44.06827" lon="6.32467">
        <ele>1260.4257812</ele>
        <time>2010-10-23T08:13:57Z</time>
      </trkpt>
      <trkpt lat="44.06838" lon="6.3247">
        <ele>1262.3483887</ele>
        <time>2010-10-23T08:14:04Z</time>
      </trkpt>
      <trkpt lat="44.06848" lon="6.32472">
        <ele>1265.2324219</ele>
        <time>2010-10-23T08:14:11Z</time>
      </trkpt>
      <trkpt lat="44.06859" lon="6.32475">
        <ele>1272.4421387</ele>
        <time>2010-10-23T08:14:19Z</time>
      </trkpt>
      <trkpt lat="44.06864" lon="6.32487">
        <ele>1276.7683105</ele>
        <time>2010-10-23T08:14:26Z</time>
      </trkpt>
      <trkpt lat="44.06869" lon="6.32498">
        <ele>1274.845459</ele>
        <time>2010-10-23T08:14:32Z</time>
      </trkpt>
      <trkpt lat="44.0688" lon="6.32508">
        <ele>1275.3259277</ele>
        <time>2010-10-23T08:14:40Z</time>
      </trkpt>
      <trkpt lat="44.06892" lon="6.32516">
        <ele>1275.3259277</ele>
        <time>2010-10-23T08:14:48Z</time>
      </trkpt>
      <trkpt lat="44.06905" lon="6.32521">
        <ele>1277.7294922</ele>
        <time>2010-10-23T08:14:57Z</time>
      </trkpt>
      <trkpt lat="44.06916" lon="6.32522">
        <ele>1280.1328125</ele>
        <time>2010-10-23T08:15:05Z</time>
      </trkpt>
      <trkpt lat="44.06928" lon="6.32521">
        <ele>1283.4973145</ele>
        <time>2010-10-23T08:15:13Z</time>
      </trkpt>
      <trkpt lat="44.06933" lon="6.32519">
        <ele>1284.4587402</ele>
        <time>2010-10-23T08:15:17Z</time>
      </trkpt>
      <trkpt lat="44.06947" lon="6.32519">
        <ele>1284.9394531</ele>
        <time>2010-10-23T08:15:25Z</time>
      </trkpt>
      <trkpt lat="44.06955" lon="6.32521">
        <ele>1284.4587402</ele>
        <time>2010-10-23T08:15:30Z</time>
      </trkpt>
      <trkpt lat="44.06962" lon="6.32527">
        <ele>1284.4587402</ele>
        <time>2010-10-23T08:15:37Z</time>
      </trkpt>
      <trkpt lat="44.06969" lon="6.32541">
        <ele>1284.4587402</ele>
        <time>2010-10-23T08:15:45Z</time>
      </trkpt>
      <trkpt lat="44.06973" lon="6.32554">
        <ele>1284.9394531</ele>
        <time>2010-10-23T08:15:52Z</time>
      </trkpt>
      <trkpt lat="44.06976" lon="6.32568">
        <ele>1287.8232422</ele>
        <time>2010-10-23T08:16:00Z</time>
      </trkpt>
      <trkpt lat="44.06979" lon="6.32587">
        <ele>1288.3039551</ele>
        <time>2010-10-23T08:16:09Z</time>
      </trkpt>
      <trkpt lat="44.06981" lon="6.32593">
        <ele>1288.784668</ele>
        <time>2010-10-23T08:16:12Z</time>
      </trkpt>
      <trkpt lat="44.06985" lon="6.32603">
        <ele>1287.3425293</ele>
        <time>2010-10-23T08:16:17Z</time>
      </trkpt>
      <trkpt lat="44.06992" lon="6.32622">
        <ele>1289.2651367</ele>
        <time>2010-10-23T08:16:26Z</time>
      </trkpt>
      <trkpt lat="44.06999" lon="6.32638">
        <ele>1291.1877441</ele>
        <time>2010-10-23T08:16:34Z</time>
      </trkpt>
      <trkpt lat="44.07009" lon="6.32655">
        <ele>1292.1494141</ele>
        <time>2010-10-23T08:16:43Z</time>
      </trkpt>
      <trkpt lat="44.07019" lon="6.32664">
        <ele>1291.668457</ele>
        <time>2010-10-23T08:16:50Z</time>
      </trkpt>
      <trkpt lat="44.07034" lon="6.32666">
        <ele>1289.7458496</ele>
        <time>2010-10-23T08:16:57Z</time>
      </trkpt>
      <trkpt lat="44.07046" lon="6.32665">
        <ele>1289.7458496</ele>
        <time>2010-10-23T08:17:04Z</time>
      </trkpt>
      <trkpt lat="44.07053" lon="6.32665">
        <ele>1291.668457</ele>
        <time>2010-10-23T08:17:10Z</time>
      </trkpt>
      <trkpt lat="44.07066" lon="6.32666">
        <ele>1291.1877441</ele>
        <time>2010-10-23T08:17:17Z</time>
      </trkpt>
      <trkpt lat="44.0708" lon="6.32664">
        <ele>1291.668457</ele>
        <time>2010-10-23T08:17:25Z</time>
      </trkpt>
      <trkpt lat="44.07095" lon="6.32667">
        <ele>1291.668457</ele>
        <time>2010-10-23T08:17:32Z</time>
      </trkpt>
      <trkpt lat="44.07108" lon="6.32676">
        <ele>1296.4753418</ele>
        <time>2010-10-23T08:17:39Z</time>
      </trkpt>
      <trkpt lat="44.07119" lon="6.32687">
        <ele>1296.4753418</ele>
        <time>2010-10-23T08:17:45Z</time>
      </trkpt>
      <trkpt lat="44.07131" lon="6.327">
        <ele>1296.9558105</ele>
        <time>2010-10-23T08:17:53Z</time>
      </trkpt>
      <trkpt lat="44.0714" lon="6.3271">
        <ele>1298.3977051</ele>
        <time>2010-10-23T08:18:00Z</time>
      </trkpt>
      <trkpt lat="44.07151" lon="6.32722">
        <ele>1300.8010254</ele>
        <time>2010-10-23T08:18:08Z</time>
      </trkpt>
      <trkpt lat="44.07161" lon="6.32734">
        <ele>1301.2817383</ele>
        <time>2010-10-23T08:18:16Z</time>
      </trkpt>
      <trkpt lat="44.07172" lon="6.32744">
        <ele>1302.7236328</ele>
        <time>2010-10-23T08:18:24Z</time>
      </trkpt>
      <trkpt lat="44.07185" lon="6.32753">
        <ele>1303.6850586</ele>
        <time>2010-10-23T08:18:33Z</time>
      </trkpt>
      <trkpt lat="44.072" lon="6.32763">
        <ele>1304.1657715</ele>
        <time>2010-10-23T08:18:43Z</time>
      </trkpt>
      <trkpt lat="44.07207" lon="6.3277">
        <ele>1305.607666</ele>
        <time>2010-10-23T08:18:49Z</time>
      </trkpt>
      <trkpt lat="44.07212" lon="6.3278">
        <ele>1305.607666</ele>
        <time>2010-10-23T08:18:55Z</time>
      </trkpt>
      <trkpt lat="44.07219" lon="6.32794">
        <ele>1307.0495605</ele>
        <time>2010-10-23T08:19:03Z</time>
      </trkpt>
      <trkpt lat="44.07231" lon="6.32801">
        <ele>1307.5302734</ele>
        <time>2010-10-23T08:19:11Z</time>
      </trkpt>
      <trkpt lat="44.07241" lon="6.32805">
        <ele>1308.0112305</ele>
        <time>2010-10-23T08:19:18Z</time>
      </trkpt>
      <trkpt lat="44.07252" lon="6.32816">
        <ele>1308.4916992</ele>
        <time>2010-10-23T08:19:27Z</time>
      </trkpt>
      <trkpt lat="44.07261" lon="6.32827">
        <ele>1310.4143066</ele>
        <time>2010-10-23T08:19:36Z</time>
      </trkpt>
      <trkpt lat="44.07271" lon="6.32833">
        <ele>1311.3757324</ele>
        <time>2010-10-23T08:19:43Z</time>
      </trkpt>
      <trkpt lat="44.07286" lon="6.32836">
        <ele>1312.3369141</ele>
        <time>2010-10-23T08:19:50Z</time>
      </trkpt>
      <trkpt lat="44.07304" lon="6.3284">
        <ele>1308.4916992</ele>
        <time>2010-10-23T08:20:00Z</time>
      </trkpt>
      <trkpt lat="44.07315" lon="6.32843">
        <ele>1310.8950195</ele>
        <time>2010-10-23T08:20:07Z</time>
      </trkpt>
      <trkpt lat="44.07327" lon="6.3285">
        <ele>1312.3369141</ele>
        <time>2010-10-23T08:20:16Z</time>
      </trkpt>
      <trkpt lat="44.07334" lon="6.32854">
        <ele>1313.7788086</ele>
        <time>2010-10-23T08:20:23Z</time>
      </trkpt>
      <trkpt lat="44.07335" lon="6.32854">
        <ele>1314.2595215</ele>
        <time>2010-10-23T08:20:29Z</time>
      </trkpt>
      <trkpt lat="44.07336" lon="6.32855">
        <ele>1315.7016602</ele>
        <time>2010-10-23T08:20:31Z</time>
      </trkpt>
      <trkpt lat="44.07338" lon="6.32861">
        <ele>1318.1047363</ele>
        <time>2010-10-23T08:20:38Z</time>
      </trkpt>
      <trkpt lat="44.0734" lon="6.32865">
        <ele>1317.1435547</ele>
        <time>2010-10-23T08:21:00Z</time>
      </trkpt>
      <trkpt lat="44.07351" lon="6.32872">
        <ele>1318.5854492</ele>
        <time>2010-10-23T08:21:08Z</time>
      </trkpt>
      <trkpt lat="44.07359" lon="6.32874">
        <ele>1319.546875</ele>
        <time>2010-10-23T08:21:14Z</time>
      </trkpt>
      <trkpt lat="44.07369" lon="6.32884">
        <ele>1321.4692383</ele>
        <time>2010-10-23T08:21:23Z</time>
      </trkpt>
      <trkpt lat="44.07371" lon="6.32889">
        <ele>1322.911377</ele>
        <time>2010-10-23T08:21:26Z</time>
      </trkpt>
      <trkpt lat="44.07373" lon="6.32894">
        <ele>1322.911377</ele>
        <time>2010-10-23T08:21:29Z</time>
      </trkpt>
      <trkpt lat="44.07373" lon="6.32901">
        <ele>1323.8725586</ele>
        <time>2010-10-23T08:21:33Z</time>
      </trkpt>
      <trkpt lat="44.07379" lon="6.3292">
        <ele>1325.3146973</ele>
        <time>2010-10-23T08:21:44Z</time>
      </trkpt>
      <trkpt lat="44.07389" lon="6.32928">
        <ele>1327.7180176</ele>
        <time>2010-10-23T08:21:52Z</time>
      </trkpt>
      <trkpt lat="44.07399" lon="6.32935">
        <ele>1326.276123</ele>
        <time>2010-10-23T08:21:59Z</time>
      </trkpt>
      <trkpt lat="44.07412" lon="6.32939">
        <ele>1326.7568359</ele>
        <time>2010-10-23T08:22:07Z</time>
      </trkpt>
      <trkpt lat="44.07419" lon="6.32944">
        <ele>1326.7568359</ele>
        <time>2010-10-23T08:22:13Z</time>
      </trkpt>
      <trkpt lat="44.07428" lon="6.32955">
        <ele>1328.1987305</ele>
        <time>2010-10-23T08:22:21Z</time>
      </trkpt>
      <trkpt lat="44.07436" lon="6.32974">
        <ele>1331.5632324</ele>
        <time>2010-10-23T08:22:32Z</time>
      </trkpt>
      <trkpt lat="44.07444" lon="6.32988">
        <ele>1333.005127</ele>
        <time>2010-10-23T08:22:41Z</time>
      </trkpt>
      <trkpt lat="44.07454" lon="6.33001">
        <ele>1337.8117676</ele>
        <time>2010-10-23T08:22:51Z</time>
      </trkpt>
      <trkpt lat="44.07465" lon="6.33016">
        <ele>1341.1765137</ele>
        <time>2010-10-23T08:23:02Z</time>
      </trkpt>
      <trkpt lat="44.07476" lon="6.33033">
        <ele>1343.579834</ele>
        <time>2010-10-23T08:23:13Z</time>
      </trkpt>
      <trkpt lat="44.07488" lon="6.33048">
        <ele>1345.5024414</ele>
        <time>2010-10-23T08:23:23Z</time>
      </trkpt>
      <trkpt lat="44.07499" lon="6.33062">
        <ele>1346.9443359</ele>
        <time>2010-10-23T08:23:33Z</time>
      </trkpt>
      <trkpt lat="44.0751" lon="6.33073">
        <ele>1347.9057617</ele>
        <time>2010-10-23T08:23:42Z</time>
      </trkpt>
      <trkpt lat="44.07525" lon="6.33077">
        <ele>1350.309082</ele>
        <time>2010-10-23T08:23:51Z</time>
      </trkpt>
      <trkpt lat="44.07537" lon="6.33081">
        <ele>1351.2702637</ele>
        <time>2010-10-23T08:23:59Z</time>
      </trkpt>
      <trkpt lat="44.07546" lon="6.33085">
        <ele>1352.7121582</ele>
        <time>2010-10-23T08:24:06Z</time>
      </trkpt>
      <trkpt lat="44.07551" lon="6.33087">
        <ele>1353.1928711</ele>
        <time>2010-10-23T08:24:09Z</time>
      </trkpt>
      <trkpt lat="44.07562" lon="6.33098">
        <ele>1351.7509766</ele>
        <time>2010-10-23T08:24:17Z</time>
      </trkpt>
      <trkpt lat="44.07576" lon="6.33113">
        <ele>1352.7121582</ele>
        <time>2010-10-23T08:24:28Z</time>
      </trkpt>
      <trkpt lat="44.07582" lon="6.33122">
        <ele>1352.2314453</ele>
        <time>2010-10-23T08:24:34Z</time>
      </trkpt>
      <trkpt lat="44.07589" lon="6.3313">
        <ele>1353.673584</ele>
        <time>2010-10-23T08:24:41Z</time>
      </trkpt>
      <trkpt lat="44.07596" lon="6.33133">
        <ele>1356.5576172</ele>
        <time>2010-10-23T08:24:48Z</time>
      </trkpt>
      <trkpt lat="44.07596" lon="6.33141">
        <ele>1348.8669434</ele>
        <time>2010-10-23T08:25:11Z</time>
      </trkpt>
      <trkpt lat="44.07607" lon="6.33155">
        <ele>1351.2702637</ele>
        <time>2010-10-23T08:25:18Z</time>
      </trkpt>
      <trkpt lat="44.07619" lon="6.33167">
        <ele>1354.6347656</ele>
        <time>2010-10-23T08:25:25Z</time>
      </trkpt>
      <trkpt lat="44.07633" lon="6.33181">
        <ele>1357.9997559</ele>
        <time>2010-10-23T08:25:32Z</time>
      </trkpt>
      <trkpt lat="44.07653" lon="6.33198">
        <ele>1361.3642578</ele>
        <time>2010-10-23T08:25:41Z</time>
      </trkpt>
      <trkpt lat="44.07659" lon="6.33205">
        <ele>1361.8449707</ele>
        <time>2010-10-23T08:25:47Z</time>
      </trkpt>
      <trkpt lat="44.07671" lon="6.33212">
        <ele>1363.767334</ele>
        <time>2010-10-23T08:25:55Z</time>
      </trkpt>
      <trkpt lat="44.0768" lon="6.33215">
        <ele>1367.6125488</ele>
        <time>2010-10-23T08:26:03Z</time>
      </trkpt>
      <trkpt lat="44.0769" lon="6.33222">
        <ele>1369.5354004</ele>
        <time>2010-10-23T08:26:10Z</time>
      </trkpt>
      <trkpt lat="44.077" lon="6.33233">
        <ele>1370.496582</ele>
        <time>2010-10-23T08:26:18Z</time>
      </trkpt>
      <trkpt lat="44.0771" lon="6.33241">
        <ele>1371.9384766</ele>
        <time>2010-10-23T08:26:25Z</time>
      </trkpt>
      <trkpt lat="44.0772" lon="6.33248">
        <ele>1371.9384766</ele>
        <time>2010-10-23T08:26:33Z</time>
      </trkpt>
      <trkpt lat="44.07727" lon="6.33255">
        <ele>1371.4577637</ele>
        <time>2010-10-23T08:26:39Z</time>
      </trkpt>
      <trkpt lat="44.07739" lon="6.33262">
        <ele>1371.4577637</ele>
        <time>2010-10-23T08:26:47Z</time>
      </trkpt>
      <trkpt lat="44.07748" lon="6.33269">
        <ele>1370.496582</ele>
        <time>2010-10-23T08:26:54Z</time>
      </trkpt>
      <trkpt lat="44.07757" lon="6.33273">
        <ele>1371.9384766</ele>
        <time>2010-10-23T08:27:01Z</time>
      </trkpt>
      <trkpt lat="44.07769" lon="6.33279">
        <ele>1376.2646484</ele>
        <time>2010-10-23T08:27:10Z</time>
      </trkpt>
      <trkpt lat="44.07781" lon="6.33288">
        <ele>1377.2260742</ele>
        <time>2010-10-23T08:27:19Z</time>
      </trkpt>
      <trkpt lat="44.07791" lon="6.33296">
        <ele>1378.1872559</ele>
        <time>2010-10-23T08:27:27Z</time>
      </trkpt>
      <trkpt lat="44.078" lon="6.333">
        <ele>1380.5905762</ele>
        <time>2010-10-23T08:27:34Z</time>
      </trkpt>
      <trkpt lat="44.07812" lon="6.33308">
        <ele>1380.1098633</ele>
        <time>2010-10-23T08:27:42Z</time>
      </trkpt>
      <trkpt lat="44.07817" lon="6.33311">
        <ele>1378.6679688</ele>
        <time>2010-10-23T08:27:46Z</time>
      </trkpt>
      <trkpt lat="44.07823" lon="6.33313">
        <ele>1380.5905762</ele>
        <time>2010-10-23T08:27:50Z</time>
      </trkpt>
      <trkpt lat="44.07828" lon="6.33316">
        <ele>1380.5905762</ele>
        <time>2010-10-23T08:27:54Z</time>
      </trkpt>
      <trkpt lat="44.07837" lon="6.33317">
        <ele>1384.9165039</ele>
        <time>2010-10-23T08:28:00Z</time>
      </trkpt>
      <trkpt lat="44.07849" lon="6.3332">
        <ele>1387.800293</ele>
        <time>2010-10-23T08:28:08Z</time>
      </trkpt>
      <trkpt lat="44.07857" lon="6.33321">
        <ele>1390.6843262</ele>
        <time>2010-10-23T08:28:14Z</time>
      </trkpt>
      <trkpt lat="44.07867" lon="6.3333">
        <ele>1392.6071777</ele>
        <time>2010-10-23T08:28:22Z</time>
      </trkpt>
      <trkpt lat="44.07878" lon="6.33335">
        <ele>1393.0876465</ele>
        <time>2010-10-23T08:28:30Z</time>
      </trkpt>
      <trkpt lat="44.07893" lon="6.33334">
        <ele>1399.3361816</ele>
        <time>2010-10-23T08:28:39Z</time>
      </trkpt>
      <trkpt lat="44.07902" lon="6.33337">
        <ele>1398.3747559</ele>
        <time>2010-10-23T08:28:45Z</time>
      </trkpt>
      <trkpt lat="44.0791" lon="6.33338">
        <ele>1399.8168945</ele>
        <time>2010-10-23T08:28:51Z</time>
      </trkpt>
      <trkpt lat="44.0792" lon="6.33343">
        <ele>1400.7780762</ele>
        <time>2010-10-23T08:28:58Z</time>
      </trkpt>
      <trkpt lat="44.07934" lon="6.33349">
        <ele>1403.1813965</ele>
        <time>2010-10-23T08:29:07Z</time>
      </trkpt>
      <trkpt lat="44.07946" lon="6.33348">
        <ele>1407.9882812</ele>
        <time>2010-10-23T08:29:15Z</time>
      </trkpt>
      <trkpt lat="44.07955" lon="6.33352">
        <ele>1407.0268555</ele>
        <time>2010-10-23T08:29:21Z</time>
      </trkpt>
      <trkpt lat="44.07968" lon="6.33357">
        <ele>1407.9882812</ele>
        <time>2010-10-23T08:29:29Z</time>
      </trkpt>
      <trkpt lat="44.07979" lon="6.33363">
        <ele>1405.104248</ele>
        <time>2010-10-23T08:29:36Z</time>
      </trkpt>
      <trkpt lat="44.07983" lon="6.33364">
        <ele>1407.5075684</ele>
        <time>2010-10-23T08:29:40Z</time>
      </trkpt>
      <trkpt lat="44.07997" lon="6.33372">
        <ele>1403.6621094</ele>
        <time>2010-10-23T08:29:48Z</time>
      </trkpt>
      <trkpt lat="44.08012" lon="6.33377">
        <ele>1405.104248</ele>
        <time>2010-10-23T08:29:58Z</time>
      </trkpt>
      <trkpt lat="44.08024" lon="6.33382">
        <ele>1407.0268555</ele>
        <time>2010-10-23T08:30:06Z</time>
      </trkpt>
      <trkpt lat="44.08035" lon="6.33388">
        <ele>1406.5461426</ele>
        <time>2010-10-23T08:30:13Z</time>
      </trkpt>
      <trkpt lat="44.08045" lon="6.33395">
        <ele>1407.0268555</ele>
        <time>2010-10-23T08:30:21Z</time>
      </trkpt>
      <trkpt lat="44.08056" lon="6.33404">
        <ele>1406.5461426</ele>
        <time>2010-10-23T08:30:29Z</time>
      </trkpt>
      <trkpt lat="44.08064" lon="6.3341">
        <ele>1407.9882812</ele>
        <time>2010-10-23T08:30:35Z</time>
      </trkpt>
      <trkpt lat="44.08073" lon="6.33418">
        <ele>1410.3913574</ele>
        <time>2010-10-23T08:30:42Z</time>
      </trkpt>
      <trkpt lat="44.08081" lon="6.33422">
        <ele>1411.3527832</ele>
        <time>2010-10-23T08:30:47Z</time>
      </trkpt>
      <trkpt lat="44.0808" lon="6.33426">
        <ele>1411.3527832</ele>
        <time>2010-10-23T08:30:51Z</time>
      </trkpt>
      <trkpt lat="44.08072" lon="6.33427">
        <ele>1411.8334961</ele>
        <time>2010-10-23T08:30:57Z</time>
      </trkpt>
      <trkpt lat="44.08075" lon="6.33426">
        <ele>1412.3139648</ele>
        <time>2010-10-23T08:31:04Z</time>
      </trkpt>
      <trkpt lat="44.08072" lon="6.33426">
        <ele>1412.7946777</ele>
        <time>2010-10-23T08:31:11Z</time>
      </trkpt>
      <trkpt lat="44.08068" lon="6.33424">
        <ele>1412.7946777</ele>
        <time>2010-10-23T08:31:16Z</time>
      </trkpt>
      <trkpt lat="44.08066" lon="6.33422">
        <ele>1412.7946777</ele>
        <time>2010-10-23T08:31:21Z</time>
      </trkpt>
      <trkpt lat="44.08065" lon="6.33418">
        <ele>1414.7172852</ele>
        <time>2010-10-23T08:31:26Z</time>
      </trkpt>
      <trkpt lat="44.08062" lon="6.33418">
        <ele>1415.197998</ele>
        <time>2010-10-23T08:31:34Z</time>
      </trkpt>
      <trkpt lat="44.08058" lon="6.33418">
        <ele>1413.7558594</ele>
        <time>2010-10-23T08:31:40Z</time>
      </trkpt>
      <trkpt lat="44.08054" lon="6.33424">
        <ele>1405.5849609</ele>
        <time>2010-10-23T08:32:34Z</time>
      </trkpt>
      <trkpt lat="44.08053" lon="6.33422">
        <ele>1407.0268555</ele>
        <time>2010-10-23T08:32:36Z</time>
      </trkpt>
      <trkpt lat="44.08045" lon="6.3342">
        <ele>1410.3913574</ele>
        <time>2010-10-23T08:32:43Z</time>
      </trkpt>
      <trkpt lat="44.08035" lon="6.33421">
        <ele>1413.7558594</ele>
        <time>2010-10-23T08:32:53Z</time>
      </trkpt>
      <trkpt lat="44.08031" lon="6.33423">
        <ele>1415.197998</ele>
        <time>2010-10-23T08:33:00Z</time>
      </trkpt>
      <trkpt lat="44.08026" lon="6.33425">
        <ele>1416.1591797</ele>
        <time>2010-10-23T08:33:05Z</time>
      </trkpt>
      <trkpt lat="44.0802" lon="6.3343">
        <ele>1418.5625</ele>
        <time>2010-10-23T08:33:12Z</time>
      </trkpt>
      <trkpt lat="44.08011" lon="6.33436">
        <ele>1421.4465332</ele>
        <time>2010-10-23T08:33:20Z</time>
      </trkpt>
      <trkpt lat="44.07999" lon="6.33442">
        <ele>1421.9272461</ele>
        <time>2010-10-23T08:33:29Z</time>
      </trkpt>
      <trkpt lat="44.0799" lon="6.33447">
        <ele>1424.3305664</ele>
        <time>2010-10-23T08:33:36Z</time>
      </trkpt>
      <trkpt lat="44.0798" lon="6.33452">
        <ele>1424.8112793</ele>
        <time>2010-10-23T08:33:43Z</time>
      </trkpt>
      <trkpt lat="44.07972" lon="6.33453">
        <ele>1426.7338867</ele>
        <time>2010-10-23T08:33:50Z</time>
      </trkpt>
      <trkpt lat="44.07967" lon="6.33455">
        <ele>1426.7338867</ele>
        <time>2010-10-23T08:33:55Z</time>
      </trkpt>
      <trkpt lat="44.07958" lon="6.33458">
        <ele>1429.1369629</ele>
        <time>2010-10-23T08:34:02Z</time>
      </trkpt>
      <trkpt lat="44.07952" lon="6.33462">
        <ele>1428.6564941</ele>
        <time>2010-10-23T08:34:09Z</time>
      </trkpt>
      <trkpt lat="44.07946" lon="6.33464">
        <ele>1424.8112793</ele>
        <time>2010-10-23T08:34:16Z</time>
      </trkpt>
      <trkpt lat="44.07943" lon="6.33466">
        <ele>1424.8112793</ele>
        <time>2010-10-23T08:34:22Z</time>
      </trkpt>
      <trkpt lat="44.0794" lon="6.33468">
        <ele>1426.7338867</ele>
        <time>2010-10-23T08:34:29Z</time>
      </trkpt>
      <trkpt lat="44.07934" lon="6.33471">
        <ele>1429.1369629</ele>
        <time>2010-10-23T08:34:37Z</time>
      </trkpt>
      <trkpt lat="44.07931" lon="6.33471">
        <ele>1429.6176758</ele>
        <time>2010-10-23T08:34:41Z</time>
      </trkpt>
      <trkpt lat="44.07924" lon="6.33473">
        <ele>1430.5791016</ele>
        <time>2010-10-23T08:34:47Z</time>
      </trkpt>
      <trkpt lat="44.07919" lon="6.33474">
        <ele>1431.0598145</ele>
        <time>2010-10-23T08:34:52Z</time>
      </trkpt>
      <trkpt lat="44.0791" lon="6.33478">
        <ele>1432.9821777</ele>
        <time>2010-10-23T08:35:01Z</time>
      </trkpt>
      <trkpt lat="44.07902" lon="6.3348">
        <ele>1435.385498</ele>
        <time>2010-10-23T08:35:10Z</time>
      </trkpt>
      <trkpt lat="44.079" lon="6.33473">
        <ele>1444.0375977</ele>
        <time>2010-10-23T08:35:21Z</time>
      </trkpt>
      <trkpt lat="44.07894" lon="6.33475">
        <ele>1441.1535645</ele>
        <time>2010-10-23T08:35:33Z</time>
      </trkpt>
      <trkpt lat="44.0789" lon="6.33477">
        <ele>1439.7116699</ele>
        <time>2010-10-23T08:35:38Z</time>
      </trkpt>
      <trkpt lat="44.07897" lon="6.33477">
        <ele>1441.6342773</ele>
        <time>2010-10-23T08:35:47Z</time>
      </trkpt>
      <trkpt lat="44.07906" lon="6.33479">
        <ele>1445.4794922</ele>
        <time>2010-10-23T08:35:54Z</time>
      </trkpt>
      <trkpt lat="44.07908" lon="6.33481">
        <ele>1445.4794922</ele>
        <time>2010-10-23T08:35:59Z</time>
      </trkpt>
      <trkpt lat="44.07911" lon="6.33485">
        <ele>1444.0375977</ele>
        <time>2010-10-23T08:36:10Z</time>
      </trkpt>
      <trkpt lat="44.0791" lon="6.33487">
        <ele>1442.1149902</ele>
        <time>2010-10-23T08:36:17Z</time>
      </trkpt>
      <trkpt lat="44.07909" lon="6.33489">
        <ele>1447.8828125</ele>
        <time>2010-10-23T08:37:38Z</time>
      </trkpt>
      <trkpt lat="44.0791" lon="6.33489">
        <ele>1447.8828125</ele>
        <time>2010-10-23T08:37:39Z</time>
      </trkpt>
      <trkpt lat="44.07917" lon="6.33491">
        <ele>1446.9213867</ele>
        <time>2010-10-23T08:37:43Z</time>
      </trkpt>
      <trkpt lat="44.07934" lon="6.33497">
        <ele>1453.170166</ele>
        <time>2010-10-23T08:37:52Z</time>
      </trkpt>
      <trkpt lat="44.07948" lon="6.335">
        <ele>1455.5734863</ele>
        <time>2010-10-23T08:38:01Z</time>
      </trkpt>
      <trkpt lat="44.07964" lon="6.33505">
        <ele>1456.534668</ele>
        <time>2010-10-23T08:38:10Z</time>
      </trkpt>
      <trkpt lat="44.07975" lon="6.33508">
        <ele>1458.4572754</ele>
        <time>2010-10-23T08:38:17Z</time>
      </trkpt>
      <trkpt lat="44.07984" lon="6.33511">
        <ele>1458.9379883</ele>
        <time>2010-10-23T08:38:23Z</time>
      </trkpt>
      <trkpt lat="44.07995" lon="6.33514">
        <ele>1460.8605957</ele>
        <time>2010-10-23T08:38:31Z</time>
      </trkpt>
      <trkpt lat="44.08008" lon="6.33519">
        <ele>1459.4187012</ele>
        <time>2010-10-23T08:38:38Z</time>
      </trkpt>
      <trkpt lat="44.08018" lon="6.33522">
        <ele>1457.9768066</ele>
        <time>2010-10-23T08:38:45Z</time>
      </trkpt>
      <trkpt lat="44.08029" lon="6.33527">
        <ele>1457.9768066</ele>
        <time>2010-10-23T08:38:52Z</time>
      </trkpt>
      <trkpt lat="44.08037" lon="6.33526">
        <ele>1461.8220215</ele>
        <time>2010-10-23T08:38:58Z</time>
      </trkpt>
      <trkpt lat="44.08039" lon="6.33525">
        <ele>1462.3024902</ele>
        <time>2010-10-23T08:39:00Z</time>
      </trkpt>
      <trkpt lat="44.0804" lon="6.33529">
        <ele>1458.9379883</ele>
        <time>2010-10-23T08:39:05Z</time>
      </trkpt>
      <trkpt lat="44.08036" lon="6.33531">
        <ele>1456.0539551</ele>
        <time>2010-10-23T08:39:13Z</time>
      </trkpt>
      <trkpt lat="44.08033" lon="6.33535">
        <ele>1454.6120605</ele>
        <time>2010-10-23T08:39:21Z</time>
      </trkpt>
      <trkpt lat="44.08029" lon="6.33537">
        <ele>1455.5734863</ele>
        <time>2010-10-23T08:39:30Z</time>
      </trkpt>
      <trkpt lat="44.08023" lon="6.33537">
        <ele>1455.0927734</ele>
        <time>2010-10-23T08:39:39Z</time>
      </trkpt>
      <trkpt lat="44.08012" lon="6.33541">
        <ele>1454.6120605</ele>
        <time>2010-10-23T08:39:46Z</time>
      </trkpt>
      <trkpt lat="44.08003" lon="6.33546">
        <ele>1457.0153809</ele>
        <time>2010-10-23T08:39:54Z</time>
      </trkpt>
      <trkpt lat="44.07995" lon="6.3355">
        <ele>1460.3798828</ele>
        <time>2010-10-23T08:40:01Z</time>
      </trkpt>
      <trkpt lat="44.07988" lon="6.33554">
        <ele>1463.7443848</ele>
        <time>2010-10-23T08:40:09Z</time>
      </trkpt>
      <trkpt lat="44.07981" lon="6.33556">
        <ele>1465.6672363</ele>
        <time>2010-10-23T08:40:16Z</time>
      </trkpt>
      <trkpt lat="44.07976" lon="6.33559">
        <ele>1466.1477051</ele>
        <time>2010-10-23T08:40:21Z</time>
      </trkpt>
      <trkpt lat="44.07966" lon="6.33563">
        <ele>1467.5895996</ele>
        <time>2010-10-23T08:40:28Z</time>
      </trkpt>
      <trkpt lat="44.07955" lon="6.33568">
        <ele>1468.5512695</ele>
        <time>2010-10-23T08:40:36Z</time>
      </trkpt>
      <trkpt lat="44.07947" lon="6.33572">
        <ele>1471.4350586</ele>
        <time>2010-10-23T08:40:44Z</time>
      </trkpt>
      <trkpt lat="44.07946" lon="6.33572">
        <ele>1471.4350586</ele>
        <time>2010-10-23T08:40:45Z</time>
      </trkpt>
      <trkpt lat="44.07938" lon="6.33576">
        <ele>1472.8771973</ele>
        <time>2010-10-23T08:40:52Z</time>
      </trkpt>
      <trkpt lat="44.07929" lon="6.33578">
        <ele>1472.3964844</ele>
        <time>2010-10-23T08:40:59Z</time>
      </trkpt>
      <trkpt lat="44.07924" lon="6.3358">
        <ele>1474.3190918</ele>
        <time>2010-10-23T08:41:03Z</time>
      </trkpt>
      <trkpt lat="44.07914" lon="6.3358">
        <ele>1477.203125</ele>
        <time>2010-10-23T08:41:11Z</time>
      </trkpt>
      <trkpt lat="44.07904" lon="6.33583">
        <ele>1479.1254883</ele>
        <time>2010-10-23T08:41:19Z</time>
      </trkpt>
      <trkpt lat="44.07897" lon="6.33584">
        <ele>1479.6062012</ele>
        <time>2010-10-23T08:41:26Z</time>
      </trkpt>
      <trkpt lat="44.07897" lon="6.33586">
        <ele>1480.567627</ele>
        <time>2010-10-23T08:41:31Z</time>
      </trkpt>
      <trkpt lat="44.079" lon="6.33586">
        <ele>1483.9321289</ele>
        <time>2010-10-23T08:41:37Z</time>
      </trkpt>
      <trkpt lat="44.07905" lon="6.3359">
        <ele>1488.2583008</ele>
        <time>2010-10-23T08:41:45Z</time>
      </trkpt>
      <trkpt lat="44.07908" lon="6.33592">
        <ele>1492.5842285</ele>
        <time>2010-10-23T08:41:55Z</time>
      </trkpt>
      <trkpt lat="44.0791" lon="6.33593">
        <ele>1493.5454102</ele>
        <time>2010-10-23T08:42:01Z</time>
      </trkpt>
      <trkpt lat="44.07911" lon="6.33594">
        <ele>1494.026123</ele>
        <time>2010-10-23T08:42:04Z</time>
      </trkpt>
      <trkpt lat="44.0792" lon="6.33599">
        <ele>1499.3132324</ele>
        <time>2010-10-23T08:42:10Z</time>
      </trkpt>
      <trkpt lat="44.07933" lon="6.33604">
        <ele>1505.0812988</ele>
        <time>2010-10-23T08:42:18Z</time>
      </trkpt>
      <trkpt lat="44.07941" lon="6.33606">
        <ele>1507.4846191</ele>
        <time>2010-10-23T08:42:24Z</time>
      </trkpt>
      <trkpt lat="44.07951" lon="6.33605">
        <ele>1509.4072266</ele>
        <time>2010-10-23T08:42:31Z</time>
      </trkpt>
      <trkpt lat="44.07961" lon="6.3361">
        <ele>1508.9265137</ele>
        <time>2010-10-23T08:42:39Z</time>
      </trkpt>
      <trkpt lat="44.07972" lon="6.33615">
        <ele>1507.965332</ele>
        <time>2010-10-23T08:42:47Z</time>
      </trkpt>
      <trkpt lat="44.07981" lon="6.33619">
        <ele>1508.9265137</ele>
        <time>2010-10-23T08:42:54Z</time>
      </trkpt>
      <trkpt lat="44.07991" lon="6.33621">
        <ele>1512.7717285</ele>
        <time>2010-10-23T08:43:02Z</time>
      </trkpt>
      <trkpt lat="44.07996" lon="6.33622">
        <ele>1513.7329102</ele>
        <time>2010-10-23T08:43:07Z</time>
      </trkpt>
      <trkpt lat="44.08003" lon="6.33627">
        <ele>1512.2910156</ele>
        <time>2010-10-23T08:43:13Z</time>
      </trkpt>
      <trkpt lat="44.08007" lon="6.3363">
        <ele>1514.6943359</ele>
        <time>2010-10-23T08:43:19Z</time>
      </trkpt>
      <trkpt lat="44.08016" lon="6.3363">
        <ele>1517.0979004</ele>
        <time>2010-10-23T08:43:27Z</time>
      </trkpt>
      <trkpt lat="44.08018" lon="6.33631">
        <ele>1517.0979004</ele>
        <time>2010-10-23T08:43:33Z</time>
      </trkpt>
      <trkpt lat="44.08022" lon="6.33632">
        <ele>1519.0205078</ele>
        <time>2010-10-23T08:43:38Z</time>
      </trkpt>
      <trkpt lat="44.08028" lon="6.33635">
        <ele>1519.5012207</ele>
        <time>2010-10-23T08:43:45Z</time>
      </trkpt>
      <trkpt lat="44.08034" lon="6.33638">
        <ele>1522.3850098</ele>
        <time>2010-10-23T08:43:55Z</time>
      </trkpt>
      <trkpt lat="44.08043" lon="6.33646">
        <ele>1524.3076172</ele>
        <time>2010-10-23T08:44:01Z</time>
      </trkpt>
      <trkpt lat="44.08052" lon="6.33655">
        <ele>1525.7495117</ele>
        <time>2010-10-23T08:44:08Z</time>
      </trkpt>
      <trkpt lat="44.08056" lon="6.33661">
        <ele>1528.152832</ele>
        <time>2010-10-23T08:44:13Z</time>
      </trkpt>
      <trkpt lat="44.08058" lon="6.33661">
        <ele>1526.7109375</ele>
        <time>2010-10-23T08:44:18Z</time>
      </trkpt>
      <trkpt lat="44.0806" lon="6.33667">
        <ele>1528.152832</ele>
        <time>2010-10-23T08:45:06Z</time>
      </trkpt>
      <trkpt lat="44.08061" lon="6.33667">
        <ele>1521.9042969</ele>
        <time>2010-10-23T08:45:10Z</time>
      </trkpt>
      <trkpt lat="44.08053" lon="6.33667">
        <ele>1516.1364746</ele>
        <time>2010-10-23T08:45:17Z</time>
      </trkpt>
      <trkpt lat="44.0804" lon="6.33663">
        <ele>1517.5783691</ele>
        <time>2010-10-23T08:45:24Z</time>
      </trkpt>
      <trkpt lat="44.0803" lon="6.33664">
        <ele>1519.5012207</ele>
        <time>2010-10-23T08:45:30Z</time>
      </trkpt>
      <trkpt lat="44.08018" lon="6.33664">
        <ele>1519.9816895</ele>
        <time>2010-10-23T08:45:36Z</time>
      </trkpt>
      <trkpt lat="44.08012" lon="6.33665">
        <ele>1522.3850098</ele>
        <time>2010-10-23T08:45:41Z</time>
      </trkpt>
      <trkpt lat="44.08005" lon="6.33668">
        <ele>1522.3850098</ele>
        <time>2010-10-23T08:45:46Z</time>
      </trkpt>
      <trkpt lat="44.07999" lon="6.33671">
        <ele>1522.3850098</ele>
        <time>2010-10-23T08:45:51Z</time>
      </trkpt>
      <trkpt lat="44.07991" lon="6.33672">
        <ele>1519.9816895</ele>
        <time>2010-10-23T08:45:56Z</time>
      </trkpt>
      <trkpt lat="44.07987" lon="6.33671">
        <ele>1523.3464355</ele>
        <time>2010-10-23T08:46:08Z</time>
      </trkpt>
      <trkpt lat="44.07982" lon="6.33662">
        <ele>1532.9594727</ele>
        <time>2010-10-23T08:47:00Z</time>
      </trkpt>
      <trkpt lat="44.07977" lon="6.33667">
        <ele>1527.1916504</ele>
        <time>2010-10-23T08:47:06Z</time>
      </trkpt>
      <trkpt lat="44.07965" lon="6.33673">
        <ele>1524.3076172</ele>
        <time>2010-10-23T08:47:13Z</time>
      </trkpt>
      <trkpt lat="44.07954" lon="6.33678">
        <ele>1521.9042969</ele>
        <time>2010-10-23T08:47:19Z</time>
      </trkpt>
      <trkpt lat="44.07943" lon="6.33679">
        <ele>1521.9042969</ele>
        <time>2010-10-23T08:47:25Z</time>
      </trkpt>
      <trkpt lat="44.07933" lon="6.33679">
        <ele>1524.7883301</ele>
        <time>2010-10-23T08:47:31Z</time>
      </trkpt>
      <trkpt lat="44.07922" lon="6.33679">
        <ele>1527.1916504</ele>
        <time>2010-10-23T08:47:37Z</time>
      </trkpt>
      <trkpt lat="44.07915" lon="6.33678">
        <ele>1527.1916504</ele>
        <time>2010-10-23T08:47:43Z</time>
      </trkpt>
      <trkpt lat="44.07905" lon="6.33678">
        <ele>1526.7109375</ele>
        <time>2010-10-23T08:47:50Z</time>
      </trkpt>
      <trkpt lat="44.07904" lon="6.33675">
        <ele>1530.5561523</ele>
        <time>2010-10-23T08:47:54Z</time>
      </trkpt>
      <trkpt lat="44.07904" lon="6.33675">
        <ele>1531.517334</ele>
        <time>2010-10-23T08:48:00Z</time>
      </trkpt>
      <trkpt lat="44.07901" lon="6.33677">
        <ele>1529.1140137</ele>
        <time>2010-10-23T08:48:07Z</time>
      </trkpt>
      <trkpt lat="44.07893" lon="6.33679">
        <ele>1528.152832</ele>
        <time>2010-10-23T08:48:17Z</time>
      </trkpt>
      <trkpt lat="44.07885" lon="6.33678">
        <ele>1529.5947266</ele>
        <time>2010-10-23T08:48:22Z</time>
      </trkpt>
      <trkpt lat="44.07877" lon="6.33677">
        <ele>1528.152832</ele>
        <time>2010-10-23T08:48:26Z</time>
      </trkpt>
      <trkpt lat="44.07865" lon="6.33677">
        <ele>1528.6335449</ele>
        <time>2010-10-23T08:48:32Z</time>
      </trkpt>
      <trkpt lat="44.07853" lon="6.33676">
        <ele>1528.152832</ele>
        <time>2010-10-23T08:48:39Z</time>
      </trkpt>
      <trkpt lat="44.07842" lon="6.33673">
        <ele>1529.1140137</ele>
        <time>2010-10-23T08:48:46Z</time>
      </trkpt>
      <trkpt lat="44.07832" lon="6.33672">
        <ele>1531.517334</ele>
        <time>2010-10-23T08:48:53Z</time>
      </trkpt>
      <trkpt lat="44.07823" lon="6.33672">
        <ele>1534.4016113</ele>
        <time>2010-10-23T08:48:59Z</time>
      </trkpt>
      <trkpt lat="44.07816" lon="6.33671">
        <ele>1535.362793</ele>
        <time>2010-10-23T08:49:05Z</time>
      </trkpt>
      <trkpt lat="44.07811" lon="6.33669">
        <ele>1535.362793</ele>
        <time>2010-10-23T08:49:10Z</time>
      </trkpt>
      <trkpt lat="44.07811" lon="6.33667">
        <ele>1536.8046875</ele>
        <time>2010-10-23T08:49:26Z</time>
      </trkpt>
      <trkpt lat="44.0781" lon="6.33667">
        <ele>1539.2080078</ele>
        <time>2010-10-23T08:52:12Z</time>
      </trkpt>
      <trkpt lat="44.07811" lon="6.33667">
        <ele>1539.6887207</ele>
        <time>2010-10-23T08:52:17Z</time>
      </trkpt>
      <trkpt lat="44.07812" lon="6.33667">
        <ele>1541.1306152</ele>
        <time>2010-10-23T08:52:20Z</time>
      </trkpt>
      <trkpt lat="44.07823" lon="6.33676">
        <ele>1545.9372559</ele>
        <time>2010-10-23T08:52:27Z</time>
      </trkpt>
      <trkpt lat="44.07831" lon="6.33676">
        <ele>1552.6665039</ele>
        <time>2010-10-23T08:52:33Z</time>
      </trkpt>
      <trkpt lat="44.07833" lon="6.33682">
        <ele>1553.1472168</ele>
        <time>2010-10-23T08:52:39Z</time>
      </trkpt>
      <trkpt lat="44.07843" lon="6.33687">
        <ele>1553.6279297</ele>
        <time>2010-10-23T08:52:54Z</time>
      </trkpt>
      <trkpt lat="44.07855" lon="6.3369">
        <ele>1556.5117188</ele>
        <time>2010-10-23T08:53:01Z</time>
      </trkpt>
      <trkpt lat="44.07862" lon="6.33695">
        <ele>1557.4731445</ele>
        <time>2010-10-23T08:53:07Z</time>
      </trkpt>
      <trkpt lat="44.07866" lon="6.33699">
        <ele>1558.4343262</ele>
        <time>2010-10-23T08:53:11Z</time>
      </trkpt>
      <trkpt lat="44.07876" lon="6.33705">
        <ele>1559.395752</ele>
        <time>2010-10-23T08:53:18Z</time>
      </trkpt>
      <trkpt lat="44.07885" lon="6.33709">
        <ele>1563.7214355</ele>
        <time>2010-10-23T08:53:26Z</time>
      </trkpt>
      <trkpt lat="44.07896" lon="6.33716">
        <ele>1565.1638184</ele>
        <time>2010-10-23T08:53:35Z</time>
      </trkpt>
      <trkpt lat="44.07903" lon="6.33718">
        <ele>1567.5668945</ele>
        <time>2010-10-23T08:53:40Z</time>
      </trkpt>
      <trkpt lat="44.07913" lon="6.33719">
        <ele>1572.854248</ele>
        <time>2010-10-23T08:53:48Z</time>
      </trkpt>
      <trkpt lat="44.07923" lon="6.33728">
        <ele>1569.4897461</ele>
        <time>2010-10-23T08:53:55Z</time>
      </trkpt>
      <trkpt lat="44.0793" lon="6.33731">
        <ele>1567.5668945</ele>
        <time>2010-10-23T08:54:01Z</time>
      </trkpt>
      <trkpt lat="44.0794" lon="6.33736">
        <ele>1564.6831055</ele>
        <time>2010-10-23T08:54:08Z</time>
      </trkpt>
      <trkpt lat="44.07949" lon="6.33733">
        <ele>1572.854248</ele>
        <time>2010-10-23T08:54:16Z</time>
      </trkpt>
      <trkpt lat="44.07957" lon="6.33735">
        <ele>1571.8928223</ele>
        <time>2010-10-23T08:54:23Z</time>
      </trkpt>
      <trkpt lat="44.07967" lon="6.33739">
        <ele>1575.7380371</ele>
        <time>2010-10-23T08:54:30Z</time>
      </trkpt>
      <trkpt lat="44.07979" lon="6.33736">
        <ele>1583.4287109</ele>
        <time>2010-10-23T08:54:36Z</time>
      </trkpt>
      <trkpt lat="44.07985" lon="6.33741">
        <ele>1584.3901367</ele>
        <time>2010-10-23T08:54:42Z</time>
      </trkpt>
      <trkpt lat="44.07989" lon="6.33744">
        <ele>1584.3901367</ele>
        <time>2010-10-23T08:54:46Z</time>
      </trkpt>
      <trkpt lat="44.07995" lon="6.33745">
        <ele>1584.8708496</ele>
        <time>2010-10-23T08:54:51Z</time>
      </trkpt>
      <trkpt lat="44.08004" lon="6.33745">
        <ele>1589.1965332</ele>
        <time>2010-10-23T08:54:58Z</time>
      </trkpt>
      <trkpt lat="44.08012" lon="6.33753">
        <ele>1589.6772461</ele>
        <time>2010-10-23T08:55:05Z</time>
      </trkpt>
      <trkpt lat="44.08018" lon="6.33758">
        <ele>1590.157959</ele>
        <time>2010-10-23T08:55:11Z</time>
      </trkpt>
      <trkpt lat="44.08026" lon="6.33762">
        <ele>1593.041748</ele>
        <time>2010-10-23T08:55:18Z</time>
      </trkpt>
      <trkpt lat="44.08032" lon="6.33762">
        <ele>1598.8098145</ele>
        <time>2010-10-23T08:55:24Z</time>
      </trkpt>
      <trkpt lat="44.08032" lon="6.33767">
        <ele>1595.9257812</ele>
        <time>2010-10-23T08:55:39Z</time>
      </trkpt>
      <trkpt lat="44.0803" lon="6.33774">
        <ele>1589.6772461</ele>
        <time>2010-10-23T08:55:58Z</time>
      </trkpt>
      <trkpt lat="44.08019" lon="6.33775">
        <ele>1590.157959</ele>
        <time>2010-10-23T08:56:04Z</time>
      </trkpt>
      <trkpt lat="44.08005" lon="6.3378">
        <ele>1585.3513184</ele>
        <time>2010-10-23T08:56:12Z</time>
      </trkpt>
      <trkpt lat="44.07995" lon="6.33778">
        <ele>1588.7160645</ele>
        <time>2010-10-23T08:56:19Z</time>
      </trkpt>
      <trkpt lat="44.07984" lon="6.33785">
        <ele>1584.8708496</ele>
        <time>2010-10-23T08:56:25Z</time>
      </trkpt>
      <trkpt lat="44.07974" lon="6.33795">
        <ele>1581.5061035</ele>
        <time>2010-10-23T08:56:32Z</time>
      </trkpt>
      <trkpt lat="44.07971" lon="6.33796">
        <ele>1581.9868164</ele>
        <time>2010-10-23T08:56:34Z</time>
      </trkpt>
      <trkpt lat="44.07965" lon="6.33794">
        <ele>1581.5061035</ele>
        <time>2010-10-23T08:56:40Z</time>
      </trkpt>
      <trkpt lat="44.07957" lon="6.33795">
        <ele>1582.4675293</ele>
        <time>2010-10-23T08:56:51Z</time>
      </trkpt>
      <trkpt lat="44.07947" lon="6.33799">
        <ele>1581.0256348</ele>
        <time>2010-10-23T08:56:59Z</time>
      </trkpt>
      <trkpt lat="44.0794" lon="6.33805">
        <ele>1578.1413574</ele>
        <time>2010-10-23T08:57:04Z</time>
      </trkpt>
      <trkpt lat="44.0794" lon="6.33808">
        <ele>1574.2961426</ele>
        <time>2010-10-23T08:57:14Z</time>
      </trkpt>
      <trkpt lat="44.07936" lon="6.33802">
        <ele>1585.3513184</ele>
        <time>2010-10-23T08:57:25Z</time>
      </trkpt>
      <trkpt lat="44.07931" lon="6.33803">
        <ele>1588.7160645</ele>
        <time>2010-10-23T08:57:29Z</time>
      </trkpt>
      <trkpt lat="44.07918" lon="6.33813">
        <ele>1589.1965332</ele>
        <time>2010-10-23T08:57:36Z</time>
      </trkpt>
      <trkpt lat="44.07908" lon="6.3382">
        <ele>1588.2353516</ele>
        <time>2010-10-23T08:57:42Z</time>
      </trkpt>
      <trkpt lat="44.07906" lon="6.3382">
        <ele>1588.2353516</ele>
        <time>2010-10-23T08:57:44Z</time>
      </trkpt>
      <trkpt lat="44.07904" lon="6.3382">
        <ele>1588.7160645</ele>
        <time>2010-10-23T08:57:49Z</time>
      </trkpt>
      <trkpt lat="44.07902" lon="6.3382">
        <ele>1589.1965332</ele>
        <time>2010-10-23T08:57:55Z</time>
      </trkpt>
      <trkpt lat="44.07896" lon="6.33818">
        <ele>1589.6772461</ele>
        <time>2010-10-23T08:58:07Z</time>
      </trkpt>
      <trkpt lat="44.07888" lon="6.3382">
        <ele>1591.1191406</ele>
        <time>2010-10-23T08:58:17Z</time>
      </trkpt>
      <trkpt lat="44.07882" lon="6.33821">
        <ele>1592.5612793</ele>
        <time>2010-10-23T08:58:25Z</time>
      </trkpt>
      <trkpt lat="44.07878" lon="6.33823">
        <ele>1593.5224609</ele>
        <time>2010-10-23T08:58:32Z</time>
      </trkpt>
      <trkpt lat="44.07877" lon="6.33814">
        <ele>1610.345459</ele>
        <time>2010-10-23T09:00:18Z</time>
      </trkpt>
      <trkpt lat="44.07873" lon="6.33814">
        <ele>1611.7875977</ele>
        <time>2010-10-23T09:00:31Z</time>
      </trkpt>
      <trkpt lat="44.07867" lon="6.33813">
        <ele>1613.7102051</ele>
        <time>2010-10-23T09:00:41Z</time>
      </trkpt>
      <trkpt lat="44.07865" lon="6.33814">
        <ele>1615.6330566</ele>
        <time>2010-10-23T09:00:48Z</time>
      </trkpt>
      <trkpt lat="44.07869" lon="6.33818">
        <ele>1618.5168457</ele>
        <time>2010-10-23T09:00:55Z</time>
      </trkpt>
      <trkpt lat="44.07873" lon="6.3382">
        <ele>1619.9587402</ele>
        <time>2010-10-23T09:01:01Z</time>
      </trkpt>
      <trkpt lat="44.07871" lon="6.33823">
        <ele>1621.4006348</ele>
        <time>2010-10-23T09:01:08Z</time>
      </trkpt>
      <trkpt lat="44.07868" lon="6.33824">
        <ele>1622.8427734</ele>
        <time>2010-10-23T09:01:15Z</time>
      </trkpt>
      <trkpt lat="44.07867" lon="6.33827">
        <ele>1623.8039551</ele>
        <time>2010-10-23T09:01:22Z</time>
      </trkpt>
      <trkpt lat="44.07874" lon="6.33836">
        <ele>1623.8039551</ele>
        <time>2010-10-23T09:02:21Z</time>
      </trkpt>
      <trkpt lat="44.07879" lon="6.33833">
        <ele>1623.8039551</ele>
        <time>2010-10-23T09:02:27Z</time>
      </trkpt>
      <trkpt lat="44.07882" lon="6.33833">
        <ele>1623.8039551</ele>
        <time>2010-10-23T09:02:30Z</time>
      </trkpt>
      <trkpt lat="44.07889" lon="6.33834">
        <ele>1623.3234863</ele>
        <time>2010-10-23T09:02:38Z</time>
      </trkpt>
      <trkpt lat="44.07894" lon="6.33832">
        <ele>1623.3234863</ele>
        <time>2010-10-23T09:02:44Z</time>
      </trkpt>
      <trkpt lat="44.07898" lon="6.33833">
        <ele>1624.284668</ele>
        <time>2010-10-23T09:02:48Z</time>
      </trkpt>
      <trkpt lat="44.07902" lon="6.33836">
        <ele>1625.2458496</ele>
        <time>2010-10-23T09:02:53Z</time>
      </trkpt>
      <trkpt lat="44.07907" lon="6.33839">
        <ele>1626.2072754</ele>
        <time>2010-10-23T09:03:00Z</time>
      </trkpt>
      <trkpt lat="44.07905" lon="6.3384">
        <ele>1627.1687012</ele>
        <time>2010-10-23T09:03:04Z</time>
      </trkpt>
      <trkpt lat="44.07898" lon="6.33843">
        <ele>1630.0527344</ele>
        <time>2010-10-23T09:03:13Z</time>
      </trkpt>
      <trkpt lat="44.07892" lon="6.33849">
        <ele>1632.4560547</ele>
        <time>2010-10-23T09:03:22Z</time>
      </trkpt>
      <trkpt lat="44.07883" lon="6.33853">
        <ele>1634.859375</ele>
        <time>2010-10-23T09:03:32Z</time>
      </trkpt>
      <trkpt lat="44.07877" lon="6.33855">
        <ele>1636.7817383</ele>
        <time>2010-10-23T09:03:41Z</time>
      </trkpt>
      <trkpt lat="44.0788" lon="6.33857">
        <ele>1637.7431641</ele>
        <time>2010-10-23T09:03:47Z</time>
      </trkpt>
      <trkpt lat="44.07884" lon="6.33856">
        <ele>1637.7431641</ele>
        <time>2010-10-23T09:03:54Z</time>
      </trkpt>
      <trkpt lat="44.07888" lon="6.33857">
        <ele>1639.1850586</ele>
        <time>2010-10-23T09:04:00Z</time>
      </trkpt>
      <trkpt lat="44.07893" lon="6.3386">
        <ele>1640.6269531</ele>
        <time>2010-10-23T09:04:11Z</time>
      </trkpt>
      <trkpt lat="44.07894" lon="6.33859">
        <ele>1648.7983398</ele>
        <time>2010-10-23T09:05:09Z</time>
      </trkpt>
      <trkpt lat="44.07898" lon="6.33858">
        <ele>1650.7209473</ele>
        <time>2010-10-23T09:05:14Z</time>
      </trkpt>
      <trkpt lat="44.079" lon="6.33858">
        <ele>1651.682373</ele>
        <time>2010-10-23T09:05:19Z</time>
      </trkpt>
      <trkpt lat="44.07921" lon="6.33859">
        <ele>1658.411377</ele>
        <time>2010-10-23T09:06:41Z</time>
      </trkpt>
      <trkpt lat="44.07924" lon="6.33862">
        <ele>1663.2182617</ele>
        <time>2010-10-23T09:07:02Z</time>
      </trkpt>
      <trkpt lat="44.07928" lon="6.33866">
        <ele>1663.6987305</ele>
        <time>2010-10-23T09:07:08Z</time>
      </trkpt>
      <trkpt lat="44.07932" lon="6.33868">
        <ele>1664.6601562</ele>
        <time>2010-10-23T09:07:16Z</time>
      </trkpt>
      <trkpt lat="44.07935" lon="6.33867">
        <ele>1666.1020508</ele>
        <time>2010-10-23T09:07:23Z</time>
      </trkpt>
      <trkpt lat="44.07938" lon="6.33868">
        <ele>1666.5827637</ele>
        <time>2010-10-23T09:07:28Z</time>
      </trkpt>
      <trkpt lat="44.07943" lon="6.33868">
        <ele>1668.0246582</ele>
        <time>2010-10-23T09:07:35Z</time>
      </trkpt>
      <trkpt lat="44.0795" lon="6.33867">
        <ele>1669.4667969</ele>
        <time>2010-10-23T09:07:45Z</time>
      </trkpt>
      <trkpt lat="44.07954" lon="6.33866">
        <ele>1669.9472656</ele>
        <time>2010-10-23T09:07:52Z</time>
      </trkpt>
      <trkpt lat="44.07957" lon="6.33866">
        <ele>1670.9086914</ele>
        <time>2010-10-23T09:07:57Z</time>
      </trkpt>
      <trkpt lat="44.0796" lon="6.33866">
        <ele>1671.869873</ele>
        <time>2010-10-23T09:08:03Z</time>
      </trkpt>
      <trkpt lat="44.07963" lon="6.33865">
        <ele>1672.3505859</ele>
        <time>2010-10-23T09:08:10Z</time>
      </trkpt>
      <trkpt lat="44.07967" lon="6.33867">
        <ele>1672.8312988</ele>
        <time>2010-10-23T09:08:14Z</time>
      </trkpt>
      <trkpt lat="44.07971" lon="6.33867">
        <ele>1673.7924805</ele>
        <time>2010-10-23T09:08:22Z</time>
      </trkpt>
      <trkpt lat="44.07969" lon="6.3387">
        <ele>1674.2731934</ele>
        <time>2010-10-23T09:08:29Z</time>
      </trkpt>
      <trkpt lat="44.07968" lon="6.33873">
        <ele>1675.234375</ele>
        <time>2010-10-23T09:08:33Z</time>
      </trkpt>
      <trkpt lat="44.07971" lon="6.33873">
        <ele>1676.1960449</ele>
        <time>2010-10-23T09:08:39Z</time>
      </trkpt>
      <trkpt lat="44.07973" lon="6.33872">
        <ele>1677.6379395</ele>
        <time>2010-10-23T09:08:44Z</time>
      </trkpt>
      <trkpt lat="44.07979" lon="6.33873">
        <ele>1679.5605469</ele>
        <time>2010-10-23T09:08:55Z</time>
      </trkpt>
      <trkpt lat="44.07983" lon="6.33874">
        <ele>1680.0412598</ele>
        <time>2010-10-23T09:09:02Z</time>
      </trkpt>
      <trkpt lat="44.07987" lon="6.33873">
        <ele>1679.5605469</ele>
        <time>2010-10-23T09:09:08Z</time>
      </trkpt>
      <trkpt lat="44.07991" lon="6.33871">
        <ele>1680.0412598</ele>
        <time>2010-10-23T09:09:15Z</time>
      </trkpt>
      <trkpt lat="44.07993" lon="6.33871">
        <ele>1681.9638672</ele>
        <time>2010-10-23T09:10:11Z</time>
      </trkpt>
      <trkpt lat="44.07994" lon="6.33869">
        <ele>1683.4057617</ele>
        <time>2010-10-23T09:11:06Z</time>
      </trkpt>
      <trkpt lat="44.08005" lon="6.33871">
        <ele>1682.9250488</ele>
        <time>2010-10-23T09:11:14Z</time>
      </trkpt>
      <trkpt lat="44.08019" lon="6.33869">
        <ele>1680.5219727</ele>
        <time>2010-10-23T09:11:20Z</time>
      </trkpt>
      <trkpt lat="44.08035" lon="6.33875">
        <ele>1676.1960449</ele>
        <time>2010-10-23T09:11:25Z</time>
      </trkpt>
      <trkpt lat="44.0805" lon="6.33878">
        <ele>1674.7539062</ele>
        <time>2010-10-23T09:11:30Z</time>
      </trkpt>
      <trkpt lat="44.08063" lon="6.33882">
        <ele>1673.7924805</ele>
        <time>2010-10-23T09:11:37Z</time>
      </trkpt>
      <trkpt lat="44.08064" lon="6.33883">
        <ele>1674.7539062</ele>
        <time>2010-10-23T09:11:40Z</time>
      </trkpt>
      <trkpt lat="44.08068" lon="6.33885">
        <ele>1675.7150879</ele>
        <time>2010-10-23T09:11:44Z</time>
      </trkpt>
      <trkpt lat="44.08071" lon="6.33888">
        <ele>1676.1960449</ele>
        <time>2010-10-23T09:11:49Z</time>
      </trkpt>
      <trkpt lat="44.0807" lon="6.33893">
        <ele>1672.3505859</ele>
        <time>2010-10-23T09:14:12Z</time>
      </trkpt>
      <trkpt lat="44.08067" lon="6.33889">
        <ele>1672.8312988</ele>
        <time>2010-10-23T09:14:19Z</time>
      </trkpt>
      <trkpt lat="44.08066" lon="6.33888">
        <ele>1671.869873</ele>
        <time>2010-10-23T09:14:23Z</time>
      </trkpt>
      <trkpt lat="44.0807" lon="6.33883">
        <ele>1675.7150879</ele>
        <time>2010-10-23T09:16:11Z</time>
      </trkpt>
      <trkpt lat="44.0807" lon="6.33884">
        <ele>1676.1960449</ele>
        <time>2010-10-23T09:16:12Z</time>
      </trkpt>
      <trkpt lat="44.0808" lon="6.33894">
        <ele>1676.1960449</ele>
        <time>2010-10-23T09:16:18Z</time>
      </trkpt>
      <trkpt lat="44.08095" lon="6.33902">
        <ele>1677.1574707</ele>
        <time>2010-10-23T09:16:24Z</time>
      </trkpt>
      <trkpt lat="44.08109" lon="6.33908">
        <ele>1680.5219727</ele>
        <time>2010-10-23T09:16:30Z</time>
      </trkpt>
      <trkpt lat="44.08115" lon="6.33909">
        <ele>1682.4445801</ele>
        <time>2010-10-23T09:16:35Z</time>
      </trkpt>
      <trkpt lat="44.08116" lon="6.33912">
        <ele>1681.9638672</ele>
        <time>2010-10-23T09:16:41Z</time>
      </trkpt>
      <trkpt lat="44.08116" lon="6.33913">
        <ele>1681.4831543</ele>
        <time>2010-10-23T09:16:46Z</time>
      </trkpt>
      <trkpt lat="44.08117" lon="6.33916">
        <ele>1680.5219727</ele>
        <time>2010-10-23T09:16:53Z</time>
      </trkpt>
      <trkpt lat="44.08117" lon="6.33916">
        <ele>1680.0412598</ele>
        <time>2010-10-23T09:17:04Z</time>
      </trkpt>
      <trkpt lat="44.08116" lon="6.33918">
        <ele>1681.4831543</ele>
        <time>2010-10-23T09:17:21Z</time>
      </trkpt>
      <trkpt lat="44.08116" lon="6.33919">
        <ele>1681.9638672</ele>
        <time>2010-10-23T09:17:42Z</time>
      </trkpt>
      <trkpt lat="44.08115" lon="6.33919">
        <ele>1681.4831543</ele>
        <time>2010-10-23T09:17:52Z</time>
      </trkpt>
      <trkpt lat="44.08115" lon="6.33919">
        <ele>1681.4831543</ele>
        <time>2010-10-23T09:18:08Z</time>
      </trkpt>
      <trkpt lat="44.08116" lon="6.33919">
        <ele>1681.0026855</ele>
        <time>2010-10-23T09:18:21Z</time>
      </trkpt>
      <trkpt lat="44.08115" lon="6.33919">
        <ele>1681.0026855</ele>
        <time>2010-10-23T09:18:31Z</time>
      </trkpt>
      <trkpt lat="44.08116" lon="6.33919">
        <ele>1681.4831543</ele>
        <time>2010-10-23T09:18:48Z</time>
      </trkpt>
      <trkpt lat="44.08115" lon="6.33919">
        <ele>1681.0026855</ele>
        <time>2010-10-23T09:19:00Z</time>
      </trkpt>
      <trkpt lat="44.08114" lon="6.3392">
        <ele>1681.0026855</ele>
        <time>2010-10-23T09:19:08Z</time>
      </trkpt>
      <trkpt lat="44.08115" lon="6.33919">
        <ele>1680.5219727</ele>
        <time>2010-10-23T09:19:24Z</time>
      </trkpt>
      <trkpt lat="44.08115" lon="6.33919">
        <ele>1680.5219727</ele>
        <time>2010-10-23T09:19:31Z</time>
      </trkpt>
      <trkpt lat="44.08115" lon="6.33919">
        <ele>1681.0026855</ele>
        <time>2010-10-23T09:19:41Z</time>
      </trkpt>
      <trkpt lat="44.08115" lon="6.33919">
        <ele>1679.5605469</ele>
        <time>2010-10-23T09:19:55Z</time>
      </trkpt>
      <trkpt lat="44.08114" lon="6.3392">
        <ele>1680.5219727</ele>
        <time>2010-10-23T09:20:05Z</time>
      </trkpt>
      <trkpt lat="44.08114" lon="6.33921">
        <ele>1681.0026855</ele>
        <time>2010-10-23T09:20:15Z</time>
      </trkpt>
      <trkpt lat="44.08114" lon="6.33921">
        <ele>1682.4445801</ele>
        <time>2010-10-23T09:20:27Z</time>
      </trkpt>
      <trkpt lat="44.08114" lon="6.33921">
        <ele>1682.4445801</ele>
        <time>2010-10-23T09:20:40Z</time>
      </trkpt>
      <trkpt lat="44.08112" lon="6.33922">
        <ele>1681.9638672</ele>
        <time>2010-10-23T09:20:50Z</time>
      </trkpt>
      <trkpt lat="44.08113" lon="6.33921">
        <ele>1681.9638672</ele>
        <time>2010-10-23T09:21:01Z</time>
      </trkpt>
      <trkpt lat="44.08113" lon="6.33922">
        <ele>1681.4831543</ele>
        <time>2010-10-23T09:21:11Z</time>
      </trkpt>
      <trkpt lat="44.08112" lon="6.33922">
        <ele>1681.0026855</ele>
        <time>2010-10-23T09:21:25Z</time>
      </trkpt>
      <trkpt lat="44.08111" lon="6.33921">
        <ele>1678.5993652</ele>
        <time>2010-10-23T09:22:44Z</time>
      </trkpt>
      <trkpt lat="44.08112" lon="6.3392">
        <ele>1678.5993652</ele>
        <time>2010-10-23T09:22:54Z</time>
      </trkpt>
      <trkpt lat="44.08114" lon="6.33919">
        <ele>1679.079834</ele>
        <time>2010-10-23T09:23:03Z</time>
      </trkpt>
      <trkpt lat="44.08114" lon="6.3392">
        <ele>1679.079834</ele>
        <time>2010-10-23T09:23:12Z</time>
      </trkpt>
      <trkpt lat="44.08118" lon="6.33918">
        <ele>1677.1574707</ele>
        <time>2010-10-23T09:23:19Z</time>
      </trkpt>
      <trkpt lat="44.08117" lon="6.33918">
        <ele>1678.1186523</ele>
        <time>2010-10-23T09:23:32Z</time>
      </trkpt>
      <trkpt lat="44.08117" lon="6.33918">
        <ele>1679.079834</ele>
        <time>2010-10-23T09:23:44Z</time>
      </trkpt>
      <trkpt lat="44.08117" lon="6.33918">
        <ele>1679.5605469</ele>
        <time>2010-10-23T09:23:54Z</time>
      </trkpt>
      <trkpt lat="44.08117" lon="6.33918">
        <ele>1680.0412598</ele>
        <time>2010-10-23T09:24:04Z</time>
      </trkpt>
      <trkpt lat="44.08117" lon="6.33917">
        <ele>1680.5219727</ele>
        <time>2010-10-23T09:24:14Z</time>
      </trkpt>
      <trkpt lat="44.08117" lon="6.33917">
        <ele>1681.0026855</ele>
        <time>2010-10-23T09:24:26Z</time>
      </trkpt>
      <trkpt lat="44.08117" lon="6.33917">
        <ele>1681.0026855</ele>
        <time>2010-10-23T09:24:36Z</time>
      </trkpt>
      <trkpt lat="44.08117" lon="6.33917">
        <ele>1681.0026855</ele>
        <time>2010-10-23T09:24:38Z</time>
      </trkpt>
      <trkpt lat="44.08117" lon="6.33917">
        <ele>1678.5993652</ele>
        <time>2010-10-23T09:24:44Z</time>
      </trkpt>
      <trkpt lat="44.08117" lon="6.33917">
        <ele>1679.079834</ele>
        <time>2010-10-23T09:24:50Z</time>
      </trkpt>
      <trkpt lat="44.08108" lon="6.33926">
        <ele>1679.079834</ele>
        <time>2010-10-23T09:24:55Z</time>
      </trkpt>
      <trkpt lat="44.08105" lon="6.33929">
        <ele>1678.5993652</ele>
        <time>2010-10-23T09:24:56Z</time>
      </trkpt>
      <trkpt lat="44.08095" lon="6.33939">
        <ele>1676.6767578</ele>
        <time>2010-10-23T09:25:00Z</time>
      </trkpt>
      <trkpt lat="44.08094" lon="6.33944">
        <ele>1675.7150879</ele>
        <time>2010-10-23T09:25:04Z</time>
      </trkpt>
      <trkpt lat="44.08104" lon="6.33945">
        <ele>1674.2731934</ele>
        <time>2010-10-23T09:25:09Z</time>
      </trkpt>
      <trkpt lat="44.08106" lon="6.33944">
        <ele>1674.2731934</ele>
        <time>2010-10-23T09:25:13Z</time>
      </trkpt>
      <trkpt lat="44.08106" lon="6.33944">
        <ele>1675.7150879</ele>
        <time>2010-10-23T09:25:21Z</time>
      </trkpt>
      <trkpt lat="44.08105" lon="6.33943">
        <ele>1676.6767578</ele>
        <time>2010-10-23T09:25:42Z</time>
      </trkpt>
      <trkpt lat="44.08105" lon="6.33943">
        <ele>1677.1574707</ele>
        <time>2010-10-23T09:25:51Z</time>
      </trkpt>
      <trkpt lat="44.08105" lon="6.33944">
        <ele>1677.1574707</ele>
        <time>2010-10-23T09:26:05Z</time>
      </trkpt>
      <trkpt lat="44.08115" lon="6.33945">
        <ele>1675.7150879</ele>
        <time>2010-10-23T09:26:10Z</time>
      </trkpt>
      <trkpt lat="44.0813" lon="6.33946">
        <ele>1672.8312988</ele>
        <time>2010-10-23T09:26:15Z</time>
      </trkpt>
      <trkpt lat="44.08152" lon="6.33953">
        <ele>1667.5439453</ele>
        <time>2010-10-23T09:26:21Z</time>
      </trkpt>
      <trkpt lat="44.08165" lon="6.33956">
        <ele>1665.1408691</ele>
        <time>2010-10-23T09:26:25Z</time>
      </trkpt>
      <trkpt lat="44.08181" lon="6.3396">
        <ele>1662.2568359</ele>
        <time>2010-10-23T09:26:30Z</time>
      </trkpt>
      <trkpt lat="44.08184" lon="6.3396">
        <ele>1661.7763672</ele>
        <time>2010-10-23T09:26:31Z</time>
      </trkpt>
      <trkpt lat="44.08197" lon="6.33966">
        <ele>1659.3728027</ele>
        <time>2010-10-23T09:26:36Z</time>
      </trkpt>
      <trkpt lat="44.08214" lon="6.33973">
        <ele>1657.9309082</ele>
        <time>2010-10-23T09:26:41Z</time>
      </trkpt>
      <trkpt lat="44.08225" lon="6.33976">
        <ele>1657.9309082</ele>
        <time>2010-10-23T09:26:47Z</time>
      </trkpt>
      <trkpt lat="44.08231" lon="6.33981">
        <ele>1657.4501953</ele>
        <time>2010-10-23T09:27:22Z</time>
      </trkpt>
      <trkpt lat="44.08242" lon="6.33994">
        <ele>1656.0080566</ele>
        <time>2010-10-23T09:27:26Z</time>
      </trkpt>
      <trkpt lat="44.08243" lon="6.33996">
        <ele>1655.5275879</ele>
        <time>2010-10-23T09:27:27Z</time>
      </trkpt>
      <trkpt lat="44.08243" lon="6.33998">
        <ele>1654.5661621</ele>
        <time>2010-10-23T09:27:29Z</time>
      </trkpt>
      <trkpt lat="44.08235" lon="6.33999">
        <ele>1651.682373</ele>
        <time>2010-10-23T09:27:32Z</time>
      </trkpt>
      <trkpt lat="44.08225" lon="6.34001">
        <ele>1650.7209473</ele>
        <time>2010-10-23T09:27:34Z</time>
      </trkpt>
      <trkpt lat="44.08194" lon="6.34015">
        <ele>1643.5109863</ele>
        <time>2010-10-23T09:27:40Z</time>
      </trkpt>
      <trkpt lat="44.08197" lon="6.34021">
        <ele>1639.6657715</ele>
        <time>2010-10-23T09:27:44Z</time>
      </trkpt>
      <trkpt lat="44.08206" lon="6.34033">
        <ele>1635.8205566</ele>
        <time>2010-10-23T09:27:48Z</time>
      </trkpt>
      <trkpt lat="44.0821" lon="6.34039">
        <ele>1634.859375</ele>
        <time>2010-10-23T09:27:50Z</time>
      </trkpt>
      <trkpt lat="44.08225" lon="6.34045">
        <ele>1633.4172363</ele>
        <time>2010-10-23T09:27:54Z</time>
      </trkpt>
      <trkpt lat="44.08236" lon="6.34053">
        <ele>1632.4560547</ele>
        <time>2010-10-23T09:27:57Z</time>
      </trkpt>
      <trkpt lat="44.08242" lon="6.34066">
        <ele>1629.5720215</ele>
        <time>2010-10-23T09:28:00Z</time>
      </trkpt>
      <trkpt lat="44.08256" lon="6.34082">
        <ele>1626.2072754</ele>
        <time>2010-10-23T09:28:04Z</time>
      </trkpt>
      <trkpt lat="44.08264" lon="6.34097">
        <ele>1621.8813477</ele>
        <time>2010-10-23T09:28:09Z</time>
      </trkpt>
      <trkpt lat="44.08263" lon="6.34095">
        <ele>1618.9975586</ele>
        <time>2010-10-23T09:28:15Z</time>
      </trkpt>
      <trkpt lat="44.08264" lon="6.34097">
        <ele>1618.5168457</ele>
        <time>2010-10-23T09:28:17Z</time>
      </trkpt>
      <trkpt lat="44.08268" lon="6.34098">
        <ele>1618.9975586</ele>
        <time>2010-10-23T09:28:22Z</time>
      </trkpt>
      <trkpt lat="44.08273" lon="6.34098">
        <ele>1619.9587402</ele>
        <time>2010-10-23T09:28:28Z</time>
      </trkpt>
      <trkpt lat="44.08281" lon="6.34098">
        <ele>1620.4394531</ele>
        <time>2010-10-23T09:28:33Z</time>
      </trkpt>
      <trkpt lat="44.08296" lon="6.341">
        <ele>1621.4006348</ele>
        <time>2010-10-23T09:28:38Z</time>
      </trkpt>
      <trkpt lat="44.08316" lon="6.34102">
        <ele>1623.8039551</ele>
        <time>2010-10-23T09:28:44Z</time>
      </trkpt>
      <trkpt lat="44.08338" lon="6.34104">
        <ele>1626.2072754</ele>
        <time>2010-10-23T09:28:50Z</time>
      </trkpt>
      <trkpt lat="44.08367" lon="6.34107">
        <ele>1628.130127</ele>
        <time>2010-10-23T09:28:58Z</time>
      </trkpt>
      <trkpt lat="44.08383" lon="6.34108">
        <ele>1628.6108398</ele>
        <time>2010-10-23T09:29:03Z</time>
      </trkpt>
      <trkpt lat="44.08404" lon="6.34112">
        <ele>1627.6491699</ele>
        <time>2010-10-23T09:29:09Z</time>
      </trkpt>
      <trkpt lat="44.08418" lon="6.34112">
        <ele>1628.130127</ele>
        <time>2010-10-23T09:29:14Z</time>
      </trkpt>
      <trkpt lat="44.08431" lon="6.34114">
        <ele>1628.6108398</ele>
        <time>2010-10-23T09:29:19Z</time>
      </trkpt>
      <trkpt lat="44.08447" lon="6.34118">
        <ele>1629.0913086</ele>
        <time>2010-10-23T09:29:26Z</time>
      </trkpt>
      <trkpt lat="44.0846" lon="6.34119">
        <ele>1627.1687012</ele>
        <time>2010-10-23T09:29:33Z</time>
      </trkpt>
      <trkpt lat="44.08461" lon="6.34119">
        <ele>1627.1687012</ele>
        <time>2010-10-23T09:29:37Z</time>
      </trkpt>
      <trkpt lat="44.08473" lon="6.3412">
        <ele>1625.2458496</ele>
        <time>2010-10-23T09:29:46Z</time>
      </trkpt>
      <trkpt lat="44.08479" lon="6.34119">
        <ele>1626.2072754</ele>
        <time>2010-10-23T09:29:54Z</time>
      </trkpt>
      <trkpt lat="44.08483" lon="6.3412">
        <ele>1628.130127</ele>
        <time>2010-10-23T09:30:00Z</time>
      </trkpt>
      <trkpt lat="44.08497" lon="6.34119">
        <ele>1629.5720215</ele>
        <time>2010-10-23T09:30:06Z</time>
      </trkpt>
      <trkpt lat="44.08511" lon="6.34118">
        <ele>1630.5334473</ele>
        <time>2010-10-23T09:30:12Z</time>
      </trkpt>
      <trkpt lat="44.08525" lon="6.34118">
        <ele>1630.5334473</ele>
        <time>2010-10-23T09:30:18Z</time>
      </trkpt>
      <trkpt lat="44.0854" lon="6.34119">
        <ele>1630.0527344</ele>
        <time>2010-10-23T09:30:24Z</time>
      </trkpt>
      <trkpt lat="44.08553" lon="6.3412">
        <ele>1630.5334473</ele>
        <time>2010-10-23T09:30:29Z</time>
      </trkpt>
      <trkpt lat="44.08567" lon="6.34121">
        <ele>1631.9753418</ele>
        <time>2010-10-23T09:30:35Z</time>
      </trkpt>
      <trkpt lat="44.0858" lon="6.34118">
        <ele>1631.9753418</ele>
        <time>2010-10-23T09:30:42Z</time>
      </trkpt>
      <trkpt lat="44.08581" lon="6.34118">
        <ele>1631.4946289</ele>
        <time>2010-10-23T09:30:44Z</time>
      </trkpt>
      <trkpt lat="44.0859" lon="6.34119">
        <ele>1629.5720215</ele>
        <time>2010-10-23T09:30:50Z</time>
      </trkpt>
      <trkpt lat="44.08603" lon="6.34118">
        <ele>1629.0913086</ele>
        <time>2010-10-23T09:30:56Z</time>
      </trkpt>
      <trkpt lat="44.08618" lon="6.34118">
        <ele>1631.0141602</ele>
        <time>2010-10-23T09:31:02Z</time>
      </trkpt>
      <trkpt lat="44.08632" lon="6.34121">
        <ele>1631.4946289</ele>
        <time>2010-10-23T09:31:09Z</time>
      </trkpt>
      <trkpt lat="44.0865" lon="6.34123">
        <ele>1632.4560547</ele>
        <time>2010-10-23T09:31:16Z</time>
      </trkpt>
      <trkpt lat="44.08664" lon="6.34123">
        <ele>1631.9753418</ele>
        <time>2010-10-23T09:31:22Z</time>
      </trkpt>
      <trkpt lat="44.08683" lon="6.34121">
        <ele>1631.9753418</ele>
        <time>2010-10-23T09:31:30Z</time>
      </trkpt>
      <trkpt lat="44.08698" lon="6.34119">
        <ele>1631.9753418</ele>
        <time>2010-10-23T09:31:37Z</time>
      </trkpt>
      <trkpt lat="44.08718" lon="6.34115">
        <ele>1634.3786621</ele>
        <time>2010-10-23T09:31:46Z</time>
      </trkpt>
      <trkpt lat="44.08733" lon="6.34113">
        <ele>1634.3786621</ele>
        <time>2010-10-23T09:31:52Z</time>
      </trkpt>
      <trkpt lat="44.0875" lon="6.34111">
        <ele>1633.8979492</ele>
        <time>2010-10-23T09:31:59Z</time>
      </trkpt>
      <trkpt lat="44.08774" lon="6.34109">
        <ele>1633.8979492</ele>
        <time>2010-10-23T09:32:08Z</time>
      </trkpt>
      <trkpt lat="44.08776" lon="6.34108">
        <ele>1633.4172363</ele>
        <time>2010-10-23T09:32:11Z</time>
      </trkpt>
      <trkpt lat="44.08775" lon="6.34108">
        <ele>1633.4172363</ele>
        <time>2010-10-23T09:32:30Z</time>
      </trkpt>
      <trkpt lat="44.08774" lon="6.34109">
        <ele>1631.9753418</ele>
        <time>2010-10-23T09:33:04Z</time>
      </trkpt>
      <trkpt lat="44.08774" lon="6.34109">
        <ele>1632.4560547</ele>
        <time>2010-10-23T09:33:38Z</time>
      </trkpt>
      <trkpt lat="44.08781" lon="6.34108">
        <ele>1632.9365234</ele>
        <time>2010-10-23T09:33:53Z</time>
      </trkpt>
      <trkpt lat="44.08805" lon="6.34108">
        <ele>1632.9365234</ele>
        <time>2010-10-23T09:34:01Z</time>
      </trkpt>
      <trkpt lat="44.08824" lon="6.34106">
        <ele>1633.4172363</ele>
        <time>2010-10-23T09:34:08Z</time>
      </trkpt>
      <trkpt lat="44.0883" lon="6.34104">
        <ele>1633.4172363</ele>
        <time>2010-10-23T09:34:11Z</time>
      </trkpt>
      <trkpt lat="44.08843" lon="6.34103">
        <ele>1633.8979492</ele>
        <time>2010-10-23T09:34:18Z</time>
      </trkpt>
      <trkpt lat="44.08858" lon="6.341">
        <ele>1634.859375</ele>
        <time>2010-10-23T09:34:25Z</time>
      </trkpt>
      <trkpt lat="44.08884" lon="6.34096">
        <ele>1637.7431641</ele>
        <time>2010-10-23T09:34:36Z</time>
      </trkpt>
      <trkpt lat="44.08898" lon="6.34094">
        <ele>1639.6657715</ele>
        <time>2010-10-23T09:34:42Z</time>
      </trkpt>
      <trkpt lat="44.08914" lon="6.34093">
        <ele>1639.6657715</ele>
        <time>2010-10-23T09:34:49Z</time>
      </trkpt>
      <trkpt lat="44.08929" lon="6.34091">
        <ele>1640.1464844</ele>
        <time>2010-10-23T09:34:55Z</time>
      </trkpt>
      <trkpt lat="44.08944" lon="6.3409">
        <ele>1639.6657715</ele>
        <time>2010-10-23T09:35:01Z</time>
      </trkpt>
      <trkpt lat="44.08945" lon="6.3409">
        <ele>1638.7045898</ele>
        <time>2010-10-23T09:35:05Z</time>
      </trkpt>
      <trkpt lat="44.0895" lon="6.34089">
        <ele>1637.2624512</ele>
        <time>2010-10-23T09:35:10Z</time>
      </trkpt>
      <trkpt lat="44.08966" lon="6.34088">
        <ele>1637.7431641</ele>
        <time>2010-10-23T09:35:16Z</time>
      </trkpt>
      <trkpt lat="44.08985" lon="6.34087">
        <ele>1638.7045898</ele>
        <time>2010-10-23T09:35:23Z</time>
      </trkpt>
      <trkpt lat="44.09008" lon="6.34087">
        <ele>1639.1850586</ele>
        <time>2010-10-23T09:35:31Z</time>
      </trkpt>
      <trkpt lat="44.09025" lon="6.34088">
        <ele>1637.7431641</ele>
        <time>2010-10-23T09:35:37Z</time>
      </trkpt>
      <trkpt lat="44.09036" lon="6.34089">
        <ele>1636.3012695</ele>
        <time>2010-10-23T09:35:42Z</time>
      </trkpt>
      <trkpt lat="44.09052" lon="6.3409">
        <ele>1633.8979492</ele>
        <time>2010-10-23T09:35:47Z</time>
      </trkpt>
      <trkpt lat="44.09063" lon="6.34089">
        <ele>1632.4560547</ele>
        <time>2010-10-23T09:35:52Z</time>
      </trkpt>
      <trkpt lat="44.09064" lon="6.34091">
        <ele>1631.9753418</ele>
        <time>2010-10-23T09:35:57Z</time>
      </trkpt>
      <trkpt lat="44.0906" lon="6.34084">
        <ele>1623.8039551</ele>
        <time>2010-10-23T09:36:45Z</time>
      </trkpt>
      <trkpt lat="44.09063" lon="6.34084">
        <ele>1625.2458496</ele>
        <time>2010-10-23T09:36:51Z</time>
      </trkpt>
      <trkpt lat="44.09075" lon="6.34085">
        <ele>1628.130127</ele>
        <time>2010-10-23T09:36:56Z</time>
      </trkpt>
      <trkpt lat="44.09094" lon="6.34084">
        <ele>1631.9753418</ele>
        <time>2010-10-23T09:37:03Z</time>
      </trkpt>
      <trkpt lat="44.09113" lon="6.34083">
        <ele>1634.3786621</ele>
        <time>2010-10-23T09:37:10Z</time>
      </trkpt>
      <trkpt lat="44.09123" lon="6.34088">
        <ele>1634.859375</ele>
        <time>2010-10-23T09:37:15Z</time>
      </trkpt>
      <trkpt lat="44.09138" lon="6.34091">
        <ele>1634.859375</ele>
        <time>2010-10-23T09:37:21Z</time>
      </trkpt>
      <trkpt lat="44.09151" lon="6.34093">
        <ele>1633.8979492</ele>
        <time>2010-10-23T09:37:26Z</time>
      </trkpt>
      <trkpt lat="44.09162" lon="6.34095">
        <ele>1632.9365234</ele>
        <time>2010-10-23T09:37:31Z</time>
      </trkpt>
      <trkpt lat="44.09179" lon="6.34096">
        <ele>1632.9365234</ele>
        <time>2010-10-23T09:37:38Z</time>
      </trkpt>
      <trkpt lat="44.09198" lon="6.34097">
        <ele>1636.3012695</ele>
        <time>2010-10-23T09:37:46Z</time>
      </trkpt>
      <trkpt lat="44.09219" lon="6.34102">
        <ele>1638.223877</ele>
        <time>2010-10-23T09:37:55Z</time>
      </trkpt>
      <trkpt lat="44.09236" lon="6.34105">
        <ele>1638.7045898</ele>
        <time>2010-10-23T09:38:01Z</time>
      </trkpt>
      <trkpt lat="44.09252" lon="6.34108">
        <ele>1639.1850586</ele>
        <time>2010-10-23T09:38:07Z</time>
      </trkpt>
      <trkpt lat="44.09266" lon="6.34111">
        <ele>1638.7045898</ele>
        <time>2010-10-23T09:38:12Z</time>
      </trkpt>
      <trkpt lat="44.09288" lon="6.34118">
        <ele>1638.7045898</ele>
        <time>2010-10-23T09:38:20Z</time>
      </trkpt>
      <trkpt lat="44.09312" lon="6.34125">
        <ele>1637.7431641</ele>
        <time>2010-10-23T09:38:28Z</time>
      </trkpt>
      <trkpt lat="44.09328" lon="6.34134">
        <ele>1636.7817383</ele>
        <time>2010-10-23T09:38:34Z</time>
      </trkpt>
      <trkpt lat="44.09346" lon="6.34146">
        <ele>1637.2624512</ele>
        <time>2010-10-23T09:38:40Z</time>
      </trkpt>
      <trkpt lat="44.09358" lon="6.34154">
        <ele>1637.7431641</ele>
        <time>2010-10-23T09:38:45Z</time>
      </trkpt>
      <trkpt lat="44.09378" lon="6.34163">
        <ele>1637.2624512</ele>
        <time>2010-10-23T09:38:52Z</time>
      </trkpt>
      <trkpt lat="44.09397" lon="6.34173">
        <ele>1636.7817383</ele>
        <time>2010-10-23T09:38:59Z</time>
      </trkpt>
      <trkpt lat="44.09412" lon="6.34184">
        <ele>1636.7817383</ele>
        <time>2010-10-23T09:39:04Z</time>
      </trkpt>
      <trkpt lat="44.09429" lon="6.34197">
        <ele>1635.3398438</ele>
        <time>2010-10-23T09:39:10Z</time>
      </trkpt>
      <trkpt lat="44.09442" lon="6.34204">
        <ele>1634.3786621</ele>
        <time>2010-10-23T09:39:15Z</time>
      </trkpt>
      <trkpt lat="44.09458" lon="6.34213">
        <ele>1633.8979492</ele>
        <time>2010-10-23T09:39:21Z</time>
      </trkpt>
      <trkpt lat="44.09475" lon="6.34224">
        <ele>1633.4172363</ele>
        <time>2010-10-23T09:39:28Z</time>
      </trkpt>
      <trkpt lat="44.09492" lon="6.34235">
        <ele>1632.9365234</ele>
        <time>2010-10-23T09:39:35Z</time>
      </trkpt>
      <trkpt lat="44.09505" lon="6.34244">
        <ele>1631.9753418</ele>
        <time>2010-10-23T09:39:41Z</time>
      </trkpt>
      <trkpt lat="44.09517" lon="6.34258">
        <ele>1630.0527344</ele>
        <time>2010-10-23T09:39:47Z</time>
      </trkpt>
      <trkpt lat="44.09532" lon="6.34271">
        <ele>1628.6108398</ele>
        <time>2010-10-23T09:39:54Z</time>
      </trkpt>
      <trkpt lat="44.09546" lon="6.34281">
        <ele>1628.6108398</ele>
        <time>2010-10-23T09:40:00Z</time>
      </trkpt>
      <trkpt lat="44.09559" lon="6.34291">
        <ele>1627.6491699</ele>
        <time>2010-10-23T09:40:05Z</time>
      </trkpt>
      <trkpt lat="44.09567" lon="6.34305">
        <ele>1628.130127</ele>
        <time>2010-10-23T09:40:10Z</time>
      </trkpt>
      <trkpt lat="44.0957" lon="6.34316">
        <ele>1628.130127</ele>
        <time>2010-10-23T09:40:13Z</time>
      </trkpt>
      <trkpt lat="44.09566" lon="6.34336">
        <ele>1626.2072754</ele>
        <time>2010-10-23T09:40:18Z</time>
      </trkpt>
      <trkpt lat="44.09558" lon="6.34363">
        <ele>1623.3234863</ele>
        <time>2010-10-23T09:40:24Z</time>
      </trkpt>
      <trkpt lat="44.09552" lon="6.34377">
        <ele>1620.920166</ele>
        <time>2010-10-23T09:40:27Z</time>
      </trkpt>
      <trkpt lat="44.09538" lon="6.34409">
        <ele>1621.4006348</ele>
        <time>2010-10-23T09:40:33Z</time>
      </trkpt>
      <trkpt lat="44.09531" lon="6.34437">
        <ele>1618.0361328</ele>
        <time>2010-10-23T09:40:39Z</time>
      </trkpt>
      <trkpt lat="44.09522" lon="6.34472">
        <ele>1616.1135254</ele>
        <time>2010-10-23T09:40:46Z</time>
      </trkpt>
      <trkpt lat="44.09512" lon="6.34508">
        <ele>1618.9975586</ele>
        <time>2010-10-23T09:40:52Z</time>
      </trkpt>
      <trkpt lat="44.09501" lon="6.34551">
        <ele>1618.0361328</ele>
        <time>2010-10-23T09:40:59Z</time>
      </trkpt>
      <trkpt lat="44.09492" lon="6.34586">
        <ele>1611.3068848</ele>
        <time>2010-10-23T09:41:05Z</time>
      </trkpt>
      <trkpt lat="44.09482" lon="6.34624">
        <ele>1600.2519531</ele>
        <time>2010-10-23T09:41:12Z</time>
      </trkpt>
      <trkpt lat="44.09477" lon="6.34651">
        <ele>1590.157959</ele>
        <time>2010-10-23T09:41:17Z</time>
      </trkpt>
      <trkpt lat="44.09469" lon="6.34676">
        <ele>1586.7932129</ele>
        <time>2010-10-23T09:41:22Z</time>
      </trkpt>
      <trkpt lat="44.09465" lon="6.34692">
        <ele>1585.3513184</ele>
        <time>2010-10-23T09:41:25Z</time>
      </trkpt>
      <trkpt lat="44.09451" lon="6.3473">
        <ele>1580.064209</ele>
        <time>2010-10-23T09:41:32Z</time>
      </trkpt>
      <trkpt lat="44.0944" lon="6.34765">
        <ele>1575.2573242</ele>
        <time>2010-10-23T09:41:39Z</time>
      </trkpt>
      <trkpt lat="44.09436" lon="6.34781">
        <ele>1572.3735352</ele>
        <time>2010-10-23T09:41:42Z</time>
      </trkpt>
      <trkpt lat="44.09429" lon="6.34824">
        <ele>1569.4897461</ele>
        <time>2010-10-23T09:41:50Z</time>
      </trkpt>
      <trkpt lat="44.09431" lon="6.34841">
        <ele>1571.4121094</ele>
        <time>2010-10-23T09:41:53Z</time>
      </trkpt>
      <trkpt lat="44.09425" lon="6.34875">
        <ele>1571.4121094</ele>
        <time>2010-10-23T09:41:59Z</time>
      </trkpt>
      <trkpt lat="44.09425" lon="6.349">
        <ele>1569.4897461</ele>
        <time>2010-10-23T09:42:04Z</time>
      </trkpt>
      <trkpt lat="44.09426" lon="6.3494">
        <ele>1567.0864258</ele>
        <time>2010-10-23T09:42:11Z</time>
      </trkpt>
      <trkpt lat="44.09437" lon="6.34955">
        <ele>1564.6831055</ele>
        <time>2010-10-23T09:42:16Z</time>
      </trkpt>
      <trkpt lat="44.09434" lon="6.34971">
        <ele>1562.7602539</ele>
        <time>2010-10-23T09:42:19Z</time>
      </trkpt>
      <trkpt lat="44.09428" lon="6.34994">
        <ele>1559.395752</ele>
        <time>2010-10-23T09:42:23Z</time>
      </trkpt>
      <trkpt lat="44.09423" lon="6.35012">
        <ele>1556.5117188</ele>
        <time>2010-10-23T09:42:26Z</time>
      </trkpt>
      <trkpt lat="44.09421" lon="6.35026">
        <ele>1556.0310059</ele>
        <time>2010-10-23T09:42:28Z</time>
      </trkpt>
      <trkpt lat="44.0942" lon="6.35059">
        <ele>1553.6279297</ele>
        <time>2010-10-23T09:42:34Z</time>
      </trkpt>
      <trkpt lat="44.09419" lon="6.35068">
        <ele>1552.185791</ele>
        <time>2010-10-23T09:42:36Z</time>
      </trkpt>
      <trkpt lat="44.09407" lon="6.35086">
        <ele>1546.8984375</ele>
        <time>2010-10-23T09:42:41Z</time>
      </trkpt>
      <trkpt lat="44.09406" lon="6.35091">
        <ele>1546.4179688</ele>
        <time>2010-10-23T09:42:42Z</time>
      </trkpt>
      <trkpt lat="44.09405" lon="6.35102">
        <ele>1545.9372559</ele>
        <time>2010-10-23T09:42:44Z</time>
      </trkpt>
      <trkpt lat="44.09405" lon="6.35142">
        <ele>1544.9758301</ele>
        <time>2010-10-23T09:42:51Z</time>
      </trkpt>
      <trkpt lat="44.09406" lon="6.35185">
        <ele>1542.5727539</ele>
        <time>2010-10-23T09:42:58Z</time>
      </trkpt>
      <trkpt lat="44.09406" lon="6.35206">
        <ele>1542.092041</ele>
        <time>2010-10-23T09:43:03Z</time>
      </trkpt>
      <trkpt lat="44.09404" lon="6.35213">
        <ele>1541.6113281</ele>
        <time>2010-10-23T09:43:11Z</time>
      </trkpt>
      <trkpt lat="44.09403" lon="6.35222">
        <ele>1540.1694336</ele>
        <time>2010-10-23T09:43:13Z</time>
      </trkpt>
      <trkpt lat="44.09401" lon="6.35247">
        <ele>1538.2468262</ele>
        <time>2010-10-23T09:43:17Z</time>
      </trkpt>
      <trkpt lat="44.09399" lon="6.35273">
        <ele>1537.7661133</ele>
        <time>2010-10-23T09:43:22Z</time>
      </trkpt>
      <trkpt lat="44.09408" lon="6.353">
        <ele>1533.9208984</ele>
        <time>2010-10-23T09:43:28Z</time>
      </trkpt>
      <trkpt lat="44.09419" lon="6.35325">
        <ele>1532.4790039</ele>
        <time>2010-10-23T09:43:33Z</time>
      </trkpt>
      <trkpt lat="44.09425" lon="6.35348">
        <ele>1529.1140137</ele>
        <time>2010-10-23T09:43:37Z</time>
      </trkpt>
      <trkpt lat="44.09423" lon="6.35363">
        <ele>1531.517334</ele>
        <time>2010-10-23T09:43:40Z</time>
      </trkpt>
      <trkpt lat="44.09417" lon="6.35375">
        <ele>1525.2687988</ele>
        <time>2010-10-23T09:43:45Z</time>
      </trkpt>
      <trkpt lat="44.09408" lon="6.35392">
        <ele>1523.8269043</ele>
        <time>2010-10-23T09:43:49Z</time>
      </trkpt>
      <trkpt lat="44.09407" lon="6.35396">
        <ele>1522.3850098</ele>
        <time>2010-10-23T09:43:50Z</time>
      </trkpt>
      <trkpt lat="44.09394" lon="6.35421">
        <ele>1519.0205078</ele>
        <time>2010-10-23T09:43:56Z</time>
      </trkpt>
      <trkpt lat="44.09386" lon="6.35446">
        <ele>1517.0979004</ele>
        <time>2010-10-23T09:44:02Z</time>
      </trkpt>
      <trkpt lat="44.09375" lon="6.35477">
        <ele>1516.1364746</ele>
        <time>2010-10-23T09:44:08Z</time>
      </trkpt>
      <trkpt lat="44.09366" lon="6.35506">
        <ele>1516.1364746</ele>
        <time>2010-10-23T09:44:14Z</time>
      </trkpt>
      <trkpt lat="44.09356" lon="6.35525">
        <ele>1518.059082</ele>
        <time>2010-10-23T09:44:19Z</time>
      </trkpt>
      <trkpt lat="44.09345" lon="6.35544">
        <ele>1519.0205078</ele>
        <time>2010-10-23T09:44:24Z</time>
      </trkpt>
      <trkpt lat="44.09338" lon="6.35553">
        <ele>1519.0205078</ele>
        <time>2010-10-23T09:44:27Z</time>
      </trkpt>
      <trkpt lat="44.09322" lon="6.35588">
        <ele>1516.6171875</ele>
        <time>2010-10-23T09:44:35Z</time>
      </trkpt>
      <trkpt lat="44.09306" lon="6.35614">
        <ele>1519.0205078</ele>
        <time>2010-10-23T09:44:41Z</time>
      </trkpt>
      <trkpt lat="44.0929" lon="6.35638">
        <ele>1518.059082</ele>
        <time>2010-10-23T09:44:47Z</time>
      </trkpt>
      <trkpt lat="44.09278" lon="6.35659">
        <ele>1517.5783691</ele>
        <time>2010-10-23T09:44:52Z</time>
      </trkpt>
      <trkpt lat="44.09269" lon="6.35685">
        <ele>1517.5783691</ele>
        <time>2010-10-23T09:44:57Z</time>
      </trkpt>
      <trkpt lat="44.09255" lon="6.35722">
        <ele>1518.059082</ele>
        <time>2010-10-23T09:45:03Z</time>
      </trkpt>
      <trkpt lat="44.09254" lon="6.35729">
        <ele>1515.6557617</ele>
        <time>2010-10-23T09:45:04Z</time>
      </trkpt>
      <trkpt lat="44.09243" lon="6.35764">
        <ele>1513.2524414</ele>
        <time>2010-10-23T09:45:10Z</time>
      </trkpt>
      <trkpt lat="44.09238" lon="6.3578">
        <ele>1512.2910156</ele>
        <time>2010-10-23T09:45:13Z</time>
      </trkpt>
      <trkpt lat="44.09224" lon="6.3581">
        <ele>1512.2910156</ele>
        <time>2010-10-23T09:45:18Z</time>
      </trkpt>
      <trkpt lat="44.09214" lon="6.35847">
        <ele>1507.0039062</ele>
        <time>2010-10-23T09:45:24Z</time>
      </trkpt>
      <trkpt lat="44.09211" lon="6.35884">
        <ele>1505.5620117</ele>
        <time>2010-10-23T09:45:30Z</time>
      </trkpt>
      <trkpt lat="44.09212" lon="6.35904">
        <ele>1504.1201172</ele>
        <time>2010-10-23T09:45:33Z</time>
      </trkpt>
      <trkpt lat="44.09209" lon="6.35953">
        <ele>1498.8325195</ele>
        <time>2010-10-23T09:45:40Z</time>
      </trkpt>
      <trkpt lat="44.09206" lon="6.35958">
        <ele>1498.3518066</ele>
        <time>2010-10-23T09:45:41Z</time>
      </trkpt>
      <trkpt lat="44.09196" lon="6.35975">
        <ele>1498.8325195</ele>
        <time>2010-10-23T09:45:44Z</time>
      </trkpt>
      <trkpt lat="44.0919" lon="6.35996">
        <ele>1499.3132324</ele>
        <time>2010-10-23T09:45:48Z</time>
      </trkpt>
      <trkpt lat="44.09187" lon="6.36008">
        <ele>1500.7553711</ele>
        <time>2010-10-23T09:45:50Z</time>
      </trkpt>
      <trkpt lat="44.09175" lon="6.36045">
        <ele>1499.7939453</ele>
        <time>2010-10-23T09:45:56Z</time>
      </trkpt>
      <trkpt lat="44.09168" lon="6.3607">
        <ele>1497.8713379</ele>
        <time>2010-10-23T09:46:00Z</time>
      </trkpt>
      <trkpt lat="44.09163" lon="6.36093">
        <ele>1497.390625</ele>
        <time>2010-10-23T09:46:05Z</time>
      </trkpt>
      <trkpt lat="44.09166" lon="6.36091">
        <ele>1495.4680176</ele>
        <time>2010-10-23T09:46:16Z</time>
      </trkpt>
      <trkpt lat="44.09169" lon="6.3609">
        <ele>1495.4680176</ele>
        <time>2010-10-23T09:46:26Z</time>
      </trkpt>
      <trkpt lat="44.09171" lon="6.3609">
        <ele>1496.9099121</ele>
        <time>2010-10-23T09:46:37Z</time>
      </trkpt>
      <trkpt lat="44.0917" lon="6.36089">
        <ele>1499.7939453</ele>
        <time>2010-10-23T09:46:45Z</time>
      </trkpt>
      <trkpt lat="44.0917" lon="6.36089">
        <ele>1500.7553711</ele>
        <time>2010-10-23T09:46:57Z</time>
      </trkpt>
      <trkpt lat="44.09169" lon="6.36091">
        <ele>1498.3518066</ele>
        <time>2010-10-23T09:47:07Z</time>
      </trkpt>
      <trkpt lat="44.09168" lon="6.36092">
        <ele>1496.9099121</ele>
        <time>2010-10-23T09:47:15Z</time>
      </trkpt>
      <trkpt lat="44.09166" lon="6.36087">
        <ele>1502.6779785</ele>
        <time>2010-10-23T09:47:25Z</time>
      </trkpt>
      <trkpt lat="44.09165" lon="6.36084">
        <ele>1508.9265137</ele>
        <time>2010-10-23T09:47:42Z</time>
      </trkpt>
      <trkpt lat="44.09167" lon="6.36089">
        <ele>1497.8713379</ele>
        <time>2010-10-23T09:48:11Z</time>
      </trkpt>
      <trkpt lat="44.09167" lon="6.36089">
        <ele>1495.9487305</ele>
        <time>2010-10-23T09:48:25Z</time>
      </trkpt>
      <trkpt lat="44.09159" lon="6.36089">
        <ele>1494.9873047</ele>
        <time>2010-10-23T09:48:50Z</time>
      </trkpt>
      <trkpt lat="44.09158" lon="6.36081">
        <ele>1516.6171875</ele>
        <time>2010-10-23T09:49:18Z</time>
      </trkpt>
      <trkpt lat="44.09158" lon="6.36081">
        <ele>1518.5397949</ele>
        <time>2010-10-23T09:49:31Z</time>
      </trkpt>
      <trkpt lat="44.09164" lon="6.36089">
        <ele>1501.236084</ele>
        <time>2010-10-23T09:50:09Z</time>
      </trkpt>
      <trkpt lat="44.09165" lon="6.3609">
        <ele>1497.8713379</ele>
        <time>2010-10-23T09:50:17Z</time>
      </trkpt>
      <trkpt lat="44.09168" lon="6.3609">
        <ele>1497.8713379</ele>
        <time>2010-10-23T09:50:30Z</time>
      </trkpt>
      <trkpt lat="44.09167" lon="6.36086">
        <ele>1504.1201172</ele>
        <time>2010-10-23T09:50:41Z</time>
      </trkpt>
      <trkpt lat="44.09166" lon="6.36084">
        <ele>1507.4846191</ele>
        <time>2010-10-23T09:50:50Z</time>
      </trkpt>
      <trkpt lat="44.09166" lon="6.36084">
        <ele>1507.965332</ele>
        <time>2010-10-23T09:51:00Z</time>
      </trkpt>
      <trkpt lat="44.09163" lon="6.36085">
        <ele>1510.8491211</ele>
        <time>2010-10-23T09:51:06Z</time>
      </trkpt>
      <trkpt lat="44.0916" lon="6.36089">
        <ele>1511.329834</ele>
        <time>2010-10-23T09:51:26Z</time>
      </trkpt>
      <trkpt lat="44.0916" lon="6.3609">
        <ele>1510.3684082</ele>
        <time>2010-10-23T09:51:28Z</time>
      </trkpt>
      <trkpt lat="44.09168" lon="6.361">
        <ele>1509.4072266</ele>
        <time>2010-10-23T09:51:33Z</time>
      </trkpt>
      <trkpt lat="44.09172" lon="6.36114">
        <ele>1508.4458008</ele>
        <time>2010-10-23T09:51:40Z</time>
      </trkpt>
      <trkpt lat="44.09176" lon="6.36122">
        <ele>1507.965332</ele>
        <time>2010-10-23T09:51:45Z</time>
      </trkpt>
      <trkpt lat="44.09178" lon="6.36136">
        <ele>1509.4072266</ele>
        <time>2010-10-23T09:51:53Z</time>
      </trkpt>
      <trkpt lat="44.0918" lon="6.36148">
        <ele>1508.4458008</ele>
        <time>2010-10-23T09:52:00Z</time>
      </trkpt>
      <trkpt lat="44.09181" lon="6.3616">
        <ele>1509.8876953</ele>
        <time>2010-10-23T09:52:07Z</time>
      </trkpt>
      <trkpt lat="44.09183" lon="6.36175">
        <ele>1508.9265137</ele>
        <time>2010-10-23T09:52:14Z</time>
      </trkpt>
      <trkpt lat="44.09178" lon="6.36192">
        <ele>1509.8876953</ele>
        <time>2010-10-23T09:52:22Z</time>
      </trkpt>
      <trkpt lat="44.09172" lon="6.3621">
        <ele>1511.8105469</ele>
        <time>2010-10-23T09:52:30Z</time>
      </trkpt>
      <trkpt lat="44.09171" lon="6.36224">
        <ele>1514.6943359</ele>
        <time>2010-10-23T09:52:37Z</time>
      </trkpt>
      <trkpt lat="44.09171" lon="6.36235">
        <ele>1516.1364746</ele>
        <time>2010-10-23T09:52:42Z</time>
      </trkpt>
      <trkpt lat="44.09174" lon="6.36247">
        <ele>1517.0979004</ele>
        <time>2010-10-23T09:52:50Z</time>
      </trkpt>
      <trkpt lat="44.09178" lon="6.36264">
        <ele>1516.6171875</ele>
        <time>2010-10-23T09:52:58Z</time>
      </trkpt>
      <trkpt lat="44.09183" lon="6.36279">
        <ele>1518.5397949</ele>
        <time>2010-10-23T09:53:06Z</time>
      </trkpt>
      <trkpt lat="44.09189" lon="6.36297">
        <ele>1519.5012207</ele>
        <time>2010-10-23T09:53:15Z</time>
      </trkpt>
      <trkpt lat="44.09193" lon="6.36315">
        <ele>1520.4624023</ele>
        <time>2010-10-23T09:53:23Z</time>
      </trkpt>
      <trkpt lat="44.092" lon="6.36327">
        <ele>1521.9042969</ele>
        <time>2010-10-23T09:53:30Z</time>
      </trkpt>
      <trkpt lat="44.0921" lon="6.3634">
        <ele>1522.8657227</ele>
        <time>2010-10-23T09:53:38Z</time>
      </trkpt>
      <trkpt lat="44.09218" lon="6.3635">
        <ele>1525.7495117</ele>
        <time>2010-10-23T09:53:44Z</time>
      </trkpt>
      <trkpt lat="44.09226" lon="6.36362">
        <ele>1527.1916504</ele>
        <time>2010-10-23T09:53:49Z</time>
      </trkpt>
      <trkpt lat="44.09234" lon="6.36377">
        <ele>1530.5561523</ele>
        <time>2010-10-23T09:53:58Z</time>
      </trkpt>
      <trkpt lat="44.09237" lon="6.36394">
        <ele>1531.0368652</ele>
        <time>2010-10-23T09:54:06Z</time>
      </trkpt>
      <trkpt lat="44.09238" lon="6.3641">
        <ele>1530.5561523</ele>
        <time>2010-10-23T09:54:13Z</time>
      </trkpt>
      <trkpt lat="44.09241" lon="6.36425">
        <ele>1529.5947266</ele>
        <time>2010-10-23T09:54:20Z</time>
      </trkpt>
      <trkpt lat="44.09244" lon="6.36443">
        <ele>1530.0754395</ele>
        <time>2010-10-23T09:54:28Z</time>
      </trkpt>
      <trkpt lat="44.09249" lon="6.3647">
        <ele>1532.4790039</ele>
        <time>2010-10-23T09:54:39Z</time>
      </trkpt>
      <trkpt lat="44.09252" lon="6.36492">
        <ele>1534.4016113</ele>
        <time>2010-10-23T09:54:48Z</time>
      </trkpt>
      <trkpt lat="44.09255" lon="6.36507">
        <ele>1536.3242188</ele>
        <time>2010-10-23T09:54:55Z</time>
      </trkpt>
      <trkpt lat="44.09259" lon="6.36526">
        <ele>1540.6499023</ele>
        <time>2010-10-23T09:55:04Z</time>
      </trkpt>
      <trkpt lat="44.09262" lon="6.36543">
        <ele>1541.1306152</ele>
        <time>2010-10-23T09:55:12Z</time>
      </trkpt>
      <trkpt lat="44.09265" lon="6.36558">
        <ele>1542.092041</ele>
        <time>2010-10-23T09:55:19Z</time>
      </trkpt>
      <trkpt lat="44.09266" lon="6.36576">
        <ele>1544.9758301</ele>
        <time>2010-10-23T09:55:27Z</time>
      </trkpt>
      <trkpt lat="44.09266" lon="6.36593">
        <ele>1546.4179688</ele>
        <time>2010-10-23T09:55:34Z</time>
      </trkpt>
      <trkpt lat="44.09266" lon="6.36616">
        <ele>1549.7827148</ele>
        <time>2010-10-23T09:55:44Z</time>
      </trkpt>
      <trkpt lat="44.09263" lon="6.36634">
        <ele>1548.8212891</ele>
        <time>2010-10-23T09:55:51Z</time>
      </trkpt>
      <trkpt lat="44.09256" lon="6.36656">
        <ele>1549.7827148</ele>
        <time>2010-10-23T09:55:59Z</time>
      </trkpt>
      <trkpt lat="44.09259" lon="6.3667">
        <ele>1550.2634277</ele>
        <time>2010-10-23T09:56:05Z</time>
      </trkpt>
      <trkpt lat="44.09268" lon="6.36672">
        <ele>1549.7827148</ele>
        <time>2010-10-23T09:56:10Z</time>
      </trkpt>
      <trkpt lat="44.09282" lon="6.3666">
        <ele>1549.302002</ele>
        <time>2010-10-23T09:56:18Z</time>
      </trkpt>
      <trkpt lat="44.09295" lon="6.36646">
        <ele>1549.7827148</ele>
        <time>2010-10-23T09:56:26Z</time>
      </trkpt>
      <trkpt lat="44.09309" lon="6.36626">
        <ele>1549.302002</ele>
        <time>2010-10-23T09:56:35Z</time>
      </trkpt>
      <trkpt lat="44.09326" lon="6.36605">
        <ele>1549.7827148</ele>
        <time>2010-10-23T09:56:44Z</time>
      </trkpt>
      <trkpt lat="44.09344" lon="6.36579">
        <ele>1550.2634277</ele>
        <time>2010-10-23T09:56:54Z</time>
      </trkpt>
      <trkpt lat="44.09361" lon="6.36561">
        <ele>1550.7438965</ele>
        <time>2010-10-23T09:57:02Z</time>
      </trkpt>
      <trkpt lat="44.09375" lon="6.36547">
        <ele>1551.7053223</ele>
        <time>2010-10-23T09:57:09Z</time>
      </trkpt>
      <trkpt lat="44.09395" lon="6.36525">
        <ele>1552.185791</ele>
        <time>2010-10-23T09:57:19Z</time>
      </trkpt>
      <trkpt lat="44.09412" lon="6.36508">
        <ele>1553.1472168</ele>
        <time>2010-10-23T09:57:27Z</time>
      </trkpt>
      <trkpt lat="44.09433" lon="6.36483">
        <ele>1555.5505371</ele>
        <time>2010-10-23T09:57:37Z</time>
      </trkpt>
      <trkpt lat="44.09446" lon="6.36467">
        <ele>1557.9538574</ele>
        <time>2010-10-23T09:57:44Z</time>
      </trkpt>
      <trkpt lat="44.09463" lon="6.36443">
        <ele>1559.395752</ele>
        <time>2010-10-23T09:57:53Z</time>
      </trkpt>
      <trkpt lat="44.09478" lon="6.36421">
        <ele>1561.7990723</ele>
        <time>2010-10-23T09:58:02Z</time>
      </trkpt>
      <trkpt lat="44.09493" lon="6.36401">
        <ele>1562.279541</ele>
        <time>2010-10-23T09:58:10Z</time>
      </trkpt>
      <trkpt lat="44.09508" lon="6.36385">
        <ele>1562.7602539</ele>
        <time>2010-10-23T09:58:18Z</time>
      </trkpt>
      <trkpt lat="44.09525" lon="6.36363">
        <ele>1564.6831055</ele>
        <time>2010-10-23T09:58:28Z</time>
      </trkpt>
      <trkpt lat="44.09527" lon="6.36348">
        <ele>1565.6445312</ele>
        <time>2010-10-23T09:58:33Z</time>
      </trkpt>
      <trkpt lat="44.09531" lon="6.36325">
        <ele>1565.1638184</ele>
        <time>2010-10-23T09:58:39Z</time>
      </trkpt>
      <trkpt lat="44.0954" lon="6.36309">
        <ele>1566.125</ele>
        <time>2010-10-23T09:58:45Z</time>
      </trkpt>
      <trkpt lat="44.09559" lon="6.36293">
        <ele>1566.125</ele>
        <time>2010-10-23T09:58:55Z</time>
      </trkpt>
      <trkpt lat="44.09571" lon="6.3629">
        <ele>1567.5668945</ele>
        <time>2010-10-23T09:59:01Z</time>
      </trkpt>
      <trkpt lat="44.09584" lon="6.36291">
        <ele>1569.4897461</ele>
        <time>2010-10-23T09:59:06Z</time>
      </trkpt>
      <trkpt lat="44.09604" lon="6.36292">
        <ele>1571.8928223</ele>
        <time>2010-10-23T09:59:14Z</time>
      </trkpt>
      <trkpt lat="44.09623" lon="6.36282">
        <ele>1573.3349609</ele>
        <time>2010-10-23T09:59:23Z</time>
      </trkpt>
      <trkpt lat="44.0964" lon="6.3627">
        <ele>1575.2573242</ele>
        <time>2010-10-23T09:59:31Z</time>
      </trkpt>
      <trkpt lat="44.09655" lon="6.36255">
        <ele>1578.6220703</ele>
        <time>2010-10-23T09:59:39Z</time>
      </trkpt>
      <trkpt lat="44.09675" lon="6.36245">
        <ele>1579.583252</ele>
        <time>2010-10-23T09:59:47Z</time>
      </trkpt>
      <trkpt lat="44.09686" lon="6.36231">
        <ele>1581.0256348</ele>
        <time>2010-10-23T09:59:53Z</time>
      </trkpt>
      <trkpt lat="44.09699" lon="6.36212">
        <ele>1581.9868164</ele>
        <time>2010-10-23T10:00:01Z</time>
      </trkpt>
      <trkpt lat="44.09712" lon="6.36203">
        <ele>1581.5061035</ele>
        <time>2010-10-23T10:00:08Z</time>
      </trkpt>
      <trkpt lat="44.09729" lon="6.362">
        <ele>1582.4675293</ele>
        <time>2010-10-23T10:00:15Z</time>
      </trkpt>
      <trkpt lat="44.09741" lon="6.36189">
        <ele>1583.9094238</ele>
        <time>2010-10-23T10:00:21Z</time>
      </trkpt>
      <trkpt lat="44.09758" lon="6.3617">
        <ele>1586.3127441</ele>
        <time>2010-10-23T10:00:30Z</time>
      </trkpt>
      <trkpt lat="44.09769" lon="6.36153">
        <ele>1589.6772461</ele>
        <time>2010-10-23T10:00:38Z</time>
      </trkpt>
      <trkpt lat="44.09779" lon="6.36143">
        <ele>1591.1191406</ele>
        <time>2010-10-23T10:00:44Z</time>
      </trkpt>
      <trkpt lat="44.09798" lon="6.36132">
        <ele>1592.5612793</ele>
        <time>2010-10-23T10:00:54Z</time>
      </trkpt>
      <trkpt lat="44.09816" lon="6.36121">
        <ele>1593.041748</ele>
        <time>2010-10-23T10:01:03Z</time>
      </trkpt>
      <trkpt lat="44.09834" lon="6.36107">
        <ele>1593.5224609</ele>
        <time>2010-10-23T10:01:13Z</time>
      </trkpt>
      <trkpt lat="44.09852" lon="6.36094">
        <ele>1594.9643555</ele>
        <time>2010-10-23T10:01:23Z</time>
      </trkpt>
      <trkpt lat="44.09865" lon="6.36084">
        <ele>1596.887207</ele>
        <time>2010-10-23T10:01:31Z</time>
      </trkpt>
      <trkpt lat="44.0988" lon="6.36069">
        <ele>1596.887207</ele>
        <time>2010-10-23T10:01:40Z</time>
      </trkpt>
      <trkpt lat="44.09894" lon="6.36057">
        <ele>1598.8098145</ele>
        <time>2010-10-23T10:01:48Z</time>
      </trkpt>
      <trkpt lat="44.09911" lon="6.36045">
        <ele>1601.2131348</ele>
        <time>2010-10-23T10:01:58Z</time>
      </trkpt>
      <trkpt lat="44.09925" lon="6.36037">
        <ele>1603.1357422</ele>
        <time>2010-10-23T10:02:06Z</time>
      </trkpt>
      <trkpt lat="44.09938" lon="6.36037">
        <ele>1604.5776367</ele>
        <time>2010-10-23T10:02:13Z</time>
      </trkpt>
      <trkpt lat="44.09951" lon="6.36039">
        <ele>1606.5002441</ele>
        <time>2010-10-23T10:02:20Z</time>
      </trkpt>
      <trkpt lat="44.09963" lon="6.36037">
        <ele>1608.4228516</ele>
        <time>2010-10-23T10:02:26Z</time>
      </trkpt>
      <trkpt lat="44.09975" lon="6.3603">
        <ele>1609.3842773</ele>
        <time>2010-10-23T10:02:33Z</time>
      </trkpt>
      <trkpt lat="44.09986" lon="6.36014">
        <ele>1610.8261719</ele>
        <time>2010-10-23T10:02:41Z</time>
      </trkpt>
      <trkpt lat="44.09994" lon="6.35997">
        <ele>1613.2297363</ele>
        <time>2010-10-23T10:02:48Z</time>
      </trkpt>
      <trkpt lat="44.10008" lon="6.35978">
        <ele>1614.190918</ele>
        <time>2010-10-23T10:02:57Z</time>
      </trkpt>
      <trkpt lat="44.10019" lon="6.35959">
        <ele>1615.6330566</ele>
        <time>2010-10-23T10:03:06Z</time>
      </trkpt>
      <trkpt lat="44.10036" lon="6.35943">
        <ele>1616.5942383</ele>
        <time>2010-10-23T10:03:16Z</time>
      </trkpt>
      <trkpt lat="44.10054" lon="6.3593">
        <ele>1617.5554199</ele>
        <time>2010-10-23T10:03:26Z</time>
      </trkpt>
      <trkpt lat="44.10066" lon="6.35916">
        <ele>1618.5168457</ele>
        <time>2010-10-23T10:03:34Z</time>
      </trkpt>
      <trkpt lat="44.10073" lon="6.35906">
        <ele>1621.8813477</ele>
        <time>2010-10-23T10:03:40Z</time>
      </trkpt>
      <trkpt lat="44.10081" lon="6.35894">
        <ele>1623.8039551</ele>
        <time>2010-10-23T10:03:48Z</time>
      </trkpt>
      <trkpt lat="44.10095" lon="6.3588">
        <ele>1624.7653809</ele>
        <time>2010-10-23T10:03:58Z</time>
      </trkpt>
      <trkpt lat="44.10105" lon="6.35877">
        <ele>1625.7265625</ele>
        <time>2010-10-23T10:04:05Z</time>
      </trkpt>
      <trkpt lat="44.10117" lon="6.35879">
        <ele>1626.6879883</ele>
        <time>2010-10-23T10:04:13Z</time>
      </trkpt>
      <trkpt lat="44.10129" lon="6.35877">
        <ele>1628.6108398</ele>
        <time>2010-10-23T10:04:20Z</time>
      </trkpt>
      <trkpt lat="44.1014" lon="6.35874">
        <ele>1630.0527344</ele>
        <time>2010-10-23T10:04:27Z</time>
      </trkpt>
      <trkpt lat="44.10143" lon="6.35872">
        <ele>1630.5334473</ele>
        <time>2010-10-23T10:04:29Z</time>
      </trkpt>
      <trkpt lat="44.10157" lon="6.35863">
        <ele>1633.4172363</ele>
        <time>2010-10-23T10:04:39Z</time>
      </trkpt>
      <trkpt lat="44.10171" lon="6.35857">
        <ele>1633.8979492</ele>
        <time>2010-10-23T10:04:48Z</time>
      </trkpt>
      <trkpt lat="44.10178" lon="6.35855">
        <ele>1634.859375</ele>
        <time>2010-10-23T10:04:53Z</time>
      </trkpt>
      <trkpt lat="44.10191" lon="6.35845">
        <ele>1635.8205566</ele>
        <time>2010-10-23T10:05:02Z</time>
      </trkpt>
      <trkpt lat="44.10198" lon="6.35834">
        <ele>1638.7045898</ele>
        <time>2010-10-23T10:05:09Z</time>
      </trkpt>
      <trkpt lat="44.10209" lon="6.35825">
        <ele>1638.223877</ele>
        <time>2010-10-23T10:05:17Z</time>
      </trkpt>
      <trkpt lat="44.10222" lon="6.35823">
        <ele>1639.6657715</ele>
        <time>2010-10-23T10:05:25Z</time>
      </trkpt>
      <trkpt lat="44.10232" lon="6.35822">
        <ele>1641.107666</ele>
        <time>2010-10-23T10:05:32Z</time>
      </trkpt>
      <trkpt lat="44.10244" lon="6.35822">
        <ele>1642.0690918</ele>
        <time>2010-10-23T10:05:40Z</time>
      </trkpt>
      <trkpt lat="44.10256" lon="6.35826">
        <ele>1643.0302734</ele>
        <time>2010-10-23T10:05:47Z</time>
      </trkpt>
      <trkpt lat="44.10267" lon="6.35825">
        <ele>1643.5109863</ele>
        <time>2010-10-23T10:05:54Z</time>
      </trkpt>
      <trkpt lat="44.1028" lon="6.35822">
        <ele>1644.4724121</ele>
        <time>2010-10-23T10:06:01Z</time>
      </trkpt>
      <trkpt lat="44.10292" lon="6.3582">
        <ele>1646.3952637</ele>
        <time>2010-10-23T10:06:08Z</time>
      </trkpt>
      <trkpt lat="44.10303" lon="6.35814">
        <ele>1648.7983398</ele>
        <time>2010-10-23T10:06:15Z</time>
      </trkpt>
      <trkpt lat="44.1031" lon="6.35807">
        <ele>1649.7597656</ele>
        <time>2010-10-23T10:06:21Z</time>
      </trkpt>
      <trkpt lat="44.1032" lon="6.35799">
        <ele>1651.2016602</ele>
        <time>2010-10-23T10:06:28Z</time>
      </trkpt>
      <trkpt lat="44.1033" lon="6.35794">
        <ele>1652.6435547</ele>
        <time>2010-10-23T10:06:35Z</time>
      </trkpt>
      <trkpt lat="44.10345" lon="6.35788">
        <ele>1654.5661621</ele>
        <time>2010-10-23T10:06:45Z</time>
      </trkpt>
      <trkpt lat="44.10355" lon="6.35786">
        <ele>1656.0080566</ele>
        <time>2010-10-23T10:06:52Z</time>
      </trkpt>
      <trkpt lat="44.10365" lon="6.35777">
        <ele>1658.411377</ele>
        <time>2010-10-23T10:07:00Z</time>
      </trkpt>
      <trkpt lat="44.10377" lon="6.35768">
        <ele>1660.3342285</ele>
        <time>2010-10-23T10:07:09Z</time>
      </trkpt>
      <trkpt lat="44.10389" lon="6.35759">
        <ele>1660.3342285</ele>
        <time>2010-10-23T10:07:18Z</time>
      </trkpt>
      <trkpt lat="44.10399" lon="6.3575">
        <ele>1661.7763672</ele>
        <time>2010-10-23T10:07:26Z</time>
      </trkpt>
      <trkpt lat="44.10407" lon="6.35743">
        <ele>1663.2182617</ele>
        <time>2010-10-23T10:07:32Z</time>
      </trkpt>
      <trkpt lat="44.10416" lon="6.35738">
        <ele>1665.1408691</ele>
        <time>2010-10-23T10:07:38Z</time>
      </trkpt>
      <trkpt lat="44.10427" lon="6.35726">
        <ele>1667.5439453</ele>
        <time>2010-10-23T10:07:47Z</time>
      </trkpt>
      <trkpt lat="44.1044" lon="6.35714">
        <ele>1668.5053711</ele>
        <time>2010-10-23T10:07:56Z</time>
      </trkpt>
      <trkpt lat="44.10454" lon="6.35706">
        <ele>1668.5053711</ele>
        <time>2010-10-23T10:08:05Z</time>
      </trkpt>
      <trkpt lat="44.10466" lon="6.3571">
        <ele>1669.4667969</ele>
        <time>2010-10-23T10:08:12Z</time>
      </trkpt>
      <trkpt lat="44.1048" lon="6.35717">
        <ele>1673.3120117</ele>
        <time>2010-10-23T10:08:19Z</time>
      </trkpt>
      <trkpt lat="44.10492" lon="6.35726">
        <ele>1676.1960449</ele>
        <time>2010-10-23T10:08:26Z</time>
      </trkpt>
      <trkpt lat="44.10499" lon="6.35735">
        <ele>1676.6767578</ele>
        <time>2010-10-23T10:08:32Z</time>
      </trkpt>
      <trkpt lat="44.10509" lon="6.35751">
        <ele>1678.5993652</ele>
        <time>2010-10-23T10:08:41Z</time>
      </trkpt>
      <trkpt lat="44.10509" lon="6.35751">
        <ele>1679.079834</ele>
        <time>2010-10-23T10:08:47Z</time>
      </trkpt>
      <trkpt lat="44.10508" lon="6.3575">
        <ele>1683.4057617</ele>
        <time>2010-10-23T10:08:56Z</time>
      </trkpt>
      <trkpt lat="44.10506" lon="6.35749">
        <ele>1688.2124023</ele>
        <time>2010-10-23T10:09:09Z</time>
      </trkpt>
      <trkpt lat="44.10511" lon="6.3575">
        <ele>1680.0412598</ele>
        <time>2010-10-23T10:09:23Z</time>
      </trkpt>
      <trkpt lat="44.10516" lon="6.35753">
        <ele>1675.7150879</ele>
        <time>2010-10-23T10:09:37Z</time>
      </trkpt>
      <trkpt lat="44.10518" lon="6.35754">
        <ele>1674.2731934</ele>
        <time>2010-10-23T10:09:42Z</time>
      </trkpt>
      <trkpt lat="44.10515" lon="6.35753">
        <ele>1677.6379395</ele>
        <time>2010-10-23T10:09:57Z</time>
      </trkpt>
      <trkpt lat="44.10513" lon="6.35751">
        <ele>1682.4445801</ele>
        <time>2010-10-23T10:10:10Z</time>
      </trkpt>
      <trkpt lat="44.10515" lon="6.35754">
        <ele>1675.234375</ele>
        <time>2010-10-23T10:10:24Z</time>
      </trkpt>
      <trkpt lat="44.1052" lon="6.35756">
        <ele>1666.5827637</ele>
        <time>2010-10-23T10:10:37Z</time>
      </trkpt>
      <trkpt lat="44.10521" lon="6.35756">
        <ele>1665.1408691</ele>
        <time>2010-10-23T10:10:54Z</time>
      </trkpt>
      <trkpt lat="44.10521" lon="6.35758">
        <ele>1668.0246582</ele>
        <time>2010-10-23T10:11:42Z</time>
      </trkpt>
      <trkpt lat="44.10521" lon="6.35758">
        <ele>1667.0634766</ele>
        <time>2010-10-23T10:11:43Z</time>
      </trkpt>
      <trkpt lat="44.10528" lon="6.35767">
        <ele>1669.4667969</ele>
        <time>2010-10-23T10:11:49Z</time>
      </trkpt>
      <trkpt lat="44.10539" lon="6.35778">
        <ele>1672.3505859</ele>
        <time>2010-10-23T10:11:55Z</time>
      </trkpt>
      <trkpt lat="44.1055" lon="6.35788">
        <ele>1672.8312988</ele>
        <time>2010-10-23T10:12:00Z</time>
      </trkpt>
      <trkpt lat="44.10565" lon="6.35804">
        <ele>1670.9086914</ele>
        <time>2010-10-23T10:12:07Z</time>
      </trkpt>
      <trkpt lat="44.10577" lon="6.35822">
        <ele>1670.9086914</ele>
        <time>2010-10-23T10:12:13Z</time>
      </trkpt>
      <trkpt lat="44.10588" lon="6.35831">
        <ele>1670.9086914</ele>
        <time>2010-10-23T10:12:18Z</time>
      </trkpt>
      <trkpt lat="44.10589" lon="6.35833">
        <ele>1671.3891602</ele>
        <time>2010-10-23T10:12:22Z</time>
      </trkpt>
      <trkpt lat="44.10592" lon="6.35833">
        <ele>1668.5053711</ele>
        <time>2010-10-23T10:12:31Z</time>
      </trkpt>
      <trkpt lat="44.10595" lon="6.35834">
        <ele>1662.2568359</ele>
        <time>2010-10-23T10:12:48Z</time>
      </trkpt>
      <trkpt lat="44.10593" lon="6.3583">
        <ele>1663.6987305</ele>
        <time>2010-10-23T10:18:19Z</time>
      </trkpt>
      <trkpt lat="44.10597" lon="6.35832">
        <ele>1662.2568359</ele>
        <time>2010-10-23T10:18:40Z</time>
      </trkpt>
      <trkpt lat="44.10582" lon="6.35827">
        <ele>1665.621582</ele>
        <time>2010-10-23T10:20:11Z</time>
      </trkpt>
      <trkpt lat="44.10587" lon="6.35828">
        <ele>1664.6601562</ele>
        <time>2010-10-23T10:20:18Z</time>
      </trkpt>
      <trkpt lat="44.10593" lon="6.35829">
        <ele>1662.7375488</ele>
        <time>2010-10-23T10:20:26Z</time>
      </trkpt>
      <trkpt lat="44.10602" lon="6.35831">
        <ele>1659.3728027</ele>
        <time>2010-10-23T10:20:35Z</time>
      </trkpt>
      <trkpt lat="44.10608" lon="6.35832">
        <ele>1656.4887695</ele>
        <time>2010-10-23T10:20:52Z</time>
      </trkpt>
      <trkpt lat="44.10593" lon="6.35828">
        <ele>1661.7763672</ele>
        <time>2010-10-23T10:22:38Z</time>
      </trkpt>
      <trkpt lat="44.10595" lon="6.35829">
        <ele>1661.2956543</ele>
        <time>2010-10-23T10:22:44Z</time>
      </trkpt>
      <trkpt lat="44.10591" lon="6.35828">
        <ele>1662.2568359</ele>
        <time>2010-10-23T10:22:51Z</time>
      </trkpt>
      <trkpt lat="44.10595" lon="6.35829">
        <ele>1660.8149414</ele>
        <time>2010-10-23T10:22:57Z</time>
      </trkpt>
      <trkpt lat="44.10599" lon="6.3583">
        <ele>1659.3728027</ele>
        <time>2010-10-23T10:23:04Z</time>
      </trkpt>
      <trkpt lat="44.10598" lon="6.3583">
        <ele>1658.8920898</ele>
        <time>2010-10-23T10:23:10Z</time>
      </trkpt>
      <trkpt lat="44.10603" lon="6.35831">
        <ele>1656.9694824</ele>
        <time>2010-10-23T10:23:17Z</time>
      </trkpt>
      <trkpt lat="44.10601" lon="6.3583">
        <ele>1657.4501953</ele>
        <time>2010-10-23T10:23:24Z</time>
      </trkpt>
      <trkpt lat="44.106" lon="6.3583">
        <ele>1657.4501953</ele>
        <time>2010-10-23T10:23:49Z</time>
      </trkpt>
      <trkpt lat="44.10599" lon="6.3583">
        <ele>1656.4887695</ele>
        <time>2010-10-23T10:24:33Z</time>
      </trkpt>
      <trkpt lat="44.10598" lon="6.3583">
        <ele>1657.4501953</ele>
        <time>2010-10-23T10:24:40Z</time>
      </trkpt>
      <trkpt lat="44.106" lon="6.3583">
        <ele>1656.9694824</ele>
        <time>2010-10-23T10:24:47Z</time>
      </trkpt>
      <trkpt lat="44.10606" lon="6.35831">
        <ele>1655.046875</ele>
        <time>2010-10-23T10:24:55Z</time>
      </trkpt>
      <trkpt lat="44.10611" lon="6.35832">
        <ele>1653.1242676</ele>
        <time>2010-10-23T10:25:06Z</time>
      </trkpt>
      <trkpt lat="44.1061" lon="6.35832">
        <ele>1652.6435547</ele>
        <time>2010-10-23T10:25:24Z</time>
      </trkpt>
      <trkpt lat="44.10601" lon="6.35829">
        <ele>1656.0080566</ele>
        <time>2010-10-23T10:26:44Z</time>
      </trkpt>
      <trkpt lat="44.10594" lon="6.3583">
        <ele>1661.2956543</ele>
        <time>2010-10-23T10:30:06Z</time>
      </trkpt>
      <trkpt lat="44.106" lon="6.35831">
        <ele>1655.5275879</ele>
        <time>2010-10-23T10:30:23Z</time>
      </trkpt>
      <trkpt lat="44.10594" lon="6.35829">
        <ele>1656.4887695</ele>
        <time>2010-10-23T10:30:40Z</time>
      </trkpt>
      <trkpt lat="44.10598" lon="6.35829">
        <ele>1660.8149414</ele>
        <time>2010-10-23T10:30:57Z</time>
      </trkpt>
      <trkpt lat="44.10611" lon="6.35824">
        <ele>1658.8920898</ele>
        <time>2010-10-23T10:31:03Z</time>
      </trkpt>
      <trkpt lat="44.10622" lon="6.35825">
        <ele>1658.8920898</ele>
        <time>2010-10-23T10:31:08Z</time>
      </trkpt>
      <trkpt lat="44.10626" lon="6.35825">
        <ele>1658.8920898</ele>
        <time>2010-10-23T10:31:09Z</time>
      </trkpt>
      <trkpt lat="44.10642" lon="6.35822">
        <ele>1660.3342285</ele>
        <time>2010-10-23T10:31:13Z</time>
      </trkpt>
      <trkpt lat="44.10654" lon="6.35826">
        <ele>1661.2956543</ele>
        <time>2010-10-23T10:31:17Z</time>
      </trkpt>
      <trkpt lat="44.10666" lon="6.35838">
        <ele>1661.7763672</ele>
        <time>2010-10-23T10:31:21Z</time>
      </trkpt>
      <trkpt lat="44.10679" lon="6.35837">
        <ele>1660.8149414</ele>
        <time>2010-10-23T10:31:25Z</time>
      </trkpt>
      <trkpt lat="44.10689" lon="6.35836">
        <ele>1657.9309082</ele>
        <time>2010-10-23T10:31:28Z</time>
      </trkpt>
      <trkpt lat="44.10706" lon="6.35835">
        <ele>1654.5661621</ele>
        <time>2010-10-23T10:31:32Z</time>
      </trkpt>
      <trkpt lat="44.10714" lon="6.35819">
        <ele>1649.7597656</ele>
        <time>2010-10-23T10:31:36Z</time>
      </trkpt>
      <trkpt lat="44.10735" lon="6.35778">
        <ele>1642.5498047</ele>
        <time>2010-10-23T10:31:42Z</time>
      </trkpt>
      <trkpt lat="44.10758" lon="6.3575">
        <ele>1639.1850586</ele>
        <time>2010-10-23T10:31:46Z</time>
      </trkpt>
      <trkpt lat="44.10788" lon="6.35712">
        <ele>1631.0141602</ele>
        <time>2010-10-23T10:31:52Z</time>
      </trkpt>
      <trkpt lat="44.10809" lon="6.35689">
        <ele>1625.2458496</ele>
        <time>2010-10-23T10:31:57Z</time>
      </trkpt>
      <trkpt lat="44.1082" lon="6.35671">
        <ele>1620.920166</ele>
        <time>2010-10-23T10:32:01Z</time>
      </trkpt>
      <trkpt lat="44.10823" lon="6.35682">
        <ele>1618.5168457</ele>
        <time>2010-10-23T10:32:05Z</time>
      </trkpt>
      <trkpt lat="44.10823" lon="6.35687">
        <ele>1618.9975586</ele>
        <time>2010-10-23T10:32:06Z</time>
      </trkpt>
      <trkpt lat="44.10831" lon="6.35705">
        <ele>1618.9975586</ele>
        <time>2010-10-23T10:32:10Z</time>
      </trkpt>
      <trkpt lat="44.10839" lon="6.35712">
        <ele>1618.9975586</ele>
        <time>2010-10-23T10:32:13Z</time>
      </trkpt>
      <trkpt lat="44.10846" lon="6.35716">
        <ele>1617.5554199</ele>
        <time>2010-10-23T10:32:15Z</time>
      </trkpt>
      <trkpt lat="44.10861" lon="6.35727">
        <ele>1615.1523438</ele>
        <time>2010-10-23T10:32:19Z</time>
      </trkpt>
      <trkpt lat="44.10875" lon="6.35728">
        <ele>1614.190918</ele>
        <time>2010-10-23T10:32:23Z</time>
      </trkpt>
      <trkpt lat="44.10865" lon="6.35724">
        <ele>1613.7102051</ele>
        <time>2010-10-23T10:32:27Z</time>
      </trkpt>
      <trkpt lat="44.10856" lon="6.35711">
        <ele>1613.7102051</ele>
        <time>2010-10-23T10:32:32Z</time>
      </trkpt>
      <trkpt lat="44.10856" lon="6.35711">
        <ele>1611.7875977</ele>
        <time>2010-10-23T10:32:33Z</time>
      </trkpt>
      <trkpt lat="44.10842" lon="6.35695">
        <ele>1609.8647461</ele>
        <time>2010-10-23T10:32:38Z</time>
      </trkpt>
      <trkpt lat="44.1083" lon="6.35677">
        <ele>1606.5002441</ele>
        <time>2010-10-23T10:32:44Z</time>
      </trkpt>
      <trkpt lat="44.10834" lon="6.35678">
        <ele>1604.097168</ele>
        <time>2010-10-23T10:32:49Z</time>
      </trkpt>
      <trkpt lat="44.10841" lon="6.35687">
        <ele>1603.6164551</ele>
        <time>2010-10-23T10:32:53Z</time>
      </trkpt>
      <trkpt lat="44.10871" lon="6.357">
        <ele>1596.4067383</ele>
        <time>2010-10-23T10:33:00Z</time>
      </trkpt>
      <trkpt lat="44.10882" lon="6.35693">
        <ele>1594.4836426</ele>
        <time>2010-10-23T10:33:04Z</time>
      </trkpt>
      <trkpt lat="44.10896" lon="6.35693">
        <ele>1591.1191406</ele>
        <time>2010-10-23T10:33:08Z</time>
      </trkpt>
      <trkpt lat="44.10899" lon="6.3569">
        <ele>1594.9643555</ele>
        <time>2010-10-23T10:33:11Z</time>
      </trkpt>
      <trkpt lat="44.10881" lon="6.35675">
        <ele>1598.3291016</ele>
        <time>2010-10-23T10:33:15Z</time>
      </trkpt>
      <trkpt lat="44.10878" lon="6.35674">
        <ele>1598.3291016</ele>
        <time>2010-10-23T10:33:16Z</time>
      </trkpt>
      <trkpt lat="44.10859" lon="6.35666">
        <ele>1595.9257812</ele>
        <time>2010-10-23T10:33:21Z</time>
      </trkpt>
      <trkpt lat="44.10855" lon="6.35659">
        <ele>1594.0031738</ele>
        <time>2010-10-23T10:33:23Z</time>
      </trkpt>
      <trkpt lat="44.10842" lon="6.35657">
        <ele>1589.6772461</ele>
        <time>2010-10-23T10:33:29Z</time>
      </trkpt>
      <trkpt lat="44.10841" lon="6.35655">
        <ele>1589.6772461</ele>
        <time>2010-10-23T10:33:30Z</time>
      </trkpt>
      <trkpt lat="44.10843" lon="6.35652">
        <ele>1588.7160645</ele>
        <time>2010-10-23T10:33:32Z</time>
      </trkpt>
      <trkpt lat="44.10851" lon="6.35648">
        <ele>1583.4287109</ele>
        <time>2010-10-23T10:33:37Z</time>
      </trkpt>
      <trkpt lat="44.10869" lon="6.35653">
        <ele>1578.1413574</ele>
        <time>2010-10-23T10:33:44Z</time>
      </trkpt>
      <trkpt lat="44.10881" lon="6.35648">
        <ele>1580.064209</ele>
        <time>2010-10-23T10:33:48Z</time>
      </trkpt>
      <trkpt lat="44.10888" lon="6.35645">
        <ele>1578.1413574</ele>
        <time>2010-10-23T10:33:52Z</time>
      </trkpt>
      <trkpt lat="44.10886" lon="6.35645">
        <ele>1579.1025391</ele>
        <time>2010-10-23T10:33:53Z</time>
      </trkpt>
      <trkpt lat="44.10871" lon="6.35644">
        <ele>1572.3735352</ele>
        <time>2010-10-23T10:33:58Z</time>
      </trkpt>
      <trkpt lat="44.10858" lon="6.35632">
        <ele>1571.8928223</ele>
        <time>2010-10-23T10:34:02Z</time>
      </trkpt>
      <trkpt lat="44.10846" lon="6.35628">
        <ele>1567.5668945</ele>
        <time>2010-10-23T10:34:08Z</time>
      </trkpt>
      <trkpt lat="44.10839" lon="6.3562">
        <ele>1564.2023926</ele>
        <time>2010-10-23T10:34:13Z</time>
      </trkpt>
      <trkpt lat="44.1085" lon="6.3561">
        <ele>1558.4343262</ele>
        <time>2010-10-23T10:34:20Z</time>
      </trkpt>
      <trkpt lat="44.10851" lon="6.35602">
        <ele>1556.0310059</ele>
        <time>2010-10-23T10:34:24Z</time>
      </trkpt>
      <trkpt lat="44.10864" lon="6.35598">
        <ele>1553.1472168</ele>
        <time>2010-10-23T10:34:29Z</time>
      </trkpt>
      <trkpt lat="44.1088" lon="6.35599">
        <ele>1549.302002</ele>
        <time>2010-10-23T10:34:33Z</time>
      </trkpt>
      <trkpt lat="44.10903" lon="6.35587">
        <ele>1548.3405762</ele>
        <time>2010-10-23T10:34:40Z</time>
      </trkpt>
      <trkpt lat="44.10923" lon="6.35576">
        <ele>1548.8212891</ele>
        <time>2010-10-23T10:34:45Z</time>
      </trkpt>
      <trkpt lat="44.10943" lon="6.35575">
        <ele>1544.9758301</ele>
        <time>2010-10-23T10:34:49Z</time>
      </trkpt>
      <trkpt lat="44.10964" lon="6.35578">
        <ele>1538.2468262</ele>
        <time>2010-10-23T10:34:54Z</time>
      </trkpt>
      <trkpt lat="44.10968" lon="6.35577">
        <ele>1534.4016113</ele>
        <time>2010-10-23T10:34:56Z</time>
      </trkpt>
      <trkpt lat="44.10962" lon="6.35571">
        <ele>1537.2854004</ele>
        <time>2010-10-23T10:35:02Z</time>
      </trkpt>
      <trkpt lat="44.10953" lon="6.3556">
        <ele>1534.4016113</ele>
        <time>2010-10-23T10:35:06Z</time>
      </trkpt>
      <trkpt lat="44.10934" lon="6.35551">
        <ele>1536.3242188</ele>
        <time>2010-10-23T10:35:10Z</time>
      </trkpt>
      <trkpt lat="44.10902" lon="6.35548">
        <ele>1530.5561523</ele>
        <time>2010-10-23T10:35:17Z</time>
      </trkpt>
      <trkpt lat="44.10904" lon="6.35545">
        <ele>1527.1916504</ele>
        <time>2010-10-23T10:35:20Z</time>
      </trkpt>
      <trkpt lat="44.10906" lon="6.35545">
        <ele>1526.2302246</ele>
        <time>2010-10-23T10:35:21Z</time>
      </trkpt>
      <trkpt lat="44.10919" lon="6.35536">
        <ele>1522.3850098</ele>
        <time>2010-10-23T10:35:26Z</time>
      </trkpt>
      <trkpt lat="44.1092" lon="6.35534">
        <ele>1521.9042969</ele>
        <time>2010-10-23T10:35:28Z</time>
      </trkpt>
      <trkpt lat="44.10918" lon="6.35532">
        <ele>1519.5012207</ele>
        <time>2010-10-23T10:35:33Z</time>
      </trkpt>
      <trkpt lat="44.10933" lon="6.35516">
        <ele>1514.213623</ele>
        <time>2010-10-23T10:35:38Z</time>
      </trkpt>
      <trkpt lat="44.10965" lon="6.35495">
        <ele>1509.8876953</ele>
        <time>2010-10-23T10:35:44Z</time>
      </trkpt>
      <trkpt lat="44.10966" lon="6.35491">
        <ele>1507.4846191</ele>
        <time>2010-10-23T10:35:47Z</time>
      </trkpt>
      <trkpt lat="44.10945" lon="6.35494">
        <ele>1504.6005859</ele>
        <time>2010-10-23T10:35:51Z</time>
      </trkpt>
      <trkpt lat="44.10941" lon="6.35495">
        <ele>1505.0812988</ele>
        <time>2010-10-23T10:35:52Z</time>
      </trkpt>
      <trkpt lat="44.1093" lon="6.35489">
        <ele>1502.6779785</ele>
        <time>2010-10-23T10:35:57Z</time>
      </trkpt>
      <trkpt lat="44.10924" lon="6.35476">
        <ele>1503.6394043</ele>
        <time>2010-10-23T10:36:02Z</time>
      </trkpt>
      <trkpt lat="44.1092" lon="6.3545">
        <ele>1501.7167969</ele>
        <time>2010-10-23T10:36:06Z</time>
      </trkpt>
      <trkpt lat="44.10916" lon="6.35421">
        <ele>1500.7553711</ele>
        <time>2010-10-23T10:36:09Z</time>
      </trkpt>
      <trkpt lat="44.1091" lon="6.35392">
        <ele>1497.8713379</ele>
        <time>2010-10-23T10:36:13Z</time>
      </trkpt>
      <trkpt lat="44.1092" lon="6.35388">
        <ele>1494.026123</ele>
        <time>2010-10-23T10:36:16Z</time>
      </trkpt>
      <trkpt lat="44.10928" lon="6.35392">
        <ele>1488.2583008</ele>
        <time>2010-10-23T10:36:21Z</time>
      </trkpt>
      <trkpt lat="44.10931" lon="6.35393">
        <ele>1487.296875</ele>
        <time>2010-10-23T10:36:24Z</time>
      </trkpt>
      <trkpt lat="44.10941" lon="6.35396">
        <ele>1484.8937988</ele>
        <time>2010-10-23T10:36:30Z</time>
      </trkpt>
      <trkpt lat="44.10948" lon="6.35398">
        <ele>1482.4902344</ele>
        <time>2010-10-23T10:36:36Z</time>
      </trkpt>
      <trkpt lat="44.10942" lon="6.35397">
        <ele>1482.9707031</ele>
        <time>2010-10-23T10:37:13Z</time>
      </trkpt>
      <trkpt lat="44.10933" lon="6.35396">
        <ele>1488.2583008</ele>
        <time>2010-10-23T10:37:22Z</time>
      </trkpt>
      <trkpt lat="44.10927" lon="6.35395">
        <ele>1492.1035156</ele>
        <time>2010-10-23T10:37:28Z</time>
      </trkpt>
      <trkpt lat="44.10926" lon="6.35399">
        <ele>1506.0424805</ele>
        <time>2010-10-23T10:39:29Z</time>
      </trkpt>
      <trkpt lat="44.10931" lon="6.35414">
        <ele>1503.1586914</ele>
        <time>2010-10-23T10:39:33Z</time>
      </trkpt>
      <trkpt lat="44.10933" lon="6.35419">
        <ele>1501.7167969</ele>
        <time>2010-10-23T10:39:34Z</time>
      </trkpt>
      <trkpt lat="44.10941" lon="6.35443">
        <ele>1495.4680176</ele>
        <time>2010-10-23T10:39:38Z</time>
      </trkpt>
      <trkpt lat="44.1096" lon="6.35441">
        <ele>1480.0869141</ele>
        <time>2010-10-23T10:39:42Z</time>
      </trkpt>
      <trkpt lat="44.10991" lon="6.35422">
        <ele>1468.0705566</ele>
        <time>2010-10-23T10:39:48Z</time>
      </trkpt>
      <trkpt lat="44.11" lon="6.35419">
        <ele>1456.0539551</ele>
        <time>2010-10-23T10:39:52Z</time>
      </trkpt>
      <trkpt lat="44.10999" lon="6.35417">
        <ele>1455.0927734</ele>
        <time>2010-10-23T10:39:53Z</time>
      </trkpt>
      <trkpt lat="44.10976" lon="6.35409">
        <ele>1445.9602051</ele>
        <time>2010-10-23T10:39:58Z</time>
      </trkpt>
      <trkpt lat="44.10972" lon="6.35399">
        <ele>1437.3083496</ele>
        <time>2010-10-23T10:40:01Z</time>
      </trkpt>
      <trkpt lat="44.10973" lon="6.35379">
        <ele>1428.6564941</ele>
        <time>2010-10-23T10:40:05Z</time>
      </trkpt>
      <trkpt lat="44.10983" lon="6.35354">
        <ele>1419.0432129</ele>
        <time>2010-10-23T10:40:08Z</time>
      </trkpt>
      <trkpt lat="44.10985" lon="6.35342">
        <ele>1419.0432129</ele>
        <time>2010-10-23T10:40:10Z</time>
      </trkpt>
      <trkpt lat="44.1098" lon="6.35317">
        <ele>1416.1591797</ele>
        <time>2010-10-23T10:40:13Z</time>
      </trkpt>
      <trkpt lat="44.10963" lon="6.35288">
        <ele>1414.7172852</ele>
        <time>2010-10-23T10:40:17Z</time>
      </trkpt>
      <trkpt lat="44.10955" lon="6.35249">
        <ele>1409.4301758</ele>
        <time>2010-10-23T10:40:21Z</time>
      </trkpt>
      <trkpt lat="44.10961" lon="6.3521">
        <ele>1400.7780762</ele>
        <time>2010-10-23T10:40:25Z</time>
      </trkpt>
      <trkpt lat="44.1096" lon="6.35157">
        <ele>1397.4135742</ele>
        <time>2010-10-23T10:40:30Z</time>
      </trkpt>
      <trkpt lat="44.10958" lon="6.35138">
        <ele>1395.9716797</ele>
        <time>2010-10-23T10:40:32Z</time>
      </trkpt>
      <trkpt lat="44.1095" lon="6.3509">
        <ele>1394.0490723</ele>
        <time>2010-10-23T10:40:37Z</time>
      </trkpt>
      <trkpt lat="44.10949" lon="6.35082">
        <ele>1392.6071777</ele>
        <time>2010-10-23T10:40:38Z</time>
      </trkpt>
      <trkpt lat="44.1094" lon="6.35053">
        <ele>1394.529541</ele>
        <time>2010-10-23T10:40:41Z</time>
      </trkpt>
      <trkpt lat="44.10928" lon="6.35009">
        <ele>1394.529541</ele>
        <time>2010-10-23T10:40:46Z</time>
      </trkpt>
      <trkpt lat="44.10923" lon="6.34965">
        <ele>1385.8776855</ele>
        <time>2010-10-23T10:40:52Z</time>
      </trkpt>
      <trkpt lat="44.1092" lon="6.34939">
        <ele>1374.342041</ele>
        <time>2010-10-23T10:40:56Z</time>
      </trkpt>
      <trkpt lat="44.10918" lon="6.34924">
        <ele>1369.5354004</ele>
        <time>2010-10-23T10:40:58Z</time>
      </trkpt>
      <trkpt lat="44.10914" lon="6.3489">
        <ele>1360.402832</ele>
        <time>2010-10-23T10:41:02Z</time>
      </trkpt>
      <trkpt lat="44.10906" lon="6.34847">
        <ele>1353.673584</ele>
        <time>2010-10-23T10:41:07Z</time>
      </trkpt>
      <trkpt lat="44.10906" lon="6.34836">
        <ele>1352.7121582</ele>
        <time>2010-10-23T10:41:09Z</time>
      </trkpt>
      <trkpt lat="44.10905" lon="6.34836">
        <ele>1354.6347656</ele>
        <time>2010-10-23T10:41:15Z</time>
      </trkpt>
      <trkpt lat="44.10905" lon="6.34838">
        <ele>1349.3476562</ele>
        <time>2010-10-23T10:41:20Z</time>
      </trkpt>
      <trkpt lat="44.10903" lon="6.34839">
        <ele>1339.734375</ele>
        <time>2010-10-23T10:41:30Z</time>
      </trkpt>
      <trkpt lat="44.10903" lon="6.34843">
        <ele>1366.1706543</ele>
        <time>2010-10-23T10:42:04Z</time>
      </trkpt>
      <trkpt lat="44.10901" lon="6.34842">
        <ele>1373.8613281</ele>
        <time>2010-10-23T10:42:48Z</time>
      </trkpt>
      <trkpt lat="44.10898" lon="6.34841">
        <ele>1371.9384766</ele>
        <time>2010-10-23T10:43:32Z</time>
      </trkpt>
      <trkpt lat="44.10893" lon="6.34823">
        <ele>1374.8227539</ele>
        <time>2010-10-23T10:43:37Z</time>
      </trkpt>
      <trkpt lat="44.10889" lon="6.34776">
        <ele>1376.7453613</ele>
        <time>2010-10-23T10:43:42Z</time>
      </trkpt>
      <trkpt lat="44.10888" lon="6.34765">
        <ele>1377.2260742</ele>
        <time>2010-10-23T10:43:43Z</time>
      </trkpt>
      <trkpt lat="44.10873" lon="6.34712">
        <ele>1370.496582</ele>
        <time>2010-10-23T10:43:48Z</time>
      </trkpt>
      <trkpt lat="44.1087" lon="6.34704">
        <ele>1367.6125488</ele>
        <time>2010-10-23T10:43:49Z</time>
      </trkpt>
      <trkpt lat="44.10855" lon="6.34672">
        <ele>1358.4802246</ele>
        <time>2010-10-23T10:43:55Z</time>
      </trkpt>
      <trkpt lat="44.10851" lon="6.3466">
        <ele>1356.0769043</ele>
        <time>2010-10-23T10:43:57Z</time>
      </trkpt>
      <trkpt lat="44.10843" lon="6.34615">
        <ele>1350.309082</ele>
        <time>2010-10-23T10:44:04Z</time>
      </trkpt>
      <trkpt lat="44.10841" lon="6.34583">
        <ele>1348.8669434</ele>
        <time>2010-10-23T10:44:09Z</time>
      </trkpt>
      <trkpt lat="44.10839" lon="6.34535">
        <ele>1344.0605469</ele>
        <time>2010-10-23T10:44:15Z</time>
      </trkpt>
      <trkpt lat="44.10836" lon="6.34513">
        <ele>1342.6186523</ele>
        <time>2010-10-23T10:44:18Z</time>
      </trkpt>
      <trkpt lat="44.10831" lon="6.34486">
        <ele>1337.8117676</ele>
        <time>2010-10-23T10:44:22Z</time>
      </trkpt>
      <trkpt lat="44.10831" lon="6.34462">
        <ele>1336.8503418</ele>
        <time>2010-10-23T10:44:26Z</time>
      </trkpt>
      <trkpt lat="44.10831" lon="6.34405">
        <ele>1326.276123</ele>
        <time>2010-10-23T10:44:34Z</time>
      </trkpt>
      <trkpt lat="44.1083" lon="6.34382">
        <ele>1324.3535156</ele>
        <time>2010-10-23T10:44:37Z</time>
      </trkpt>
      <trkpt lat="44.10827" lon="6.34355">
        <ele>1320.5080566</ele>
        <time>2010-10-23T10:44:41Z</time>
      </trkpt>
      <trkpt lat="44.10816" lon="6.34315">
        <ele>1312.817627</ele>
        <time>2010-10-23T10:44:47Z</time>
      </trkpt>
      <trkpt lat="44.10816" lon="6.34304">
        <ele>1310.8950195</ele>
        <time>2010-10-23T10:44:51Z</time>
      </trkpt>
      <trkpt lat="44.10811" lon="6.34292">
        <ele>1306.5688477</ele>
        <time>2010-10-23T10:44:56Z</time>
      </trkpt>
      <trkpt lat="44.10805" lon="6.34275">
        <ele>1302.7236328</ele>
        <time>2010-10-23T10:45:01Z</time>
      </trkpt>
      <trkpt lat="44.10804" lon="6.34273">
        <ele>1301.7624512</ele>
        <time>2010-10-23T10:45:02Z</time>
      </trkpt>
      <trkpt lat="44.10811" lon="6.3427">
        <ele>1299.8398438</ele>
        <time>2010-10-23T10:45:07Z</time>
      </trkpt>
      <trkpt lat="44.10823" lon="6.34276">
        <ele>1298.878418</ele>
        <time>2010-10-23T10:45:11Z</time>
      </trkpt>
      <trkpt lat="44.10843" lon="6.34283">
        <ele>1297.4365234</ele>
        <time>2010-10-23T10:45:16Z</time>
      </trkpt>
      <trkpt lat="44.10847" lon="6.34284">
        <ele>1295.0332031</ele>
        <time>2010-10-23T10:45:20Z</time>
      </trkpt>
      <trkpt lat="44.10854" lon="6.34286">
        <ele>1294.5524902</ele>
        <time>2010-10-23T10:45:24Z</time>
      </trkpt>
      <trkpt lat="44.10865" lon="6.3429">
        <ele>1293.5913086</ele>
        <time>2010-10-23T10:45:29Z</time>
      </trkpt>
      <trkpt lat="44.10867" lon="6.3429">
        <ele>1293.5913086</ele>
        <time>2010-10-23T10:45:30Z</time>
      </trkpt>
      <trkpt lat="44.10867" lon="6.34279">
        <ele>1291.1877441</ele>
        <time>2010-10-23T10:45:35Z</time>
      </trkpt>
      <trkpt lat="44.10857" lon="6.34266">
        <ele>1289.7458496</ele>
        <time>2010-10-23T10:45:39Z</time>
      </trkpt>
      <trkpt lat="44.10854" lon="6.34263">
        <ele>1289.2651367</ele>
        <time>2010-10-23T10:45:41Z</time>
      </trkpt>
      <trkpt lat="44.10842" lon="6.34253">
        <ele>1288.784668</ele>
        <time>2010-10-23T10:45:49Z</time>
      </trkpt>
      <trkpt lat="44.10833" lon="6.34245">
        <ele>1289.2651367</ele>
        <time>2010-10-23T10:45:56Z</time>
      </trkpt>
      <trkpt lat="44.10821" lon="6.34242">
        <ele>1287.3425293</ele>
        <time>2010-10-23T10:46:02Z</time>
      </trkpt>
      <trkpt lat="44.10807" lon="6.3424">
        <ele>1286.3813477</ele>
        <time>2010-10-23T10:46:07Z</time>
      </trkpt>
      <trkpt lat="44.1079" lon="6.34233">
        <ele>1287.3425293</ele>
        <time>2010-10-23T10:46:12Z</time>
      </trkpt>
      <trkpt lat="44.10772" lon="6.34222">
        <ele>1284.9394531</ele>
        <time>2010-10-23T10:46:17Z</time>
      </trkpt>
      <trkpt lat="44.10753" lon="6.34212">
        <ele>1281.574707</ele>
        <time>2010-10-23T10:46:22Z</time>
      </trkpt>
      <trkpt lat="44.10734" lon="6.34198">
        <ele>1280.1328125</ele>
        <time>2010-10-23T10:46:30Z</time>
      </trkpt>
      <trkpt lat="44.10719" lon="6.34188">
        <ele>1280.6135254</ele>
        <time>2010-10-23T10:46:35Z</time>
      </trkpt>
      <trkpt lat="44.10696" lon="6.34168">
        <ele>1277.7294922</ele>
        <time>2010-10-23T10:46:42Z</time>
      </trkpt>
      <trkpt lat="44.10689" lon="6.34162">
        <ele>1276.7683105</ele>
        <time>2010-10-23T10:46:44Z</time>
      </trkpt>
      <trkpt lat="44.10671" lon="6.34145">
        <ele>1272.9228516</ele>
        <time>2010-10-23T10:46:49Z</time>
      </trkpt>
      <trkpt lat="44.10665" lon="6.34151">
        <ele>1274.3647461</ele>
        <time>2010-10-23T10:46:54Z</time>
      </trkpt>
      <trkpt lat="44.10663" lon="6.34158">
        <ele>1276.7683105</ele>
        <time>2010-10-23T10:46:57Z</time>
      </trkpt>
      <trkpt lat="44.10656" lon="6.3418">
        <ele>1274.845459</ele>
        <time>2010-10-23T10:47:03Z</time>
      </trkpt>
      <trkpt lat="44.10643" lon="6.34192">
        <ele>1275.8066406</ele>
        <time>2010-10-23T10:47:08Z</time>
      </trkpt>
      <trkpt lat="44.10636" lon="6.3419">
        <ele>1275.3259277</ele>
        <time>2010-10-23T10:47:10Z</time>
      </trkpt>
      <trkpt lat="44.10621" lon="6.34186">
        <ele>1271.4807129</ele>
        <time>2010-10-23T10:47:14Z</time>
      </trkpt>
      <trkpt lat="44.10613" lon="6.3419">
        <ele>1270.0388184</ele>
        <time>2010-10-23T10:47:16Z</time>
      </trkpt>
      <trkpt lat="44.10607" lon="6.34195">
        <ele>1271.0002441</ele>
        <time>2010-10-23T10:47:18Z</time>
      </trkpt>
      <trkpt lat="44.10599" lon="6.34192">
        <ele>1272.9228516</ele>
        <time>2010-10-23T10:47:23Z</time>
      </trkpt>
      <trkpt lat="44.10591" lon="6.34191">
        <ele>1269.5583496</ele>
        <time>2010-10-23T10:47:26Z</time>
      </trkpt>
      <trkpt lat="44.10583" lon="6.34194">
        <ele>1265.2324219</ele>
        <time>2010-10-23T10:47:30Z</time>
      </trkpt>
      <trkpt lat="44.10568" lon="6.34189">
        <ele>1264.2709961</ele>
        <time>2010-10-23T10:47:35Z</time>
      </trkpt>
      <trkpt lat="44.10562" lon="6.34186">
        <ele>1265.2324219</ele>
        <time>2010-10-23T10:47:40Z</time>
      </trkpt>
      <trkpt lat="44.10558" lon="6.34182">
        <ele>1266.6743164</ele>
        <time>2010-10-23T10:47:51Z</time>
      </trkpt>
      <trkpt lat="44.10552" lon="6.34182">
        <ele>1266.1936035</ele>
        <time>2010-10-23T10:47:56Z</time>
      </trkpt>
      <trkpt lat="44.10552" lon="6.34182">
        <ele>1265.7131348</ele>
        <time>2010-10-23T10:47:57Z</time>
      </trkpt>
      <trkpt lat="44.10566" lon="6.34177">
        <ele>1261.387207</ele>
        <time>2010-10-23T10:48:03Z</time>
      </trkpt>
      <trkpt lat="44.10577" lon="6.34175">
        <ele>1257.541748</ele>
        <time>2010-10-23T10:48:07Z</time>
      </trkpt>
      <trkpt lat="44.10589" lon="6.34169">
        <ele>1258.5029297</ele>
        <time>2010-10-23T10:48:11Z</time>
      </trkpt>
      <trkpt lat="44.10599" lon="6.34162">
        <ele>1256.0996094</ele>
        <time>2010-10-23T10:48:16Z</time>
      </trkpt>
      <trkpt lat="44.10615" lon="6.34145">
        <ele>1256.0996094</ele>
        <time>2010-10-23T10:48:21Z</time>
      </trkpt>
      <trkpt lat="44.10622" lon="6.3414">
        <ele>1252.7351074</ele>
        <time>2010-10-23T10:48:26Z</time>
      </trkpt>
      <trkpt lat="44.10606" lon="6.34143">
        <ele>1245.5253906</ele>
        <time>2010-10-23T10:48:32Z</time>
      </trkpt>
      <trkpt lat="44.10587" lon="6.34146">
        <ele>1242.6413574</ele>
        <time>2010-10-23T10:48:37Z</time>
      </trkpt>
      <trkpt lat="44.10583" lon="6.34146">
        <ele>1241.1992188</ele>
        <time>2010-10-23T10:48:38Z</time>
      </trkpt>
      <trkpt lat="44.10566" lon="6.34137">
        <ele>1237.3540039</ele>
        <time>2010-10-23T10:48:42Z</time>
      </trkpt>
      <trkpt lat="44.10557" lon="6.34135">
        <ele>1237.8347168</ele>
        <time>2010-10-23T10:48:45Z</time>
      </trkpt>
      <trkpt lat="44.10555" lon="6.3413">
        <ele>1237.3540039</ele>
        <time>2010-10-23T10:48:49Z</time>
      </trkpt>
      <trkpt lat="44.10565" lon="6.34124">
        <ele>1237.8347168</ele>
        <time>2010-10-23T10:48:53Z</time>
      </trkpt>
      <trkpt lat="44.10582" lon="6.34113">
        <ele>1235.4313965</ele>
        <time>2010-10-23T10:48:58Z</time>
      </trkpt>
      <trkpt lat="44.10589" lon="6.34109">
        <ele>1233.989502</ele>
        <time>2010-10-23T10:49:02Z</time>
      </trkpt>
      <trkpt lat="44.10593" lon="6.34109">
        <ele>1231.5861816</ele>
        <time>2010-10-23T10:49:05Z</time>
      </trkpt>
      <trkpt lat="44.10582" lon="6.34104">
        <ele>1228.2216797</ele>
        <time>2010-10-23T10:49:09Z</time>
      </trkpt>
      <trkpt lat="44.10571" lon="6.34101">
        <ele>1224.3762207</ele>
        <time>2010-10-23T10:49:13Z</time>
      </trkpt>
      <trkpt lat="44.10562" lon="6.34099">
        <ele>1222.4536133</ele>
        <time>2010-10-23T10:49:18Z</time>
      </trkpt>
      <trkpt lat="44.10563" lon="6.34096">
        <ele>1224.3762207</ele>
        <time>2010-10-23T10:49:25Z</time>
      </trkpt>
      <trkpt lat="44.10553" lon="6.34092">
        <ele>1220.5310059</ele>
        <time>2010-10-23T10:49:31Z</time>
      </trkpt>
      <trkpt lat="44.1055" lon="6.34093">
        <ele>1219.0891113</ele>
        <time>2010-10-23T10:49:36Z</time>
      </trkpt>
      <trkpt lat="44.10547" lon="6.34089">
        <ele>1221.4921875</ele>
        <time>2010-10-23T10:49:43Z</time>
      </trkpt>
      <trkpt lat="44.10545" lon="6.34086">
        <ele>1223.4150391</ele>
        <time>2010-10-23T10:49:50Z</time>
      </trkpt>
      <trkpt lat="44.10544" lon="6.34085">
        <ele>1224.3762207</ele>
        <time>2010-10-23T10:49:51Z</time>
      </trkpt>
      <trkpt lat="44.10544" lon="6.34075">
        <ele>1227.2602539</ele>
        <time>2010-10-23T10:49:56Z</time>
      </trkpt>
      <trkpt lat="44.10547" lon="6.3407">
        <ele>1227.7407227</ele>
        <time>2010-10-23T10:50:02Z</time>
      </trkpt>
      <trkpt lat="44.10546" lon="6.34062">
        <ele>1240.7185059</ele>
        <time>2010-10-23T10:50:20Z</time>
      </trkpt>
      <trkpt lat="44.10542" lon="6.34059">
        <ele>1233.0280762</ele>
        <time>2010-10-23T10:50:26Z</time>
      </trkpt>
      <trkpt lat="44.10541" lon="6.34061">
        <ele>1230.625</ele>
        <time>2010-10-23T10:50:28Z</time>
      </trkpt>
      <trkpt lat="44.1053" lon="6.34058">
        <ele>1223.4150391</ele>
        <time>2010-10-23T10:50:33Z</time>
      </trkpt>
      <trkpt lat="44.10522" lon="6.3405">
        <ele>1220.050293</ele>
        <time>2010-10-23T10:50:36Z</time>
      </trkpt>
      <trkpt lat="44.10523" lon="6.34042">
        <ele>1225.3374023</ele>
        <time>2010-10-23T10:50:41Z</time>
      </trkpt>
      <trkpt lat="44.1052" lon="6.34037">
        <ele>1222.4536133</ele>
        <time>2010-10-23T10:50:51Z</time>
      </trkpt>
      <trkpt lat="44.10517" lon="6.34033">
        <ele>1217.6469727</ele>
        <time>2010-10-23T10:50:57Z</time>
      </trkpt>
      <trkpt lat="44.10515" lon="6.34031">
        <ele>1218.6083984</ele>
        <time>2010-10-23T10:51:02Z</time>
      </trkpt>
      <trkpt lat="44.10519" lon="6.34029">
        <ele>1229.1828613</ele>
        <time>2010-10-23T10:51:19Z</time>
      </trkpt>
      <trkpt lat="44.10516" lon="6.34027">
        <ele>1228.7023926</ele>
        <time>2010-10-23T10:51:24Z</time>
      </trkpt>
      <trkpt lat="44.10517" lon="6.34027">
        <ele>1221.4921875</ele>
        <time>2010-10-23T10:51:33Z</time>
      </trkpt>
      <trkpt lat="44.10518" lon="6.34028">
        <ele>1213.3212891</ele>
        <time>2010-10-23T10:51:50Z</time>
      </trkpt>
      <trkpt lat="44.10516" lon="6.34028">
        <ele>1208.9951172</ele>
        <time>2010-10-23T10:52:01Z</time>
      </trkpt>
      <trkpt lat="44.10516" lon="6.34027">
        <ele>1212.8405762</ele>
        <time>2010-10-23T10:52:14Z</time>
      </trkpt>
      <trkpt lat="44.10517" lon="6.34026">
        <ele>1213.3212891</ele>
        <time>2010-10-23T10:52:24Z</time>
      </trkpt>
      <trkpt lat="44.10516" lon="6.34023">
        <ele>1221.0117188</ele>
        <time>2010-10-23T10:53:34Z</time>
      </trkpt>
      <trkpt lat="44.10516" lon="6.34022">
        <ele>1216.685791</ele>
        <time>2010-10-23T10:54:28Z</time>
      </trkpt>
      <trkpt lat="44.10524" lon="6.34007">
        <ele>1225.3374023</ele>
        <time>2010-10-23T10:54:35Z</time>
      </trkpt>
      <trkpt lat="44.1053" lon="6.34004">
        <ele>1224.3762207</ele>
        <time>2010-10-23T10:54:37Z</time>
      </trkpt>
      <trkpt lat="44.10532" lon="6.33977">
        <ele>1223.4150391</ele>
        <time>2010-10-23T10:54:42Z</time>
      </trkpt>
      <trkpt lat="44.10532" lon="6.33963">
        <ele>1221.4921875</ele>
        <time>2010-10-23T10:54:44Z</time>
      </trkpt>
      <trkpt lat="44.10525" lon="6.33937">
        <ele>1217.1665039</ele>
        <time>2010-10-23T10:54:48Z</time>
      </trkpt>
      <trkpt lat="44.10524" lon="6.33915">
        <ele>1212.8405762</ele>
        <time>2010-10-23T10:54:53Z</time>
      </trkpt>
      <trkpt lat="44.10525" lon="6.33913">
        <ele>1208.0339355</ele>
        <time>2010-10-23T10:54:55Z</time>
      </trkpt>
      <trkpt lat="44.10524" lon="6.33911">
        <ele>1206.111084</ele>
        <time>2010-10-23T10:54:58Z</time>
      </trkpt>
      <trkpt lat="44.10515" lon="6.3391">
        <ele>1204.6691895</ele>
        <time>2010-10-23T10:55:06Z</time>
      </trkpt>
      <trkpt lat="44.1051" lon="6.3391">
        <ele>1198.4206543</ele>
        <time>2010-10-23T10:55:12Z</time>
      </trkpt>
      <trkpt lat="44.10506" lon="6.33906">
        <ele>1200.8239746</ele>
        <time>2010-10-23T10:55:18Z</time>
      </trkpt>
      <trkpt lat="44.10508" lon="6.33902">
        <ele>1212.8405762</ele>
        <time>2010-10-23T10:55:24Z</time>
      </trkpt>
      <trkpt lat="44.10508" lon="6.33899">
        <ele>1218.6083984</ele>
        <time>2010-10-23T10:55:29Z</time>
      </trkpt>
      <trkpt lat="44.10512" lon="6.33897">
        <ele>1219.0891113</ele>
        <time>2010-10-23T10:55:35Z</time>
      </trkpt>
      <trkpt lat="44.10515" lon="6.33891">
        <ele>1221.0117188</ele>
        <time>2010-10-23T10:55:38Z</time>
      </trkpt>
      <trkpt lat="44.10513" lon="6.33877">
        <ele>1220.050293</ele>
        <time>2010-10-23T10:55:44Z</time>
      </trkpt>
      <trkpt lat="44.10516" lon="6.33869">
        <ele>1217.6469727</ele>
        <time>2010-10-23T10:55:47Z</time>
      </trkpt>
      <trkpt lat="44.10519" lon="6.33852">
        <ele>1220.5310059</ele>
        <time>2010-10-23T10:55:53Z</time>
      </trkpt>
      <trkpt lat="44.10519" lon="6.33851">
        <ele>1218.6083984</ele>
        <time>2010-10-23T10:55:54Z</time>
      </trkpt>
      <trkpt lat="44.10514" lon="6.33842">
        <ele>1212.8405762</ele>
        <time>2010-10-23T10:55:59Z</time>
      </trkpt>
      <trkpt lat="44.10503" lon="6.33827">
        <ele>1206.111084</ele>
        <time>2010-10-23T10:56:07Z</time>
      </trkpt>
      <trkpt lat="44.10493" lon="6.33817">
        <ele>1205.6306152</ele>
        <time>2010-10-23T10:56:13Z</time>
      </trkpt>
      <trkpt lat="44.10485" lon="6.33802">
        <ele>1210.9177246</ele>
        <time>2010-10-23T10:56:19Z</time>
      </trkpt>
      <trkpt lat="44.10475" lon="6.33786">
        <ele>1212.8405762</ele>
        <time>2010-10-23T10:56:26Z</time>
      </trkpt>
      <trkpt lat="44.10471" lon="6.33779">
        <ele>1215.2438965</ele>
        <time>2010-10-23T10:56:32Z</time>
      </trkpt>
      <trkpt lat="44.10467" lon="6.33773">
        <ele>1219.5698242</ele>
        <time>2010-10-23T10:56:40Z</time>
      </trkpt>
      <trkpt lat="44.10467" lon="6.33775">
        <ele>1225.8181152</ele>
        <time>2010-10-23T10:56:45Z</time>
      </trkpt>
      <trkpt lat="44.10469" lon="6.3378">
        <ele>1232.0668945</ele>
        <time>2010-10-23T10:56:52Z</time>
      </trkpt>
      <trkpt lat="44.10469" lon="6.33791">
        <ele>1228.7023926</ele>
        <time>2010-10-23T10:56:59Z</time>
      </trkpt>
      <trkpt lat="44.10465" lon="6.338">
        <ele>1230.1442871</ele>
        <time>2010-10-23T10:57:06Z</time>
      </trkpt>
      <trkpt lat="44.10466" lon="6.33802">
        <ele>1232.0668945</ele>
        <time>2010-10-23T10:57:07Z</time>
      </trkpt>
      <trkpt lat="44.10471" lon="6.3381">
        <ele>1237.8347168</ele>
        <time>2010-10-23T10:57:13Z</time>
      </trkpt>
      <trkpt lat="44.10472" lon="6.33812">
        <ele>1237.3540039</ele>
        <time>2010-10-23T10:57:14Z</time>
      </trkpt>
      <trkpt lat="44.10474" lon="6.33822">
        <ele>1231.1057129</ele>
        <time>2010-10-23T10:57:20Z</time>
      </trkpt>
      <trkpt lat="44.10474" lon="6.33829">
        <ele>1238.3154297</ele>
        <time>2010-10-23T10:57:26Z</time>
      </trkpt>
      <trkpt lat="44.10471" lon="6.33833">
        <ele>1234.9509277</ele>
        <time>2010-10-23T10:57:31Z</time>
      </trkpt>
      <trkpt lat="44.10468" lon="6.33832">
        <ele>1226.2988281</ele>
        <time>2010-10-23T10:57:38Z</time>
      </trkpt>
      <trkpt lat="44.10466" lon="6.33831">
        <ele>1227.2602539</ele>
        <time>2010-10-23T10:57:39Z</time>
      </trkpt>
      <trkpt lat="44.10457" lon="6.33823">
        <ele>1226.779541</ele>
        <time>2010-10-23T10:57:45Z</time>
      </trkpt>
      <trkpt lat="44.10447" lon="6.33818">
        <ele>1225.3374023</ele>
        <time>2010-10-23T10:57:51Z</time>
      </trkpt>
      <trkpt lat="44.10442" lon="6.33814">
        <ele>1223.8955078</ele>
        <time>2010-10-23T10:57:57Z</time>
      </trkpt>
      <trkpt lat="44.10435" lon="6.33806">
        <ele>1235.9121094</ele>
        <time>2010-10-23T10:58:04Z</time>
      </trkpt>
      <trkpt lat="44.10434" lon="6.33806">
        <ele>1237.3540039</ele>
        <time>2010-10-23T10:58:05Z</time>
      </trkpt>
      <trkpt lat="44.10431" lon="6.33803">
        <ele>1239.2766113</ele>
        <time>2010-10-23T10:58:12Z</time>
      </trkpt>
      <trkpt lat="44.10424" lon="6.33791">
        <ele>1245.0446777</ele>
        <time>2010-10-23T10:58:21Z</time>
      </trkpt>
      <trkpt lat="44.10419" lon="6.33789">
        <ele>1251.2932129</ele>
        <time>2010-10-23T10:58:32Z</time>
      </trkpt>
      <trkpt lat="44.10416" lon="6.33787">
        <ele>1247.447998</ele>
        <time>2010-10-23T10:58:35Z</time>
      </trkpt>
      <trkpt lat="44.10411" lon="6.33787">
        <ele>1245.5253906</ele>
        <time>2010-10-23T10:58:39Z</time>
      </trkpt>
      <trkpt lat="44.10405" lon="6.33791">
        <ele>1247.447998</ele>
        <time>2010-10-23T10:58:43Z</time>
      </trkpt>
      <trkpt lat="44.10395" lon="6.33785">
        <ele>1245.0446777</ele>
        <time>2010-10-23T10:58:49Z</time>
      </trkpt>
      <trkpt lat="44.10392" lon="6.33776">
        <ele>1244.5639648</ele>
        <time>2010-10-23T10:58:54Z</time>
      </trkpt>
      <trkpt lat="44.10387" lon="6.33765">
        <ele>1244.0834961</ele>
        <time>2010-10-23T10:59:00Z</time>
      </trkpt>
      <trkpt lat="44.10386" lon="6.33759">
        <ele>1251.2932129</ele>
        <time>2010-10-23T10:59:06Z</time>
      </trkpt>
      <trkpt lat="44.10383" lon="6.33757">
        <ele>1252.2543945</ele>
        <time>2010-10-23T10:59:11Z</time>
      </trkpt>
      <trkpt lat="44.10381" lon="6.33756">
        <ele>1249.3706055</ele>
        <time>2010-10-23T10:59:16Z</time>
      </trkpt>
      <trkpt lat="44.10377" lon="6.33751">
        <ele>1251.7739258</ele>
        <time>2010-10-23T10:59:23Z</time>
      </trkpt>
      <trkpt lat="44.10376" lon="6.33747">
        <ele>1251.2932129</ele>
        <time>2010-10-23T10:59:27Z</time>
      </trkpt>
      <trkpt lat="44.10376" lon="6.3374">
        <ele>1258.9836426</ele>
        <time>2010-10-23T10:59:34Z</time>
      </trkpt>
      <trkpt lat="44.10369" lon="6.33734">
        <ele>1261.8679199</ele>
        <time>2010-10-23T10:59:40Z</time>
      </trkpt>
      <trkpt lat="44.10363" lon="6.33732">
        <ele>1260.9064941</ele>
        <time>2010-10-23T10:59:47Z</time>
      </trkpt>
      <trkpt lat="44.10362" lon="6.33732">
        <ele>1259.9448242</ele>
        <time>2010-10-23T10:59:49Z</time>
      </trkpt>
      <trkpt lat="44.10355" lon="6.33731">
        <ele>1257.541748</ele>
        <time>2010-10-23T10:59:56Z</time>
      </trkpt>
      <trkpt lat="44.1035" lon="6.33728">
        <ele>1257.0610352</ele>
        <time>2010-10-23T11:00:01Z</time>
      </trkpt>
      <trkpt lat="44.10348" lon="6.33716">
        <ele>1262.3483887</ele>
        <time>2010-10-23T11:00:07Z</time>
      </trkpt>
      <trkpt lat="44.10348" lon="6.33714">
        <ele>1263.3098145</ele>
        <time>2010-10-23T11:00:08Z</time>
      </trkpt>
      <trkpt lat="44.10346" lon="6.33707">
        <ele>1264.2709961</ele>
        <time>2010-10-23T11:00:14Z</time>
      </trkpt>
      <trkpt lat="44.10339" lon="6.33704">
        <ele>1263.7902832</ele>
        <time>2010-10-23T11:00:21Z</time>
      </trkpt>
      <trkpt lat="44.10338" lon="6.33703">
        <ele>1264.2709961</ele>
        <time>2010-10-23T11:00:22Z</time>
      </trkpt>
      <trkpt lat="44.10333" lon="6.33697">
        <ele>1260.4257812</ele>
        <time>2010-10-23T11:00:27Z</time>
      </trkpt>
      <trkpt lat="44.10332" lon="6.3369">
        <ele>1257.541748</ele>
        <time>2010-10-23T11:00:32Z</time>
      </trkpt>
      <trkpt lat="44.10332" lon="6.33689">
        <ele>1256.5803223</ele>
        <time>2010-10-23T11:00:33Z</time>
      </trkpt>
      <trkpt lat="44.10325" lon="6.33674">
        <ele>1262.3483887</ele>
        <time>2010-10-23T11:00:40Z</time>
      </trkpt>
      <trkpt lat="44.1032" lon="6.33667">
        <ele>1261.8679199</ele>
        <time>2010-10-23T11:00:43Z</time>
      </trkpt>
      <trkpt lat="44.10318" lon="6.33665">
        <ele>1258.9836426</ele>
        <time>2010-10-23T11:00:49Z</time>
      </trkpt>
      <trkpt lat="44.10316" lon="6.33661">
        <ele>1256.5803223</ele>
        <time>2010-10-23T11:00:56Z</time>
      </trkpt>
      <trkpt lat="44.10315" lon="6.33662">
        <ele>1257.541748</ele>
        <time>2010-10-23T11:01:00Z</time>
      </trkpt>
      <trkpt lat="44.10309" lon="6.33656">
        <ele>1254.1772461</ele>
        <time>2010-10-23T11:01:06Z</time>
      </trkpt>
      <trkpt lat="44.10306" lon="6.33652">
        <ele>1254.6577148</ele>
        <time>2010-10-23T11:01:08Z</time>
      </trkpt>
      <trkpt lat="44.10303" lon="6.33638">
        <ele>1259.4643555</ele>
        <time>2010-10-23T11:01:14Z</time>
      </trkpt>
      <trkpt lat="44.103" lon="6.33629">
        <ele>1265.2324219</ele>
        <time>2010-10-23T11:01:20Z</time>
      </trkpt>
      <trkpt lat="44.10299" lon="6.3362">
        <ele>1268.5969238</ele>
        <time>2010-10-23T11:01:25Z</time>
      </trkpt>
      <trkpt lat="44.103" lon="6.33619">
        <ele>1269.0776367</ele>
        <time>2010-10-23T11:01:26Z</time>
      </trkpt>
      <trkpt lat="44.10311" lon="6.33613">
        <ele>1274.3647461</ele>
        <time>2010-10-23T11:01:33Z</time>
      </trkpt>
      <trkpt lat="44.1031" lon="6.33613">
        <ele>1276.7683105</ele>
        <time>2010-10-23T11:01:38Z</time>
      </trkpt>
      <trkpt lat="44.10311" lon="6.33611">
        <ele>1271.0002441</ele>
        <time>2010-10-23T11:01:43Z</time>
      </trkpt>
      <trkpt lat="44.10309" lon="6.3361">
        <ele>1271.4807129</ele>
        <time>2010-10-23T11:01:45Z</time>
      </trkpt>
      <trkpt lat="44.10302" lon="6.33603">
        <ele>1270.5195312</ele>
        <time>2010-10-23T11:01:51Z</time>
      </trkpt>
      <trkpt lat="44.10301" lon="6.33593">
        <ele>1273.8840332</ele>
        <time>2010-10-23T11:01:58Z</time>
      </trkpt>
      <trkpt lat="44.10302" lon="6.33594">
        <ele>1273.8840332</ele>
        <time>2010-10-23T11:02:01Z</time>
      </trkpt>
      <trkpt lat="44.10309" lon="6.33597">
        <ele>1274.845459</ele>
        <time>2010-10-23T11:02:08Z</time>
      </trkpt>
      <trkpt lat="44.10311" lon="6.33593">
        <ele>1272.9228516</ele>
        <time>2010-10-23T11:02:14Z</time>
      </trkpt>
      <trkpt lat="44.1031" lon="6.33591">
        <ele>1272.9228516</ele>
        <time>2010-10-23T11:02:17Z</time>
      </trkpt>
      <trkpt lat="44.10306" lon="6.33585">
        <ele>1273.8840332</ele>
        <time>2010-10-23T11:02:25Z</time>
      </trkpt>
      <trkpt lat="44.10307" lon="6.33585">
        <ele>1273.8840332</ele>
        <time>2010-10-23T11:02:26Z</time>
      </trkpt>
      <trkpt lat="44.10312" lon="6.3358">
        <ele>1273.8840332</ele>
        <time>2010-10-23T11:02:35Z</time>
      </trkpt>
      <trkpt lat="44.10311" lon="6.33579">
        <ele>1271.4807129</ele>
        <time>2010-10-23T11:02:42Z</time>
      </trkpt>
      <trkpt lat="44.10317" lon="6.3357">
        <ele>1270.5195312</ele>
        <time>2010-10-23T11:02:48Z</time>
      </trkpt>
      <trkpt lat="44.10321" lon="6.33567">
        <ele>1272.4421387</ele>
        <time>2010-10-23T11:02:51Z</time>
      </trkpt>
      <trkpt lat="44.10321" lon="6.33563">
        <ele>1273.8840332</ele>
        <time>2010-10-23T11:02:55Z</time>
      </trkpt>
      <trkpt lat="44.10321" lon="6.33563">
        <ele>1275.3259277</ele>
        <time>2010-10-23T11:03:02Z</time>
      </trkpt>
      <trkpt lat="44.10317" lon="6.3356">
        <ele>1274.3647461</ele>
        <time>2010-10-23T11:03:09Z</time>
      </trkpt>
      <trkpt lat="44.1031" lon="6.33556">
        <ele>1277.2490234</ele>
        <time>2010-10-23T11:03:15Z</time>
      </trkpt>
      <trkpt lat="44.10311" lon="6.33551">
        <ele>1276.2875977</ele>
        <time>2010-10-23T11:03:20Z</time>
      </trkpt>
      <trkpt lat="44.10317" lon="6.33545">
        <ele>1277.2490234</ele>
        <time>2010-10-23T11:03:28Z</time>
      </trkpt>
      <trkpt lat="44.10321" lon="6.33541">
        <ele>1277.7294922</ele>
        <time>2010-10-23T11:03:32Z</time>
      </trkpt>
      <trkpt lat="44.10322" lon="6.33538">
        <ele>1279.1713867</ele>
        <time>2010-10-23T11:03:38Z</time>
      </trkpt>
      <trkpt lat="44.10318" lon="6.3354">
        <ele>1281.574707</ele>
        <time>2010-10-23T11:03:43Z</time>
      </trkpt>
      <trkpt lat="44.10312" lon="6.33541">
        <ele>1283.0166016</ele>
        <time>2010-10-23T11:03:50Z</time>
      </trkpt>
      <trkpt lat="44.10311" lon="6.33541">
        <ele>1283.4973145</ele>
        <time>2010-10-23T11:03:51Z</time>
      </trkpt>
      <trkpt lat="44.10306" lon="6.33536">
        <ele>1290.7070312</ele>
        <time>2010-10-23T11:03:58Z</time>
      </trkpt>
      <trkpt lat="44.103" lon="6.33528">
        <ele>1295.513916</ele>
        <time>2010-10-23T11:04:04Z</time>
      </trkpt>
      <trkpt lat="44.10293" lon="6.33517">
        <ele>1298.3977051</ele>
        <time>2010-10-23T11:04:11Z</time>
      </trkpt>
      <trkpt lat="44.10286" lon="6.33508">
        <ele>1295.9946289</ele>
        <time>2010-10-23T11:04:18Z</time>
      </trkpt>
      <trkpt lat="44.10297" lon="6.3351">
        <ele>1293.1105957</ele>
        <time>2010-10-23T11:05:29Z</time>
      </trkpt>
      <trkpt lat="44.10292" lon="6.33508">
        <ele>1295.9946289</ele>
        <time>2010-10-23T11:07:36Z</time>
      </trkpt>
      <trkpt lat="44.10291" lon="6.33507">
        <ele>1295.513916</ele>
        <time>2010-10-23T11:07:53Z</time>
      </trkpt>
      <trkpt lat="44.10293" lon="6.33486">
        <ele>1294.5524902</ele>
        <time>2010-10-23T11:08:00Z</time>
      </trkpt>
      <trkpt lat="44.10299" lon="6.33452">
        <ele>1295.0332031</ele>
        <time>2010-10-23T11:08:05Z</time>
      </trkpt>
      <trkpt lat="44.10314" lon="6.33432">
        <ele>1291.1877441</ele>
        <time>2010-10-23T11:08:10Z</time>
      </trkpt>
      <trkpt lat="44.10319" lon="6.33431">
        <ele>1289.7458496</ele>
        <time>2010-10-23T11:08:11Z</time>
      </trkpt>
      <trkpt lat="44.10331" lon="6.33428">
        <ele>1284.9394531</ele>
        <time>2010-10-23T11:08:13Z</time>
      </trkpt>
      <trkpt lat="44.10343" lon="6.33423">
        <ele>1282.0554199</ele>
        <time>2010-10-23T11:08:15Z</time>
      </trkpt>
      <trkpt lat="44.10344" lon="6.33399">
        <ele>1277.7294922</ele>
        <time>2010-10-23T11:08:19Z</time>
      </trkpt>
      <trkpt lat="44.10333" lon="6.33374">
        <ele>1270.5195312</ele>
        <time>2010-10-23T11:08:23Z</time>
      </trkpt>
      <trkpt lat="44.1032" lon="6.33361">
        <ele>1267.1550293</ele>
        <time>2010-10-23T11:08:26Z</time>
      </trkpt>
      <trkpt lat="44.10312" lon="6.33355">
        <ele>1265.7131348</ele>
        <time>2010-10-23T11:08:28Z</time>
      </trkpt>
      <trkpt lat="44.10306" lon="6.33336">
        <ele>1260.4257812</ele>
        <time>2010-10-23T11:08:32Z</time>
      </trkpt>
      <trkpt lat="44.1032" lon="6.33324">
        <ele>1259.4643555</ele>
        <time>2010-10-23T11:08:35Z</time>
      </trkpt>
      <trkpt lat="44.10326" lon="6.33322">
        <ele>1258.9836426</ele>
        <time>2010-10-23T11:08:36Z</time>
      </trkpt>
      <trkpt lat="44.10357" lon="6.33314">
        <ele>1257.0610352</ele>
        <time>2010-10-23T11:08:43Z</time>
      </trkpt>
      <trkpt lat="44.10375" lon="6.33307">
        <ele>1255.6191406</ele>
        <time>2010-10-23T11:08:49Z</time>
      </trkpt>
      <trkpt lat="44.10391" lon="6.33305">
        <ele>1255.1384277</ele>
        <time>2010-10-23T11:08:53Z</time>
      </trkpt>
      <trkpt lat="44.104" lon="6.33303">
        <ele>1255.1384277</ele>
        <time>2010-10-23T11:08:55Z</time>
      </trkpt>
      <trkpt lat="44.10415" lon="6.3329">
        <ele>1252.7351074</ele>
        <time>2010-10-23T11:08:59Z</time>
      </trkpt>
      <trkpt lat="44.10436" lon="6.3328">
        <ele>1248.8898926</ele>
        <time>2010-10-23T11:09:04Z</time>
      </trkpt>
      <trkpt lat="44.10452" lon="6.33281">
        <ele>1249.3706055</ele>
        <time>2010-10-23T11:09:07Z</time>
      </trkpt>
      <trkpt lat="44.10474" lon="6.33268">
        <ele>1248.4091797</ele>
        <time>2010-10-23T11:09:12Z</time>
      </trkpt>
      <trkpt lat="44.10478" lon="6.33263">
        <ele>1248.4091797</ele>
        <time>2010-10-23T11:09:13Z</time>
      </trkpt>
      <trkpt lat="44.10488" lon="6.33245">
        <ele>1247.9287109</ele>
        <time>2010-10-23T11:09:16Z</time>
      </trkpt>
      <trkpt lat="44.10495" lon="6.33208">
        <ele>1246.9672852</ele>
        <time>2010-10-23T11:09:21Z</time>
      </trkpt>
      <trkpt lat="44.10495" lon="6.33199">
        <ele>1246.9672852</ele>
        <time>2010-10-23T11:09:22Z</time>
      </trkpt>
      <trkpt lat="44.10499" lon="6.33134">
        <ele>1245.5253906</ele>
        <time>2010-10-23T11:09:29Z</time>
      </trkpt>
      <trkpt lat="44.10505" lon="6.33092">
        <ele>1243.6025391</ele>
        <time>2010-10-23T11:09:34Z</time>
      </trkpt>
      <trkpt lat="44.10507" lon="6.33054">
        <ele>1240.2380371</ele>
        <time>2010-10-23T11:09:39Z</time>
      </trkpt>
      <trkpt lat="44.10508" lon="6.3304">
        <ele>1239.7573242</ele>
        <time>2010-10-23T11:09:41Z</time>
      </trkpt>
      <trkpt lat="44.10515" lon="6.33006">
        <ele>1233.5087891</ele>
        <time>2010-10-23T11:09:46Z</time>
      </trkpt>
      <trkpt lat="44.10518" lon="6.32993">
        <ele>1230.1442871</ele>
        <time>2010-10-23T11:09:48Z</time>
      </trkpt>
      <trkpt lat="44.10525" lon="6.32974">
        <ele>1227.7407227</ele>
        <time>2010-10-23T11:09:51Z</time>
      </trkpt>
      <trkpt lat="44.10539" lon="6.32952">
        <ele>1222.4536133</ele>
        <time>2010-10-23T11:09:55Z</time>
      </trkpt>
      <trkpt lat="44.10572" lon="6.3292">
        <ele>1222.4536133</ele>
        <time>2010-10-23T11:10:01Z</time>
      </trkpt>
      <trkpt lat="44.10614" lon="6.32884">
        <ele>1220.050293</ele>
        <time>2010-10-23T11:10:07Z</time>
      </trkpt>
      <trkpt lat="44.10637" lon="6.32859">
        <ele>1219.5698242</ele>
        <time>2010-10-23T11:10:11Z</time>
      </trkpt>
      <trkpt lat="44.10647" lon="6.32823">
        <ele>1219.5698242</ele>
        <time>2010-10-23T11:10:15Z</time>
      </trkpt>
      <trkpt lat="44.10636" lon="6.32794">
        <ele>1218.1276855</ele>
        <time>2010-10-23T11:10:18Z</time>
      </trkpt>
      <trkpt lat="44.10616" lon="6.32774">
        <ele>1217.6469727</ele>
        <time>2010-10-23T11:10:21Z</time>
      </trkpt>
      <trkpt lat="44.10596" lon="6.32774">
        <ele>1215.7246094</ele>
        <time>2010-10-23T11:10:24Z</time>
      </trkpt>
      <trkpt lat="44.10587" lon="6.32787">
        <ele>1213.8017578</ele>
        <time>2010-10-23T11:10:26Z</time>
      </trkpt>
      <trkpt lat="44.10551" lon="6.32812">
        <ele>1209.4758301</ele>
        <time>2010-10-23T11:10:32Z</time>
      </trkpt>
      <trkpt lat="44.10545" lon="6.32814">
        <ele>1208.9951172</ele>
        <time>2010-10-23T11:10:33Z</time>
      </trkpt>
      <trkpt lat="44.10532" lon="6.32798">
        <ele>1205.6306152</ele>
        <time>2010-10-23T11:10:37Z</time>
      </trkpt>
      <trkpt lat="44.10541" lon="6.32782">
        <ele>1205.1499023</ele>
        <time>2010-10-23T11:10:40Z</time>
      </trkpt>
      <trkpt lat="44.10557" lon="6.32762">
        <ele>1202.746582</ele>
        <time>2010-10-23T11:10:44Z</time>
      </trkpt>
      <trkpt lat="44.10567" lon="6.32744">
        <ele>1201.7854004</ele>
        <time>2010-10-23T11:10:47Z</time>
      </trkpt>
      <trkpt lat="44.10575" lon="6.32732">
        <ele>1202.746582</ele>
        <time>2010-10-23T11:10:51Z</time>
      </trkpt>
      <trkpt lat="44.10572" lon="6.32733">
        <ele>1198.9013672</ele>
        <time>2010-10-23T11:10:55Z</time>
      </trkpt>
      <trkpt lat="44.10572" lon="6.32733">
        <ele>1198.4206543</ele>
        <time>2010-10-23T11:10:57Z</time>
      </trkpt>
      <trkpt lat="44.1057" lon="6.3272">
        <ele>1199.3820801</ele>
        <time>2010-10-23T11:11:03Z</time>
      </trkpt>
      <trkpt lat="44.10572" lon="6.32703">
        <ele>1202.2658691</ele>
        <time>2010-10-23T11:11:08Z</time>
      </trkpt>
      <trkpt lat="44.10574" lon="6.32691">
        <ele>1201.7854004</ele>
        <time>2010-10-23T11:11:12Z</time>
      </trkpt>
      <trkpt lat="44.10563" lon="6.32668">
        <ele>1196.0175781</ele>
        <time>2010-10-23T11:11:16Z</time>
      </trkpt>
      <trkpt lat="44.10554" lon="6.32652">
        <ele>1192.652832</ele>
        <time>2010-10-23T11:11:18Z</time>
      </trkpt>
      <trkpt lat="44.10542" lon="6.32624">
        <ele>1189.7687988</ele>
        <time>2010-10-23T11:11:22Z</time>
      </trkpt>
      <trkpt lat="44.10544" lon="6.326">
        <ele>1192.1721191</ele>
        <time>2010-10-23T11:11:26Z</time>
      </trkpt>
      <trkpt lat="44.10541" lon="6.32584">
        <ele>1188.3269043</ele>
        <time>2010-10-23T11:11:29Z</time>
      </trkpt>
      <trkpt lat="44.10541" lon="6.32572">
        <ele>1187.3654785</ele>
        <time>2010-10-23T11:11:31Z</time>
      </trkpt>
      <trkpt lat="44.10536" lon="6.32546">
        <ele>1181.5976562</ele>
        <time>2010-10-23T11:11:36Z</time>
      </trkpt>
      <trkpt lat="44.10534" lon="6.32531">
        <ele>1179.1940918</ele>
        <time>2010-10-23T11:11:41Z</time>
      </trkpt>
      <trkpt lat="44.10534" lon="6.32517">
        <ele>1178.713623</ele>
        <time>2010-10-23T11:11:46Z</time>
      </trkpt>
      <trkpt lat="44.10536" lon="6.32512">
        <ele>1178.713623</ele>
        <time>2010-10-23T11:11:47Z</time>
      </trkpt>
      <trkpt lat="44.10537" lon="6.32477">
        <ele>1177.2717285</ele>
        <time>2010-10-23T11:11:53Z</time>
      </trkpt>
      <trkpt lat="44.10534" lon="6.32455">
        <ele>1174.3876953</ele>
        <time>2010-10-23T11:11:58Z</time>
      </trkpt>
      <trkpt lat="44.10531" lon="6.32452">
        <ele>1171.5036621</ele>
        <time>2010-10-23T11:12:03Z</time>
      </trkpt>
      <trkpt lat="44.10531" lon="6.32451">
        <ele>1171.984375</ele>
        <time>2010-10-23T11:12:04Z</time>
      </trkpt>
      <trkpt lat="44.10525" lon="6.3245">
        <ele>1168.1391602</ele>
        <time>2010-10-23T11:12:09Z</time>
      </trkpt>
      <trkpt lat="44.10522" lon="6.32448">
        <ele>1163.8129883</ele>
        <time>2010-10-23T11:12:21Z</time>
      </trkpt>
      <trkpt lat="44.10521" lon="6.32447">
        <ele>1163.8129883</ele>
        <time>2010-10-23T11:12:30Z</time>
      </trkpt>
      <trkpt lat="44.10521" lon="6.32446">
        <ele>1170.5424805</ele>
        <time>2010-10-23T11:12:44Z</time>
      </trkpt>
      <trkpt lat="44.10525" lon="6.32442">
        <ele>1188.8076172</ele>
        <time>2010-10-23T11:12:52Z</time>
      </trkpt>
      <trkpt lat="44.1052" lon="6.32434">
        <ele>1184.4816895</ele>
        <time>2010-10-23T11:12:57Z</time>
      </trkpt>
      <trkpt lat="44.10515" lon="6.32439">
        <ele>1185.4428711</ele>
        <time>2010-10-23T11:13:01Z</time>
      </trkpt>
      <trkpt lat="44.10511" lon="6.32449">
        <ele>1179.6748047</ele>
        <time>2010-10-23T11:13:06Z</time>
      </trkpt>
      <trkpt lat="44.10509" lon="6.32452">
        <ele>1178.2329102</ele>
        <time>2010-10-23T11:13:12Z</time>
      </trkpt>
      <trkpt lat="44.10509" lon="6.32457">
        <ele>1173.4265137</ele>
        <time>2010-10-23T11:15:04Z</time>
      </trkpt>
      <trkpt lat="44.10507" lon="6.32457">
        <ele>1174.8684082</ele>
        <time>2010-10-23T11:15:10Z</time>
      </trkpt>
      <trkpt lat="44.10512" lon="6.32451">
        <ele>1177.2717285</ele>
        <time>2010-10-23T11:15:16Z</time>
      </trkpt>
      <trkpt lat="44.1051" lon="6.32444">
        <ele>1175.8295898</ele>
        <time>2010-10-23T11:15:22Z</time>
      </trkpt>
      <trkpt lat="44.10511" lon="6.32433">
        <ele>1174.3876953</ele>
        <time>2010-10-23T11:15:27Z</time>
      </trkpt>
      <trkpt lat="44.1051" lon="6.32423">
        <ele>1175.348877</ele>
        <time>2010-10-23T11:15:32Z</time>
      </trkpt>
      <trkpt lat="44.10508" lon="6.32421">
        <ele>1164.7746582</ele>
        <time>2010-10-23T11:15:37Z</time>
      </trkpt>
      <trkpt lat="44.10508" lon="6.32416">
        <ele>1163.8129883</ele>
        <time>2010-10-23T11:15:41Z</time>
      </trkpt>
      <trkpt lat="44.1051" lon="6.32407">
        <ele>1164.2939453</ele>
        <time>2010-10-23T11:15:45Z</time>
      </trkpt>
      <trkpt lat="44.1051" lon="6.324">
        <ele>1168.619873</ele>
        <time>2010-10-23T11:15:49Z</time>
      </trkpt>
      <trkpt lat="44.10502" lon="6.32398">
        <ele>1166.2165527</ele>
        <time>2010-10-23T11:15:54Z</time>
      </trkpt>
      <trkpt lat="44.10494" lon="6.32396">
        <ele>1159.9677734</ele>
        <time>2010-10-23T11:16:00Z</time>
      </trkpt>
      <trkpt lat="44.10489" lon="6.32396">
        <ele>1156.1225586</ele>
        <time>2010-10-23T11:16:04Z</time>
      </trkpt>
      <trkpt lat="44.1048" lon="6.32391">
        <ele>1151.796875</ele>
        <time>2010-10-23T11:16:10Z</time>
      </trkpt>
      <trkpt lat="44.1048" lon="6.3239">
        <ele>1151.3161621</ele>
        <time>2010-10-23T11:16:11Z</time>
      </trkpt>
      <trkpt lat="44.10479" lon="6.32387">
        <ele>1152.7580566</ele>
        <time>2010-10-23T11:16:18Z</time>
      </trkpt>
      <trkpt lat="44.10479" lon="6.32386">
        <ele>1152.7580566</ele>
        <time>2010-10-23T11:16:19Z</time>
      </trkpt>
      <trkpt lat="44.10477" lon="6.32378">
        <ele>1150.8354492</ele>
        <time>2010-10-23T11:16:23Z</time>
      </trkpt>
      <trkpt lat="44.10472" lon="6.32365">
        <ele>1150.8354492</ele>
        <time>2010-10-23T11:16:28Z</time>
      </trkpt>
      <trkpt lat="44.10467" lon="6.32352">
        <ele>1147.951416</ele>
        <time>2010-10-23T11:16:34Z</time>
      </trkpt>
      <trkpt lat="44.10465" lon="6.32348">
        <ele>1147.951416</ele>
        <time>2010-10-23T11:16:37Z</time>
      </trkpt>
      <trkpt lat="44.10462" lon="6.32342">
        <ele>1143.6254883</ele>
        <time>2010-10-23T11:16:46Z</time>
      </trkpt>
      <trkpt lat="44.10459" lon="6.3233">
        <ele>1146.0288086</ele>
        <time>2010-10-23T11:16:50Z</time>
      </trkpt>
      <trkpt lat="44.10454" lon="6.32319">
        <ele>1144.5866699</ele>
        <time>2010-10-23T11:16:54Z</time>
      </trkpt>
      <trkpt lat="44.10453" lon="6.32318">
        <ele>1144.1062012</ele>
        <time>2010-10-23T11:16:58Z</time>
      </trkpt>
      <trkpt lat="44.10451" lon="6.32317">
        <ele>1143.6254883</ele>
        <time>2010-10-23T11:17:04Z</time>
      </trkpt>
      <trkpt lat="44.10448" lon="6.32309">
        <ele>1142.1835938</ele>
        <time>2010-10-23T11:17:09Z</time>
      </trkpt>
      <trkpt lat="44.10447" lon="6.32303">
        <ele>1143.1447754</ele>
        <time>2010-10-23T11:17:17Z</time>
      </trkpt>
      <trkpt lat="44.10447" lon="6.32296">
        <ele>1146.5095215</ele>
        <time>2010-10-23T11:17:23Z</time>
      </trkpt>
      <trkpt lat="44.1044" lon="6.32288">
        <ele>1145.5480957</ele>
        <time>2010-10-23T11:17:29Z</time>
      </trkpt>
      <trkpt lat="44.10435" lon="6.32278">
        <ele>1143.1447754</ele>
        <time>2010-10-23T11:17:33Z</time>
      </trkpt>
      <trkpt lat="44.10432" lon="6.32276">
        <ele>1140.7414551</ele>
        <time>2010-10-23T11:17:39Z</time>
      </trkpt>
      <trkpt lat="44.10425" lon="6.32271">
        <ele>1138.3383789</ele>
        <time>2010-10-23T11:17:43Z</time>
      </trkpt>
      <trkpt lat="44.10423" lon="6.32268">
        <ele>1137.3769531</ele>
        <time>2010-10-23T11:17:47Z</time>
      </trkpt>
      <trkpt lat="44.10422" lon="6.32263">
        <ele>1139.7802734</ele>
        <time>2010-10-23T11:17:54Z</time>
      </trkpt>
      <trkpt lat="44.1041" lon="6.32256">
        <ele>1133.5317383</ele>
        <time>2010-10-23T11:17:59Z</time>
      </trkpt>
      <trkpt lat="44.10407" lon="6.32254">
        <ele>1132.5705566</ele>
        <time>2010-10-23T11:18:00Z</time>
      </trkpt>
      <trkpt lat="44.10396" lon="6.32261">
        <ele>1132.0898438</ele>
        <time>2010-10-23T11:18:04Z</time>
      </trkpt>
      <trkpt lat="44.10384" lon="6.32264">
        <ele>1131.128418</ele>
        <time>2010-10-23T11:18:07Z</time>
      </trkpt>
      <trkpt lat="44.10363" lon="6.32258">
        <ele>1127.2832031</ele>
        <time>2010-10-23T11:18:12Z</time>
      </trkpt>
      <trkpt lat="44.10358" lon="6.32254">
        <ele>1123.4379883</ele>
        <time>2010-10-23T11:18:15Z</time>
      </trkpt>
      <trkpt lat="44.1036" lon="6.32256">
        <ele>1118.6313477</ele>
        <time>2010-10-23T11:18:26Z</time>
      </trkpt>
      <trkpt lat="44.1036" lon="6.32254">
        <ele>1118.1506348</ele>
        <time>2010-10-23T11:18:30Z</time>
      </trkpt>
      <trkpt lat="44.10357" lon="6.32242">
        <ele>1118.1506348</ele>
        <time>2010-10-23T11:18:34Z</time>
      </trkpt>
      <trkpt lat="44.10342" lon="6.3223">
        <ele>1117.1894531</ele>
        <time>2010-10-23T11:18:38Z</time>
      </trkpt>
      <trkpt lat="44.10338" lon="6.3223">
        <ele>1117.6699219</ele>
        <time>2010-10-23T11:18:40Z</time>
      </trkpt>
      <trkpt lat="44.10331" lon="6.32241">
        <ele>1118.1506348</ele>
        <time>2010-10-23T11:18:45Z</time>
      </trkpt>
      <trkpt lat="44.10329" lon="6.32245">
        <ele>1118.1506348</ele>
        <time>2010-10-23T11:18:47Z</time>
      </trkpt>
      <trkpt lat="44.1032" lon="6.32244">
        <ele>1118.1506348</ele>
        <time>2010-10-23T11:18:51Z</time>
      </trkpt>
      <trkpt lat="44.10316" lon="6.32244">
        <ele>1117.1894531</ele>
        <time>2010-10-23T11:18:53Z</time>
      </trkpt>
      <trkpt lat="44.10309" lon="6.32245">
        <ele>1115.7473145</ele>
        <time>2010-10-23T11:18:55Z</time>
      </trkpt>
      <trkpt lat="44.10302" lon="6.32243">
        <ele>1115.7473145</ele>
        <time>2010-10-23T11:18:57Z</time>
      </trkpt>
      <trkpt lat="44.1029" lon="6.32245">
        <ele>1114.7858887</ele>
        <time>2010-10-23T11:19:01Z</time>
      </trkpt>
      <trkpt lat="44.10289" lon="6.32245">
        <ele>1114.7858887</ele>
        <time>2010-10-23T11:19:04Z</time>
      </trkpt>
      <trkpt lat="44.10293" lon="6.32248">
        <ele>1111.4213867</ele>
        <time>2010-10-23T11:19:27Z</time>
      </trkpt>
      <trkpt lat="44.1029" lon="6.32239">
        <ele>1111.4213867</ele>
        <time>2010-10-23T11:19:30Z</time>
      </trkpt>
      <trkpt lat="44.10289" lon="6.32227">
        <ele>1110.4599609</ele>
        <time>2010-10-23T11:19:34Z</time>
      </trkpt>
      <trkpt lat="44.1028" lon="6.32222">
        <ele>1108.0568848</ele>
        <time>2010-10-23T11:19:38Z</time>
      </trkpt>
      <trkpt lat="44.10272" lon="6.32222">
        <ele>1105.6535645</ele>
        <time>2010-10-23T11:19:40Z</time>
      </trkpt>
      <trkpt lat="44.10262" lon="6.32222">
        <ele>1106.1340332</ele>
        <time>2010-10-23T11:19:44Z</time>
      </trkpt>
      <trkpt lat="44.10262" lon="6.32222">
        <ele>1102.7695312</ele>
        <time>2010-10-23T11:19:51Z</time>
      </trkpt>
      <trkpt lat="44.10262" lon="6.32219">
        <ele>1099.885498</ele>
        <time>2010-10-23T11:20:07Z</time>
      </trkpt>
      <trkpt lat="44.10255" lon="6.32204">
        <ele>1097.4821777</ele>
        <time>2010-10-23T11:20:12Z</time>
      </trkpt>
      <trkpt lat="44.10253" lon="6.32201">
        <ele>1097.4821777</ele>
        <time>2010-10-23T11:20:13Z</time>
      </trkpt>
      <trkpt lat="44.10249" lon="6.32182">
        <ele>1095.5595703</ele>
        <time>2010-10-23T11:20:17Z</time>
      </trkpt>
      <trkpt lat="44.10243" lon="6.32161">
        <ele>1094.5981445</ele>
        <time>2010-10-23T11:20:22Z</time>
      </trkpt>
      <trkpt lat="44.10238" lon="6.32155">
        <ele>1095.0788574</ele>
        <time>2010-10-23T11:20:24Z</time>
      </trkpt>
      <trkpt lat="44.10225" lon="6.32155">
        <ele>1097.9628906</ele>
        <time>2010-10-23T11:20:29Z</time>
      </trkpt>
      <trkpt lat="44.10219" lon="6.32148">
        <ele>1101.3276367</ele>
        <time>2010-10-23T11:20:33Z</time>
      </trkpt>
      <trkpt lat="44.10216" lon="6.32143">
        <ele>1103.730957</ele>
        <time>2010-10-23T11:20:37Z</time>
      </trkpt>
      <trkpt lat="44.10219" lon="6.32144">
        <ele>1104.6921387</ele>
        <time>2010-10-23T11:20:50Z</time>
      </trkpt>
      <trkpt lat="44.10217" lon="6.32146">
        <ele>1100.8469238</ele>
        <time>2010-10-23T11:23:55Z</time>
      </trkpt>
      <trkpt lat="44.10218" lon="6.32129">
        <ele>1099.4047852</ele>
        <time>2010-10-23T11:23:59Z</time>
      </trkpt>
      <trkpt lat="44.10209" lon="6.3211">
        <ele>1097.9628906</ele>
        <time>2010-10-23T11:24:02Z</time>
      </trkpt>
      <trkpt lat="44.10193" lon="6.32091">
        <ele>1096.5209961</ele>
        <time>2010-10-23T11:24:05Z</time>
      </trkpt>
      <trkpt lat="44.10191" lon="6.32089">
        <ele>1096.0402832</ele>
        <time>2010-10-23T11:24:06Z</time>
      </trkpt>
      <trkpt lat="44.10188" lon="6.32089">
        <ele>1096.5209961</ele>
        <time>2010-10-23T11:24:13Z</time>
      </trkpt>
      <trkpt lat="44.10189" lon="6.32087">
        <ele>1095.0788574</ele>
        <time>2010-10-23T11:24:21Z</time>
      </trkpt>
      <trkpt lat="44.1019" lon="6.32086">
        <ele>1095.5595703</ele>
        <time>2010-10-23T11:24:29Z</time>
      </trkpt>
      <trkpt lat="44.10191" lon="6.32085">
        <ele>1096.5209961</ele>
        <time>2010-10-23T11:24:30Z</time>
      </trkpt>
      <trkpt lat="44.10192" lon="6.32072">
        <ele>1097.4821777</ele>
        <time>2010-10-23T11:24:35Z</time>
      </trkpt>
      <trkpt lat="44.10183" lon="6.32068">
        <ele>1095.5595703</ele>
        <time>2010-10-23T11:24:40Z</time>
      </trkpt>
      <trkpt lat="44.10177" lon="6.32067">
        <ele>1094.5981445</ele>
        <time>2010-10-23T11:24:42Z</time>
      </trkpt>
      <trkpt lat="44.10161" lon="6.32065">
        <ele>1093.6369629</ele>
        <time>2010-10-23T11:24:47Z</time>
      </trkpt>
      <trkpt lat="44.10155" lon="6.3206">
        <ele>1093.15625</ele>
        <time>2010-10-23T11:24:52Z</time>
      </trkpt>
      <trkpt lat="44.10153" lon="6.3206">
        <ele>1093.15625</ele>
        <time>2010-10-23T11:24:58Z</time>
      </trkpt>
      <trkpt lat="44.10153" lon="6.32059">
        <ele>1091.7143555</ele>
        <time>2010-10-23T11:25:11Z</time>
      </trkpt>
      <trkpt lat="44.10154" lon="6.32059">
        <ele>1089.3110352</ele>
        <time>2010-10-23T11:25:47Z</time>
      </trkpt>
      <trkpt lat="44.10154" lon="6.32058">
        <ele>1084.5046387</ele>
        <time>2010-10-23T11:26:04Z</time>
      </trkpt>
      <trkpt lat="44.10155" lon="6.32058">
        <ele>1081.6203613</ele>
        <time>2010-10-23T11:26:17Z</time>
      </trkpt>
      <trkpt lat="44.10151" lon="6.32062">
        <ele>1084.0239258</ele>
        <time>2010-10-23T11:26:25Z</time>
      </trkpt>
      <trkpt lat="44.10149" lon="6.32061">
        <ele>1087.3884277</ele>
        <time>2010-10-23T11:26:32Z</time>
      </trkpt>
      <trkpt lat="44.10145" lon="6.32059">
        <ele>1089.3110352</ele>
        <time>2010-10-23T11:26:38Z</time>
      </trkpt>
      <trkpt lat="44.10139" lon="6.32044">
        <ele>1088.8305664</ele>
        <time>2010-10-23T11:26:44Z</time>
      </trkpt>
      <trkpt lat="44.10134" lon="6.32032">
        <ele>1091.7143555</ele>
        <time>2010-10-23T11:26:48Z</time>
      </trkpt>
      <trkpt lat="44.10136" lon="6.32019">
        <ele>1093.15625</ele>
        <time>2010-10-23T11:26:52Z</time>
      </trkpt>
      <trkpt lat="44.10137" lon="6.32015">
        <ele>1092.1950684</ele>
        <time>2010-10-23T11:26:53Z</time>
      </trkpt>
      <trkpt lat="44.10138" lon="6.31993">
        <ele>1084.5046387</ele>
        <time>2010-10-23T11:26:58Z</time>
      </trkpt>
      <trkpt lat="44.10133" lon="6.31985">
        <ele>1080.1784668</ele>
        <time>2010-10-23T11:27:03Z</time>
      </trkpt>
      <trkpt lat="44.10134" lon="6.31983">
        <ele>1079.6977539</ele>
        <time>2010-10-23T11:27:04Z</time>
      </trkpt>
      <trkpt lat="44.10133" lon="6.31971">
        <ele>1077.7751465</ele>
        <time>2010-10-23T11:27:09Z</time>
      </trkpt>
      <trkpt lat="44.10136" lon="6.31965">
        <ele>1075.8525391</ele>
        <time>2010-10-23T11:27:12Z</time>
      </trkpt>
      <trkpt lat="44.10148" lon="6.3195">
        <ele>1070.0847168</ele>
        <time>2010-10-23T11:27:18Z</time>
      </trkpt>
      <trkpt lat="44.10155" lon="6.31938">
        <ele>1062.394043</ele>
        <time>2010-10-23T11:27:23Z</time>
      </trkpt>
      <trkpt lat="44.10156" lon="6.31936">
        <ele>1060.9521484</ele>
        <time>2010-10-23T11:27:24Z</time>
      </trkpt>
      <trkpt lat="44.10162" lon="6.31922">
        <ele>1054.7036133</ele>
        <time>2010-10-23T11:27:30Z</time>
      </trkpt>
      <trkpt lat="44.10169" lon="6.31923">
        <ele>1053.2617188</ele>
        <time>2010-10-23T11:27:35Z</time>
      </trkpt>
      <trkpt lat="44.10169" lon="6.31927">
        <ele>1052.300293</ele>
        <time>2010-10-23T11:27:38Z</time>
      </trkpt>
      <trkpt lat="44.10178" lon="6.31939">
        <ele>1048.454834</ele>
        <time>2010-10-23T11:27:44Z</time>
      </trkpt>
      <trkpt lat="44.10187" lon="6.31945">
        <ele>1045.5710449</ele>
        <time>2010-10-23T11:27:49Z</time>
      </trkpt>
      <trkpt lat="44.10191" lon="6.31948">
        <ele>1046.5324707</ele>
        <time>2010-10-23T11:27:51Z</time>
      </trkpt>
      <trkpt lat="44.10195" lon="6.31943">
        <ele>1042.206543</ele>
        <time>2010-10-23T11:27:57Z</time>
      </trkpt>
      <trkpt lat="44.10196" lon="6.31939">
        <ele>1042.206543</ele>
        <time>2010-10-23T11:28:02Z</time>
      </trkpt>
      <trkpt lat="44.10199" lon="6.31933">
        <ele>1037.8806152</ele>
        <time>2010-10-23T11:28:07Z</time>
      </trkpt>
      <trkpt lat="44.10203" lon="6.31924">
        <ele>1038.842041</ele>
        <time>2010-10-23T11:28:12Z</time>
      </trkpt>
      <trkpt lat="44.10209" lon="6.31913">
        <ele>1039.8032227</ele>
        <time>2010-10-23T11:28:16Z</time>
      </trkpt>
      <trkpt lat="44.10211" lon="6.31904">
        <ele>1039.3225098</ele>
        <time>2010-10-23T11:28:19Z</time>
      </trkpt>
      <trkpt lat="44.1021" lon="6.31893">
        <ele>1041.2451172</ele>
        <time>2010-10-23T11:28:24Z</time>
      </trkpt>
      <trkpt lat="44.10213" lon="6.31891">
        <ele>1039.3225098</ele>
        <time>2010-10-23T11:28:29Z</time>
      </trkpt>
      <trkpt lat="44.10216" lon="6.31889">
        <ele>1039.3225098</ele>
        <time>2010-10-23T11:28:38Z</time>
      </trkpt>
      <trkpt lat="44.1022" lon="6.31885">
        <ele>1037.8806152</ele>
        <time>2010-10-23T11:28:45Z</time>
      </trkpt>
      <trkpt lat="44.1022" lon="6.31882">
        <ele>1040.2839355</ele>
        <time>2010-10-23T11:28:51Z</time>
      </trkpt>
      <trkpt lat="44.10227" lon="6.31871">
        <ele>1038.3613281</ele>
        <time>2010-10-23T11:28:57Z</time>
      </trkpt>
      <trkpt lat="44.10236" lon="6.3187">
        <ele>1035.4770508</ele>
        <time>2010-10-23T11:29:01Z</time>
      </trkpt>
      <trkpt lat="44.1024" lon="6.31865">
        <ele>1034.996582</ele>
        <time>2010-10-23T11:29:04Z</time>
      </trkpt>
      <trkpt lat="44.10237" lon="6.31851">
        <ele>1033.5544434</ele>
        <time>2010-10-23T11:29:09Z</time>
      </trkpt>
      <trkpt lat="44.10238" lon="6.31846">
        <ele>1032.5932617</ele>
        <time>2010-10-23T11:29:13Z</time>
      </trkpt>
      <trkpt lat="44.10237" lon="6.31841">
        <ele>1033.5544434</ele>
        <time>2010-10-23T11:29:16Z</time>
      </trkpt>
      <trkpt lat="44.10228" lon="6.31833">
        <ele>1029.7092285</ele>
        <time>2010-10-23T11:29:22Z</time>
      </trkpt>
      <trkpt lat="44.10219" lon="6.31837">
        <ele>1029.7092285</ele>
        <time>2010-10-23T11:29:26Z</time>
      </trkpt>
      <trkpt lat="44.10216" lon="6.31838">
        <ele>1030.6706543</ele>
        <time>2010-10-23T11:29:30Z</time>
      </trkpt>
      <trkpt lat="44.1022" lon="6.31829">
        <ele>1031.6318359</ele>
        <time>2010-10-23T11:29:33Z</time>
      </trkpt>
      <trkpt lat="44.10222" lon="6.31815">
        <ele>1032.1125488</ele>
        <time>2010-10-23T11:29:38Z</time>
      </trkpt>
      <trkpt lat="44.10222" lon="6.31813">
        <ele>1031.6318359</ele>
        <time>2010-10-23T11:29:39Z</time>
      </trkpt>
      <trkpt lat="44.10218" lon="6.31803">
        <ele>1032.5932617</ele>
        <time>2010-10-23T11:29:46Z</time>
      </trkpt>
      <trkpt lat="44.10219" lon="6.31792">
        <ele>1035.4770508</ele>
        <time>2010-10-23T11:29:51Z</time>
      </trkpt>
      <trkpt lat="44.1022" lon="6.31774">
        <ele>1038.842041</ele>
        <time>2010-10-23T11:29:59Z</time>
      </trkpt>
      <trkpt lat="44.10219" lon="6.31772">
        <ele>1038.842041</ele>
        <time>2010-10-23T11:30:00Z</time>
      </trkpt>
      <trkpt lat="44.10213" lon="6.31763">
        <ele>1039.8032227</ele>
        <time>2010-10-23T11:30:08Z</time>
      </trkpt>
      <trkpt lat="44.10213" lon="6.3176">
        <ele>1037.8806152</ele>
        <time>2010-10-23T11:30:13Z</time>
      </trkpt>
      <trkpt lat="44.10213" lon="6.31757">
        <ele>1034.996582</ele>
        <time>2010-10-23T11:30:21Z</time>
      </trkpt>
      <trkpt lat="44.10213" lon="6.31756">
        <ele>1034.0351562</ele>
        <time>2010-10-23T11:30:27Z</time>
      </trkpt>
      <trkpt lat="44.10213" lon="6.31754">
        <ele>1024.902832</ele>
        <time>2010-10-23T11:31:14Z</time>
      </trkpt>
      <trkpt lat="44.10214" lon="6.31754">
        <ele>1022.4995117</ele>
        <time>2010-10-23T11:31:26Z</time>
      </trkpt>
      <trkpt lat="44.10214" lon="6.31754">
        <ele>1019.6154785</ele>
        <time>2010-10-23T11:31:39Z</time>
      </trkpt>
      <trkpt lat="44.10215" lon="6.31755">
        <ele>1020.5769043</ele>
        <time>2010-10-23T11:32:00Z</time>
      </trkpt>
      <trkpt lat="44.10216" lon="6.31756">
        <ele>1022.4995117</ele>
        <time>2010-10-23T11:32:22Z</time>
      </trkpt>
      <trkpt lat="44.10216" lon="6.31756">
        <ele>1022.9802246</ele>
        <time>2010-10-23T11:32:32Z</time>
      </trkpt>
      <trkpt lat="44.10216" lon="6.31755">
        <ele>1024.902832</ele>
        <time>2010-10-23T11:32:47Z</time>
      </trkpt>
      <trkpt lat="44.10216" lon="6.31755">
        <ele>1029.2285156</ele>
        <time>2010-10-23T11:33:02Z</time>
      </trkpt>
      <trkpt lat="44.10215" lon="6.31754">
        <ele>1028.7480469</ele>
        <time>2010-10-23T11:33:19Z</time>
      </trkpt>
      <trkpt lat="44.10216" lon="6.31752">
        <ele>1027.3061523</ele>
        <time>2010-10-23T11:33:47Z</time>
      </trkpt>
      <trkpt lat="44.10217" lon="6.31753">
        <ele>1028.7480469</ele>
        <time>2010-10-23T11:34:00Z</time>
      </trkpt>
      <trkpt lat="44.10216" lon="6.31753">
        <ele>1030.1899414</ele>
        <time>2010-10-23T11:34:11Z</time>
      </trkpt>
      <trkpt lat="44.10216" lon="6.31753">
        <ele>1030.6706543</ele>
        <time>2010-10-23T11:34:44Z</time>
      </trkpt>
      <trkpt lat="44.10217" lon="6.31753">
        <ele>1029.7092285</ele>
        <time>2010-10-23T11:34:55Z</time>
      </trkpt>
      <trkpt lat="44.10217" lon="6.31753">
        <ele>1030.6706543</ele>
        <time>2010-10-23T11:35:06Z</time>
      </trkpt>
      <trkpt lat="44.10218" lon="6.31755">
        <ele>1032.1125488</ele>
        <time>2010-10-23T11:35:21Z</time>
      </trkpt>
      <trkpt lat="44.10216" lon="6.31754">
        <ele>1030.6706543</ele>
        <time>2010-10-23T11:35:26Z</time>
      </trkpt>
      <trkpt lat="44.10214" lon="6.31755">
        <ele>1023.9414062</ele>
        <time>2010-10-23T11:35:39Z</time>
      </trkpt>
      <trkpt lat="44.10214" lon="6.31754">
        <ele>1022.4995117</ele>
        <time>2010-10-23T11:35:43Z</time>
      </trkpt>
      <trkpt lat="44.1021" lon="6.3174">
        <ele>1022.9802246</ele>
        <time>2010-10-23T11:35:48Z</time>
      </trkpt>
      <trkpt lat="44.1021" lon="6.31719">
        <ele>1025.8640137</ele>
        <time>2010-10-23T11:35:52Z</time>
      </trkpt>
      <trkpt lat="44.10213" lon="6.31716">
        <ele>1028.267334</ele>
        <time>2010-10-23T11:35:56Z</time>
      </trkpt>
      <trkpt lat="44.10219" lon="6.31704">
        <ele>1030.6706543</ele>
        <time>2010-10-23T11:36:01Z</time>
      </trkpt>
      <trkpt lat="44.10221" lon="6.317">
        <ele>1030.1899414</ele>
        <time>2010-10-23T11:36:02Z</time>
      </trkpt>
      <trkpt lat="44.10228" lon="6.31685">
        <ele>1031.6318359</ele>
        <time>2010-10-23T11:36:06Z</time>
      </trkpt>
      <trkpt lat="44.10243" lon="6.31662">
        <ele>1029.2285156</ele>
        <time>2010-10-23T11:36:12Z</time>
      </trkpt>
      <trkpt lat="44.10251" lon="6.31658">
        <ele>1027.3061523</ele>
        <time>2010-10-23T11:36:14Z</time>
      </trkpt>
      <trkpt lat="44.10276" lon="6.31639">
        <ele>1024.4221191</ele>
        <time>2010-10-23T11:36:19Z</time>
      </trkpt>
      <trkpt lat="44.10286" lon="6.31631">
        <ele>1024.902832</ele>
        <time>2010-10-23T11:36:21Z</time>
      </trkpt>
      <trkpt lat="44.10307" lon="6.3162">
        <ele>1018.6540527</ele>
        <time>2010-10-23T11:36:27Z</time>
      </trkpt>
      <trkpt lat="44.10313" lon="6.31617">
        <ele>1018.1733398</ele>
        <time>2010-10-23T11:36:30Z</time>
      </trkpt>
      <trkpt lat="44.10313" lon="6.31604">
        <ele>1015.2895508</ele>
        <time>2010-10-23T11:36:34Z</time>
      </trkpt>
      <trkpt lat="44.10293" lon="6.31594">
        <ele>1012.4055176</ele>
        <time>2010-10-23T11:36:38Z</time>
      </trkpt>
      <trkpt lat="44.10268" lon="6.31587">
        <ele>1008.5603027</ele>
        <time>2010-10-23T11:36:43Z</time>
      </trkpt>
      <trkpt lat="44.10264" lon="6.31575">
        <ele>1004.7150879</ele>
        <time>2010-10-23T11:36:47Z</time>
      </trkpt>
      <trkpt lat="44.10256" lon="6.31569">
        <ele>1003.2729492</ele>
        <time>2010-10-23T11:36:51Z</time>
      </trkpt>
      <trkpt lat="44.10254" lon="6.31569">
        <ele>1002.3115234</ele>
        <time>2010-10-23T11:36:53Z</time>
      </trkpt>
      <trkpt lat="44.10247" lon="6.31564">
        <ele>1003.2729492</ele>
        <time>2010-10-23T11:36:57Z</time>
      </trkpt>
      <trkpt lat="44.10233" lon="6.31541">
        <ele>1004.2346191</ele>
        <time>2010-10-23T11:37:02Z</time>
      </trkpt>
      <trkpt lat="44.10227" lon="6.3152">
        <ele>1002.7922363</ele>
        <time>2010-10-23T11:37:06Z</time>
      </trkpt>
      <trkpt lat="44.10245" lon="6.31506">
        <ele>1000.8696289</ele>
        <time>2010-10-23T11:37:11Z</time>
      </trkpt>
      <trkpt lat="44.10259" lon="6.31498">
        <ele>1001.8310547</ele>
        <time>2010-10-23T11:37:15Z</time>
      </trkpt>
      <trkpt lat="44.10257" lon="6.31484">
        <ele>1003.2729492</ele>
        <time>2010-10-23T11:37:19Z</time>
      </trkpt>
      <trkpt lat="44.1025" lon="6.31464">
        <ele>1010.963623</ele>
        <time>2010-10-23T11:37:23Z</time>
      </trkpt>
      <trkpt lat="44.10249" lon="6.3145">
        <ele>1012.4055176</ele>
        <time>2010-10-23T11:37:25Z</time>
      </trkpt>
      <trkpt lat="44.10248" lon="6.31422">
        <ele>1014.328125</ele>
        <time>2010-10-23T11:37:29Z</time>
      </trkpt>
      <trkpt lat="44.10242" lon="6.3139">
        <ele>1013.3669434</ele>
        <time>2010-10-23T11:37:34Z</time>
      </trkpt>
      <trkpt lat="44.10239" lon="6.31373">
        <ele>1012.8862305</ele>
        <time>2010-10-23T11:37:38Z</time>
      </trkpt>
      <trkpt lat="44.10227" lon="6.31354">
        <ele>1009.5217285</ele>
        <time>2010-10-23T11:37:43Z</time>
      </trkpt>
      <trkpt lat="44.10219" lon="6.31321">
        <ele>1004.2346191</ele>
        <time>2010-10-23T11:37:48Z</time>
      </trkpt>
      <trkpt lat="44.10204" lon="6.31317">
        <ele>1000.8696289</ele>
        <time>2010-10-23T11:37:51Z</time>
      </trkpt>
      <trkpt lat="44.10199" lon="6.31319">
        <ele>1000.8696289</ele>
        <time>2010-10-23T11:37:52Z</time>
      </trkpt>
      <trkpt lat="44.10184" lon="6.31319">
        <ele>1000.3891602</ele>
        <time>2010-10-23T11:37:56Z</time>
      </trkpt>
      <trkpt lat="44.10176" lon="6.31302">
        <ele>999.9084473</ele>
        <time>2010-10-23T11:37:59Z</time>
      </trkpt>
      <trkpt lat="44.10172" lon="6.31285">
        <ele>996.5439453</ele>
        <time>2010-10-23T11:38:03Z</time>
      </trkpt>
      <trkpt lat="44.10167" lon="6.31273">
        <ele>996.0632324</ele>
        <time>2010-10-23T11:38:07Z</time>
      </trkpt>
      <trkpt lat="44.10163" lon="6.31264">
        <ele>993.6599121</ele>
        <time>2010-10-23T11:38:10Z</time>
      </trkpt>
      <trkpt lat="44.10161" lon="6.31259">
        <ele>994.6210938</ele>
        <time>2010-10-23T11:38:12Z</time>
      </trkpt>
      <trkpt lat="44.10157" lon="6.31254">
        <ele>993.6599121</ele>
        <time>2010-10-23T11:38:14Z</time>
      </trkpt>
      <trkpt lat="44.10153" lon="6.31239">
        <ele>996.5439453</ele>
        <time>2010-10-23T11:38:18Z</time>
      </trkpt>
      <trkpt lat="44.10148" lon="6.31223">
        <ele>992.2180176</ele>
        <time>2010-10-23T11:38:21Z</time>
      </trkpt>
      <trkpt lat="44.10153" lon="6.31192">
        <ele>983.565918</ele>
        <time>2010-10-23T11:38:27Z</time>
      </trkpt>
      <trkpt lat="44.10146" lon="6.31183">
        <ele>979.7207031</ele>
        <time>2010-10-23T11:38:31Z</time>
      </trkpt>
      <trkpt lat="44.1014" lon="6.31174">
        <ele>976.3562012</ele>
        <time>2010-10-23T11:38:35Z</time>
      </trkpt>
      <trkpt lat="44.10135" lon="6.31167">
        <ele>973.9528809</ele>
        <time>2010-10-23T11:38:38Z</time>
      </trkpt>
      <trkpt lat="44.10121" lon="6.31166">
        <ele>972.5109863</ele>
        <time>2010-10-23T11:38:41Z</time>
      </trkpt>
      <trkpt lat="44.1009" lon="6.31155">
        <ele>967.7041016</ele>
        <time>2010-10-23T11:38:46Z</time>
      </trkpt>
      <trkpt lat="44.10085" lon="6.3114">
        <ele>963.8588867</ele>
        <time>2010-10-23T11:38:50Z</time>
      </trkpt>
      <trkpt lat="44.10097" lon="6.31104">
        <ele>958.0913086</ele>
        <time>2010-10-23T11:38:56Z</time>
      </trkpt>
      <trkpt lat="44.10106" lon="6.31098">
        <ele>956.6491699</ele>
        <time>2010-10-23T11:38:59Z</time>
      </trkpt>
      <trkpt lat="44.10105" lon="6.31099">
        <ele>956.6491699</ele>
        <time>2010-10-23T11:39:03Z</time>
      </trkpt>
      <trkpt lat="44.10104" lon="6.31101">
        <ele>961.4558105</ele>
        <time>2010-10-23T11:39:16Z</time>
      </trkpt>
      <trkpt lat="44.10104" lon="6.31087">
        <ele>958.5717773</ele>
        <time>2010-10-23T11:39:20Z</time>
      </trkpt>
      <trkpt lat="44.10102" lon="6.3107">
        <ele>954.2458496</ele>
        <time>2010-10-23T11:39:24Z</time>
      </trkpt>
      <trkpt lat="44.10102" lon="6.31054">
        <ele>951.3618164</ele>
        <time>2010-10-23T11:39:27Z</time>
      </trkpt>
      <trkpt lat="44.10093" lon="6.31044">
        <ele>949.9199219</ele>
        <time>2010-10-23T11:39:30Z</time>
      </trkpt>
      <trkpt lat="44.10089" lon="6.3104">
        <ele>949.9199219</ele>
        <time>2010-10-23T11:39:31Z</time>
      </trkpt>
      <trkpt lat="44.10077" lon="6.31024">
        <ele>947.0358887</ele>
        <time>2010-10-23T11:39:35Z</time>
      </trkpt>
      <trkpt lat="44.10073" lon="6.31019">
        <ele>946.074707</ele>
        <time>2010-10-23T11:39:36Z</time>
      </trkpt>
      <trkpt lat="44.1005" lon="6.30991">
        <ele>941.7487793</ele>
        <time>2010-10-23T11:39:40Z</time>
      </trkpt>
      <trkpt lat="44.10037" lon="6.30979">
        <ele>939.3452148</ele>
        <time>2010-10-23T11:39:42Z</time>
      </trkpt>
      <trkpt lat="44.10034" lon="6.30975">
        <ele>938.8647461</ele>
        <time>2010-10-23T11:39:46Z</time>
      </trkpt>
      <trkpt lat="44.10039" lon="6.30976">
        <ele>929.2514648</ele>
        <time>2010-10-23T11:41:23Z</time>
      </trkpt>
      <trkpt lat="44.10039" lon="6.30975">
        <ele>927.8095703</ele>
        <time>2010-10-23T11:42:09Z</time>
      </trkpt>
      <trkpt lat="44.10038" lon="6.30974">
        <ele>928.2902832</ele>
        <time>2010-10-23T11:42:13Z</time>
      </trkpt>
      <trkpt lat="44.10046" lon="6.30964">
        <ele>928.2902832</ele>
        <time>2010-10-23T11:42:18Z</time>
      </trkpt>
      <trkpt lat="44.10059" lon="6.30969">
        <ele>929.2514648</ele>
        <time>2010-10-23T11:42:22Z</time>
      </trkpt>
      <trkpt lat="44.10064" lon="6.30975">
        <ele>929.2514648</ele>
        <time>2010-10-23T11:42:24Z</time>
      </trkpt>
      <trkpt lat="44.10074" lon="6.30977">
        <ele>931.6547852</ele>
        <time>2010-10-23T11:42:28Z</time>
      </trkpt>
      <trkpt lat="44.10083" lon="6.30971">
        <ele>935.5</ele>
        <time>2010-10-23T11:42:33Z</time>
      </trkpt>
      <trkpt lat="44.10086" lon="6.30973">
        <ele>937.9033203</ele>
        <time>2010-10-23T11:42:35Z</time>
      </trkpt>
      <trkpt lat="44.10097" lon="6.30984">
        <ele>940.3068848</ele>
        <time>2010-10-23T11:42:41Z</time>
      </trkpt>
      <trkpt lat="44.10103" lon="6.30989">
        <ele>940.3068848</ele>
        <time>2010-10-23T11:42:44Z</time>
      </trkpt>
      <trkpt lat="44.1011" lon="6.3099">
        <ele>938.3840332</ele>
        <time>2010-10-23T11:42:48Z</time>
      </trkpt>
      <trkpt lat="44.1012" lon="6.30994">
        <ele>936.4614258</ele>
        <time>2010-10-23T11:42:53Z</time>
      </trkpt>
      <trkpt lat="44.10123" lon="6.30992">
        <ele>937.4226074</ele>
        <time>2010-10-23T11:42:58Z</time>
      </trkpt>
      <trkpt lat="44.10123" lon="6.30987">
        <ele>938.8647461</ele>
        <time>2010-10-23T11:43:05Z</time>
      </trkpt>
      <trkpt lat="44.10126" lon="6.30978">
        <ele>943.1906738</ele>
        <time>2010-10-23T11:43:11Z</time>
      </trkpt>
      <trkpt lat="44.1013" lon="6.30973">
        <ele>944.1520996</ele>
        <time>2010-10-23T11:43:14Z</time>
      </trkpt>
      <trkpt lat="44.10132" lon="6.3097">
        <ele>943.1906738</ele>
        <time>2010-10-23T11:43:17Z</time>
      </trkpt>
      <trkpt lat="44.10139" lon="6.30956">
        <ele>938.3840332</ele>
        <time>2010-10-23T11:43:22Z</time>
      </trkpt>
      <trkpt lat="44.10133" lon="6.30943">
        <ele>934.0581055</ele>
        <time>2010-10-23T11:43:25Z</time>
      </trkpt>
      <trkpt lat="44.10127" lon="6.30938">
        <ele>934.0581055</ele>
        <time>2010-10-23T11:43:26Z</time>
      </trkpt>
      <trkpt lat="44.10115" lon="6.30922">
        <ele>932.135498</ele>
        <time>2010-10-23T11:43:29Z</time>
      </trkpt>
      <trkpt lat="44.10108" lon="6.30897">
        <ele>930.6936035</ele>
        <time>2010-10-23T11:43:34Z</time>
      </trkpt>
      <trkpt lat="44.10109" lon="6.3089">
        <ele>931.1743164</ele>
        <time>2010-10-23T11:43:36Z</time>
      </trkpt>
      <trkpt lat="44.10114" lon="6.30874">
        <ele>931.6547852</ele>
        <time>2010-10-23T11:43:42Z</time>
      </trkpt>
      <trkpt lat="44.10123" lon="6.30862">
        <ele>932.6162109</ele>
        <time>2010-10-23T11:43:49Z</time>
      </trkpt>
      <trkpt lat="44.1013" lon="6.30853">
        <ele>933.5773926</ele>
        <time>2010-10-23T11:43:56Z</time>
      </trkpt>
      <trkpt lat="44.10133" lon="6.3085">
        <ele>933.0966797</ele>
        <time>2010-10-23T11:43:57Z</time>
      </trkpt>
      <trkpt lat="44.10149" lon="6.30834">
        <ele>934.5388184</ele>
        <time>2010-10-23T11:44:01Z</time>
      </trkpt>
      <trkpt lat="44.10157" lon="6.30823">
        <ele>933.0966797</ele>
        <time>2010-10-23T11:44:06Z</time>
      </trkpt>
      <trkpt lat="44.1016" lon="6.30812">
        <ele>934.0581055</ele>
        <time>2010-10-23T11:44:11Z</time>
      </trkpt>
      <trkpt lat="44.10167" lon="6.30799">
        <ele>935.5</ele>
        <time>2010-10-23T11:44:18Z</time>
      </trkpt>
      <trkpt lat="44.10171" lon="6.30791">
        <ele>936.9418945</ele>
        <time>2010-10-23T11:44:22Z</time>
      </trkpt>
      <trkpt lat="44.10172" lon="6.30774">
        <ele>940.7873535</ele>
        <time>2010-10-23T11:44:29Z</time>
      </trkpt>
      <trkpt lat="44.10172" lon="6.30751">
        <ele>944.6325684</ele>
        <time>2010-10-23T11:44:37Z</time>
      </trkpt>
      <trkpt lat="44.10173" lon="6.30729">
        <ele>946.5554199</ele>
        <time>2010-10-23T11:44:44Z</time>
      </trkpt>
      <trkpt lat="44.10173" lon="6.30709">
        <ele>947.0358887</ele>
        <time>2010-10-23T11:44:48Z</time>
      </trkpt>
      <trkpt lat="44.10173" lon="6.30707">
        <ele>947.5166016</ele>
        <time>2010-10-23T11:44:49Z</time>
      </trkpt>
      <trkpt lat="44.10173" lon="6.30684">
        <ele>945.1132812</ele>
        <time>2010-10-23T11:44:54Z</time>
      </trkpt>
      <trkpt lat="44.10176" lon="6.30673">
        <ele>943.1906738</ele>
        <time>2010-10-23T11:44:56Z</time>
      </trkpt>
      <trkpt lat="44.10181" lon="6.30648">
        <ele>938.8647461</ele>
        <time>2010-10-23T11:45:01Z</time>
      </trkpt>
      <trkpt lat="44.10171" lon="6.30644">
        <ele>937.9033203</ele>
        <time>2010-10-23T11:45:07Z</time>
      </trkpt>
      <trkpt lat="44.10155" lon="6.30635">
        <ele>935.9807129</ele>
        <time>2010-10-23T11:45:11Z</time>
      </trkpt>
      <trkpt lat="44.10142" lon="6.3063">
        <ele>933.0966797</ele>
        <time>2010-10-23T11:45:14Z</time>
      </trkpt>
      <trkpt lat="44.10119" lon="6.30628">
        <ele>929.7321777</ele>
        <time>2010-10-23T11:45:19Z</time>
      </trkpt>
      <trkpt lat="44.10112" lon="6.30623">
        <ele>929.2514648</ele>
        <time>2010-10-23T11:45:22Z</time>
      </trkpt>
      <trkpt lat="44.10102" lon="6.30627">
        <ele>927.3291016</ele>
        <time>2010-10-23T11:45:26Z</time>
      </trkpt>
      <trkpt lat="44.10091" lon="6.30622">
        <ele>924.9257812</ele>
        <time>2010-10-23T11:45:31Z</time>
      </trkpt>
      <trkpt lat="44.10089" lon="6.30621">
        <ele>924.4450684</ele>
        <time>2010-10-23T11:45:34Z</time>
      </trkpt>
      <trkpt lat="44.10087" lon="6.30609">
        <ele>920.1188965</ele>
        <time>2010-10-23T11:45:40Z</time>
      </trkpt>
      <trkpt lat="44.10086" lon="6.30603">
        <ele>917.7155762</ele>
        <time>2010-10-23T11:45:44Z</time>
      </trkpt>
      <trkpt lat="44.10085" lon="6.30603">
        <ele>917.2351074</ele>
        <time>2010-10-23T11:45:45Z</time>
      </trkpt>
      <trkpt lat="44.10077" lon="6.30602">
        <ele>914.3510742</ele>
        <time>2010-10-23T11:45:52Z</time>
      </trkpt>
      <trkpt lat="44.10073" lon="6.30601">
        <ele>913.3898926</ele>
        <time>2010-10-23T11:45:56Z</time>
      </trkpt>
      <trkpt lat="44.10066" lon="6.30599">
        <ele>912.4284668</ele>
        <time>2010-10-23T11:45:58Z</time>
      </trkpt>
      <trkpt lat="44.10048" lon="6.30608">
        <ele>908.583252</ele>
        <time>2010-10-23T11:46:04Z</time>
      </trkpt>
      <trkpt lat="44.10049" lon="6.30608">
        <ele>907.1411133</ele>
        <time>2010-10-23T11:46:11Z</time>
      </trkpt>
      <trkpt lat="44.10051" lon="6.30607">
        <ele>909.0639648</ele>
        <time>2010-10-23T11:46:51Z</time>
      </trkpt>
      <trkpt lat="44.10051" lon="6.30608">
        <ele>908.1027832</ele>
        <time>2010-10-23T11:47:17Z</time>
      </trkpt>
      <trkpt lat="44.1005" lon="6.3061">
        <ele>904.737793</ele>
        <time>2010-10-23T11:47:39Z</time>
      </trkpt>
      <trkpt lat="44.10051" lon="6.30608">
        <ele>910.9865723</ele>
        <time>2010-10-23T11:47:59Z</time>
      </trkpt>
      <trkpt lat="44.10053" lon="6.30606">
        <ele>915.7932129</ele>
        <time>2010-10-23T11:48:12Z</time>
      </trkpt>
      <trkpt lat="44.10052" lon="6.30606">
        <ele>915.7932129</ele>
        <time>2010-10-23T11:48:20Z</time>
      </trkpt>
      <trkpt lat="44.10038" lon="6.30607">
        <ele>912.4284668</ele>
        <time>2010-10-23T11:48:25Z</time>
      </trkpt>
      <trkpt lat="44.10012" lon="6.3062">
        <ele>905.2185059</ele>
        <time>2010-10-23T11:48:31Z</time>
      </trkpt>
      <trkpt lat="44.10007" lon="6.30628">
        <ele>899.9313965</ele>
        <time>2010-10-23T11:48:35Z</time>
      </trkpt>
      <trkpt lat="44.10002" lon="6.30634">
        <ele>898.4892578</ele>
        <time>2010-10-23T11:48:41Z</time>
      </trkpt>
      <trkpt lat="44.09998" lon="6.30643">
        <ele>901.373291</ele>
        <time>2010-10-23T11:48:49Z</time>
      </trkpt>
      <trkpt lat="44.09998" lon="6.30649">
        <ele>904.2573242</ele>
        <time>2010-10-23T11:48:56Z</time>
      </trkpt>
      <trkpt lat="44.09993" lon="6.30662">
        <ele>903.7766113</ele>
        <time>2010-10-23T11:49:01Z</time>
      </trkpt>
      <trkpt lat="44.09982" lon="6.30675">
        <ele>905.2185059</ele>
        <time>2010-10-23T11:49:06Z</time>
      </trkpt>
      <trkpt lat="44.09967" lon="6.30679">
        <ele>903.7766113</ele>
        <time>2010-10-23T11:49:10Z</time>
      </trkpt>
      <trkpt lat="44.09953" lon="6.30695">
        <ele>901.373291</ele>
        <time>2010-10-23T11:49:14Z</time>
      </trkpt>
      <trkpt lat="44.09951" lon="6.30696">
        <ele>901.8540039</ele>
        <time>2010-10-23T11:49:16Z</time>
      </trkpt>
      <trkpt lat="44.09937" lon="6.30693">
        <ele>899.9313965</ele>
        <time>2010-10-23T11:49:21Z</time>
      </trkpt>
      <trkpt lat="44.09922" lon="6.30683">
        <ele>895.6054688</ele>
        <time>2010-10-23T11:49:26Z</time>
      </trkpt>
      <trkpt lat="44.09917" lon="6.30686">
        <ele>895.6054688</ele>
        <time>2010-10-23T11:49:28Z</time>
      </trkpt>
      <trkpt lat="44.09903" lon="6.30694">
        <ele>894.644043</ele>
        <time>2010-10-23T11:49:32Z</time>
      </trkpt>
      <trkpt lat="44.09902" lon="6.3068">
        <ele>895.6054688</ele>
        <time>2010-10-23T11:49:36Z</time>
      </trkpt>
      <trkpt lat="44.09901" lon="6.30677">
        <ele>895.1247559</ele>
        <time>2010-10-23T11:49:37Z</time>
      </trkpt>
      <trkpt lat="44.09902" lon="6.30655">
        <ele>892.7216797</ele>
        <time>2010-10-23T11:49:43Z</time>
      </trkpt>
      <trkpt lat="44.09903" lon="6.30638">
        <ele>891.2792969</ele>
        <time>2010-10-23T11:49:47Z</time>
      </trkpt>
      <trkpt lat="44.09903" lon="6.30634">
        <ele>890.3181152</ele>
        <time>2010-10-23T11:49:48Z</time>
      </trkpt>
      <trkpt lat="44.09913" lon="6.306">
        <ele>888.3955078</ele>
        <time>2010-10-23T11:49:54Z</time>
      </trkpt>
      <trkpt lat="44.09901" lon="6.30584">
        <ele>888.8762207</ele>
        <time>2010-10-23T11:49:59Z</time>
      </trkpt>
      <trkpt lat="44.09889" lon="6.3057">
        <ele>892.2409668</ele>
        <time>2010-10-23T11:50:05Z</time>
      </trkpt>
      <trkpt lat="44.09873" lon="6.30549">
        <ele>896.5668945</ele>
        <time>2010-10-23T11:50:14Z</time>
      </trkpt>
      <trkpt lat="44.09863" lon="6.30534">
        <ele>897.5280762</ele>
        <time>2010-10-23T11:50:21Z</time>
      </trkpt>
      <trkpt lat="44.09858" lon="6.30518">
        <ele>897.5280762</ele>
        <time>2010-10-23T11:50:27Z</time>
      </trkpt>
      <trkpt lat="44.09857" lon="6.305">
        <ele>898.0087891</ele>
        <time>2010-10-23T11:50:34Z</time>
      </trkpt>
      <trkpt lat="44.09857" lon="6.3048">
        <ele>900.4121094</ele>
        <time>2010-10-23T11:50:44Z</time>
      </trkpt>
      <trkpt lat="44.09859" lon="6.30471">
        <ele>903.7766113</ele>
        <time>2010-10-23T11:50:50Z</time>
      </trkpt>
      <trkpt lat="44.09864" lon="6.30461">
        <ele>905.2185059</ele>
        <time>2010-10-23T11:50:58Z</time>
      </trkpt>
      <trkpt lat="44.09863" lon="6.30459">
        <ele>905.2185059</ele>
        <time>2010-10-23T11:51:03Z</time>
      </trkpt>
      <trkpt lat="44.09861" lon="6.30462">
        <ele>906.1796875</ele>
        <time>2010-10-23T11:51:12Z</time>
      </trkpt>
      <trkpt lat="44.09861" lon="6.30457">
        <ele>903.2958984</ele>
        <time>2010-10-23T11:51:29Z</time>
      </trkpt>
      <trkpt lat="44.09866" lon="6.30447">
        <ele>903.7766113</ele>
        <time>2010-10-23T11:51:36Z</time>
      </trkpt>
      <trkpt lat="44.09867" lon="6.30439">
        <ele>907.6218262</ele>
        <time>2010-10-23T11:51:44Z</time>
      </trkpt>
      <trkpt lat="44.09869" lon="6.30433">
        <ele>909.0639648</ele>
        <time>2010-10-23T11:51:51Z</time>
      </trkpt>
      <trkpt lat="44.09867" lon="6.30425">
        <ele>913.3898926</ele>
        <time>2010-10-23T11:51:59Z</time>
      </trkpt>
      <trkpt lat="44.09864" lon="6.30414">
        <ele>917.2351074</ele>
        <time>2010-10-23T11:52:09Z</time>
      </trkpt>
      <trkpt lat="44.09864" lon="6.30414">
        <ele>917.7155762</ele>
        <time>2010-10-23T11:52:18Z</time>
      </trkpt>
      <trkpt lat="44.09862" lon="6.30414">
        <ele>916.7543945</ele>
        <time>2010-10-23T11:52:29Z</time>
      </trkpt>
      <trkpt lat="44.09862" lon="6.30414">
        <ele>916.7543945</ele>
        <time>2010-10-23T11:52:30Z</time>
      </trkpt>
      <trkpt lat="44.09859" lon="6.30412">
        <ele>918.677002</ele>
        <time>2010-10-23T11:52:37Z</time>
      </trkpt>
      <trkpt lat="44.0986" lon="6.30413">
        <ele>918.677002</ele>
        <time>2010-10-23T11:52:43Z</time>
      </trkpt>
      <trkpt lat="44.09857" lon="6.30414">
        <ele>917.7155762</ele>
        <time>2010-10-23T11:52:50Z</time>
      </trkpt>
      <trkpt lat="44.09856" lon="6.30413">
        <ele>917.2351074</ele>
        <time>2010-10-23T11:52:51Z</time>
      </trkpt>
      <trkpt lat="44.09845" lon="6.30402">
        <ele>914.3510742</ele>
        <time>2010-10-23T11:52:55Z</time>
      </trkpt>
      <trkpt lat="44.09832" lon="6.30397">
        <ele>912.9091797</ele>
        <time>2010-10-23T11:52:57Z</time>
      </trkpt>
      <trkpt lat="44.09816" lon="6.30391">
        <ele>910.9865723</ele>
        <time>2010-10-23T11:53:01Z</time>
      </trkpt>
      <trkpt lat="44.09811" lon="6.30388">
        <ele>908.583252</ele>
        <time>2010-10-23T11:53:06Z</time>
      </trkpt>
      <trkpt lat="44.09811" lon="6.30386">
        <ele>907.6218262</ele>
        <time>2010-10-23T11:53:07Z</time>
      </trkpt>
      <trkpt lat="44.09811" lon="6.30375">
        <ele>903.2958984</ele>
        <time>2010-10-23T11:53:12Z</time>
      </trkpt>
      <trkpt lat="44.09804" lon="6.30367">
        <ele>900.8925781</ele>
        <time>2010-10-23T11:53:18Z</time>
      </trkpt>
      <trkpt lat="44.09805" lon="6.30361">
        <ele>898.9699707</ele>
        <time>2010-10-23T11:53:20Z</time>
      </trkpt>
      <trkpt lat="44.09811" lon="6.30341">
        <ele>895.6054688</ele>
        <time>2010-10-23T11:53:25Z</time>
      </trkpt>
      <trkpt lat="44.0981" lon="6.30335">
        <ele>892.2409668</ele>
        <time>2010-10-23T11:53:29Z</time>
      </trkpt>
      <trkpt lat="44.09805" lon="6.30325">
        <ele>891.2792969</ele>
        <time>2010-10-23T11:53:32Z</time>
      </trkpt>
      <trkpt lat="44.09807" lon="6.30312">
        <ele>888.3955078</ele>
        <time>2010-10-23T11:53:36Z</time>
      </trkpt>
      <trkpt lat="44.09802" lon="6.30304">
        <ele>885.0310059</ele>
        <time>2010-10-23T11:53:39Z</time>
      </trkpt>
      <trkpt lat="44.09777" lon="6.30292">
        <ele>881.6662598</ele>
        <time>2010-10-23T11:53:45Z</time>
      </trkpt>
      <trkpt lat="44.09768" lon="6.3028">
        <ele>880.2243652</ele>
        <time>2010-10-23T11:53:49Z</time>
      </trkpt>
      <trkpt lat="44.09775" lon="6.30274">
        <ele>879.7436523</ele>
        <time>2010-10-23T11:53:53Z</time>
      </trkpt>
      <trkpt lat="44.09777" lon="6.30267">
        <ele>878.7824707</ele>
        <time>2010-10-23T11:53:56Z</time>
      </trkpt>
      <trkpt lat="44.09772" lon="6.30263">
        <ele>878.3017578</ele>
        <time>2010-10-23T11:53:59Z</time>
      </trkpt>
      <trkpt lat="44.09773" lon="6.30252">
        <ele>876.8598633</ele>
        <time>2010-10-23T11:54:02Z</time>
      </trkpt>
      <trkpt lat="44.09772" lon="6.30245">
        <ele>876.8598633</ele>
        <time>2010-10-23T11:54:04Z</time>
      </trkpt>
      <trkpt lat="44.09769" lon="6.30239">
        <ele>877.3405762</ele>
        <time>2010-10-23T11:54:10Z</time>
      </trkpt>
      <trkpt lat="44.09768" lon="6.30239">
        <ele>878.3017578</ele>
        <time>2010-10-23T11:54:16Z</time>
      </trkpt>
      <trkpt lat="44.09769" lon="6.30239">
        <ele>880.2243652</ele>
        <time>2010-10-23T11:54:25Z</time>
      </trkpt>
      <trkpt lat="44.0977" lon="6.3024">
        <ele>882.1469727</ele>
        <time>2010-10-23T11:54:40Z</time>
      </trkpt>
      <trkpt lat="44.0977" lon="6.3024">
        <ele>882.1469727</ele>
        <time>2010-10-23T11:54:46Z</time>
      </trkpt>
      <trkpt lat="44.09769" lon="6.3024">
        <ele>882.6276855</ele>
        <time>2010-10-23T11:54:54Z</time>
      </trkpt>
      <trkpt lat="44.09769" lon="6.30241">
        <ele>883.1081543</ele>
        <time>2010-10-23T11:55:06Z</time>
      </trkpt>
      <trkpt lat="44.09767" lon="6.30242">
        <ele>882.6276855</ele>
        <time>2010-10-23T11:55:19Z</time>
      </trkpt>
      <trkpt lat="44.09767" lon="6.30241">
        <ele>883.5888672</ele>
        <time>2010-10-23T11:55:35Z</time>
      </trkpt>
      <trkpt lat="44.09767" lon="6.30241">
        <ele>882.6276855</ele>
        <time>2010-10-23T11:55:46Z</time>
      </trkpt>
      <trkpt lat="44.09763" lon="6.30231">
        <ele>882.6276855</ele>
        <time>2010-10-23T11:55:50Z</time>
      </trkpt>
      <trkpt lat="44.09753" lon="6.30218">
        <ele>881.185791</ele>
        <time>2010-10-23T11:55:55Z</time>
      </trkpt>
      <trkpt lat="44.09748" lon="6.30215">
        <ele>880.7050781</ele>
        <time>2010-10-23T11:55:59Z</time>
      </trkpt>
      <trkpt lat="44.09739" lon="6.30218">
        <ele>879.7436523</ele>
        <time>2010-10-23T11:56:02Z</time>
      </trkpt>
      <trkpt lat="44.09716" lon="6.3022">
        <ele>876.8598633</ele>
        <time>2010-10-23T11:56:07Z</time>
      </trkpt>
      <trkpt lat="44.0971" lon="6.30215">
        <ele>876.3791504</ele>
        <time>2010-10-23T11:56:09Z</time>
      </trkpt>
      <trkpt lat="44.09701" lon="6.30208">
        <ele>874.4562988</ele>
        <time>2010-10-23T11:56:14Z</time>
      </trkpt>
      <trkpt lat="44.09702" lon="6.30208">
        <ele>873.9755859</ele>
        <time>2010-10-23T11:56:24Z</time>
      </trkpt>
      <trkpt lat="44.09702" lon="6.30208">
        <ele>873.9755859</ele>
        <time>2010-10-23T11:56:33Z</time>
      </trkpt>
      <trkpt lat="44.09701" lon="6.30208">
        <ele>873.9755859</ele>
        <time>2010-10-23T11:56:45Z</time>
      </trkpt>
      <trkpt lat="44.097" lon="6.30208">
        <ele>873.0144043</ele>
        <time>2010-10-23T11:56:59Z</time>
      </trkpt>
      <trkpt lat="44.09688" lon="6.30195">
        <ele>872.0529785</ele>
        <time>2010-10-23T11:57:03Z</time>
      </trkpt>
      <trkpt lat="44.09676" lon="6.30184">
        <ele>871.0917969</ele>
        <time>2010-10-23T11:57:06Z</time>
      </trkpt>
      <trkpt lat="44.09665" lon="6.30179">
        <ele>869.6499023</ele>
        <time>2010-10-23T11:57:09Z</time>
      </trkpt>
      <trkpt lat="44.09642" lon="6.30172">
        <ele>866.7658691</ele>
        <time>2010-10-23T11:57:14Z</time>
      </trkpt>
      <trkpt lat="44.0963" lon="6.30163">
        <ele>864.8432617</ele>
        <time>2010-10-23T11:57:17Z</time>
      </trkpt>
      <trkpt lat="44.09609" lon="6.30155">
        <ele>861.4787598</ele>
        <time>2010-10-23T11:57:21Z</time>
      </trkpt>
      <trkpt lat="44.09598" lon="6.30153">
        <ele>858.5944824</ele>
        <time>2010-10-23T11:57:23Z</time>
      </trkpt>
      <trkpt lat="44.09576" lon="6.3015">
        <ele>853.7880859</ele>
        <time>2010-10-23T11:57:28Z</time>
      </trkpt>
      <trkpt lat="44.09566" lon="6.30147">
        <ele>850.9040527</ele>
        <time>2010-10-23T11:57:30Z</time>
      </trkpt>
      <trkpt lat="44.09547" lon="6.30149">
        <ele>846.0976562</ele>
        <time>2010-10-23T11:57:34Z</time>
      </trkpt>
      <trkpt lat="44.09538" lon="6.30148">
        <ele>844.6555176</ele>
        <time>2010-10-23T11:57:36Z</time>
      </trkpt>
      <trkpt lat="44.09514" lon="6.30143">
        <ele>840.3295898</ele>
        <time>2010-10-23T11:57:41Z</time>
      </trkpt>
      <trkpt lat="44.09511" lon="6.30141">
        <ele>839.3681641</ele>
        <time>2010-10-23T11:57:42Z</time>
      </trkpt>
      <trkpt lat="44.09505" lon="6.30138">
        <ele>837.4455566</ele>
        <time>2010-10-23T11:57:47Z</time>
      </trkpt>
      <trkpt lat="44.09506" lon="6.30136">
        <ele>836.9648438</ele>
        <time>2010-10-23T11:58:04Z</time>
      </trkpt>
      <trkpt lat="44.09505" lon="6.30136">
        <ele>837.9262695</ele>
        <time>2010-10-23T11:58:13Z</time>
      </trkpt>
      <trkpt lat="44.09505" lon="6.30136">
        <ele>835.5229492</ele>
        <time>2010-10-23T11:58:24Z</time>
      </trkpt>
      <trkpt lat="44.09506" lon="6.30136">
        <ele>834.5617676</ele>
        <time>2010-10-23T11:58:36Z</time>
      </trkpt>
      <trkpt lat="44.09508" lon="6.30125">
        <ele>835.5229492</ele>
        <time>2010-10-23T11:58:41Z</time>
      </trkpt>
      <trkpt lat="44.09512" lon="6.30121">
        <ele>836.484375</ele>
        <time>2010-10-23T11:58:43Z</time>
      </trkpt>
      <trkpt lat="44.09526" lon="6.30107">
        <ele>837.4455566</ele>
        <time>2010-10-23T11:58:49Z</time>
      </trkpt>
      <trkpt lat="44.09513" lon="6.30097">
        <ele>836.0036621</ele>
        <time>2010-10-23T11:58:53Z</time>
      </trkpt>
      <trkpt lat="44.09501" lon="6.30091">
        <ele>836.484375</ele>
        <time>2010-10-23T11:58:56Z</time>
      </trkpt>
      <trkpt lat="44.09495" lon="6.30085">
        <ele>828.3132324</ele>
        <time>2010-10-23T11:59:00Z</time>
      </trkpt>
      <trkpt lat="44.09485" lon="6.30082">
        <ele>825.909668</ele>
        <time>2010-10-23T11:59:02Z</time>
      </trkpt>
      <trkpt lat="44.09467" lon="6.30081">
        <ele>822.0644531</ele>
        <time>2010-10-23T11:59:07Z</time>
      </trkpt>
      <trkpt lat="44.09454" lon="6.30082">
        <ele>817.2580566</ele>
        <time>2010-10-23T11:59:11Z</time>
      </trkpt>
      <trkpt lat="44.09445" lon="6.30081">
        <ele>811.4899902</ele>
        <time>2010-10-23T11:59:15Z</time>
      </trkpt>
      <trkpt lat="44.09434" lon="6.30084">
        <ele>807.1640625</ele>
        <time>2010-10-23T11:59:19Z</time>
      </trkpt>
      <trkpt lat="44.09421" lon="6.30078">
        <ele>802.8381348</ele>
        <time>2010-10-23T11:59:23Z</time>
      </trkpt>
      <trkpt lat="44.09415" lon="6.30076">
        <ele>799.9543457</ele>
        <time>2010-10-23T11:59:25Z</time>
      </trkpt>
      <trkpt lat="44.09399" lon="6.3007">
        <ele>795.6281738</ele>
        <time>2010-10-23T11:59:30Z</time>
      </trkpt>
      <trkpt lat="44.09393" lon="6.30067">
        <ele>793.2248535</ele>
        <time>2010-10-23T11:59:32Z</time>
      </trkpt>
      <trkpt lat="44.09382" lon="6.30059">
        <ele>790.3410645</ele>
        <time>2010-10-23T11:59:35Z</time>
      </trkpt>
      <trkpt lat="44.0937" lon="6.30054">
        <ele>786.4958496</ele>
        <time>2010-10-23T11:59:40Z</time>
      </trkpt>
      <trkpt lat="44.09369" lon="6.30053">
        <ele>786.4958496</ele>
        <time>2010-10-23T11:59:45Z</time>
      </trkpt>
      <trkpt lat="44.09364" lon="6.30043">
        <ele>782.1699219</ele>
        <time>2010-10-23T11:59:50Z</time>
      </trkpt>
      <trkpt lat="44.09352" lon="6.30032">
        <ele>777.3632812</ele>
        <time>2010-10-23T11:59:55Z</time>
      </trkpt>
      <trkpt lat="44.09351" lon="6.30029">
        <ele>775.4404297</ele>
        <time>2010-10-23T11:59:56Z</time>
      </trkpt>
      <trkpt lat="44.09344" lon="6.30014">
        <ele>770.1533203</ele>
        <time>2010-10-23T12:00:01Z</time>
      </trkpt>
      <trkpt lat="44.09343" lon="6.30006">
        <ele>767.75</ele>
        <time>2010-10-23T12:00:05Z</time>
      </trkpt>
      <trkpt lat="44.09343" lon="6.30006">
        <ele>767.2695312</ele>
        <time>2010-10-23T12:00:06Z</time>
      </trkpt>
      <trkpt lat="44.09351" lon="6.30009">
        <ele>761.9821777</ele>
        <time>2010-10-23T12:00:11Z</time>
      </trkpt>
      <trkpt lat="44.09352" lon="6.30008">
        <ele>760.5400391</ele>
        <time>2010-10-23T12:00:12Z</time>
      </trkpt>
      <trkpt lat="44.09353" lon="6.30002">
        <ele>761.5014648</ele>
        <time>2010-10-23T12:00:17Z</time>
      </trkpt>
      <trkpt lat="44.09353" lon="6.29994">
        <ele>761.9821777</ele>
        <time>2010-10-23T12:00:21Z</time>
      </trkpt>
      <trkpt lat="44.09354" lon="6.29989">
        <ele>762.4626465</ele>
        <time>2010-10-23T12:00:27Z</time>
      </trkpt>
      <trkpt lat="44.09355" lon="6.29988">
        <ele>762.4626465</ele>
        <time>2010-10-23T12:00:29Z</time>
      </trkpt>
      <trkpt lat="44.09354" lon="6.2998">
        <ele>762.9433594</ele>
        <time>2010-10-23T12:00:36Z</time>
      </trkpt>
      <trkpt lat="44.09354" lon="6.29967">
        <ele>767.2695312</ele>
        <time>2010-10-23T12:00:41Z</time>
      </trkpt>
      <trkpt lat="44.09351" lon="6.29949">
        <ele>769.1921387</ele>
        <time>2010-10-23T12:00:48Z</time>
      </trkpt>
      <trkpt lat="44.09348" lon="6.29932">
        <ele>771.5952148</ele>
        <time>2010-10-23T12:00:56Z</time>
      </trkpt>
      <trkpt lat="44.09346" lon="6.2992">
        <ele>771.5952148</ele>
        <time>2010-10-23T12:01:02Z</time>
      </trkpt>
      <trkpt lat="44.09346" lon="6.29913">
        <ele>773.5180664</ele>
        <time>2010-10-23T12:01:06Z</time>
      </trkpt>
      <trkpt lat="44.09344" lon="6.29898">
        <ele>780.7280273</ele>
        <time>2010-10-23T12:01:13Z</time>
      </trkpt>
      <trkpt lat="44.09341" lon="6.29886">
        <ele>782.1699219</ele>
        <time>2010-10-23T12:01:19Z</time>
      </trkpt>
      <trkpt lat="44.09331" lon="6.29868">
        <ele>784.0925293</ele>
        <time>2010-10-23T12:01:27Z</time>
      </trkpt>
      <trkpt lat="44.09329" lon="6.29865">
        <ele>784.0925293</ele>
        <time>2010-10-23T12:01:30Z</time>
      </trkpt>
      <trkpt lat="44.09327" lon="6.2986">
        <ele>782.1699219</ele>
        <time>2010-10-23T12:01:36Z</time>
      </trkpt>
      <trkpt lat="44.09329" lon="6.2986">
        <ele>777.3632812</ele>
        <time>2010-10-23T12:02:13Z</time>
      </trkpt>
      <trkpt lat="44.09327" lon="6.29857">
        <ele>776.4018555</ele>
        <time>2010-10-23T12:02:31Z</time>
      </trkpt>
      <trkpt lat="44.09323" lon="6.29854">
        <ele>780.2473145</ele>
        <time>2010-10-23T12:02:59Z</time>
      </trkpt>
      <trkpt lat="44.0931" lon="6.29841">
        <ele>781.2087402</ele>
        <time>2010-10-23T12:03:05Z</time>
      </trkpt>
      <trkpt lat="44.09307" lon="6.29832">
        <ele>781.2087402</ele>
        <time>2010-10-23T12:03:08Z</time>
      </trkpt>
      <trkpt lat="44.09304" lon="6.29815">
        <ele>783.1311035</ele>
        <time>2010-10-23T12:03:13Z</time>
      </trkpt>
      <trkpt lat="44.09301" lon="6.2981">
        <ele>784.0925293</ele>
        <time>2010-10-23T12:03:15Z</time>
      </trkpt>
      <trkpt lat="44.09295" lon="6.29805">
        <ele>784.0925293</ele>
        <time>2010-10-23T12:03:17Z</time>
      </trkpt>
      <trkpt lat="44.09275" lon="6.29773">
        <ele>783.1311035</ele>
        <time>2010-10-23T12:03:23Z</time>
      </trkpt>
      <trkpt lat="44.09258" lon="6.29744">
        <ele>785.5344238</ele>
        <time>2010-10-23T12:03:30Z</time>
      </trkpt>
      <trkpt lat="44.09241" lon="6.29731">
        <ele>783.1311035</ele>
        <time>2010-10-23T12:03:35Z</time>
      </trkpt>
      <trkpt lat="44.09225" lon="6.29715">
        <ele>783.1311035</ele>
        <time>2010-10-23T12:03:39Z</time>
      </trkpt>
      <trkpt lat="44.09202" lon="6.29687">
        <ele>780.7280273</ele>
        <time>2010-10-23T12:03:45Z</time>
      </trkpt>
      <trkpt lat="44.09183" lon="6.29663">
        <ele>774.479248</ele>
        <time>2010-10-23T12:03:50Z</time>
      </trkpt>
      <trkpt lat="44.09166" lon="6.2965">
        <ele>772.5566406</ele>
        <time>2010-10-23T12:03:54Z</time>
      </trkpt>
      <trkpt lat="44.09161" lon="6.2964">
        <ele>772.0759277</ele>
        <time>2010-10-23T12:03:56Z</time>
      </trkpt>
      <trkpt lat="44.09156" lon="6.29629">
        <ele>771.5952148</ele>
        <time>2010-10-23T12:03:58Z</time>
      </trkpt>
      <trkpt lat="44.09145" lon="6.296">
        <ele>764.385498</ele>
        <time>2010-10-23T12:04:03Z</time>
      </trkpt>
      <trkpt lat="44.09141" lon="6.29612">
        <ele>761.9821777</ele>
        <time>2010-10-23T12:04:07Z</time>
      </trkpt>
      <trkpt lat="44.09143" lon="6.2963">
        <ele>759.0981445</ele>
        <time>2010-10-23T12:04:11Z</time>
      </trkpt>
      <trkpt lat="44.09148" lon="6.29647">
        <ele>754.7722168</ele>
        <time>2010-10-23T12:04:16Z</time>
      </trkpt>
      <trkpt lat="44.09147" lon="6.29645">
        <ele>751.8884277</ele>
        <time>2010-10-23T12:04:21Z</time>
      </trkpt>
      <trkpt lat="44.09143" lon="6.29644">
        <ele>750.4465332</ele>
        <time>2010-10-23T12:04:35Z</time>
      </trkpt>
      <trkpt lat="44.09142" lon="6.29645">
        <ele>753.3303223</ele>
        <time>2010-10-23T12:04:46Z</time>
      </trkpt>
      <trkpt lat="44.0914" lon="6.29646">
        <ele>753.3303223</ele>
        <time>2010-10-23T12:04:56Z</time>
      </trkpt>
      <trkpt lat="44.09139" lon="6.29645">
        <ele>754.291748</ele>
        <time>2010-10-23T12:05:11Z</time>
      </trkpt>
      <trkpt lat="44.09139" lon="6.29646">
        <ele>753.3303223</ele>
        <time>2010-10-23T12:05:30Z</time>
      </trkpt>
      <trkpt lat="44.09138" lon="6.29647">
        <ele>752.8496094</ele>
        <time>2010-10-23T12:05:42Z</time>
      </trkpt>
      <trkpt lat="44.09138" lon="6.29647">
        <ele>754.291748</ele>
        <time>2010-10-23T12:05:52Z</time>
      </trkpt>
      <trkpt lat="44.09136" lon="6.29648">
        <ele>757.1755371</ele>
        <time>2010-10-23T12:06:08Z</time>
      </trkpt>
      <trkpt lat="44.09136" lon="6.29646">
        <ele>758.1369629</ele>
        <time>2010-10-23T12:06:28Z</time>
      </trkpt>
      <trkpt lat="44.09136" lon="6.29647">
        <ele>758.6174316</ele>
        <time>2010-10-23T12:06:39Z</time>
      </trkpt>
      <trkpt lat="44.09135" lon="6.29647">
        <ele>758.6174316</ele>
        <time>2010-10-23T12:06:54Z</time>
      </trkpt>
      <trkpt lat="44.09135" lon="6.29647">
        <ele>760.0593262</ele>
        <time>2010-10-23T12:07:06Z</time>
      </trkpt>
      <trkpt lat="44.09136" lon="6.29647">
        <ele>756.6948242</ele>
        <time>2010-10-23T12:07:26Z</time>
      </trkpt>
      <trkpt lat="44.09136" lon="6.29644">
        <ele>754.291748</ele>
        <time>2010-10-23T12:07:38Z</time>
      </trkpt>
      <trkpt lat="44.09137" lon="6.29644">
        <ele>750.927002</ele>
        <time>2010-10-23T12:07:59Z</time>
      </trkpt>
      <trkpt lat="44.09137" lon="6.29645">
        <ele>751.8884277</ele>
        <time>2010-10-23T12:08:16Z</time>
      </trkpt>
      <trkpt lat="44.09137" lon="6.29646">
        <ele>752.8496094</ele>
        <time>2010-10-23T12:08:27Z</time>
      </trkpt>
      <trkpt lat="44.09136" lon="6.29645">
        <ele>753.8110352</ele>
        <time>2010-10-23T12:08:48Z</time>
      </trkpt>
      <trkpt lat="44.09137" lon="6.29646">
        <ele>755.2529297</ele>
        <time>2010-10-23T12:09:01Z</time>
      </trkpt>
      <trkpt lat="44.09137" lon="6.29647">
        <ele>757.65625</ele>
        <time>2010-10-23T12:09:14Z</time>
      </trkpt>
      <trkpt lat="44.09137" lon="6.29646">
        <ele>757.65625</ele>
        <time>2010-10-23T12:09:31Z</time>
      </trkpt>
      <trkpt lat="44.09136" lon="6.29647">
        <ele>759.0981445</ele>
        <time>2010-10-23T12:09:47Z</time>
      </trkpt>
      <trkpt lat="44.09136" lon="6.29647">
        <ele>760.5400391</ele>
        <time>2010-10-23T12:09:59Z</time>
      </trkpt>
      <trkpt lat="44.09136" lon="6.29645">
        <ele>761.5014648</ele>
        <time>2010-10-23T12:10:05Z</time>
      </trkpt>
      <trkpt lat="44.09137" lon="6.29644">
        <ele>761.5014648</ele>
        <time>2010-10-23T12:10:13Z</time>
      </trkpt>
      <trkpt lat="44.09141" lon="6.29653">
        <ele>762.4626465</ele>
        <time>2010-10-23T12:10:19Z</time>
      </trkpt>
      <trkpt lat="44.09152" lon="6.29672">
        <ele>766.7888184</ele>
        <time>2010-10-23T12:10:27Z</time>
      </trkpt>
      <trkpt lat="44.09162" lon="6.29689">
        <ele>768.2307129</ele>
        <time>2010-10-23T12:10:34Z</time>
      </trkpt>
      <trkpt lat="44.09175" lon="6.29707">
        <ele>771.5952148</ele>
        <time>2010-10-23T12:10:41Z</time>
      </trkpt>
      <trkpt lat="44.09189" lon="6.29728">
        <ele>777.84375</ele>
        <time>2010-10-23T12:10:48Z</time>
      </trkpt>
      <trkpt lat="44.092" lon="6.2974">
        <ele>779.2856445</ele>
        <time>2010-10-23T12:10:53Z</time>
      </trkpt>
      <trkpt lat="44.09206" lon="6.29753">
        <ele>780.7280273</ele>
        <time>2010-10-23T12:10:57Z</time>
      </trkpt>
      <trkpt lat="44.09202" lon="6.29769">
        <ele>782.6506348</ele>
        <time>2010-10-23T12:11:01Z</time>
      </trkpt>
      <trkpt lat="44.09201" lon="6.29771">
        <ele>783.1311035</ele>
        <time>2010-10-23T12:11:02Z</time>
      </trkpt>
      <trkpt lat="44.09203" lon="6.29773">
        <ele>766.7888184</ele>
        <time>2010-10-23T12:11:07Z</time>
      </trkpt>
      <trkpt lat="44.09207" lon="6.29778">
        <ele>762.4626465</ele>
        <time>2010-10-23T12:11:17Z</time>
      </trkpt>
      <trkpt lat="44.09208" lon="6.2978">
        <ele>761.9821777</ele>
        <time>2010-10-23T12:11:23Z</time>
      </trkpt>
      <trkpt lat="44.09208" lon="6.29775">
        <ele>765.3469238</ele>
        <time>2010-10-23T12:11:40Z</time>
      </trkpt>
      <trkpt lat="44.09212" lon="6.29779">
        <ele>763.904541</ele>
        <time>2010-10-23T12:11:46Z</time>
      </trkpt>
      <trkpt lat="44.09215" lon="6.29779">
        <ele>769.1921387</ele>
        <time>2010-10-23T12:11:52Z</time>
      </trkpt>
      <trkpt lat="44.09218" lon="6.29781">
        <ele>771.5952148</ele>
        <time>2010-10-23T12:11:57Z</time>
      </trkpt>
      <trkpt lat="44.09226" lon="6.29786">
        <ele>775.9211426</ele>
        <time>2010-10-23T12:12:06Z</time>
      </trkpt>
      <trkpt lat="44.09229" lon="6.29782">
        <ele>778.3244629</ele>
        <time>2010-10-23T12:12:11Z</time>
      </trkpt>
      <trkpt lat="44.09234" lon="6.29797">
        <ele>739.8718262</ele>
        <time>2010-10-23T12:16:07Z</time>
      </trkpt>
      <trkpt lat="44.09244" lon="6.29801">
        <ele>727.3747559</ele>
        <time>2010-10-23T12:16:34Z</time>
      </trkpt>
      <trkpt lat="44.09238" lon="6.298">
        <ele>722.0874023</ele>
        <time>2010-10-23T12:17:04Z</time>
      </trkpt>
      <trkpt lat="44.09238" lon="6.29796">
        <ele>763.904541</ele>
        <time>2010-10-23T12:18:39Z</time>
      </trkpt>
      <trkpt lat="44.09224" lon="6.29809">
        <ele>776.4018555</ele>
        <time>2010-10-23T12:21:38Z</time>
      </trkpt>
      <trkpt lat="44.09223" lon="6.29804">
        <ele>781.2087402</ele>
        <time>2010-10-23T12:21:48Z</time>
      </trkpt>
      <trkpt lat="44.09228" lon="6.29798">
        <ele>796.1091309</ele>
        <time>2010-10-23T12:21:56Z</time>
      </trkpt>
      <trkpt lat="44.09222" lon="6.29801">
        <ele>780.7280273</ele>
        <time>2010-10-23T12:22:02Z</time>
      </trkpt>
      <trkpt lat="44.09216" lon="6.29805">
        <ele>765.8276367</ele>
        <time>2010-10-23T12:22:08Z</time>
      </trkpt>
      <trkpt lat="44.09208" lon="6.298">
        <ele>764.385498</ele>
        <time>2010-10-23T12:22:18Z</time>
      </trkpt>
      <trkpt lat="44.09218" lon="6.29801">
        <ele>772.5566406</ele>
        <time>2010-10-23T12:22:28Z</time>
      </trkpt>
      <trkpt lat="44.09234" lon="6.29792">
        <ele>771.1147461</ele>
        <time>2010-10-23T12:23:04Z</time>
      </trkpt>
      <trkpt lat="44.09236" lon="6.29794">
        <ele>769.1921387</ele>
        <time>2010-10-23T12:23:09Z</time>
      </trkpt>
      <trkpt lat="44.09235" lon="6.29796">
        <ele>772.5566406</ele>
        <time>2010-10-23T12:23:25Z</time>
      </trkpt>
      <trkpt lat="44.09239" lon="6.29801">
        <ele>771.1147461</ele>
        <time>2010-10-23T12:23:41Z</time>
      </trkpt>
      <trkpt lat="44.09235" lon="6.29802">
        <ele>770.1533203</ele>
        <time>2010-10-23T12:23:47Z</time>
      </trkpt>
      <trkpt lat="44.09235" lon="6.29802">
        <ele>772.5566406</ele>
        <time>2010-10-23T12:24:22Z</time>
      </trkpt>
      <trkpt lat="44.09238" lon="6.29797">
        <ele>778.8051758</ele>
        <time>2010-10-23T12:24:40Z</time>
      </trkpt>
      <trkpt lat="44.09246" lon="6.29803">
        <ele>764.385498</ele>
        <time>2010-10-23T12:25:01Z</time>
      </trkpt>
      <trkpt lat="44.09233" lon="6.29807">
        <ele>802.3574219</ele>
        <time>2010-10-23T12:28:24Z</time>
      </trkpt>
      <trkpt lat="44.09237" lon="6.29808">
        <ele>801.3962402</ele>
        <time>2010-10-23T12:28:31Z</time>
      </trkpt>
      <trkpt lat="44.09242" lon="6.2981">
        <ele>797.5510254</ele>
        <time>2010-10-23T12:28:40Z</time>
      </trkpt>
      <trkpt lat="44.09246" lon="6.29812">
        <ele>795.6281738</ele>
        <time>2010-10-23T12:28:48Z</time>
      </trkpt>
      <trkpt lat="44.09232" lon="6.29813">
        <ele>791.3022461</ele>
        <time>2010-10-23T12:28:54Z</time>
      </trkpt>
      <trkpt lat="44.09229" lon="6.29812">
        <ele>789.8603516</ele>
        <time>2010-10-23T12:29:04Z</time>
      </trkpt>
      <trkpt lat="44.09221" lon="6.29807">
        <ele>784.5732422</ele>
        <time>2010-10-23T12:29:26Z</time>
      </trkpt>
      <trkpt lat="44.09246" lon="6.29822">
        <ele>748.5236816</ele>
        <time>2010-10-23T12:30:11Z</time>
      </trkpt>
      <trkpt lat="44.09206" lon="6.29797">
        <ele>766.3081055</ele>
        <time>2010-10-23T12:31:08Z</time>
      </trkpt>
      <trkpt lat="44.09215" lon="6.29798">
        <ele>767.75</ele>
        <time>2010-10-23T12:31:16Z</time>
      </trkpt>
      <trkpt lat="44.09223" lon="6.29795">
        <ele>765.8276367</ele>
        <time>2010-10-23T12:31:49Z</time>
      </trkpt>
      <trkpt lat="44.09234" lon="6.29807">
        <ele>776.4018555</ele>
        <time>2010-10-23T12:32:21Z</time>
      </trkpt>
      <trkpt lat="44.09218" lon="6.29775">
        <ele>829.755127</ele>
        <time>2010-10-23T12:33:49Z</time>
      </trkpt>
      <trkpt lat="44.0923" lon="6.29783">
        <ele>788.8991699</ele>
        <time>2010-10-23T12:36:00Z</time>
      </trkpt>
      <trkpt lat="44.0922" lon="6.29775">
        <ele>794.666748</ele>
        <time>2010-10-23T12:36:22Z</time>
      </trkpt>
      <trkpt lat="44.09248" lon="6.29779">
        <ele>783.6118164</ele>
        <time>2010-10-23T12:36:47Z</time>
      </trkpt>
      <trkpt lat="44.0924" lon="6.29778">
        <ele>785.0539551</ele>
        <time>2010-10-23T12:36:51Z</time>
      </trkpt>
      <trkpt lat="44.09221" lon="6.29771">
        <ele>789.8603516</ele>
        <time>2010-10-23T12:36:57Z</time>
      </trkpt>
      <trkpt lat="44.0921" lon="6.29761">
        <ele>790.3410645</ele>
        <time>2010-10-23T12:37:02Z</time>
      </trkpt>
      <trkpt lat="44.09195" lon="6.29755">
        <ele>796.1091309</ele>
        <time>2010-10-23T12:37:08Z</time>
      </trkpt>
      <trkpt lat="44.09198" lon="6.29755">
        <ele>795.1474609</ele>
        <time>2010-10-23T12:37:10Z</time>
      </trkpt>
      <trkpt lat="44.09204" lon="6.29751">
        <ele>794.666748</ele>
        <time>2010-10-23T12:37:15Z</time>
      </trkpt>
      <trkpt lat="44.09189" lon="6.29745">
        <ele>790.8215332</ele>
        <time>2010-10-23T12:37:21Z</time>
      </trkpt>
      <trkpt lat="44.09176" lon="6.29727">
        <ele>794.666748</ele>
        <time>2010-10-23T12:37:28Z</time>
      </trkpt>
      <trkpt lat="44.09163" lon="6.29722">
        <ele>790.8215332</ele>
        <time>2010-10-23T12:37:35Z</time>
      </trkpt>
      <trkpt lat="44.09153" lon="6.29712">
        <ele>790.3410645</ele>
        <time>2010-10-23T12:37:42Z</time>
      </trkpt>
      <trkpt lat="44.09134" lon="6.2971">
        <ele>788.418457</ele>
        <time>2010-10-23T12:37:49Z</time>
      </trkpt>
      <trkpt lat="44.09123" lon="6.29705">
        <ele>785.0539551</ele>
        <time>2010-10-23T12:37:54Z</time>
      </trkpt>
      <trkpt lat="44.09107" lon="6.29692">
        <ele>789.8603516</ele>
        <time>2010-10-23T12:38:02Z</time>
      </trkpt>
      <trkpt lat="44.09096" lon="6.29683">
        <ele>792.2636719</ele>
        <time>2010-10-23T12:38:08Z</time>
      </trkpt>
      <trkpt lat="44.09086" lon="6.29687">
        <ele>796.1091309</ele>
        <time>2010-10-23T12:38:13Z</time>
      </trkpt>
      <trkpt lat="44.09076" lon="6.297">
        <ele>800.4350586</ele>
        <time>2010-10-23T12:38:20Z</time>
      </trkpt>
      <trkpt lat="44.09072" lon="6.29719">
        <ele>783.6118164</ele>
        <time>2010-10-23T12:38:28Z</time>
      </trkpt>
      <trkpt lat="44.09068" lon="6.29735">
        <ele>782.1699219</ele>
        <time>2010-10-23T12:38:35Z</time>
      </trkpt>
      <trkpt lat="44.09066" lon="6.29767">
        <ele>782.6506348</ele>
        <time>2010-10-23T12:38:47Z</time>
      </trkpt>
      <trkpt lat="44.09066" lon="6.29788">
        <ele>783.1311035</ele>
        <time>2010-10-23T12:38:54Z</time>
      </trkpt>
      <trkpt lat="44.09069" lon="6.29803">
        <ele>786.0151367</ele>
        <time>2010-10-23T12:39:01Z</time>
      </trkpt>
      <trkpt lat="44.09071" lon="6.2982">
        <ele>790.8215332</ele>
        <time>2010-10-23T12:39:09Z</time>
      </trkpt>
      <trkpt lat="44.09073" lon="6.29839">
        <ele>792.7443848</ele>
        <time>2010-10-23T12:39:17Z</time>
      </trkpt>
      <trkpt lat="44.09078" lon="6.29853">
        <ele>794.666748</ele>
        <time>2010-10-23T12:39:24Z</time>
      </trkpt>
      <trkpt lat="44.09088" lon="6.29872">
        <ele>785.5344238</ele>
        <time>2010-10-23T12:39:30Z</time>
      </trkpt>
      <trkpt lat="44.09093" lon="6.29877">
        <ele>786.9763184</ele>
        <time>2010-10-23T12:39:34Z</time>
      </trkpt>
      <trkpt lat="44.09101" lon="6.29885">
        <ele>788.8991699</ele>
        <time>2010-10-23T12:39:40Z</time>
      </trkpt>
      <trkpt lat="44.09116" lon="6.29902">
        <ele>786.4958496</ele>
        <time>2010-10-23T12:39:49Z</time>
      </trkpt>
      <trkpt lat="44.09122" lon="6.29914">
        <ele>787.9377441</ele>
        <time>2010-10-23T12:39:55Z</time>
      </trkpt>
      <trkpt lat="44.0913" lon="6.29927">
        <ele>788.418457</ele>
        <time>2010-10-23T12:40:01Z</time>
      </trkpt>
      <trkpt lat="44.0914" lon="6.29941">
        <ele>791.3022461</ele>
        <time>2010-10-23T12:40:09Z</time>
      </trkpt>
      <trkpt lat="44.0915" lon="6.29951">
        <ele>794.1862793</ele>
        <time>2010-10-23T12:40:16Z</time>
      </trkpt>
      <trkpt lat="44.09164" lon="6.29963">
        <ele>798.512207</ele>
        <time>2010-10-23T12:40:25Z</time>
      </trkpt>
      <trkpt lat="44.09177" lon="6.29975">
        <ele>803.7995605</ele>
        <time>2010-10-23T12:40:34Z</time>
      </trkpt>
      <trkpt lat="44.09189" lon="6.29988">
        <ele>805.722168</ele>
        <time>2010-10-23T12:40:42Z</time>
      </trkpt>
      <trkpt lat="44.092" lon="6.29999">
        <ele>807.6447754</ele>
        <time>2010-10-23T12:40:49Z</time>
      </trkpt>
      <trkpt lat="44.09213" lon="6.30009">
        <ele>809.5673828</ele>
        <time>2010-10-23T12:40:57Z</time>
      </trkpt>
      <trkpt lat="44.09223" lon="6.30012">
        <ele>811.0092773</ele>
        <time>2010-10-23T12:41:03Z</time>
      </trkpt>
      <trkpt lat="44.09234" lon="6.30025">
        <ele>808.605957</ele>
        <time>2010-10-23T12:41:09Z</time>
      </trkpt>
      <trkpt lat="44.0924" lon="6.30032">
        <ele>805.2414551</ele>
        <time>2010-10-23T12:41:12Z</time>
      </trkpt>
      <trkpt lat="44.09243" lon="6.30054">
        <ele>805.2414551</ele>
        <time>2010-10-23T12:41:20Z</time>
      </trkpt>
      <trkpt lat="44.09242" lon="6.30073">
        <ele>808.605957</ele>
        <time>2010-10-23T12:41:28Z</time>
      </trkpt>
      <trkpt lat="44.09233" lon="6.30086">
        <ele>812.451416</ele>
        <time>2010-10-23T12:41:34Z</time>
      </trkpt>
      <trkpt lat="44.09222" lon="6.30097">
        <ele>808.1254883</ele>
        <time>2010-10-23T12:41:42Z</time>
      </trkpt>
      <trkpt lat="44.09208" lon="6.301">
        <ele>809.5673828</ele>
        <time>2010-10-23T12:41:49Z</time>
      </trkpt>
      <trkpt lat="44.09203" lon="6.301">
        <ele>808.1254883</ele>
        <time>2010-10-23T12:41:54Z</time>
      </trkpt>
      <trkpt lat="44.09193" lon="6.30096">
        <ele>807.1640625</ele>
        <time>2010-10-23T12:42:00Z</time>
      </trkpt>
      <trkpt lat="44.0918" lon="6.3009">
        <ele>805.2414551</ele>
        <time>2010-10-23T12:42:07Z</time>
      </trkpt>
      <trkpt lat="44.09169" lon="6.30086">
        <ele>802.8381348</ele>
        <time>2010-10-23T12:42:14Z</time>
      </trkpt>
      <trkpt lat="44.09158" lon="6.30076">
        <ele>800.4350586</ele>
        <time>2010-10-23T12:42:22Z</time>
      </trkpt>
      <trkpt lat="44.09144" lon="6.30073">
        <ele>800.9155273</ele>
        <time>2010-10-23T12:42:29Z</time>
      </trkpt>
      <trkpt lat="44.09126" lon="6.3007">
        <ele>801.3962402</ele>
        <time>2010-10-23T12:42:38Z</time>
      </trkpt>
      <trkpt lat="44.09112" lon="6.30064">
        <ele>803.7995605</ele>
        <time>2010-10-23T12:42:44Z</time>
      </trkpt>
      <trkpt lat="44.09098" lon="6.30054">
        <ele>806.6833496</ele>
        <time>2010-10-23T12:42:50Z</time>
      </trkpt>
      <trkpt lat="44.09084" lon="6.30041">
        <ele>810.0478516</ele>
        <time>2010-10-23T12:42:58Z</time>
      </trkpt>
      <trkpt lat="44.09072" lon="6.30039">
        <ele>809.5673828</ele>
        <time>2010-10-23T12:43:04Z</time>
      </trkpt>
      <trkpt lat="44.09066" lon="6.3005">
        <ele>809.5673828</ele>
        <time>2010-10-23T12:43:09Z</time>
      </trkpt>
      <trkpt lat="44.09062" lon="6.30064">
        <ele>811.4899902</ele>
        <time>2010-10-23T12:43:15Z</time>
      </trkpt>
      <trkpt lat="44.09056" lon="6.30062">
        <ele>812.9321289</ele>
        <time>2010-10-23T12:43:20Z</time>
      </trkpt>
      <trkpt lat="44.09055" lon="6.3006">
        <ele>813.4128418</ele>
        <time>2010-10-23T12:43:21Z</time>
      </trkpt>
      <trkpt lat="44.09049" lon="6.30035">
        <ele>816.2966309</ele>
        <time>2010-10-23T12:43:30Z</time>
      </trkpt>
      <trkpt lat="44.09043" lon="6.3002">
        <ele>817.7385254</ele>
        <time>2010-10-23T12:43:36Z</time>
      </trkpt>
      <trkpt lat="44.0903" lon="6.30011">
        <ele>819.1806641</ele>
        <time>2010-10-23T12:43:43Z</time>
      </trkpt>
      <trkpt lat="44.09023" lon="6.30012">
        <ele>820.6225586</ele>
        <time>2010-10-23T12:43:48Z</time>
      </trkpt>
      <trkpt lat="44.09016" lon="6.30021">
        <ele>820.6225586</ele>
        <time>2010-10-23T12:43:53Z</time>
      </trkpt>
      <trkpt lat="44.09016" lon="6.3004">
        <ele>821.1032715</ele>
        <time>2010-10-23T12:44:00Z</time>
      </trkpt>
      <trkpt lat="44.09016" lon="6.30061">
        <ele>824.9484863</ele>
        <time>2010-10-23T12:44:08Z</time>
      </trkpt>
      <trkpt lat="44.09018" lon="6.3008">
        <ele>827.8322754</ele>
        <time>2010-10-23T12:44:16Z</time>
      </trkpt>
      <trkpt lat="44.09015" lon="6.30096">
        <ele>828.3132324</ele>
        <time>2010-10-23T12:44:23Z</time>
      </trkpt>
      <trkpt lat="44.09011" lon="6.30118">
        <ele>829.755127</ele>
        <time>2010-10-23T12:44:31Z</time>
      </trkpt>
      <trkpt lat="44.08999" lon="6.30135">
        <ele>832.6391602</ele>
        <time>2010-10-23T12:44:39Z</time>
      </trkpt>
      <trkpt lat="44.08991" lon="6.30149">
        <ele>835.5229492</ele>
        <time>2010-10-23T12:44:46Z</time>
      </trkpt>
      <trkpt lat="44.08979" lon="6.30162">
        <ele>840.8100586</ele>
        <time>2010-10-23T12:44:54Z</time>
      </trkpt>
      <trkpt lat="44.08968" lon="6.30173">
        <ele>844.6555176</ele>
        <time>2010-10-23T12:45:01Z</time>
      </trkpt>
      <trkpt lat="44.08955" lon="6.30179">
        <ele>845.1362305</ele>
        <time>2010-10-23T12:45:09Z</time>
      </trkpt>
      <trkpt lat="44.0894" lon="6.30178">
        <ele>850.9040527</ele>
        <time>2010-10-23T12:45:16Z</time>
      </trkpt>
      <trkpt lat="44.08931" lon="6.30177">
        <ele>848.5007324</ele>
        <time>2010-10-23T12:45:22Z</time>
      </trkpt>
      <trkpt lat="44.08916" lon="6.30172">
        <ele>852.3459473</ele>
        <time>2010-10-23T12:45:29Z</time>
      </trkpt>
      <trkpt lat="44.089" lon="6.30169">
        <ele>854.7492676</ele>
        <time>2010-10-23T12:45:36Z</time>
      </trkpt>
      <trkpt lat="44.08878" lon="6.30163">
        <ele>861.9594727</ele>
        <time>2010-10-23T12:45:45Z</time>
      </trkpt>
      <trkpt lat="44.08867" lon="6.30162">
        <ele>862.4399414</ele>
        <time>2010-10-23T12:45:51Z</time>
      </trkpt>
      <trkpt lat="44.08849" lon="6.30167">
        <ele>855.2299805</ele>
        <time>2010-10-23T12:46:00Z</time>
      </trkpt>
      <trkpt lat="44.0883" lon="6.30176">
        <ele>853.7880859</ele>
        <time>2010-10-23T12:46:11Z</time>
      </trkpt>
      <trkpt lat="44.08821" lon="6.30187">
        <ele>853.7880859</ele>
        <time>2010-10-23T12:46:18Z</time>
      </trkpt>
      <trkpt lat="44.08818" lon="6.30189">
        <ele>855.2299805</ele>
        <time>2010-10-23T12:46:20Z</time>
      </trkpt>
      <trkpt lat="44.08817" lon="6.302">
        <ele>854.2687988</ele>
        <time>2010-10-23T12:46:26Z</time>
      </trkpt>
      <trkpt lat="44.08823" lon="6.30204">
        <ele>855.2299805</ele>
        <time>2010-10-23T12:46:30Z</time>
      </trkpt>
      <trkpt lat="44.08832" lon="6.30206">
        <ele>857.6333008</ele>
        <time>2010-10-23T12:46:35Z</time>
      </trkpt>
      <trkpt lat="44.08843" lon="6.30215">
        <ele>860.0366211</ele>
        <time>2010-10-23T12:46:43Z</time>
      </trkpt>
      <trkpt lat="44.08845" lon="6.30224">
        <ele>861.4787598</ele>
        <time>2010-10-23T12:46:47Z</time>
      </trkpt>
      <trkpt lat="44.08839" lon="6.30226">
        <ele>863.4013672</ele>
        <time>2010-10-23T12:46:52Z</time>
      </trkpt>
      <trkpt lat="44.08834" lon="6.30227">
        <ele>864.3625488</ele>
        <time>2010-10-23T12:46:55Z</time>
      </trkpt>
      <trkpt lat="44.08813" lon="6.30231">
        <ele>866.2851562</ele>
        <time>2010-10-23T12:47:05Z</time>
      </trkpt>
      <trkpt lat="44.08798" lon="6.30246">
        <ele>865.3239746</ele>
        <time>2010-10-23T12:47:14Z</time>
      </trkpt>
      <trkpt lat="44.08793" lon="6.30255">
        <ele>866.7658691</ele>
        <time>2010-10-23T12:47:19Z</time>
      </trkpt>
      <trkpt lat="44.0878" lon="6.30258">
        <ele>874.9370117</ele>
        <time>2010-10-23T12:47:25Z</time>
      </trkpt>
      <trkpt lat="44.08775" lon="6.30265">
        <ele>869.6499023</ele>
        <time>2010-10-23T12:47:31Z</time>
      </trkpt>
      <trkpt lat="44.08767" lon="6.30266">
        <ele>868.2077637</ele>
        <time>2010-10-23T12:47:38Z</time>
      </trkpt>
      <trkpt lat="44.08757" lon="6.30269">
        <ele>870.1303711</ele>
        <time>2010-10-23T12:47:45Z</time>
      </trkpt>
      <trkpt lat="44.08751" lon="6.30278">
        <ele>873.4951172</ele>
        <time>2010-10-23T12:47:52Z</time>
      </trkpt>
      <trkpt lat="44.08749" lon="6.30282">
        <ele>878.3017578</ele>
        <time>2010-10-23T12:47:54Z</time>
      </trkpt>
      <trkpt lat="44.0875" lon="6.30286">
        <ele>881.185791</ele>
        <time>2010-10-23T12:47:57Z</time>
      </trkpt>
      <trkpt lat="44.08747" lon="6.30292">
        <ele>886.9533691</ele>
        <time>2010-10-23T12:48:01Z</time>
      </trkpt>
      <trkpt lat="44.08739" lon="6.30301">
        <ele>894.644043</ele>
        <time>2010-10-23T12:48:08Z</time>
      </trkpt>
      <trkpt lat="44.08734" lon="6.30301">
        <ele>891.7600098</ele>
        <time>2010-10-23T12:48:14Z</time>
      </trkpt>
      <trkpt lat="44.08725" lon="6.30296">
        <ele>894.644043</ele>
        <time>2010-10-23T12:48:21Z</time>
      </trkpt>
      <trkpt lat="44.08718" lon="6.30302">
        <ele>888.8762207</ele>
        <time>2010-10-23T12:48:28Z</time>
      </trkpt>
      <trkpt lat="44.08712" lon="6.30313">
        <ele>892.2409668</ele>
        <time>2010-10-23T12:48:34Z</time>
      </trkpt>
      <trkpt lat="44.08715" lon="6.30325">
        <ele>892.7216797</ele>
        <time>2010-10-23T12:48:40Z</time>
      </trkpt>
      <trkpt lat="44.08713" lon="6.30342">
        <ele>895.1247559</ele>
        <time>2010-10-23T12:48:47Z</time>
      </trkpt>
      <trkpt lat="44.0872" lon="6.30359">
        <ele>893.6828613</ele>
        <time>2010-10-23T12:48:56Z</time>
      </trkpt>
      <trkpt lat="44.08722" lon="6.30375">
        <ele>898.4892578</ele>
        <time>2010-10-23T12:49:04Z</time>
      </trkpt>
      <trkpt lat="44.08729" lon="6.30392">
        <ele>900.8925781</ele>
        <time>2010-10-23T12:49:13Z</time>
      </trkpt>
      <trkpt lat="44.08731" lon="6.30412">
        <ele>898.9699707</ele>
        <time>2010-10-23T12:49:21Z</time>
      </trkpt>
      <trkpt lat="44.08725" lon="6.30418">
        <ele>900.4121094</ele>
        <time>2010-10-23T12:49:25Z</time>
      </trkpt>
      <trkpt lat="44.08717" lon="6.3041">
        <ele>900.8925781</ele>
        <time>2010-10-23T12:49:31Z</time>
      </trkpt>
      <trkpt lat="44.08705" lon="6.30399">
        <ele>902.8151855</ele>
        <time>2010-10-23T12:49:39Z</time>
      </trkpt>
      <trkpt lat="44.08694" lon="6.30401">
        <ele>905.2185059</ele>
        <time>2010-10-23T12:49:45Z</time>
      </trkpt>
      <trkpt lat="44.08693" lon="6.30413">
        <ele>898.9699707</ele>
        <time>2010-10-23T12:49:50Z</time>
      </trkpt>
      <trkpt lat="44.08695" lon="6.30423">
        <ele>899.4506836</ele>
        <time>2010-10-23T12:49:54Z</time>
      </trkpt>
      <trkpt lat="44.087" lon="6.30436">
        <ele>902.3344727</ele>
        <time>2010-10-23T12:50:00Z</time>
      </trkpt>
      <trkpt lat="44.08704" lon="6.30441">
        <ele>902.8151855</ele>
        <time>2010-10-23T12:50:03Z</time>
      </trkpt>
      <trkpt lat="44.08713" lon="6.30449">
        <ele>904.737793</ele>
        <time>2010-10-23T12:50:10Z</time>
      </trkpt>
      <trkpt lat="44.08712" lon="6.30458">
        <ele>906.1796875</ele>
        <time>2010-10-23T12:50:14Z</time>
      </trkpt>
      <trkpt lat="44.08704" lon="6.30461">
        <ele>906.6604004</ele>
        <time>2010-10-23T12:50:19Z</time>
      </trkpt>
      <trkpt lat="44.0869" lon="6.30468">
        <ele>909.0639648</ele>
        <time>2010-10-23T12:50:27Z</time>
      </trkpt>
      <trkpt lat="44.08688" lon="6.30483">
        <ele>910.5058594</ele>
        <time>2010-10-23T12:50:33Z</time>
      </trkpt>
      <trkpt lat="44.08691" lon="6.30496">
        <ele>913.8703613</ele>
        <time>2010-10-23T12:50:40Z</time>
      </trkpt>
      <trkpt lat="44.08695" lon="6.30504">
        <ele>914.8317871</ele>
        <time>2010-10-23T12:50:46Z</time>
      </trkpt>
      <trkpt lat="44.08696" lon="6.30508">
        <ele>912.9091797</ele>
        <time>2010-10-23T12:50:48Z</time>
      </trkpt>
      <trkpt lat="44.08706" lon="6.30521">
        <ele>914.8317871</ele>
        <time>2010-10-23T12:50:56Z</time>
      </trkpt>
      <trkpt lat="44.08711" lon="6.30531">
        <ele>915.7932129</ele>
        <time>2010-10-23T12:51:02Z</time>
      </trkpt>
      <trkpt lat="44.08718" lon="6.30543">
        <ele>917.2351074</ele>
        <time>2010-10-23T12:51:09Z</time>
      </trkpt>
      <trkpt lat="44.08726" lon="6.30553">
        <ele>918.677002</ele>
        <time>2010-10-23T12:51:16Z</time>
      </trkpt>
      <trkpt lat="44.08732" lon="6.30567">
        <ele>919.1577148</ele>
        <time>2010-10-23T12:51:23Z</time>
      </trkpt>
      <trkpt lat="44.08742" lon="6.30586">
        <ele>922.5222168</ele>
        <time>2010-10-23T12:51:33Z</time>
      </trkpt>
      <trkpt lat="44.08749" lon="6.30601">
        <ele>925.40625</ele>
        <time>2010-10-23T12:51:41Z</time>
      </trkpt>
      <trkpt lat="44.0876" lon="6.3061">
        <ele>927.3291016</ele>
        <time>2010-10-23T12:51:48Z</time>
      </trkpt>
      <trkpt lat="44.08772" lon="6.30604">
        <ele>928.7709961</ele>
        <time>2010-10-23T12:51:55Z</time>
      </trkpt>
      <trkpt lat="44.08781" lon="6.30594">
        <ele>929.7321777</ele>
        <time>2010-10-23T12:52:01Z</time>
      </trkpt>
      <trkpt lat="44.08792" lon="6.30584">
        <ele>931.6547852</ele>
        <time>2010-10-23T12:52:08Z</time>
      </trkpt>
      <trkpt lat="44.08806" lon="6.3057">
        <ele>934.0581055</ele>
        <time>2010-10-23T12:52:17Z</time>
      </trkpt>
      <trkpt lat="44.08819" lon="6.30558">
        <ele>935.9807129</ele>
        <time>2010-10-23T12:52:25Z</time>
      </trkpt>
      <trkpt lat="44.08822" lon="6.30556">
        <ele>935.9807129</ele>
        <time>2010-10-23T12:52:27Z</time>
      </trkpt>
      <trkpt lat="44.0883" lon="6.30557">
        <ele>935.0195312</ele>
        <time>2010-10-23T12:52:31Z</time>
      </trkpt>
      <trkpt lat="44.08844" lon="6.30566">
        <ele>939.3452148</ele>
        <time>2010-10-23T12:52:40Z</time>
      </trkpt>
      <trkpt lat="44.08856" lon="6.30573">
        <ele>944.6325684</ele>
        <time>2010-10-23T12:52:48Z</time>
      </trkpt>
      <trkpt lat="44.0887" lon="6.30574">
        <ele>944.6325684</ele>
        <time>2010-10-23T12:52:55Z</time>
      </trkpt>
      <trkpt lat="44.0888" lon="6.3057">
        <ele>947.0358887</ele>
        <time>2010-10-23T12:53:01Z</time>
      </trkpt>
      <trkpt lat="44.08895" lon="6.30564">
        <ele>947.5166016</ele>
        <time>2010-10-23T12:53:09Z</time>
      </trkpt>
      <trkpt lat="44.0891" lon="6.30566">
        <ele>949.9199219</ele>
        <time>2010-10-23T12:53:17Z</time>
      </trkpt>
      <trkpt lat="44.08926" lon="6.30566">
        <ele>951.8425293</ele>
        <time>2010-10-23T12:53:25Z</time>
      </trkpt>
      <trkpt lat="44.08945" lon="6.30572">
        <ele>951.8425293</ele>
        <time>2010-10-23T12:53:34Z</time>
      </trkpt>
      <trkpt lat="44.08947" lon="6.30585">
        <ele>953.2844238</ele>
        <time>2010-10-23T12:53:40Z</time>
      </trkpt>
      <trkpt lat="44.08945" lon="6.30588">
        <ele>953.7651367</ele>
        <time>2010-10-23T12:53:42Z</time>
      </trkpt>
      <trkpt lat="44.08932" lon="6.30593">
        <ele>948.9584961</ele>
        <time>2010-10-23T12:53:51Z</time>
      </trkpt>
      <trkpt lat="44.08918" lon="6.30598">
        <ele>950.8811035</ele>
        <time>2010-10-23T12:53:58Z</time>
      </trkpt>
      <trkpt lat="44.08909" lon="6.30608">
        <ele>952.322998</ele>
        <time>2010-10-23T12:54:04Z</time>
      </trkpt>
      <trkpt lat="44.08899" lon="6.30624">
        <ele>951.3618164</ele>
        <time>2010-10-23T12:54:12Z</time>
      </trkpt>
      <trkpt lat="44.08889" lon="6.30644">
        <ele>956.168457</ele>
        <time>2010-10-23T12:54:20Z</time>
      </trkpt>
      <trkpt lat="44.08889" lon="6.3066">
        <ele>952.322998</ele>
        <time>2010-10-23T12:54:26Z</time>
      </trkpt>
      <trkpt lat="44.0889" lon="6.30675">
        <ele>955.6877441</ele>
        <time>2010-10-23T12:54:32Z</time>
      </trkpt>
      <trkpt lat="44.08893" lon="6.30691">
        <ele>958.5717773</ele>
        <time>2010-10-23T12:54:39Z</time>
      </trkpt>
      <trkpt lat="44.08898" lon="6.30713">
        <ele>955.6877441</ele>
        <time>2010-10-23T12:54:47Z</time>
      </trkpt>
      <trkpt lat="44.08901" lon="6.30731">
        <ele>957.1298828</ele>
        <time>2010-10-23T12:54:54Z</time>
      </trkpt>
      <trkpt lat="44.08904" lon="6.30749">
        <ele>947.9973145</ele>
        <time>2010-10-23T12:54:59Z</time>
      </trkpt>
      <trkpt lat="44.08899" lon="6.30767">
        <ele>950.8811035</ele>
        <time>2010-10-23T12:55:06Z</time>
      </trkpt>
      <trkpt lat="44.08899" lon="6.30783">
        <ele>949.9199219</ele>
        <time>2010-10-23T12:55:12Z</time>
      </trkpt>
      <trkpt lat="44.08901" lon="6.308">
        <ele>951.8425293</ele>
        <time>2010-10-23T12:55:19Z</time>
      </trkpt>
      <trkpt lat="44.08903" lon="6.30816">
        <ele>949.9199219</ele>
        <time>2010-10-23T12:55:25Z</time>
      </trkpt>
      <trkpt lat="44.08905" lon="6.30831">
        <ele>953.7651367</ele>
        <time>2010-10-23T12:55:32Z</time>
      </trkpt>
      <trkpt lat="44.08902" lon="6.30839">
        <ele>957.6105957</ele>
        <time>2010-10-23T12:55:36Z</time>
      </trkpt>
      <trkpt lat="44.08891" lon="6.30853">
        <ele>961.4558105</ele>
        <time>2010-10-23T12:55:46Z</time>
      </trkpt>
      <trkpt lat="44.08881" lon="6.30856">
        <ele>968.1848145</ele>
        <time>2010-10-23T12:55:53Z</time>
      </trkpt>
      <trkpt lat="44.08875" lon="6.30858">
        <ele>967.2236328</ele>
        <time>2010-10-23T12:56:00Z</time>
      </trkpt>
      <trkpt lat="44.08875" lon="6.30859">
        <ele>965.3010254</ele>
        <time>2010-10-23T12:56:01Z</time>
      </trkpt>
      <trkpt lat="44.08866" lon="6.30868">
        <ele>960.0136719</ele>
        <time>2010-10-23T12:56:09Z</time>
      </trkpt>
      <trkpt lat="44.08864" lon="6.30872">
        <ele>959.0524902</ele>
        <time>2010-10-23T12:56:11Z</time>
      </trkpt>
      <trkpt lat="44.0886" lon="6.30877">
        <ele>959.0524902</ele>
        <time>2010-10-23T12:56:14Z</time>
      </trkpt>
      <trkpt lat="44.08853" lon="6.30896">
        <ele>963.378418</ele>
        <time>2010-10-23T12:56:23Z</time>
      </trkpt>
      <trkpt lat="44.0885" lon="6.30917">
        <ele>961.9365234</ele>
        <time>2010-10-23T12:56:32Z</time>
      </trkpt>
      <trkpt lat="44.08847" lon="6.30936">
        <ele>960.9750977</ele>
        <time>2010-10-23T12:56:40Z</time>
      </trkpt>
      <trkpt lat="44.08837" lon="6.30955">
        <ele>961.9365234</ele>
        <time>2010-10-23T12:56:50Z</time>
      </trkpt>
      <trkpt lat="44.08828" lon="6.3096">
        <ele>962.8977051</ele>
        <time>2010-10-23T12:56:57Z</time>
      </trkpt>
      <trkpt lat="44.08815" lon="6.30956">
        <ele>964.8203125</ele>
        <time>2010-10-23T12:57:04Z</time>
      </trkpt>
      <trkpt lat="44.08809" lon="6.30946">
        <ele>966.262207</ele>
        <time>2010-10-23T12:57:10Z</time>
      </trkpt>
      <trkpt lat="44.08802" lon="6.30935">
        <ele>967.2236328</ele>
        <time>2010-10-23T12:57:17Z</time>
      </trkpt>
      <trkpt lat="44.08789" lon="6.30931">
        <ele>969.6269531</ele>
        <time>2010-10-23T12:57:26Z</time>
      </trkpt>
      <trkpt lat="44.08785" lon="6.30932">
        <ele>969.6269531</ele>
        <time>2010-10-23T12:57:28Z</time>
      </trkpt>
      <trkpt lat="44.0878" lon="6.30942">
        <ele>970.5881348</ele>
        <time>2010-10-23T12:57:35Z</time>
      </trkpt>
      <trkpt lat="44.08781" lon="6.30953">
        <ele>970.1074219</ele>
        <time>2010-10-23T12:57:41Z</time>
      </trkpt>
      <trkpt lat="44.08782" lon="6.3096">
        <ele>970.5881348</ele>
        <time>2010-10-23T12:57:44Z</time>
      </trkpt>
      <trkpt lat="44.08778" lon="6.30979">
        <ele>972.5109863</ele>
        <time>2010-10-23T12:57:55Z</time>
      </trkpt>
      <trkpt lat="44.08775" lon="6.3099">
        <ele>976.3562012</ele>
        <time>2010-10-23T12:58:03Z</time>
      </trkpt>
      <trkpt lat="44.08772" lon="6.30992">
        <ele>977.317627</ele>
        <time>2010-10-23T12:58:12Z</time>
      </trkpt>
      <trkpt lat="44.08766" lon="6.31001">
        <ele>981.1628418</ele>
        <time>2010-10-23T12:58:21Z</time>
      </trkpt>
      <trkpt lat="44.08765" lon="6.31003">
        <ele>981.6433105</ele>
        <time>2010-10-23T12:58:23Z</time>
      </trkpt>
      <trkpt lat="44.08761" lon="6.31006">
        <ele>982.1240234</ele>
        <time>2010-10-23T12:58:29Z</time>
      </trkpt>
      <trkpt lat="44.08757" lon="6.3102">
        <ele>978.2788086</ele>
        <time>2010-10-23T12:58:36Z</time>
      </trkpt>
      <trkpt lat="44.08759" lon="6.31037">
        <ele>979.2399902</ele>
        <time>2010-10-23T12:58:43Z</time>
      </trkpt>
      <trkpt lat="44.0876" lon="6.31053">
        <ele>979.2399902</ele>
        <time>2010-10-23T12:58:50Z</time>
      </trkpt>
      <trkpt lat="44.08761" lon="6.31074">
        <ele>977.317627</ele>
        <time>2010-10-23T12:58:58Z</time>
      </trkpt>
      <trkpt lat="44.08763" lon="6.31081">
        <ele>974.9143066</ele>
        <time>2010-10-23T12:59:04Z</time>
      </trkpt>
      <trkpt lat="44.08768" lon="6.31083">
        <ele>973.9528809</ele>
        <time>2010-10-23T12:59:29Z</time>
      </trkpt>
      <trkpt lat="44.08759" lon="6.31086">
        <ele>976.3562012</ele>
        <time>2010-10-23T13:03:13Z</time>
      </trkpt>
      <trkpt lat="44.08757" lon="6.31084">
        <ele>964.3395996</ele>
        <time>2010-10-23T13:05:08Z</time>
      </trkpt>
      <trkpt lat="44.08767" lon="6.31088">
        <ele>966.262207</ele>
        <time>2010-10-23T13:06:07Z</time>
      </trkpt>
      <trkpt lat="44.08765" lon="6.31087">
        <ele>971.5493164</ele>
        <time>2010-10-23T13:06:25Z</time>
      </trkpt>
      <trkpt lat="44.08765" lon="6.31087">
        <ele>972.0302734</ele>
        <time>2010-10-23T13:06:36Z</time>
      </trkpt>
      <trkpt lat="44.08765" lon="6.31087">
        <ele>974.4335938</ele>
        <time>2010-10-23T13:06:53Z</time>
      </trkpt>
      <trkpt lat="44.08765" lon="6.31087">
        <ele>973.9528809</ele>
        <time>2010-10-23T13:07:08Z</time>
      </trkpt>
      <trkpt lat="44.08765" lon="6.31087">
        <ele>974.9143066</ele>
        <time>2010-10-23T13:07:27Z</time>
      </trkpt>
      <trkpt lat="44.08762" lon="6.31084">
        <ele>979.2399902</ele>
        <time>2010-10-23T13:08:08Z</time>
      </trkpt>
      <trkpt lat="44.08759" lon="6.31083">
        <ele>985.0080566</ele>
        <time>2010-10-23T13:09:31Z</time>
      </trkpt>
      <trkpt lat="44.08763" lon="6.31084">
        <ele>975.8754883</ele>
        <time>2010-10-23T13:10:27Z</time>
      </trkpt>
      <trkpt lat="44.08764" lon="6.31091">
        <ele>979.7207031</ele>
        <time>2010-10-23T13:11:44Z</time>
      </trkpt>
      <trkpt lat="44.08767" lon="6.31092">
        <ele>965.3010254</ele>
        <time>2010-10-23T13:19:10Z</time>
      </trkpt>
      <trkpt lat="44.08766" lon="6.31092">
        <ele>970.5881348</ele>
        <time>2010-10-23T13:19:25Z</time>
      </trkpt>
      <trkpt lat="44.08758" lon="6.31087">
        <ele>977.317627</ele>
        <time>2010-10-23T13:19:30Z</time>
      </trkpt>
      <trkpt lat="44.0876" lon="6.31089">
        <ele>980.6821289</ele>
        <time>2010-10-23T13:20:00Z</time>
      </trkpt>
      <trkpt lat="44.08759" lon="6.31087">
        <ele>973.4724121</ele>
        <time>2010-10-23T13:20:30Z</time>
      </trkpt>
      <trkpt lat="44.08759" lon="6.31088">
        <ele>984.5273438</ele>
        <time>2010-10-23T13:20:45Z</time>
      </trkpt>
      <trkpt lat="44.08755" lon="6.31085">
        <ele>983.565918</ele>
        <time>2010-10-23T13:21:15Z</time>
      </trkpt>
      <trkpt lat="44.08753" lon="6.31087">
        <ele>985.0080566</ele>
        <time>2010-10-23T13:21:21Z</time>
      </trkpt>
      <trkpt lat="44.08754" lon="6.31094">
        <ele>980.201416</ele>
        <time>2010-10-23T13:21:26Z</time>
      </trkpt>
      <trkpt lat="44.08754" lon="6.31095">
        <ele>979.7207031</ele>
        <time>2010-10-23T13:21:27Z</time>
      </trkpt>
      <trkpt lat="44.08754" lon="6.31112">
        <ele>979.7207031</ele>
        <time>2010-10-23T13:21:35Z</time>
      </trkpt>
      <trkpt lat="44.08752" lon="6.31123">
        <ele>979.7207031</ele>
        <time>2010-10-23T13:21:41Z</time>
      </trkpt>
      <trkpt lat="44.08749" lon="6.31132">
        <ele>979.7207031</ele>
        <time>2010-10-23T13:21:48Z</time>
      </trkpt>
      <trkpt lat="44.08746" lon="6.31148">
        <ele>980.6821289</ele>
        <time>2010-10-23T13:21:56Z</time>
      </trkpt>
      <trkpt lat="44.08742" lon="6.31168">
        <ele>981.1628418</ele>
        <time>2010-10-23T13:22:05Z</time>
      </trkpt>
      <trkpt lat="44.08736" lon="6.31177">
        <ele>982.1240234</ele>
        <time>2010-10-23T13:22:11Z</time>
      </trkpt>
      <trkpt lat="44.08729" lon="6.3118">
        <ele>983.565918</ele>
        <time>2010-10-23T13:22:19Z</time>
      </trkpt>
      <trkpt lat="44.08728" lon="6.31181">
        <ele>984.0466309</ele>
        <time>2010-10-23T13:22:27Z</time>
      </trkpt>
      <trkpt lat="44.0872" lon="6.3118">
        <ele>983.565918</ele>
        <time>2010-10-23T13:22:32Z</time>
      </trkpt>
      <trkpt lat="44.08701" lon="6.31181">
        <ele>983.565918</ele>
        <time>2010-10-23T13:22:38Z</time>
      </trkpt>
      <trkpt lat="44.08695" lon="6.31177">
        <ele>983.565918</ele>
        <time>2010-10-23T13:22:40Z</time>
      </trkpt>
      <trkpt lat="44.08675" lon="6.31148">
        <ele>979.2399902</ele>
        <time>2010-10-23T13:22:46Z</time>
      </trkpt>
      <trkpt lat="44.08655" lon="6.31123">
        <ele>978.2788086</ele>
        <time>2010-10-23T13:22:52Z</time>
      </trkpt>
      <trkpt lat="44.08644" lon="6.31114">
        <ele>977.7980957</ele>
        <time>2010-10-23T13:22:55Z</time>
      </trkpt>
      <trkpt lat="44.08619" lon="6.31113">
        <ele>974.4335938</ele>
        <time>2010-10-23T13:23:00Z</time>
      </trkpt>
      <trkpt lat="44.08614" lon="6.31116">
        <ele>973.9528809</ele>
        <time>2010-10-23T13:23:01Z</time>
      </trkpt>
      <trkpt lat="44.0858" lon="6.31132">
        <ele>973.4724121</ele>
        <time>2010-10-23T13:23:08Z</time>
      </trkpt>
      <trkpt lat="44.08563" lon="6.31132">
        <ele>973.9528809</ele>
        <time>2010-10-23T13:23:13Z</time>
      </trkpt>
      <trkpt lat="44.08542" lon="6.31117">
        <ele>972.9916992</ele>
        <time>2010-10-23T13:23:19Z</time>
      </trkpt>
      <trkpt lat="44.08525" lon="6.31099">
        <ele>972.5109863</ele>
        <time>2010-10-23T13:23:23Z</time>
      </trkpt>
      <trkpt lat="44.08505" lon="6.3106">
        <ele>973.4724121</ele>
        <time>2010-10-23T13:23:30Z</time>
      </trkpt>
      <trkpt lat="44.08501" lon="6.3104">
        <ele>973.4724121</ele>
        <time>2010-10-23T13:23:35Z</time>
      </trkpt>
      <trkpt lat="44.08499" lon="6.31014">
        <ele>971.0688477</ele>
        <time>2010-10-23T13:23:40Z</time>
      </trkpt>
      <trkpt lat="44.08488" lon="6.3099">
        <ele>970.1074219</ele>
        <time>2010-10-23T13:23:44Z</time>
      </trkpt>
      <trkpt lat="44.08482" lon="6.30985">
        <ele>970.5881348</ele>
        <time>2010-10-23T13:23:45Z</time>
      </trkpt>
      <trkpt lat="44.08459" lon="6.30965">
        <ele>971.5493164</ele>
        <time>2010-10-23T13:23:51Z</time>
      </trkpt>
      <trkpt lat="44.08438" lon="6.3095">
        <ele>972.0302734</ele>
        <time>2010-10-23T13:23:57Z</time>
      </trkpt>
      <trkpt lat="44.0841" lon="6.30919">
        <ele>969.6269531</ele>
        <time>2010-10-23T13:24:05Z</time>
      </trkpt>
      <trkpt lat="44.08399" lon="6.30905">
        <ele>971.0688477</ele>
        <time>2010-10-23T13:24:09Z</time>
      </trkpt>
      <trkpt lat="44.08377" lon="6.30881">
        <ele>973.9528809</ele>
        <time>2010-10-23T13:24:16Z</time>
      </trkpt>
      <trkpt lat="44.08373" lon="6.30871">
        <ele>974.9143066</ele>
        <time>2010-10-23T13:24:18Z</time>
      </trkpt>
      <trkpt lat="44.08356" lon="6.30852">
        <ele>974.4335938</ele>
        <time>2010-10-23T13:24:23Z</time>
      </trkpt>
      <trkpt lat="44.08336" lon="6.30836">
        <ele>973.4724121</ele>
        <time>2010-10-23T13:24:29Z</time>
      </trkpt>
      <trkpt lat="44.08319" lon="6.30825">
        <ele>968.6655273</ele>
        <time>2010-10-23T13:24:34Z</time>
      </trkpt>
      <trkpt lat="44.08311" lon="6.30822">
        <ele>970.5881348</ele>
        <time>2010-10-23T13:24:39Z</time>
      </trkpt>
      <trkpt lat="44.08294" lon="6.30822">
        <ele>969.1462402</ele>
        <time>2010-10-23T13:24:45Z</time>
      </trkpt>
      <trkpt lat="44.08266" lon="6.30824">
        <ele>970.1074219</ele>
        <time>2010-10-23T13:24:53Z</time>
      </trkpt>
      <trkpt lat="44.08258" lon="6.30834">
        <ele>970.5881348</ele>
        <time>2010-10-23T13:24:58Z</time>
      </trkpt>
      <trkpt lat="44.08248" lon="6.30847">
        <ele>972.9916992</ele>
        <time>2010-10-23T13:25:06Z</time>
      </trkpt>
      <trkpt lat="44.08235" lon="6.30857">
        <ele>971.0688477</ele>
        <time>2010-10-23T13:25:14Z</time>
      </trkpt>
      <trkpt lat="44.08218" lon="6.30859">
        <ele>975.3947754</ele>
        <time>2010-10-23T13:25:23Z</time>
      </trkpt>
      <trkpt lat="44.08202" lon="6.30862">
        <ele>977.317627</ele>
        <time>2010-10-23T13:25:31Z</time>
      </trkpt>
      <trkpt lat="44.08191" lon="6.30872">
        <ele>978.2788086</ele>
        <time>2010-10-23T13:25:38Z</time>
      </trkpt>
      <trkpt lat="44.08174" lon="6.30875">
        <ele>973.9528809</ele>
        <time>2010-10-23T13:25:44Z</time>
      </trkpt>
      <trkpt lat="44.08151" lon="6.30888">
        <ele>975.8754883</ele>
        <time>2010-10-23T13:25:52Z</time>
      </trkpt>
      <trkpt lat="44.08141" lon="6.30907">
        <ele>976.3562012</ele>
        <time>2010-10-23T13:25:58Z</time>
      </trkpt>
      <trkpt lat="44.08131" lon="6.30921">
        <ele>975.8754883</ele>
        <time>2010-10-23T13:26:04Z</time>
      </trkpt>
      <trkpt lat="44.08114" lon="6.30934">
        <ele>973.9528809</ele>
        <time>2010-10-23T13:26:11Z</time>
      </trkpt>
      <trkpt lat="44.08102" lon="6.30953">
        <ele>973.9528809</ele>
        <time>2010-10-23T13:26:18Z</time>
      </trkpt>
      <trkpt lat="44.08091" lon="6.30963">
        <ele>972.5109863</ele>
        <time>2010-10-23T13:26:24Z</time>
      </trkpt>
      <trkpt lat="44.08073" lon="6.3097">
        <ele>972.5109863</ele>
        <time>2010-10-23T13:26:32Z</time>
      </trkpt>
      <trkpt lat="44.0806" lon="6.30984">
        <ele>973.9528809</ele>
        <time>2010-10-23T13:26:38Z</time>
      </trkpt>
      <trkpt lat="44.08055" lon="6.30995">
        <ele>978.7595215</ele>
        <time>2010-10-23T13:26:42Z</time>
      </trkpt>
      <trkpt lat="44.08043" lon="6.30996">
        <ele>979.2399902</ele>
        <time>2010-10-23T13:26:47Z</time>
      </trkpt>
      <trkpt lat="44.08034" lon="6.30986">
        <ele>980.201416</ele>
        <time>2010-10-23T13:26:51Z</time>
      </trkpt>
      <trkpt lat="44.08026" lon="6.30961">
        <ele>982.1240234</ele>
        <time>2010-10-23T13:26:59Z</time>
      </trkpt>
      <trkpt lat="44.08015" lon="6.30933">
        <ele>981.6433105</ele>
        <time>2010-10-23T13:27:05Z</time>
      </trkpt>
      <trkpt lat="44.08008" lon="6.30906">
        <ele>981.1628418</ele>
        <time>2010-10-23T13:27:10Z</time>
      </trkpt>
      <trkpt lat="44.07998" lon="6.30888">
        <ele>979.7207031</ele>
        <time>2010-10-23T13:27:14Z</time>
      </trkpt>
      <trkpt lat="44.07993" lon="6.30867">
        <ele>981.1628418</ele>
        <time>2010-10-23T13:27:19Z</time>
      </trkpt>
      <trkpt lat="44.07994" lon="6.30842">
        <ele>983.0852051</ele>
        <time>2010-10-23T13:27:26Z</time>
      </trkpt>
      <trkpt lat="44.07989" lon="6.30816">
        <ele>983.0852051</ele>
        <time>2010-10-23T13:27:33Z</time>
      </trkpt>
      <trkpt lat="44.07979" lon="6.30777">
        <ele>982.1240234</ele>
        <time>2010-10-23T13:27:41Z</time>
      </trkpt>
      <trkpt lat="44.07976" lon="6.30758">
        <ele>985.4885254</ele>
        <time>2010-10-23T13:27:46Z</time>
      </trkpt>
      <trkpt lat="44.07976" lon="6.3075">
        <ele>986.4499512</ele>
        <time>2010-10-23T13:27:49Z</time>
      </trkpt>
      <trkpt lat="44.07977" lon="6.30736">
        <ele>991.2565918</ele>
        <time>2010-10-23T13:27:55Z</time>
      </trkpt>
      <trkpt lat="44.07977" lon="6.30724">
        <ele>992.6987305</ele>
        <time>2010-10-23T13:28:01Z</time>
      </trkpt>
      <trkpt lat="44.07978" lon="6.30716">
        <ele>995.1018066</ele>
        <time>2010-10-23T13:28:05Z</time>
      </trkpt>
      <trkpt lat="44.07977" lon="6.30711">
        <ele>996.5439453</ele>
        <time>2010-10-23T13:28:08Z</time>
      </trkpt>
      <trkpt lat="44.07977" lon="6.30698">
        <ele>999.4277344</ele>
        <time>2010-10-23T13:28:14Z</time>
      </trkpt>
      <trkpt lat="44.07976" lon="6.30694">
        <ele>1000.3891602</ele>
        <time>2010-10-23T13:28:16Z</time>
      </trkpt>
      <trkpt lat="44.07971" lon="6.3068">
        <ele>1001.8310547</ele>
        <time>2010-10-23T13:28:23Z</time>
      </trkpt>
      <trkpt lat="44.07968" lon="6.30667">
        <ele>1003.2729492</ele>
        <time>2010-10-23T13:28:29Z</time>
      </trkpt>
      <trkpt lat="44.07959" lon="6.3065">
        <ele>1005.6765137</ele>
        <time>2010-10-23T13:28:38Z</time>
      </trkpt>
      <trkpt lat="44.07953" lon="6.30642">
        <ele>1007.1184082</ele>
        <time>2010-10-23T13:28:43Z</time>
      </trkpt>
      <trkpt lat="44.07946" lon="6.30636">
        <ele>1007.1184082</ele>
        <time>2010-10-23T13:28:48Z</time>
      </trkpt>
      <trkpt lat="44.07932" lon="6.3064">
        <ele>1007.1184082</ele>
        <time>2010-10-23T13:28:57Z</time>
      </trkpt>
      <trkpt lat="44.07924" lon="6.30654">
        <ele>1005.6765137</ele>
        <time>2010-10-23T13:29:05Z</time>
      </trkpt>
      <trkpt lat="44.07923" lon="6.30668">
        <ele>1006.6376953</ele>
        <time>2010-10-23T13:29:11Z</time>
      </trkpt>
      <trkpt lat="44.07923" lon="6.30686">
        <ele>1008.079834</ele>
        <time>2010-10-23T13:29:19Z</time>
      </trkpt>
      <trkpt lat="44.07923" lon="6.30705">
        <ele>1008.079834</ele>
        <time>2010-10-23T13:29:26Z</time>
      </trkpt>
      <trkpt lat="44.07915" lon="6.30713">
        <ele>1007.1184082</ele>
        <time>2010-10-23T13:29:31Z</time>
      </trkpt>
      <trkpt lat="44.07903" lon="6.30707">
        <ele>1007.5991211</ele>
        <time>2010-10-23T13:29:37Z</time>
      </trkpt>
      <trkpt lat="44.0789" lon="6.30694">
        <ele>1009.5217285</ele>
        <time>2010-10-23T13:29:46Z</time>
      </trkpt>
      <trkpt lat="44.07878" lon="6.30687">
        <ele>1010.4829102</ele>
        <time>2010-10-23T13:29:53Z</time>
      </trkpt>
      <trkpt lat="44.07863" lon="6.30682">
        <ele>1012.4055176</ele>
        <time>2010-10-23T13:30:01Z</time>
      </trkpt>
      <trkpt lat="44.07854" lon="6.30679">
        <ele>1014.8088379</ele>
        <time>2010-10-23T13:30:07Z</time>
      </trkpt>
      <trkpt lat="44.07846" lon="6.30679">
        <ele>1015.7702637</ele>
        <time>2010-10-23T13:30:13Z</time>
      </trkpt>
      <trkpt lat="44.07839" lon="6.30689">
        <ele>1016.7314453</ele>
        <time>2010-10-23T13:30:20Z</time>
      </trkpt>
      <trkpt lat="44.0784" lon="6.30705">
        <ele>1018.1733398</ele>
        <time>2010-10-23T13:30:27Z</time>
      </trkpt>
      <trkpt lat="44.07845" lon="6.30718">
        <ele>1018.6540527</ele>
        <time>2010-10-23T13:30:33Z</time>
      </trkpt>
      <trkpt lat="44.07845" lon="6.3073">
        <ele>1019.6154785</ele>
        <time>2010-10-23T13:30:38Z</time>
      </trkpt>
      <trkpt lat="44.07836" lon="6.30754">
        <ele>1019.6154785</ele>
        <time>2010-10-23T13:30:48Z</time>
      </trkpt>
      <trkpt lat="44.07824" lon="6.30776">
        <ele>1019.6154785</ele>
        <time>2010-10-23T13:30:56Z</time>
      </trkpt>
      <trkpt lat="44.07811" lon="6.30804">
        <ele>1022.0187988</ele>
        <time>2010-10-23T13:31:07Z</time>
      </trkpt>
      <trkpt lat="44.07802" lon="6.30824">
        <ele>1019.1347656</ele>
        <time>2010-10-23T13:31:13Z</time>
      </trkpt>
      <trkpt lat="44.07793" lon="6.30846">
        <ele>1017.2121582</ele>
        <time>2010-10-23T13:31:18Z</time>
      </trkpt>
      <trkpt lat="44.07778" lon="6.30865">
        <ele>1017.2121582</ele>
        <time>2010-10-23T13:31:23Z</time>
      </trkpt>
      <trkpt lat="44.07766" lon="6.30888">
        <ele>1016.7314453</ele>
        <time>2010-10-23T13:31:30Z</time>
      </trkpt>
      <trkpt lat="44.07755" lon="6.30912">
        <ele>1015.2895508</ele>
        <time>2010-10-23T13:31:37Z</time>
      </trkpt>
      <trkpt lat="44.07739" lon="6.30937">
        <ele>1012.8862305</ele>
        <time>2010-10-23T13:31:43Z</time>
      </trkpt>
      <trkpt lat="44.07728" lon="6.30954">
        <ele>1010.0021973</ele>
        <time>2010-10-23T13:31:47Z</time>
      </trkpt>
      <trkpt lat="44.07712" lon="6.30972">
        <ele>1007.5991211</ele>
        <time>2010-10-23T13:31:51Z</time>
      </trkpt>
      <trkpt lat="44.07683" lon="6.30996">
        <ele>1003.2729492</ele>
        <time>2010-10-23T13:31:57Z</time>
      </trkpt>
      <trkpt lat="44.07675" lon="6.31004">
        <ele>1002.3115234</ele>
        <time>2010-10-23T13:31:59Z</time>
      </trkpt>
      <trkpt lat="44.07659" lon="6.31006">
        <ele>1001.8310547</ele>
        <time>2010-10-23T13:32:03Z</time>
      </trkpt>
      <trkpt lat="44.07648" lon="6.31001">
        <ele>1001.8310547</ele>
        <time>2010-10-23T13:32:06Z</time>
      </trkpt>
      <trkpt lat="44.07621" lon="6.30997">
        <ele>1001.3503418</ele>
        <time>2010-10-23T13:32:13Z</time>
      </trkpt>
      <trkpt lat="44.07614" lon="6.30993">
        <ele>1000.3891602</ele>
        <time>2010-10-23T13:32:16Z</time>
      </trkpt>
      <trkpt lat="44.07613" lon="6.30991">
        <ele>1000.3891602</ele>
        <time>2010-10-23T13:32:17Z</time>
      </trkpt>
      <trkpt lat="44.07613" lon="6.30979">
        <ele>998.9470215</ele>
        <time>2010-10-23T13:32:23Z</time>
      </trkpt>
      <trkpt lat="44.07623" lon="6.3096">
        <ele>997.0244141</ele>
        <time>2010-10-23T13:32:27Z</time>
      </trkpt>
      <trkpt lat="44.07626" lon="6.30955">
        <ele>997.0244141</ele>
        <time>2010-10-23T13:32:28Z</time>
      </trkpt>
      <trkpt lat="44.07624" lon="6.30933">
        <ele>994.6210938</ele>
        <time>2010-10-23T13:32:32Z</time>
      </trkpt>
      <trkpt lat="44.07606" lon="6.30928">
        <ele>991.2565918</ele>
        <time>2010-10-23T13:32:36Z</time>
      </trkpt>
      <trkpt lat="44.0758" lon="6.30935">
        <ele>986.4499512</ele>
        <time>2010-10-23T13:32:42Z</time>
      </trkpt>
      <trkpt lat="44.07576" lon="6.30946">
        <ele>985.0080566</ele>
        <time>2010-10-23T13:32:44Z</time>
      </trkpt>
      <trkpt lat="44.07565" lon="6.30986">
        <ele>981.1628418</ele>
        <time>2010-10-23T13:32:50Z</time>
      </trkpt>
      <trkpt lat="44.07557" lon="6.31029">
        <ele>977.317627</ele>
        <time>2010-10-23T13:32:55Z</time>
      </trkpt>
      <trkpt lat="44.07552" lon="6.31054">
        <ele>975.3947754</ele>
        <time>2010-10-23T13:32:58Z</time>
      </trkpt>
      <trkpt lat="44.07534" lon="6.31083">
        <ele>976.3562012</ele>
        <time>2010-10-23T13:33:02Z</time>
      </trkpt>
      <trkpt lat="44.07518" lon="6.31083">
        <ele>976.3562012</ele>
        <time>2010-10-23T13:33:05Z</time>
      </trkpt>
      <trkpt lat="44.07515" lon="6.31073">
        <ele>977.317627</ele>
        <time>2010-10-23T13:33:07Z</time>
      </trkpt>
      <trkpt lat="44.07516" lon="6.31062">
        <ele>978.2788086</ele>
        <time>2010-10-23T13:33:09Z</time>
      </trkpt>
      <trkpt lat="44.07512" lon="6.31034">
        <ele>981.6433105</ele>
        <time>2010-10-23T13:33:15Z</time>
      </trkpt>
      <trkpt lat="44.07497" lon="6.31007">
        <ele>980.6821289</ele>
        <time>2010-10-23T13:33:22Z</time>
      </trkpt>
      <trkpt lat="44.07492" lon="6.30985">
        <ele>981.6433105</ele>
        <time>2010-10-23T13:33:28Z</time>
      </trkpt>
      <trkpt lat="44.07481" lon="6.30973">
        <ele>981.6433105</ele>
        <time>2010-10-23T13:33:33Z</time>
      </trkpt>
      <trkpt lat="44.07462" lon="6.30959">
        <ele>981.6433105</ele>
        <time>2010-10-23T13:33:40Z</time>
      </trkpt>
      <trkpt lat="44.07437" lon="6.30954">
        <ele>980.6821289</ele>
        <time>2010-10-23T13:33:47Z</time>
      </trkpt>
      <trkpt lat="44.07421" lon="6.30966">
        <ele>978.7595215</ele>
        <time>2010-10-23T13:33:51Z</time>
      </trkpt>
      <trkpt lat="44.07405" lon="6.30959">
        <ele>977.7980957</ele>
        <time>2010-10-23T13:33:55Z</time>
      </trkpt>
      <trkpt lat="44.07378" lon="6.30935">
        <ele>975.8754883</ele>
        <time>2010-10-23T13:34:01Z</time>
      </trkpt>
      <trkpt lat="44.07362" lon="6.30912">
        <ele>974.9143066</ele>
        <time>2010-10-23T13:34:05Z</time>
      </trkpt>
      <trkpt lat="44.07341" lon="6.30879">
        <ele>976.3562012</ele>
        <time>2010-10-23T13:34:12Z</time>
      </trkpt>
      <trkpt lat="44.07338" lon="6.30876">
        <ele>976.8369141</ele>
        <time>2010-10-23T13:34:14Z</time>
      </trkpt>
      <trkpt lat="44.07334" lon="6.3088">
        <ele>977.317627</ele>
        <time>2010-10-23T13:34:18Z</time>
      </trkpt>
      <trkpt lat="44.07331" lon="6.30887">
        <ele>977.7980957</ele>
        <time>2010-10-23T13:34:25Z</time>
      </trkpt>
      <trkpt lat="44.07326" lon="6.30889">
        <ele>978.2788086</ele>
        <time>2010-10-23T13:34:32Z</time>
      </trkpt>
      <trkpt lat="44.0732" lon="6.30899">
        <ele>979.7207031</ele>
        <time>2010-10-23T13:34:41Z</time>
      </trkpt>
      <trkpt lat="44.07311" lon="6.30905">
        <ele>980.6821289</ele>
        <time>2010-10-23T13:34:49Z</time>
      </trkpt>
      <trkpt lat="44.07302" lon="6.30913">
        <ele>982.1240234</ele>
        <time>2010-10-23T13:34:57Z</time>
      </trkpt>
      <trkpt lat="44.07296" lon="6.30916">
        <ele>982.1240234</ele>
        <time>2010-10-23T13:35:04Z</time>
      </trkpt>
      <trkpt lat="44.07296" lon="6.30915">
        <ele>983.0852051</ele>
        <time>2010-10-23T13:35:13Z</time>
      </trkpt>
      <trkpt lat="44.07295" lon="6.30918">
        <ele>983.565918</ele>
        <time>2010-10-23T13:35:27Z</time>
      </trkpt>
      <trkpt lat="44.07294" lon="6.30918">
        <ele>984.5273438</ele>
        <time>2010-10-23T13:35:38Z</time>
      </trkpt>
      <trkpt lat="44.07295" lon="6.30917">
        <ele>985.4885254</ele>
        <time>2010-10-23T13:35:56Z</time>
      </trkpt>
      <trkpt lat="44.07294" lon="6.30916">
        <ele>985.9692383</ele>
        <time>2010-10-23T13:36:20Z</time>
      </trkpt>
      <trkpt lat="44.07294" lon="6.30917">
        <ele>983.565918</ele>
        <time>2010-10-23T13:36:59Z</time>
      </trkpt>
      <trkpt lat="44.07296" lon="6.30918">
        <ele>983.565918</ele>
        <time>2010-10-23T13:37:10Z</time>
      </trkpt>
      <trkpt lat="44.07296" lon="6.30918">
        <ele>984.0466309</ele>
        <time>2010-10-23T13:37:20Z</time>
      </trkpt>
      <trkpt lat="44.07296" lon="6.30917">
        <ele>985.0080566</ele>
        <time>2010-10-23T13:37:31Z</time>
      </trkpt>
      <trkpt lat="44.07296" lon="6.30917">
        <ele>986.9304199</ele>
        <time>2010-10-23T13:37:49Z</time>
      </trkpt>
      <trkpt lat="44.07296" lon="6.30918">
        <ele>986.9304199</ele>
        <time>2010-10-23T13:37:55Z</time>
      </trkpt>
      <trkpt lat="44.07292" lon="6.30922">
        <ele>987.4111328</ele>
        <time>2010-10-23T13:38:03Z</time>
      </trkpt>
      <trkpt lat="44.07279" lon="6.30933">
        <ele>987.8918457</ele>
        <time>2010-10-23T13:38:11Z</time>
      </trkpt>
      <trkpt lat="44.07271" lon="6.30944">
        <ele>989.3339844</ele>
        <time>2010-10-23T13:38:18Z</time>
      </trkpt>
      <trkpt lat="44.07264" lon="6.30958">
        <ele>990.2954102</ele>
        <time>2010-10-23T13:38:25Z</time>
      </trkpt>
      <trkpt lat="44.07255" lon="6.3097">
        <ele>990.2954102</ele>
        <time>2010-10-23T13:38:31Z</time>
      </trkpt>
      <trkpt lat="44.07254" lon="6.30971">
        <ele>990.2954102</ele>
        <time>2010-10-23T13:38:38Z</time>
      </trkpt>
      <trkpt lat="44.07253" lon="6.3097">
        <ele>992.2180176</ele>
        <time>2010-10-23T13:38:40Z</time>
      </trkpt>
      <trkpt lat="44.07248" lon="6.30971">
        <ele>993.1791992</ele>
        <time>2010-10-23T13:38:44Z</time>
      </trkpt>
      <trkpt lat="44.07237" lon="6.3097">
        <ele>994.140625</ele>
        <time>2010-10-23T13:38:50Z</time>
      </trkpt>
      <trkpt lat="44.07226" lon="6.30972">
        <ele>994.140625</ele>
        <time>2010-10-23T13:38:54Z</time>
      </trkpt>
      <trkpt lat="44.07212" lon="6.30982">
        <ele>993.1791992</ele>
        <time>2010-10-23T13:38:59Z</time>
      </trkpt>
      <trkpt lat="44.072" lon="6.30985">
        <ele>992.6987305</ele>
        <time>2010-10-23T13:39:03Z</time>
      </trkpt>
      <trkpt lat="44.072" lon="6.30982">
        <ele>993.1791992</ele>
        <time>2010-10-23T13:39:07Z</time>
      </trkpt>
      <trkpt lat="44.07197" lon="6.30982">
        <ele>993.6599121</ele>
        <time>2010-10-23T13:39:13Z</time>
      </trkpt>
      <trkpt lat="44.07183" lon="6.30987">
        <ele>990.7758789</ele>
        <time>2010-10-23T13:39:19Z</time>
      </trkpt>
      <trkpt lat="44.07168" lon="6.30992">
        <ele>988.8535156</ele>
        <time>2010-10-23T13:39:25Z</time>
      </trkpt>
      <trkpt lat="44.07157" lon="6.31004">
        <ele>984.5273438</ele>
        <time>2010-10-23T13:39:30Z</time>
      </trkpt>
      <trkpt lat="44.07147" lon="6.31002">
        <ele>988.3728027</ele>
        <time>2010-10-23T13:39:35Z</time>
      </trkpt>
      <trkpt lat="44.07136" lon="6.31">
        <ele>990.7758789</ele>
        <time>2010-10-23T13:39:41Z</time>
      </trkpt>
      <trkpt lat="44.07129" lon="6.31003">
        <ele>993.6599121</ele>
        <time>2010-10-23T13:39:47Z</time>
      </trkpt>
      <trkpt lat="44.07121" lon="6.31013">
        <ele>997.0244141</ele>
        <time>2010-10-23T13:39:54Z</time>
      </trkpt>
      <trkpt lat="44.07113" lon="6.31015">
        <ele>1000.3891602</ele>
        <time>2010-10-23T13:40:01Z</time>
      </trkpt>
      <trkpt lat="44.07112" lon="6.31015">
        <ele>1002.7922363</ele>
        <time>2010-10-23T13:40:05Z</time>
      </trkpt>
      <trkpt lat="44.07107" lon="6.31014">
        <ele>1003.7536621</ele>
        <time>2010-10-23T13:40:11Z</time>
      </trkpt>
      <trkpt lat="44.07099" lon="6.3101">
        <ele>1005.6765137</ele>
        <time>2010-10-23T13:40:17Z</time>
      </trkpt>
      <trkpt lat="44.07089" lon="6.31011">
        <ele>1007.1184082</ele>
        <time>2010-10-23T13:40:23Z</time>
      </trkpt>
      <trkpt lat="44.07077" lon="6.31018">
        <ele>1008.5603027</ele>
        <time>2010-10-23T13:40:31Z</time>
      </trkpt>
      <trkpt lat="44.0707" lon="6.3102">
        <ele>1008.5603027</ele>
        <time>2010-10-23T13:40:37Z</time>
      </trkpt>
      <trkpt lat="44.07065" lon="6.31024">
        <ele>1009.5217285</ele>
        <time>2010-10-23T13:40:43Z</time>
      </trkpt>
      <trkpt lat="44.07064" lon="6.31024">
        <ele>1009.5217285</ele>
        <time>2010-10-23T13:40:50Z</time>
      </trkpt>
      <trkpt lat="44.07056" lon="6.31027">
        <ele>1011.9250488</ele>
        <time>2010-10-23T13:40:56Z</time>
      </trkpt>
      <trkpt lat="44.07045" lon="6.31025">
        <ele>1012.4055176</ele>
        <time>2010-10-23T13:41:02Z</time>
      </trkpt>
      <trkpt lat="44.07035" lon="6.31011">
        <ele>1012.8862305</ele>
        <time>2010-10-23T13:41:08Z</time>
      </trkpt>
      <trkpt lat="44.07029" lon="6.3099">
        <ele>1014.328125</ele>
        <time>2010-10-23T13:41:14Z</time>
      </trkpt>
      <trkpt lat="44.07017" lon="6.30982">
        <ele>1014.328125</ele>
        <time>2010-10-23T13:41:19Z</time>
      </trkpt>
      <trkpt lat="44.07005" lon="6.30972">
        <ele>1013.8474121</ele>
        <time>2010-10-23T13:41:25Z</time>
      </trkpt>
      <trkpt lat="44.06996" lon="6.30961">
        <ele>1016.2507324</ele>
        <time>2010-10-23T13:41:33Z</time>
      </trkpt>
      <trkpt lat="44.06989" lon="6.30943">
        <ele>1020.0961914</ele>
        <time>2010-10-23T13:41:41Z</time>
      </trkpt>
      <trkpt lat="44.06982" lon="6.30929">
        <ele>1023.4609375</ele>
        <time>2010-10-23T13:41:47Z</time>
      </trkpt>
      <trkpt lat="44.06979" lon="6.30925">
        <ele>1024.902832</ele>
        <time>2010-10-23T13:41:50Z</time>
      </trkpt>
      <trkpt lat="44.06967" lon="6.30924">
        <ele>1022.9802246</ele>
        <time>2010-10-23T13:41:56Z</time>
      </trkpt>
      <trkpt lat="44.06966" lon="6.30924">
        <ele>1023.4609375</ele>
        <time>2010-10-23T13:41:57Z</time>
      </trkpt>
      <trkpt lat="44.06953" lon="6.30923">
        <ele>1027.7866211</ele>
        <time>2010-10-23T13:42:04Z</time>
      </trkpt>
      <trkpt lat="44.06945" lon="6.30924">
        <ele>1027.3061523</ele>
        <time>2010-10-23T13:42:09Z</time>
      </trkpt>
      <trkpt lat="44.0693" lon="6.30923">
        <ele>1023.4609375</ele>
        <time>2010-10-23T13:42:15Z</time>
      </trkpt>
      <trkpt lat="44.06914" lon="6.30925">
        <ele>1024.4221191</ele>
        <time>2010-10-23T13:42:22Z</time>
      </trkpt>
      <trkpt lat="44.06905" lon="6.3093">
        <ele>1024.902832</ele>
        <time>2010-10-23T13:42:26Z</time>
      </trkpt>
      <trkpt lat="44.06897" lon="6.30934">
        <ele>1024.4221191</ele>
        <time>2010-10-23T13:42:32Z</time>
      </trkpt>
      <trkpt lat="44.06893" lon="6.3093">
        <ele>1022.9802246</ele>
        <time>2010-10-23T13:42:52Z</time>
      </trkpt>
      <trkpt lat="44.06891" lon="6.30929">
        <ele>1022.0187988</ele>
        <time>2010-10-23T13:43:04Z</time>
      </trkpt>
      <trkpt lat="44.0689" lon="6.30931">
        <ele>1020.5769043</ele>
        <time>2010-10-23T13:43:14Z</time>
      </trkpt>
      <trkpt lat="44.06887" lon="6.30934">
        <ele>1012.8862305</ele>
        <time>2010-10-23T13:43:31Z</time>
      </trkpt>
      <trkpt lat="44.06875" lon="6.30924">
        <ele>1013.3669434</ele>
        <time>2010-10-23T13:43:37Z</time>
      </trkpt>
      <trkpt lat="44.06849" lon="6.30918">
        <ele>1012.4055176</ele>
        <time>2010-10-23T13:43:43Z</time>
      </trkpt>
      <trkpt lat="44.0683" lon="6.30911">
        <ele>1013.3669434</ele>
        <time>2010-10-23T13:43:49Z</time>
      </trkpt>
      <trkpt lat="44.06821" lon="6.30908">
        <ele>1014.328125</ele>
        <time>2010-10-23T13:43:55Z</time>
      </trkpt>
      <trkpt lat="44.06819" lon="6.30908">
        <ele>1016.7314453</ele>
        <time>2010-10-23T13:44:00Z</time>
      </trkpt>
      <trkpt lat="44.06814" lon="6.30907">
        <ele>1015.2895508</ele>
        <time>2010-10-23T13:44:07Z</time>
      </trkpt>
      <trkpt lat="44.06812" lon="6.30911">
        <ele>1017.2121582</ele>
        <time>2010-10-23T13:44:15Z</time>
      </trkpt>
      <trkpt lat="44.06811" lon="6.3091">
        <ele>1018.1733398</ele>
        <time>2010-10-23T13:44:18Z</time>
      </trkpt>
      <trkpt lat="44.068" lon="6.30913">
        <ele>1017.2121582</ele>
        <time>2010-10-23T13:44:24Z</time>
      </trkpt>
      <trkpt lat="44.06784" lon="6.30917">
        <ele>1017.2121582</ele>
        <time>2010-10-23T13:44:30Z</time>
      </trkpt>
      <trkpt lat="44.06771" lon="6.30926">
        <ele>1015.7702637</ele>
        <time>2010-10-23T13:44:34Z</time>
      </trkpt>
      <trkpt lat="44.06767" lon="6.30947">
        <ele>1013.3669434</ele>
        <time>2010-10-23T13:44:39Z</time>
      </trkpt>
      <trkpt lat="44.06767" lon="6.30949">
        <ele>1011.4443359</ele>
        <time>2010-10-23T13:44:43Z</time>
      </trkpt>
      <trkpt lat="44.06768" lon="6.30952">
        <ele>1007.1184082</ele>
        <time>2010-10-23T13:44:51Z</time>
      </trkpt>
      <trkpt lat="44.06769" lon="6.30952">
        <ele>1006.1569824</ele>
        <time>2010-10-23T13:44:57Z</time>
      </trkpt>
      <trkpt lat="44.0677" lon="6.30952">
        <ele>1006.1569824</ele>
        <time>2010-10-23T13:45:00Z</time>
      </trkpt>
      <trkpt lat="44.0677" lon="6.30956">
        <ele>1008.5603027</ele>
        <time>2010-10-23T13:45:08Z</time>
      </trkpt>
      <trkpt lat="44.06769" lon="6.30957">
        <ele>1010.0021973</ele>
        <time>2010-10-23T13:45:18Z</time>
      </trkpt>
      <trkpt lat="44.06771" lon="6.30961">
        <ele>1012.4055176</ele>
        <time>2010-10-23T13:45:25Z</time>
      </trkpt>
      <trkpt lat="44.06774" lon="6.30972">
        <ele>1016.2507324</ele>
        <time>2010-10-23T13:45:31Z</time>
      </trkpt>
      <trkpt lat="44.06779" lon="6.30985">
        <ele>1019.6154785</ele>
        <time>2010-10-23T13:45:38Z</time>
      </trkpt>
      <trkpt lat="44.06783" lon="6.31">
        <ele>1023.4609375</ele>
        <time>2010-10-23T13:45:46Z</time>
      </trkpt>
      <trkpt lat="44.06789" lon="6.31015">
        <ele>1028.267334</ele>
        <time>2010-10-23T13:45:55Z</time>
      </trkpt>
      <trkpt lat="44.06791" lon="6.31026">
        <ele>1031.1513672</ele>
        <time>2010-10-23T13:46:02Z</time>
      </trkpt>
      <trkpt lat="44.06797" lon="6.31041">
        <ele>1029.7092285</ele>
        <time>2010-10-23T13:46:09Z</time>
      </trkpt>
      <trkpt lat="44.068" lon="6.31055">
        <ele>1032.1125488</ele>
        <time>2010-10-23T13:46:16Z</time>
      </trkpt>
      <trkpt lat="44.06805" lon="6.31066">
        <ele>1035.4770508</ele>
        <time>2010-10-23T13:46:23Z</time>
      </trkpt>
      <trkpt lat="44.06806" lon="6.3107">
        <ele>1034.5158691</ele>
        <time>2010-10-23T13:46:28Z</time>
      </trkpt>
      <trkpt lat="44.06809" lon="6.31073">
        <ele>1034.5158691</ele>
        <time>2010-10-23T13:46:35Z</time>
      </trkpt>
      <trkpt lat="44.06808" lon="6.31078">
        <ele>1033.0737305</ele>
        <time>2010-10-23T13:46:40Z</time>
      </trkpt>
      <trkpt lat="44.06806" lon="6.31089">
        <ele>1030.1899414</ele>
        <time>2010-10-23T13:46:47Z</time>
      </trkpt>
      <trkpt lat="44.06805" lon="6.31094">
        <ele>1029.7092285</ele>
        <time>2010-10-23T13:46:54Z</time>
      </trkpt>
      <trkpt lat="44.06803" lon="6.31115">
        <ele>1028.7480469</ele>
        <time>2010-10-23T13:47:02Z</time>
      </trkpt>
      <trkpt lat="44.06804" lon="6.31131">
        <ele>1028.267334</ele>
        <time>2010-10-23T13:47:07Z</time>
      </trkpt>
      <trkpt lat="44.068" lon="6.31145">
        <ele>1024.4221191</ele>
        <time>2010-10-23T13:47:12Z</time>
      </trkpt>
      <trkpt lat="44.068" lon="6.31148">
        <ele>1023.9414062</ele>
        <time>2010-10-23T13:47:16Z</time>
      </trkpt>
      <trkpt lat="44.06799" lon="6.31151">
        <ele>1022.9802246</ele>
        <time>2010-10-23T13:47:19Z</time>
      </trkpt>
      <trkpt lat="44.06798" lon="6.31157">
        <ele>1023.4609375</ele>
        <time>2010-10-23T13:47:25Z</time>
      </trkpt>
      <trkpt lat="44.06789" lon="6.31163">
        <ele>1025.3833008</ele>
        <time>2010-10-23T13:47:32Z</time>
      </trkpt>
      <trkpt lat="44.06784" lon="6.31172">
        <ele>1027.7866211</ele>
        <time>2010-10-23T13:47:37Z</time>
      </trkpt>
      <trkpt lat="44.06784" lon="6.31175">
        <ele>1029.2285156</ele>
        <time>2010-10-23T13:47:42Z</time>
      </trkpt>
      <trkpt lat="44.06779" lon="6.31177">
        <ele>1030.6706543</ele>
        <time>2010-10-23T13:47:47Z</time>
      </trkpt>
      <trkpt lat="44.06769" lon="6.31178">
        <ele>1031.1513672</ele>
        <time>2010-10-23T13:47:52Z</time>
      </trkpt>
      <trkpt lat="44.06761" lon="6.31178">
        <ele>1031.6318359</ele>
        <time>2010-10-23T13:47:54Z</time>
      </trkpt>
      <trkpt lat="44.06738" lon="6.31168">
        <ele>1032.1125488</ele>
        <time>2010-10-23T13:47:59Z</time>
      </trkpt>
      <trkpt lat="44.06731" lon="6.31153">
        <ele>1033.5544434</ele>
        <time>2010-10-23T13:48:02Z</time>
      </trkpt>
      <trkpt lat="44.06719" lon="6.31124">
        <ele>1035.4770508</ele>
        <time>2010-10-23T13:48:09Z</time>
      </trkpt>
      <trkpt lat="44.06701" lon="6.311">
        <ele>1035.9577637</ele>
        <time>2010-10-23T13:48:17Z</time>
      </trkpt>
      <trkpt lat="44.06686" lon="6.31076">
        <ele>1037.3999023</ele>
        <time>2010-10-23T13:48:24Z</time>
      </trkpt>
      <trkpt lat="44.06672" lon="6.31063">
        <ele>1036.9191895</ele>
        <time>2010-10-23T13:48:29Z</time>
      </trkpt>
      <trkpt lat="44.06652" lon="6.31043">
        <ele>1034.996582</ele>
        <time>2010-10-23T13:48:34Z</time>
      </trkpt>
      <trkpt lat="44.06631" lon="6.31021">
        <ele>1035.4770508</ele>
        <time>2010-10-23T13:48:40Z</time>
      </trkpt>
      <trkpt lat="44.06607" lon="6.30998">
        <ele>1038.842041</ele>
        <time>2010-10-23T13:48:47Z</time>
      </trkpt>
      <trkpt lat="44.06593" lon="6.30985">
        <ele>1039.3225098</ele>
        <time>2010-10-23T13:48:52Z</time>
      </trkpt>
      <trkpt lat="44.0659" lon="6.30984">
        <ele>1039.3225098</ele>
        <time>2010-10-23T13:48:53Z</time>
      </trkpt>
      <trkpt lat="44.06582" lon="6.30989">
        <ele>1037.3999023</ele>
        <time>2010-10-23T13:48:59Z</time>
      </trkpt>
      <trkpt lat="44.0658" lon="6.30992">
        <ele>1035.4770508</ele>
        <time>2010-10-23T13:49:04Z</time>
      </trkpt>
      <trkpt lat="44.06579" lon="6.30992">
        <ele>1036.4387207</ele>
        <time>2010-10-23T13:49:10Z</time>
      </trkpt>
      <trkpt lat="44.06579" lon="6.30991">
        <ele>1037.8806152</ele>
        <time>2010-10-23T13:49:20Z</time>
      </trkpt>
      <trkpt lat="44.0658" lon="6.30991">
        <ele>1038.842041</ele>
        <time>2010-10-23T13:49:30Z</time>
      </trkpt>
      <trkpt lat="44.0658" lon="6.30991">
        <ele>1038.842041</ele>
        <time>2010-10-23T13:49:41Z</time>
      </trkpt>
      <trkpt lat="44.0658" lon="6.30989">
        <ele>1039.8032227</ele>
        <time>2010-10-23T13:49:56Z</time>
      </trkpt>
      <trkpt lat="44.06579" lon="6.30988">
        <ele>1039.3225098</ele>
        <time>2010-10-23T13:50:07Z</time>
      </trkpt>
      <trkpt lat="44.06579" lon="6.30988">
        <ele>1039.3225098</ele>
        <time>2010-10-23T13:50:15Z</time>
      </trkpt>
      <trkpt lat="44.06579" lon="6.30988">
        <ele>1039.8032227</ele>
        <time>2010-10-23T13:50:22Z</time>
      </trkpt>
      <trkpt lat="44.0658" lon="6.30988">
        <ele>1039.3225098</ele>
        <time>2010-10-23T13:50:29Z</time>
      </trkpt>
      <trkpt lat="44.0658" lon="6.30989">
        <ele>1039.8032227</ele>
        <time>2010-10-23T13:50:38Z</time>
      </trkpt>
      <trkpt lat="44.06581" lon="6.30989">
        <ele>1039.3225098</ele>
        <time>2010-10-23T13:50:49Z</time>
      </trkpt>
      <trkpt lat="44.06579" lon="6.30987">
        <ele>1039.8032227</ele>
        <time>2010-10-23T13:51:03Z</time>
      </trkpt>
      <trkpt lat="44.06579" lon="6.30986">
        <ele>1039.8032227</ele>
        <time>2010-10-23T13:51:17Z</time>
      </trkpt>
      <trkpt lat="44.0658" lon="6.30988">
        <ele>1039.3225098</ele>
        <time>2010-10-23T13:51:27Z</time>
      </trkpt>
      <trkpt lat="44.0658" lon="6.30987">
        <ele>1039.3225098</ele>
        <time>2010-10-23T13:51:35Z</time>
      </trkpt>
      <trkpt lat="44.0658" lon="6.30988">
        <ele>1039.3225098</ele>
        <time>2010-10-23T13:51:45Z</time>
      </trkpt>
      <trkpt lat="44.06578" lon="6.30988">
        <ele>1038.842041</ele>
        <time>2010-10-23T13:51:57Z</time>
      </trkpt>
      <trkpt lat="44.06577" lon="6.3099">
        <ele>1036.9191895</ele>
        <time>2010-10-23T13:52:15Z</time>
      </trkpt>
      <trkpt lat="44.06581" lon="6.30994">
        <ele>1036.9191895</ele>
        <time>2010-10-23T13:52:27Z</time>
      </trkpt>
      <trkpt lat="44.06581" lon="6.30993">
        <ele>1035.9577637</ele>
        <time>2010-10-23T13:52:35Z</time>
      </trkpt>
      <trkpt lat="44.0658" lon="6.30988">
        <ele>1039.8032227</ele>
        <time>2010-10-23T13:52:43Z</time>
      </trkpt>
      <trkpt lat="44.06581" lon="6.3099">
        <ele>1036.4387207</ele>
        <time>2010-10-23T13:52:56Z</time>
      </trkpt>
      <trkpt lat="44.06582" lon="6.30991">
        <ele>1029.7092285</ele>
        <time>2010-10-23T13:53:09Z</time>
      </trkpt>
      <trkpt lat="44.06582" lon="6.30992">
        <ele>1029.7092285</ele>
        <time>2010-10-23T13:53:18Z</time>
      </trkpt>
      <trkpt lat="44.06582" lon="6.30991">
        <ele>1031.6318359</ele>
        <time>2010-10-23T13:53:28Z</time>
      </trkpt>
      <trkpt lat="44.06582" lon="6.30986">
        <ele>1033.5544434</ele>
        <time>2010-10-23T13:53:35Z</time>
      </trkpt>
      <trkpt lat="44.06583" lon="6.30984">
        <ele>1033.5544434</ele>
        <time>2010-10-23T13:53:39Z</time>
      </trkpt>
    </trkseg>
  </trk>
</gpx>